<?xml version="1.0" encoding="UTF-8" standalone="no" ?>
<gpx xmlns="http://www.topografix.com/GPX/1/1" xmlns:xsi="http://www.w3.org/2001/XMLSchema-instance" xsi:schemaLocation="http://www.topografix.com/GPX/1/1 http://www.topografix.com/GPX/1/1/gpx.xsd" version="1.1" creator="VisuGPX - https://www.visugpx.com">
  <metadata>
    <name>Pornichet 25/06/2020</name>
    <desc><![CDATA[Sortie VTT du jeudi 25 juin 2020]]></desc>
  </metadata>
  <trk>
    <name><![CDATA[Pornichet Cyclisme]]></name>
    <trkseg>
      <trkpt lat="47.25725" lon="-2.31718">
        <ele>9.9</ele>
        <time>2020-06-25T07:04:14.000Z</time>
      </trkpt>
      <trkpt lat="47.25709" lon="-2.3171">
        <ele>10.9</ele>
        <time>2020-06-25T07:04:18.000Z</time>
      </trkpt>
      <trkpt lat="47.25705" lon="-2.31708">
        <ele>0.40000000596046</ele>
        <time>2020-06-25T07:04:19.000Z</time>
      </trkpt>
      <trkpt lat="47.25697" lon="-2.31703">
        <ele>0.40000000596046</ele>
        <time>2020-06-25T07:04:21.000Z</time>
      </trkpt>
      <trkpt lat="47.25693" lon="-2.31701">
        <ele>0.40000000596046</ele>
        <time>2020-06-25T07:04:22.000Z</time>
      </trkpt>
      <trkpt lat="47.25678" lon="-2.31701">
        <ele>0.40000000596046</ele>
        <time>2020-06-25T07:04:25.000Z</time>
      </trkpt>
      <trkpt lat="47.2566" lon="-2.31713">
        <ele>0.80000001192093</ele>
        <time>2020-06-25T07:04:30.000Z</time>
      </trkpt>
      <trkpt lat="47.25657" lon="-2.31717">
        <ele>1.2000000476837</ele>
        <time>2020-06-25T07:04:31.000Z</time>
      </trkpt>
      <trkpt lat="47.25649" lon="-2.31708">
        <ele>1.6000000238419</ele>
        <time>2020-06-25T07:04:32.000Z</time>
      </trkpt>
      <trkpt lat="47.25645" lon="-2.31709">
        <ele>2</ele>
        <time>2020-06-25T07:04:33.000Z</time>
      </trkpt>
      <trkpt lat="47.25642" lon="-2.31711">
        <ele>2.5999999046326</ele>
        <time>2020-06-25T07:04:34.000Z</time>
      </trkpt>
      <trkpt lat="47.25629" lon="-2.31729">
        <ele>2.5999999046326</ele>
        <time>2020-06-25T07:04:39.000Z</time>
      </trkpt>
      <trkpt lat="47.25628" lon="-2.31735">
        <ele>3</ele>
        <time>2020-06-25T07:04:40.000Z</time>
      </trkpt>
      <trkpt lat="47.25627" lon="-2.31741">
        <ele>3.4000000953674</ele>
        <time>2020-06-25T07:04:41.000Z</time>
      </trkpt>
      <trkpt lat="47.25626" lon="-2.31747">
        <ele>3.7999999523163</ele>
        <time>2020-06-25T07:04:42.000Z</time>
      </trkpt>
      <trkpt lat="47.25623" lon="-2.31753">
        <ele>4.1999998092651</ele>
        <time>2020-06-25T07:04:43.000Z</time>
      </trkpt>
      <trkpt lat="47.25621" lon="-2.31758">
        <ele>4.8000001907349</ele>
        <time>2020-06-25T07:04:44.000Z</time>
      </trkpt>
      <trkpt lat="47.25604" lon="-2.31767">
        <ele>4.8000001907349</ele>
        <time>2020-06-25T07:04:48.000Z</time>
      </trkpt>
      <trkpt lat="47.25595" lon="-2.31766">
        <ele>4.8000001907349</ele>
        <time>2020-06-25T07:04:50.000Z</time>
      </trkpt>
      <trkpt lat="47.25591" lon="-2.31767">
        <ele>4.8000001907349</ele>
        <time>2020-06-25T07:04:51.000Z</time>
      </trkpt>
      <trkpt lat="47.25586" lon="-2.31769">
        <ele>4.8000001907349</ele>
        <time>2020-06-25T07:04:52.000Z</time>
      </trkpt>
      <trkpt lat="47.25568" lon="-2.31782">
        <ele>4.8000001907349</ele>
        <time>2020-06-25T07:04:57.000Z</time>
      </trkpt>
      <trkpt lat="47.25566" lon="-2.31788">
        <ele>4.8000001907349</ele>
        <time>2020-06-25T07:04:58.000Z</time>
      </trkpt>
      <trkpt lat="47.2556" lon="-2.31802">
        <ele>5.1999998092651</ele>
        <time>2020-06-25T07:05:01.000Z</time>
      </trkpt>
      <trkpt lat="47.25556" lon="-2.31804">
        <ele>5.5999999046326</ele>
        <time>2020-06-25T07:05:02.000Z</time>
      </trkpt>
      <trkpt lat="47.25553" lon="-2.31805">
        <ele>6</ele>
        <time>2020-06-25T07:05:03.000Z</time>
      </trkpt>
      <trkpt lat="47.25549" lon="-2.31806">
        <ele>6.4000000953674</ele>
        <time>2020-06-25T07:05:04.000Z</time>
      </trkpt>
      <trkpt lat="47.25545" lon="-2.31806">
        <ele>6.8000001907349</ele>
        <time>2020-06-25T07:05:05.000Z</time>
      </trkpt>
      <trkpt lat="47.25541" lon="-2.31807">
        <ele>6.8000001907349</ele>
        <time>2020-06-25T07:05:06.000Z</time>
      </trkpt>
      <trkpt lat="47.25525" lon="-2.31812">
        <ele>6.8000001907349</ele>
        <time>2020-06-25T07:05:11.000Z</time>
      </trkpt>
      <trkpt lat="47.25507" lon="-2.31822">
        <ele>6.8000001907349</ele>
        <time>2020-06-25T07:05:17.000Z</time>
      </trkpt>
      <trkpt lat="47.25513" lon="-2.31827">
        <ele>6.8000001907349</ele>
        <time>2020-06-25T07:05:20.000Z</time>
      </trkpt>
      <trkpt lat="47.2552" lon="-2.31825">
        <ele>6.8000001907349</ele>
        <time>2020-06-25T07:05:23.000Z</time>
      </trkpt>
      <trkpt lat="47.25524" lon="-2.31827">
        <ele>6.8000001907349</ele>
        <time>2020-06-25T07:05:25.000Z</time>
      </trkpt>
      <trkpt lat="47.25525" lon="-2.3183">
        <ele>6.8000001907349</ele>
        <time>2020-06-25T07:05:29.000Z</time>
      </trkpt>
      <trkpt lat="47.25517" lon="-2.31827">
        <ele>6.8000001907349</ele>
        <time>2020-06-25T07:08:12.000Z</time>
      </trkpt>
      <trkpt lat="47.25513" lon="-2.31828">
        <ele>6.8000001907349</ele>
        <time>2020-06-25T07:08:14.000Z</time>
      </trkpt>
      <trkpt lat="47.25509" lon="-2.31819">
        <ele>6.8000001907349</ele>
        <time>2020-06-25T07:08:19.000Z</time>
      </trkpt>
      <trkpt lat="47.25513" lon="-2.31815">
        <ele>6.8000001907349</ele>
        <time>2020-06-25T07:08:23.000Z</time>
      </trkpt>
      <trkpt lat="47.25517" lon="-2.31813">
        <ele>6.8000001907349</ele>
        <time>2020-06-25T07:08:27.000Z</time>
      </trkpt>
      <trkpt lat="47.25519" lon="-2.3181">
        <ele>6.8000001907349</ele>
        <time>2020-06-25T07:08:30.000Z</time>
      </trkpt>
      <trkpt lat="47.25525" lon="-2.3181">
        <ele>6.8000001907349</ele>
        <time>2020-06-25T07:08:37.000Z</time>
      </trkpt>
      <trkpt lat="47.25532" lon="-2.31806">
        <ele>6.8000001907349</ele>
        <time>2020-06-25T07:08:46.000Z</time>
      </trkpt>
      <trkpt lat="47.25536" lon="-2.31804">
        <ele>6.8000001907349</ele>
        <time>2020-06-25T07:08:48.000Z</time>
      </trkpt>
      <trkpt lat="47.25539" lon="-2.31803">
        <ele>6.8000001907349</ele>
        <time>2020-06-25T07:08:49.000Z</time>
      </trkpt>
      <trkpt lat="47.25554" lon="-2.31799">
        <ele>6.8000001907349</ele>
        <time>2020-06-25T07:08:55.000Z</time>
      </trkpt>
      <trkpt lat="47.25561" lon="-2.31793">
        <ele>6.8000001907349</ele>
        <time>2020-06-25T07:08:59.000Z</time>
      </trkpt>
      <trkpt lat="47.25562" lon="-2.3179">
        <ele>6.8000001907349</ele>
        <time>2020-06-25T07:09:00.000Z</time>
      </trkpt>
      <trkpt lat="47.25572" lon="-2.31773">
        <ele>6.8000001907349</ele>
        <time>2020-06-25T07:09:05.000Z</time>
      </trkpt>
      <trkpt lat="47.25588" lon="-2.31753">
        <ele>6.8000001907349</ele>
        <time>2020-06-25T07:09:11.000Z</time>
      </trkpt>
      <trkpt lat="47.25589" lon="-2.31751">
        <ele>6.8000001907349</ele>
        <time>2020-06-25T07:09:12.000Z</time>
      </trkpt>
      <trkpt lat="47.25589" lon="-2.31744">
        <ele>6.8000001907349</ele>
        <time>2020-06-25T07:09:15.000Z</time>
      </trkpt>
      <trkpt lat="47.25592" lon="-2.31732">
        <ele>6.8000001907349</ele>
        <time>2020-06-25T07:09:18.000Z</time>
      </trkpt>
      <trkpt lat="47.25594" lon="-2.31727">
        <ele>6.8000001907349</ele>
        <time>2020-06-25T07:09:19.000Z</time>
      </trkpt>
      <trkpt lat="47.25599" lon="-2.31718">
        <ele>6.8000001907349</ele>
        <time>2020-06-25T07:09:21.000Z</time>
      </trkpt>
      <trkpt lat="47.25611" lon="-2.31711">
        <ele>6.8000001907349</ele>
        <time>2020-06-25T07:09:24.000Z</time>
      </trkpt>
      <trkpt lat="47.25621" lon="-2.3171">
        <ele>6.8000001907349</ele>
        <time>2020-06-25T07:09:26.000Z</time>
      </trkpt>
      <trkpt lat="47.25637" lon="-2.31706">
        <ele>6.8000001907349</ele>
        <time>2020-06-25T07:09:29.000Z</time>
      </trkpt>
      <trkpt lat="47.25655" lon="-2.31688">
        <ele>6.4000000953674</ele>
        <time>2020-06-25T07:09:33.000Z</time>
      </trkpt>
      <trkpt lat="47.25657" lon="-2.31682">
        <ele>5.8000001907349</ele>
        <time>2020-06-25T07:09:34.000Z</time>
      </trkpt>
      <trkpt lat="47.25659" lon="-2.31676">
        <ele>5.4000000953674</ele>
        <time>2020-06-25T07:09:35.000Z</time>
      </trkpt>
      <trkpt lat="47.25661" lon="-2.31669">
        <ele>4.8000001907349</ele>
        <time>2020-06-25T07:09:36.000Z</time>
      </trkpt>
      <trkpt lat="47.25663" lon="-2.31665">
        <ele>4.4000000953674</ele>
        <time>2020-06-25T07:09:37.000Z</time>
      </trkpt>
      <trkpt lat="47.25675" lon="-2.31668">
        <ele>4.4000000953674</ele>
        <time>2020-06-25T07:09:40.000Z</time>
      </trkpt>
      <trkpt lat="47.25695" lon="-2.3168">
        <ele>4.4000000953674</ele>
        <time>2020-06-25T07:09:44.000Z</time>
      </trkpt>
      <trkpt lat="47.257" lon="-2.31683">
        <ele>4</ele>
        <time>2020-06-25T07:09:45.000Z</time>
      </trkpt>
      <trkpt lat="47.25706" lon="-2.31686">
        <ele>3.5999999046326</ele>
        <time>2020-06-25T07:09:46.000Z</time>
      </trkpt>
      <trkpt lat="47.25711" lon="-2.3169">
        <ele>3.2000000476837</ele>
        <time>2020-06-25T07:09:47.000Z</time>
      </trkpt>
      <trkpt lat="47.25717" lon="-2.31694">
        <ele>2.4000000953674</ele>
        <time>2020-06-25T07:09:48.000Z</time>
      </trkpt>
      <trkpt lat="47.25726" lon="-2.317">
        <ele>2.4000000953674</ele>
        <time>2020-06-25T07:09:50.000Z</time>
      </trkpt>
      <trkpt lat="47.25743" lon="-2.31691">
        <ele>2.4000000953674</ele>
        <time>2020-06-25T07:09:53.000Z</time>
      </trkpt>
      <trkpt lat="47.25748" lon="-2.31687">
        <ele>2.4000000953674</ele>
        <time>2020-06-25T07:09:54.000Z</time>
      </trkpt>
      <trkpt lat="47.25769" lon="-2.31672">
        <ele>2.4000000953674</ele>
        <time>2020-06-25T07:09:59.000Z</time>
      </trkpt>
      <trkpt lat="47.25799" lon="-2.31648">
        <ele>2.4000000953674</ele>
        <time>2020-06-25T07:10:06.000Z</time>
      </trkpt>
      <trkpt lat="47.25835" lon="-2.3162">
        <ele>2.4000000953674</ele>
        <time>2020-06-25T07:10:15.000Z</time>
      </trkpt>
      <trkpt lat="47.25838" lon="-2.31616">
        <ele>2.4000000953674</ele>
        <time>2020-06-25T07:10:16.000Z</time>
      </trkpt>
      <trkpt lat="47.25863" lon="-2.31592">
        <ele>2.4000000953674</ele>
        <time>2020-06-25T07:10:22.000Z</time>
      </trkpt>
      <trkpt lat="47.2589" lon="-2.31558">
        <ele>2.4000000953674</ele>
        <time>2020-06-25T07:10:28.000Z</time>
      </trkpt>
      <trkpt lat="47.25899" lon="-2.31533">
        <ele>2.4000000953674</ele>
        <time>2020-06-25T07:10:32.000Z</time>
      </trkpt>
      <trkpt lat="47.25904" lon="-2.31522">
        <ele>2</ele>
        <time>2020-06-25T07:10:35.000Z</time>
      </trkpt>
      <trkpt lat="47.25906" lon="-2.3152">
        <ele>1.6000000238419</ele>
        <time>2020-06-25T07:10:36.000Z</time>
      </trkpt>
      <trkpt lat="47.25907" lon="-2.31519">
        <ele>0.80000001192093</ele>
        <time>2020-06-25T07:10:37.000Z</time>
      </trkpt>
      <trkpt lat="47.25909" lon="-2.31518">
        <ele>0.40000000596046</ele>
        <time>2020-06-25T07:10:38.000Z</time>
      </trkpt>
      <trkpt lat="47.25912" lon="-2.31516">
        <ele>0.40000000596046</ele>
        <time>2020-06-25T07:10:41.000Z</time>
      </trkpt>
      <trkpt lat="47.25912" lon="-2.31513">
        <ele>0.40000000596046</ele>
        <time>2020-06-25T07:10:42.000Z</time>
      </trkpt>
      <trkpt lat="47.25912" lon="-2.31506">
        <ele>0.40000000596046</ele>
        <time>2020-06-25T07:10:47.000Z</time>
      </trkpt>
      <trkpt lat="47.25913" lon="-2.31505">
        <ele>0.40000000596046</ele>
        <time>2020-06-25T07:10:48.000Z</time>
      </trkpt>
      <trkpt lat="47.25918" lon="-2.31491">
        <ele>0.40000000596046</ele>
        <time>2020-06-25T07:10:52.000Z</time>
      </trkpt>
      <trkpt lat="47.25931" lon="-2.3146">
        <ele>0.40000000596046</ele>
        <time>2020-06-25T07:11:00.000Z</time>
      </trkpt>
      <trkpt lat="47.25935" lon="-2.31457">
        <ele>0.40000000596046</ele>
        <time>2020-06-25T07:11:02.000Z</time>
      </trkpt>
      <trkpt lat="47.25941" lon="-2.3146">
        <ele>0.40000000596046</ele>
        <time>2020-06-25T07:11:04.000Z</time>
      </trkpt>
      <trkpt lat="47.25948" lon="-2.31466">
        <ele>0.40000000596046</ele>
        <time>2020-06-25T07:11:06.000Z</time>
      </trkpt>
      <trkpt lat="47.25959" lon="-2.31477">
        <ele>0.40000000596046</ele>
        <time>2020-06-25T07:11:09.000Z</time>
      </trkpt>
      <trkpt lat="47.25969" lon="-2.3149">
        <ele>0.40000000596046</ele>
        <time>2020-06-25T07:11:12.000Z</time>
      </trkpt>
      <trkpt lat="47.25977" lon="-2.31507">
        <ele>0.40000000596046</ele>
        <time>2020-06-25T07:11:15.000Z</time>
      </trkpt>
      <trkpt lat="47.25996" lon="-2.31543">
        <ele>0.40000000596046</ele>
        <time>2020-06-25T07:11:22.000Z</time>
      </trkpt>
      <trkpt lat="47.26003" lon="-2.31553">
        <ele>0.40000000596046</ele>
        <time>2020-06-25T07:11:24.000Z</time>
      </trkpt>
      <trkpt lat="47.26014" lon="-2.31566">
        <ele>0.40000000596046</ele>
        <time>2020-06-25T07:11:28.000Z</time>
      </trkpt>
      <trkpt lat="47.26017" lon="-2.31563">
        <ele>0.40000000596046</ele>
        <time>2020-06-25T07:11:29.000Z</time>
      </trkpt>
      <trkpt lat="47.26024" lon="-2.31555">
        <ele>0.40000000596046</ele>
        <time>2020-06-25T07:11:31.000Z</time>
      </trkpt>
      <trkpt lat="47.26034" lon="-2.3153">
        <ele>0.40000000596046</ele>
        <time>2020-06-25T07:11:36.000Z</time>
      </trkpt>
      <trkpt lat="47.26043" lon="-2.31515">
        <ele>0.40000000596046</ele>
        <time>2020-06-25T07:11:42.000Z</time>
      </trkpt>
      <trkpt lat="47.26044" lon="-2.31518">
        <ele>-0.20000000298023</ele>
        <time>2020-06-25T07:11:43.000Z</time>
      </trkpt>
      <trkpt lat="47.26047" lon="-2.31524">
        <ele>-0.60000002384186</ele>
        <time>2020-06-25T07:11:44.000Z</time>
      </trkpt>
      <trkpt lat="47.2605" lon="-2.31529">
        <ele>-1</ele>
        <time>2020-06-25T07:11:45.000Z</time>
      </trkpt>
      <trkpt lat="47.26055" lon="-2.31537">
        <ele>-1.3999999761581</ele>
        <time>2020-06-25T07:11:46.000Z</time>
      </trkpt>
      <trkpt lat="47.26059" lon="-2.31545">
        <ele>-1.7999999523163</ele>
        <time>2020-06-25T07:11:47.000Z</time>
      </trkpt>
      <trkpt lat="47.26064" lon="-2.31553">
        <ele>-1.7999999523163</ele>
        <time>2020-06-25T07:11:48.000Z</time>
      </trkpt>
      <trkpt lat="47.26067" lon="-2.31561">
        <ele>-1.7999999523163</ele>
        <time>2020-06-25T07:11:49.000Z</time>
      </trkpt>
      <trkpt lat="47.26076" lon="-2.31576">
        <ele>-1.7999999523163</ele>
        <time>2020-06-25T07:11:52.000Z</time>
      </trkpt>
      <trkpt lat="47.26092" lon="-2.31591">
        <ele>-1.7999999523163</ele>
        <time>2020-06-25T07:11:56.000Z</time>
      </trkpt>
      <trkpt lat="47.26104" lon="-2.31613">
        <ele>-1.7999999523163</ele>
        <time>2020-06-25T07:12:00.000Z</time>
      </trkpt>
      <trkpt lat="47.2611" lon="-2.31621">
        <ele>-2.2000000476837</ele>
        <time>2020-06-25T07:12:02.000Z</time>
      </trkpt>
      <trkpt lat="47.26113" lon="-2.31621">
        <ele>-2.5999999046326</ele>
        <time>2020-06-25T07:12:03.000Z</time>
      </trkpt>
      <trkpt lat="47.26117" lon="-2.31619">
        <ele>-3.2000000476837</ele>
        <time>2020-06-25T07:12:04.000Z</time>
      </trkpt>
      <trkpt lat="47.26121" lon="-2.31617">
        <ele>-3.5999999046326</ele>
        <time>2020-06-25T07:12:05.000Z</time>
      </trkpt>
      <trkpt lat="47.26125" lon="-2.31614">
        <ele>-4</ele>
        <time>2020-06-25T07:12:06.000Z</time>
      </trkpt>
      <trkpt lat="47.2613" lon="-2.31612">
        <ele>-4</ele>
        <time>2020-06-25T07:12:07.000Z</time>
      </trkpt>
      <trkpt lat="47.26135" lon="-2.31612">
        <ele>-4</ele>
        <time>2020-06-25T07:12:08.000Z</time>
      </trkpt>
      <trkpt lat="47.26162" lon="-2.31604">
        <ele>-4</ele>
        <time>2020-06-25T07:12:13.000Z</time>
      </trkpt>
      <trkpt lat="47.26209" lon="-2.31588">
        <ele>-4</ele>
        <time>2020-06-25T07:12:21.000Z</time>
      </trkpt>
      <trkpt lat="47.26214" lon="-2.31589">
        <ele>-4</ele>
        <time>2020-06-25T07:12:22.000Z</time>
      </trkpt>
      <trkpt lat="47.2623" lon="-2.31597">
        <ele>-4</ele>
        <time>2020-06-25T07:12:25.000Z</time>
      </trkpt>
      <trkpt lat="47.2624" lon="-2.31605">
        <ele>-4</ele>
        <time>2020-06-25T07:12:27.000Z</time>
      </trkpt>
      <trkpt lat="47.2625" lon="-2.31615">
        <ele>-4</ele>
        <time>2020-06-25T07:12:29.000Z</time>
      </trkpt>
      <trkpt lat="47.26254" lon="-2.3162">
        <ele>-4</ele>
        <time>2020-06-25T07:12:30.000Z</time>
      </trkpt>
      <trkpt lat="47.26265" lon="-2.31646">
        <ele>-4</ele>
        <time>2020-06-25T07:12:34.000Z</time>
      </trkpt>
      <trkpt lat="47.2629" lon="-2.31694">
        <ele>-4</ele>
        <time>2020-06-25T07:12:41.000Z</time>
      </trkpt>
      <trkpt lat="47.26301" lon="-2.31714">
        <ele>-4</ele>
        <time>2020-06-25T07:12:44.000Z</time>
      </trkpt>
      <trkpt lat="47.26301" lon="-2.3173">
        <ele>-4</ele>
        <time>2020-06-25T07:12:46.000Z</time>
      </trkpt>
      <trkpt lat="47.26305" lon="-2.31768">
        <ele>-4</ele>
        <time>2020-06-25T07:12:51.000Z</time>
      </trkpt>
      <trkpt lat="47.26306" lon="-2.31801">
        <ele>-4</ele>
        <time>2020-06-25T07:12:55.000Z</time>
      </trkpt>
      <trkpt lat="47.26305" lon="-2.31818">
        <ele>-4</ele>
        <time>2020-06-25T07:12:57.000Z</time>
      </trkpt>
      <trkpt lat="47.263" lon="-2.31868">
        <ele>-4</ele>
        <time>2020-06-25T07:13:03.000Z</time>
      </trkpt>
      <trkpt lat="47.263" lon="-2.31893">
        <ele>-4</ele>
        <time>2020-06-25T07:13:06.000Z</time>
      </trkpt>
      <trkpt lat="47.26301" lon="-2.31908">
        <ele>-4</ele>
        <time>2020-06-25T07:13:08.000Z</time>
      </trkpt>
      <trkpt lat="47.26303" lon="-2.31922">
        <ele>-4</ele>
        <time>2020-06-25T07:13:10.000Z</time>
      </trkpt>
      <trkpt lat="47.26308" lon="-2.3193">
        <ele>-4</ele>
        <time>2020-06-25T07:13:12.000Z</time>
      </trkpt>
      <trkpt lat="47.26317" lon="-2.31929">
        <ele>-4</ele>
        <time>2020-06-25T07:13:15.000Z</time>
      </trkpt>
      <trkpt lat="47.26323" lon="-2.31928">
        <ele>-4</ele>
        <time>2020-06-25T07:13:17.000Z</time>
      </trkpt>
      <trkpt lat="47.26334" lon="-2.31931">
        <ele>-4</ele>
        <time>2020-06-25T07:13:20.000Z</time>
      </trkpt>
      <trkpt lat="47.26337" lon="-2.31934">
        <ele>-4</ele>
        <time>2020-06-25T07:13:21.000Z</time>
      </trkpt>
      <trkpt lat="47.26343" lon="-2.31949">
        <ele>-4</ele>
        <time>2020-06-25T07:13:24.000Z</time>
      </trkpt>
      <trkpt lat="47.26356" lon="-2.31973">
        <ele>-4</ele>
        <time>2020-06-25T07:13:29.000Z</time>
      </trkpt>
      <trkpt lat="47.2636" lon="-2.31976">
        <ele>-3.5999999046326</ele>
        <time>2020-06-25T07:13:30.000Z</time>
      </trkpt>
      <trkpt lat="47.26364" lon="-2.31977">
        <ele>-2.7999999523163</ele>
        <time>2020-06-25T07:13:31.000Z</time>
      </trkpt>
      <trkpt lat="47.26368" lon="-2.31979">
        <ele>-2.2000000476837</ele>
        <time>2020-06-25T07:13:32.000Z</time>
      </trkpt>
      <trkpt lat="47.26372" lon="-2.3198">
        <ele>-1.7999999523163</ele>
        <time>2020-06-25T07:13:33.000Z</time>
      </trkpt>
      <trkpt lat="47.26385" lon="-2.31983">
        <ele>-1.7999999523163</ele>
        <time>2020-06-25T07:13:37.000Z</time>
      </trkpt>
      <trkpt lat="47.26392" lon="-2.31985">
        <ele>-1.3999999761581</ele>
        <time>2020-06-25T07:13:39.000Z</time>
      </trkpt>
      <trkpt lat="47.26394" lon="-2.31986">
        <ele>-1</ele>
        <time>2020-06-25T07:13:40.000Z</time>
      </trkpt>
      <trkpt lat="47.26397" lon="-2.31987">
        <ele>-0.60000002384186</ele>
        <time>2020-06-25T07:13:41.000Z</time>
      </trkpt>
      <trkpt lat="47.264" lon="-2.31989">
        <ele>-0.20000000298023</ele>
        <time>2020-06-25T07:13:42.000Z</time>
      </trkpt>
      <trkpt lat="47.26402" lon="-2.3199">
        <ele>0.20000000298023</ele>
        <time>2020-06-25T07:13:43.000Z</time>
      </trkpt>
      <trkpt lat="47.26409" lon="-2.31991">
        <ele>0.20000000298023</ele>
        <time>2020-06-25T07:13:45.000Z</time>
      </trkpt>
      <trkpt lat="47.26415" lon="-2.31991">
        <ele>0.20000000298023</ele>
        <time>2020-06-25T07:13:47.000Z</time>
      </trkpt>
      <trkpt lat="47.26426" lon="-2.31993">
        <ele>0.60000002384186</ele>
        <time>2020-06-25T07:13:50.000Z</time>
      </trkpt>
      <trkpt lat="47.2643" lon="-2.31993">
        <ele>1</ele>
        <time>2020-06-25T07:13:51.000Z</time>
      </trkpt>
      <trkpt lat="47.26434" lon="-2.31994">
        <ele>1.3999999761581</ele>
        <time>2020-06-25T07:13:52.000Z</time>
      </trkpt>
      <trkpt lat="47.26437" lon="-2.31994">
        <ele>2</ele>
        <time>2020-06-25T07:13:53.000Z</time>
      </trkpt>
      <trkpt lat="47.2644" lon="-2.31994">
        <ele>2.4000000953674</ele>
        <time>2020-06-25T07:13:54.000Z</time>
      </trkpt>
      <trkpt lat="47.26444" lon="-2.31995">
        <ele>2.4000000953674</ele>
        <time>2020-06-25T07:13:55.000Z</time>
      </trkpt>
      <trkpt lat="47.26461" lon="-2.31995">
        <ele>2.7999999523163</ele>
        <time>2020-06-25T07:14:00.000Z</time>
      </trkpt>
      <trkpt lat="47.26465" lon="-2.31996">
        <ele>3.2000000476837</ele>
        <time>2020-06-25T07:14:01.000Z</time>
      </trkpt>
      <trkpt lat="47.26468" lon="-2.31996">
        <ele>3.5999999046326</ele>
        <time>2020-06-25T07:14:02.000Z</time>
      </trkpt>
      <trkpt lat="47.26471" lon="-2.31997">
        <ele>4</ele>
        <time>2020-06-25T07:14:03.000Z</time>
      </trkpt>
      <trkpt lat="47.26474" lon="-2.31997">
        <ele>4.4000000953674</ele>
        <time>2020-06-25T07:14:04.000Z</time>
      </trkpt>
      <trkpt lat="47.26493" lon="-2.31997">
        <ele>4.4000000953674</ele>
        <time>2020-06-25T07:14:09.000Z</time>
      </trkpt>
      <trkpt lat="47.26507" lon="-2.31997">
        <ele>4.8000001907349</ele>
        <time>2020-06-25T07:14:13.000Z</time>
      </trkpt>
      <trkpt lat="47.26509" lon="-2.31996">
        <ele>5.4000000953674</ele>
        <time>2020-06-25T07:14:14.000Z</time>
      </trkpt>
      <trkpt lat="47.26512" lon="-2.31996">
        <ele>5.8000001907349</ele>
        <time>2020-06-25T07:14:15.000Z</time>
      </trkpt>
      <trkpt lat="47.26513" lon="-2.31997">
        <ele>6.1999998092651</ele>
        <time>2020-06-25T07:14:16.000Z</time>
      </trkpt>
      <trkpt lat="47.26515" lon="-2.31997">
        <ele>6.5999999046326</ele>
        <time>2020-06-25T07:14:17.000Z</time>
      </trkpt>
      <trkpt lat="47.26523" lon="-2.31999">
        <ele>7.4000000953674</ele>
        <time>2020-06-25T07:14:21.000Z</time>
      </trkpt>
      <trkpt lat="47.26526" lon="-2.32">
        <ele>7.8000001907349</ele>
        <time>2020-06-25T07:14:22.000Z</time>
      </trkpt>
      <trkpt lat="47.26528" lon="-2.32002">
        <ele>8.1999998092651</ele>
        <time>2020-06-25T07:14:23.000Z</time>
      </trkpt>
      <trkpt lat="47.2653" lon="-2.32003">
        <ele>8.8000001907349</ele>
        <time>2020-06-25T07:14:24.000Z</time>
      </trkpt>
      <trkpt lat="47.26532" lon="-2.32006">
        <ele>8.8000001907349</ele>
        <time>2020-06-25T07:14:25.000Z</time>
      </trkpt>
      <trkpt lat="47.26536" lon="-2.32012">
        <ele>8.8000001907349</ele>
        <time>2020-06-25T07:14:27.000Z</time>
      </trkpt>
      <trkpt lat="47.26544" lon="-2.32029">
        <ele>8.8000001907349</ele>
        <time>2020-06-25T07:14:33.000Z</time>
      </trkpt>
      <trkpt lat="47.26547" lon="-2.32035">
        <ele>8.8000001907349</ele>
        <time>2020-06-25T07:14:35.000Z</time>
      </trkpt>
      <trkpt lat="47.26551" lon="-2.32037">
        <ele>9.1999998092651</ele>
        <time>2020-06-25T07:14:37.000Z</time>
      </trkpt>
      <trkpt lat="47.26555" lon="-2.32036">
        <ele>9.6000003814697</ele>
        <time>2020-06-25T07:14:38.000Z</time>
      </trkpt>
      <trkpt lat="47.26558" lon="-2.32035">
        <ele>10</ele>
        <time>2020-06-25T07:14:39.000Z</time>
      </trkpt>
      <trkpt lat="47.26561" lon="-2.32034">
        <ele>10.39999961853</ele>
        <time>2020-06-25T07:14:40.000Z</time>
      </trkpt>
      <trkpt lat="47.26565" lon="-2.32033">
        <ele>10.800000190735</ele>
        <time>2020-06-25T07:14:41.000Z</time>
      </trkpt>
      <trkpt lat="47.26568" lon="-2.32032">
        <ele>10.800000190735</ele>
        <time>2020-06-25T07:14:42.000Z</time>
      </trkpt>
      <trkpt lat="47.2659" lon="-2.32026">
        <ele>11.199999809265</ele>
        <time>2020-06-25T07:14:48.000Z</time>
      </trkpt>
      <trkpt lat="47.26593" lon="-2.32024">
        <ele>11.60000038147</ele>
        <time>2020-06-25T07:14:49.000Z</time>
      </trkpt>
      <trkpt lat="47.26597" lon="-2.32023">
        <ele>12</ele>
        <time>2020-06-25T07:14:50.000Z</time>
      </trkpt>
      <trkpt lat="47.266" lon="-2.32021">
        <ele>12.39999961853</ele>
        <time>2020-06-25T07:14:51.000Z</time>
      </trkpt>
      <trkpt lat="47.26604" lon="-2.3202">
        <ele>12.800000190735</ele>
        <time>2020-06-25T07:14:52.000Z</time>
      </trkpt>
      <trkpt lat="47.26622" lon="-2.32013">
        <ele>12.800000190735</ele>
        <time>2020-06-25T07:14:57.000Z</time>
      </trkpt>
      <trkpt lat="47.26645" lon="-2.32008">
        <ele>12.800000190735</ele>
        <time>2020-06-25T07:15:04.000Z</time>
      </trkpt>
      <trkpt lat="47.26651" lon="-2.32023">
        <ele>12.800000190735</ele>
        <time>2020-06-25T07:15:07.000Z</time>
      </trkpt>
      <trkpt lat="47.2666" lon="-2.32054">
        <ele>12.800000190735</ele>
        <time>2020-06-25T07:15:12.000Z</time>
      </trkpt>
      <trkpt lat="47.26662" lon="-2.32062">
        <ele>12.800000190735</ele>
        <time>2020-06-25T07:15:13.000Z</time>
      </trkpt>
      <trkpt lat="47.26674" lon="-2.3212">
        <ele>12.800000190735</ele>
        <time>2020-06-25T07:15:22.000Z</time>
      </trkpt>
      <trkpt lat="47.26678" lon="-2.32126">
        <ele>12.800000190735</ele>
        <time>2020-06-25T07:15:24.000Z</time>
      </trkpt>
      <trkpt lat="47.2668" lon="-2.32126">
        <ele>12.800000190735</ele>
        <time>2020-06-25T07:15:25.000Z</time>
      </trkpt>
      <trkpt lat="47.26682" lon="-2.32123">
        <ele>12.800000190735</ele>
        <time>2020-06-25T07:15:26.000Z</time>
      </trkpt>
      <trkpt lat="47.26685" lon="-2.32116">
        <ele>12.800000190735</ele>
        <time>2020-06-25T07:15:28.000Z</time>
      </trkpt>
      <trkpt lat="47.26687" lon="-2.32103">
        <ele>12.800000190735</ele>
        <time>2020-06-25T07:15:31.000Z</time>
      </trkpt>
      <trkpt lat="47.26686" lon="-2.32091">
        <ele>12.800000190735</ele>
        <time>2020-06-25T07:15:33.000Z</time>
      </trkpt>
      <trkpt lat="47.26687" lon="-2.32054">
        <ele>12.800000190735</ele>
        <time>2020-06-25T07:15:41.000Z</time>
      </trkpt>
      <trkpt lat="47.26689" lon="-2.32038">
        <ele>12.800000190735</ele>
        <time>2020-06-25T07:15:46.000Z</time>
      </trkpt>
      <trkpt lat="47.267" lon="-2.32012">
        <ele>12.800000190735</ele>
        <time>2020-06-25T07:15:52.000Z</time>
      </trkpt>
      <trkpt lat="47.26705" lon="-2.32004">
        <ele>12.800000190735</ele>
        <time>2020-06-25T07:15:54.000Z</time>
      </trkpt>
      <trkpt lat="47.26712" lon="-2.32">
        <ele>12.800000190735</ele>
        <time>2020-06-25T07:15:56.000Z</time>
      </trkpt>
      <trkpt lat="47.26735" lon="-2.31985">
        <ele>12.800000190735</ele>
        <time>2020-06-25T07:16:01.000Z</time>
      </trkpt>
      <trkpt lat="47.26748" lon="-2.31973">
        <ele>12.800000190735</ele>
        <time>2020-06-25T07:16:04.000Z</time>
      </trkpt>
      <trkpt lat="47.26754" lon="-2.31963">
        <ele>12.800000190735</ele>
        <time>2020-06-25T07:16:06.000Z</time>
      </trkpt>
      <trkpt lat="47.26762" lon="-2.31949">
        <ele>12.800000190735</ele>
        <time>2020-06-25T07:16:09.000Z</time>
      </trkpt>
      <trkpt lat="47.26765" lon="-2.31949">
        <ele>12.800000190735</ele>
        <time>2020-06-25T07:16:10.000Z</time>
      </trkpt>
      <trkpt lat="47.26768" lon="-2.31953">
        <ele>12.199999809265</ele>
        <time>2020-06-25T07:16:12.000Z</time>
      </trkpt>
      <trkpt lat="47.2677" lon="-2.31957">
        <ele>11.800000190735</ele>
        <time>2020-06-25T07:16:13.000Z</time>
      </trkpt>
      <trkpt lat="47.26772" lon="-2.3196">
        <ele>11.39999961853</ele>
        <time>2020-06-25T07:16:14.000Z</time>
      </trkpt>
      <trkpt lat="47.26774" lon="-2.31964">
        <ele>11</ele>
        <time>2020-06-25T07:16:15.000Z</time>
      </trkpt>
      <trkpt lat="47.26776" lon="-2.31968">
        <ele>10.60000038147</ele>
        <time>2020-06-25T07:16:16.000Z</time>
      </trkpt>
      <trkpt lat="47.26787" lon="-2.31986">
        <ele>10.60000038147</ele>
        <time>2020-06-25T07:16:20.000Z</time>
      </trkpt>
      <trkpt lat="47.26803" lon="-2.32014">
        <ele>10.199999809265</ele>
        <time>2020-06-25T07:16:25.000Z</time>
      </trkpt>
      <trkpt lat="47.26806" lon="-2.3202">
        <ele>9.8000001907349</ele>
        <time>2020-06-25T07:16:26.000Z</time>
      </trkpt>
      <trkpt lat="47.26808" lon="-2.32026">
        <ele>9.1999998092651</ele>
        <time>2020-06-25T07:16:27.000Z</time>
      </trkpt>
      <trkpt lat="47.2681" lon="-2.32033">
        <ele>8.8000001907349</ele>
        <time>2020-06-25T07:16:28.000Z</time>
      </trkpt>
      <trkpt lat="47.26813" lon="-2.3204">
        <ele>8.3999996185303</ele>
        <time>2020-06-25T07:16:29.000Z</time>
      </trkpt>
      <trkpt lat="47.26819" lon="-2.32063">
        <ele>8.3999996185303</ele>
        <time>2020-06-25T07:16:32.000Z</time>
      </trkpt>
      <trkpt lat="47.26834" lon="-2.3212">
        <ele>8.3999996185303</ele>
        <time>2020-06-25T07:16:40.000Z</time>
      </trkpt>
      <trkpt lat="47.2684" lon="-2.32141">
        <ele>8</ele>
        <time>2020-06-25T07:16:43.000Z</time>
      </trkpt>
      <trkpt lat="47.26842" lon="-2.32148">
        <ele>7.5999999046326</ele>
        <time>2020-06-25T07:16:44.000Z</time>
      </trkpt>
      <trkpt lat="47.26844" lon="-2.32155">
        <ele>7.1999998092651</ele>
        <time>2020-06-25T07:16:45.000Z</time>
      </trkpt>
      <trkpt lat="47.26847" lon="-2.32163">
        <ele>6.8000001907349</ele>
        <time>2020-06-25T07:16:46.000Z</time>
      </trkpt>
      <trkpt lat="47.26849" lon="-2.32171">
        <ele>6.4000000953674</ele>
        <time>2020-06-25T07:16:47.000Z</time>
      </trkpt>
      <trkpt lat="47.26855" lon="-2.32188">
        <ele>6.4000000953674</ele>
        <time>2020-06-25T07:16:49.000Z</time>
      </trkpt>
      <trkpt lat="47.2687" lon="-2.3222">
        <ele>6.4000000953674</ele>
        <time>2020-06-25T07:16:53.000Z</time>
      </trkpt>
      <trkpt lat="47.26892" lon="-2.32259">
        <ele>6</ele>
        <time>2020-06-25T07:16:58.000Z</time>
      </trkpt>
      <trkpt lat="47.26897" lon="-2.32268">
        <ele>5.5999999046326</ele>
        <time>2020-06-25T07:16:59.000Z</time>
      </trkpt>
      <trkpt lat="47.26901" lon="-2.32278">
        <ele>5.1999998092651</ele>
        <time>2020-06-25T07:17:00.000Z</time>
      </trkpt>
      <trkpt lat="47.26906" lon="-2.32288">
        <ele>4.8000001907349</ele>
        <time>2020-06-25T07:17:01.000Z</time>
      </trkpt>
      <trkpt lat="47.2691" lon="-2.32297">
        <ele>4.4000000953674</ele>
        <time>2020-06-25T07:17:02.000Z</time>
      </trkpt>
      <trkpt lat="47.26913" lon="-2.32308">
        <ele>4.4000000953674</ele>
        <time>2020-06-25T07:17:03.000Z</time>
      </trkpt>
      <trkpt lat="47.26916" lon="-2.32316">
        <ele>4.4000000953674</ele>
        <time>2020-06-25T07:17:04.000Z</time>
      </trkpt>
      <trkpt lat="47.26918" lon="-2.32324">
        <ele>3.7999999523163</ele>
        <time>2020-06-25T07:17:05.000Z</time>
      </trkpt>
      <trkpt lat="47.26919" lon="-2.32331">
        <ele>3.4000000953674</ele>
        <time>2020-06-25T07:17:06.000Z</time>
      </trkpt>
      <trkpt lat="47.26921" lon="-2.32337">
        <ele>3</ele>
        <time>2020-06-25T07:17:07.000Z</time>
      </trkpt>
      <trkpt lat="47.26924" lon="-2.32342">
        <ele>2.4000000953674</ele>
        <time>2020-06-25T07:17:08.000Z</time>
      </trkpt>
      <trkpt lat="47.26927" lon="-2.32347">
        <ele>2</ele>
        <time>2020-06-25T07:17:09.000Z</time>
      </trkpt>
      <trkpt lat="47.26934" lon="-2.32357">
        <ele>2</ele>
        <time>2020-06-25T07:17:11.000Z</time>
      </trkpt>
      <trkpt lat="47.26936" lon="-2.32364">
        <ele>2</ele>
        <time>2020-06-25T07:17:12.000Z</time>
      </trkpt>
      <trkpt lat="47.2695" lon="-2.3241">
        <ele>2</ele>
        <time>2020-06-25T07:17:18.000Z</time>
      </trkpt>
      <trkpt lat="47.2696" lon="-2.32433">
        <ele>2</ele>
        <time>2020-06-25T07:17:21.000Z</time>
      </trkpt>
      <trkpt lat="47.26969" lon="-2.32445">
        <ele>2</ele>
        <time>2020-06-25T07:17:23.000Z</time>
      </trkpt>
      <trkpt lat="47.26978" lon="-2.32457">
        <ele>1.6000000238419</ele>
        <time>2020-06-25T07:17:25.000Z</time>
      </trkpt>
      <trkpt lat="47.26982" lon="-2.32464">
        <ele>1.2000000476837</ele>
        <time>2020-06-25T07:17:26.000Z</time>
      </trkpt>
      <trkpt lat="47.26986" lon="-2.3247">
        <ele>0.80000001192093</ele>
        <time>2020-06-25T07:17:27.000Z</time>
      </trkpt>
      <trkpt lat="47.26989" lon="-2.32478">
        <ele>0.20000000298023</ele>
        <time>2020-06-25T07:17:28.000Z</time>
      </trkpt>
      <trkpt lat="47.26993" lon="-2.32486">
        <ele>-0.20000000298023</ele>
        <time>2020-06-25T07:17:29.000Z</time>
      </trkpt>
      <trkpt lat="47.27004" lon="-2.32504">
        <ele>-0.20000000298023</ele>
        <time>2020-06-25T07:17:32.000Z</time>
      </trkpt>
      <trkpt lat="47.27008" lon="-2.32506">
        <ele>-0.20000000298023</ele>
        <time>2020-06-25T07:17:33.000Z</time>
      </trkpt>
      <trkpt lat="47.27026" lon="-2.325">
        <ele>-0.20000000298023</ele>
        <time>2020-06-25T07:17:36.000Z</time>
      </trkpt>
      <trkpt lat="47.27035" lon="-2.32492">
        <ele>-0.60000002384186</ele>
        <time>2020-06-25T07:17:38.000Z</time>
      </trkpt>
      <trkpt lat="47.27039" lon="-2.32487">
        <ele>-1</ele>
        <time>2020-06-25T07:17:39.000Z</time>
      </trkpt>
      <trkpt lat="47.27042" lon="-2.32481">
        <ele>-1.3999999761581</ele>
        <time>2020-06-25T07:17:40.000Z</time>
      </trkpt>
      <trkpt lat="47.27044" lon="-2.32474">
        <ele>-1.7999999523163</ele>
        <time>2020-06-25T07:17:41.000Z</time>
      </trkpt>
      <trkpt lat="47.27044" lon="-2.32465">
        <ele>-2.2000000476837</ele>
        <time>2020-06-25T07:17:42.000Z</time>
      </trkpt>
      <trkpt lat="47.27042" lon="-2.32453">
        <ele>-2.2000000476837</ele>
        <time>2020-06-25T07:17:43.000Z</time>
      </trkpt>
      <trkpt lat="47.27038" lon="-2.3243">
        <ele>-2.2000000476837</ele>
        <time>2020-06-25T07:17:45.000Z</time>
      </trkpt>
      <trkpt lat="47.27034" lon="-2.324">
        <ele>-2.2000000476837</ele>
        <time>2020-06-25T07:17:48.000Z</time>
      </trkpt>
      <trkpt lat="47.27025" lon="-2.32348">
        <ele>-2.2000000476837</ele>
        <time>2020-06-25T07:17:54.000Z</time>
      </trkpt>
      <trkpt lat="47.27021" lon="-2.32286">
        <ele>-2.2000000476837</ele>
        <time>2020-06-25T07:18:01.000Z</time>
      </trkpt>
      <trkpt lat="47.2702" lon="-2.32238">
        <ele>-2.2000000476837</ele>
        <time>2020-06-25T07:18:07.000Z</time>
      </trkpt>
      <trkpt lat="47.27019" lon="-2.3223">
        <ele>-2.2000000476837</ele>
        <time>2020-06-25T07:18:08.000Z</time>
      </trkpt>
      <trkpt lat="47.27011" lon="-2.32199">
        <ele>-2.2000000476837</ele>
        <time>2020-06-25T07:18:12.000Z</time>
      </trkpt>
      <trkpt lat="47.26998" lon="-2.32174">
        <ele>-2.2000000476837</ele>
        <time>2020-06-25T07:18:16.000Z</time>
      </trkpt>
      <trkpt lat="47.26992" lon="-2.32146">
        <ele>-2.2000000476837</ele>
        <time>2020-06-25T07:18:20.000Z</time>
      </trkpt>
      <trkpt lat="47.27" lon="-2.32132">
        <ele>-2.2000000476837</ele>
        <time>2020-06-25T07:18:23.000Z</time>
      </trkpt>
      <trkpt lat="47.27013" lon="-2.32114">
        <ele>-2.2000000476837</ele>
        <time>2020-06-25T07:18:27.000Z</time>
      </trkpt>
      <trkpt lat="47.27015" lon="-2.32109">
        <ele>-2.2000000476837</ele>
        <time>2020-06-25T07:18:28.000Z</time>
      </trkpt>
      <trkpt lat="47.27022" lon="-2.32074">
        <ele>-2.2000000476837</ele>
        <time>2020-06-25T07:18:34.000Z</time>
      </trkpt>
      <trkpt lat="47.27022" lon="-2.32062">
        <ele>-1.7999999523163</ele>
        <time>2020-06-25T07:18:36.000Z</time>
      </trkpt>
      <trkpt lat="47.27022" lon="-2.32056">
        <ele>-1.3999999761581</ele>
        <time>2020-06-25T07:18:37.000Z</time>
      </trkpt>
      <trkpt lat="47.2702" lon="-2.32049">
        <ele>-1</ele>
        <time>2020-06-25T07:18:38.000Z</time>
      </trkpt>
      <trkpt lat="47.27019" lon="-2.32042">
        <ele>-0.60000002384186</ele>
        <time>2020-06-25T07:18:39.000Z</time>
      </trkpt>
      <trkpt lat="47.27018" lon="-2.32037">
        <ele>-0.20000000298023</ele>
        <time>2020-06-25T07:18:40.000Z</time>
      </trkpt>
      <trkpt lat="47.27012" lon="-2.32005">
        <ele>-0.20000000298023</ele>
        <time>2020-06-25T07:18:45.000Z</time>
      </trkpt>
      <trkpt lat="47.27015" lon="-2.31991">
        <ele>0.20000000298023</ele>
        <time>2020-06-25T07:18:47.000Z</time>
      </trkpt>
      <trkpt lat="47.27018" lon="-2.31987">
        <ele>0.60000002384186</ele>
        <time>2020-06-25T07:18:48.000Z</time>
      </trkpt>
      <trkpt lat="47.27021" lon="-2.31983">
        <ele>1</ele>
        <time>2020-06-25T07:18:49.000Z</time>
      </trkpt>
      <trkpt lat="47.27023" lon="-2.3198">
        <ele>1.3999999761581</ele>
        <time>2020-06-25T07:18:50.000Z</time>
      </trkpt>
      <trkpt lat="47.27025" lon="-2.31978">
        <ele>1.7999999523163</ele>
        <time>2020-06-25T07:18:51.000Z</time>
      </trkpt>
      <trkpt lat="47.27026" lon="-2.31977">
        <ele>1.7999999523163</ele>
        <time>2020-06-25T07:18:52.000Z</time>
      </trkpt>
      <trkpt lat="47.27028" lon="-2.31976">
        <ele>1.7999999523163</ele>
        <time>2020-06-25T07:18:53.000Z</time>
      </trkpt>
      <trkpt lat="47.27039" lon="-2.31966">
        <ele>1.7999999523163</ele>
        <time>2020-06-25T07:19:00.000Z</time>
      </trkpt>
      <trkpt lat="47.27043" lon="-2.31962">
        <ele>1.7999999523163</ele>
        <time>2020-06-25T07:19:03.000Z</time>
      </trkpt>
      <trkpt lat="47.27048" lon="-2.31963">
        <ele>1.7999999523163</ele>
        <time>2020-06-25T07:19:05.000Z</time>
      </trkpt>
      <trkpt lat="47.27057" lon="-2.31962">
        <ele>1.7999999523163</ele>
        <time>2020-06-25T07:19:10.000Z</time>
      </trkpt>
      <trkpt lat="47.27067" lon="-2.31964">
        <ele>1.7999999523163</ele>
        <time>2020-06-25T07:19:18.000Z</time>
      </trkpt>
      <trkpt lat="47.27071" lon="-2.31962">
        <ele>1.7999999523163</ele>
        <time>2020-06-25T07:19:21.000Z</time>
      </trkpt>
      <trkpt lat="47.27074" lon="-2.31957">
        <ele>1.7999999523163</ele>
        <time>2020-06-25T07:19:23.000Z</time>
      </trkpt>
      <trkpt lat="47.27075" lon="-2.31954">
        <ele>1.7999999523163</ele>
        <time>2020-06-25T07:19:24.000Z</time>
      </trkpt>
      <trkpt lat="47.27076" lon="-2.31944">
        <ele>1.7999999523163</ele>
        <time>2020-06-25T07:19:27.000Z</time>
      </trkpt>
      <trkpt lat="47.27074" lon="-2.31916">
        <ele>1.7999999523163</ele>
        <time>2020-06-25T07:19:33.000Z</time>
      </trkpt>
      <trkpt lat="47.27072" lon="-2.31892">
        <ele>1.7999999523163</ele>
        <time>2020-06-25T07:19:38.000Z</time>
      </trkpt>
      <trkpt lat="47.27074" lon="-2.3187">
        <ele>1.7999999523163</ele>
        <time>2020-06-25T07:19:44.000Z</time>
      </trkpt>
      <trkpt lat="47.27066" lon="-2.3186">
        <ele>1.7999999523163</ele>
        <time>2020-06-25T07:19:48.000Z</time>
      </trkpt>
      <trkpt lat="47.27061" lon="-2.31846">
        <ele>1.7999999523163</ele>
        <time>2020-06-25T07:19:51.000Z</time>
      </trkpt>
      <trkpt lat="47.27061" lon="-2.31841">
        <ele>2.2000000476837</ele>
        <time>2020-06-25T07:19:52.000Z</time>
      </trkpt>
      <trkpt lat="47.2706" lon="-2.31835">
        <ele>2.5999999046326</ele>
        <time>2020-06-25T07:19:53.000Z</time>
      </trkpt>
      <trkpt lat="47.2706" lon="-2.31831">
        <ele>3</ele>
        <time>2020-06-25T07:19:54.000Z</time>
      </trkpt>
      <trkpt lat="47.27059" lon="-2.31826">
        <ele>3.4000000953674</ele>
        <time>2020-06-25T07:19:55.000Z</time>
      </trkpt>
      <trkpt lat="47.27059" lon="-2.31821">
        <ele>3.7999999523163</ele>
        <time>2020-06-25T07:19:56.000Z</time>
      </trkpt>
      <trkpt lat="47.27058" lon="-2.31812">
        <ele>3.7999999523163</ele>
        <time>2020-06-25T07:19:58.000Z</time>
      </trkpt>
      <trkpt lat="47.27055" lon="-2.3179">
        <ele>3.7999999523163</ele>
        <time>2020-06-25T07:20:03.000Z</time>
      </trkpt>
      <trkpt lat="47.27054" lon="-2.31773">
        <ele>4.1999998092651</ele>
        <time>2020-06-25T07:20:07.000Z</time>
      </trkpt>
      <trkpt lat="47.27053" lon="-2.31769">
        <ele>4.8000001907349</ele>
        <time>2020-06-25T07:20:08.000Z</time>
      </trkpt>
      <trkpt lat="47.27052" lon="-2.31764">
        <ele>5.1999998092651</ele>
        <time>2020-06-25T07:20:09.000Z</time>
      </trkpt>
      <trkpt lat="47.27052" lon="-2.3176">
        <ele>5.5999999046326</ele>
        <time>2020-06-25T07:20:10.000Z</time>
      </trkpt>
      <trkpt lat="47.27051" lon="-2.31756">
        <ele>6</ele>
        <time>2020-06-25T07:20:11.000Z</time>
      </trkpt>
      <trkpt lat="47.27051" lon="-2.31752">
        <ele>6</ele>
        <time>2020-06-25T07:20:12.000Z</time>
      </trkpt>
      <trkpt lat="47.27051" lon="-2.31736">
        <ele>6</ele>
        <time>2020-06-25T07:20:16.000Z</time>
      </trkpt>
      <trkpt lat="47.27049" lon="-2.31733">
        <ele>6</ele>
        <time>2020-06-25T07:20:17.000Z</time>
      </trkpt>
      <trkpt lat="47.27042" lon="-2.31727">
        <ele>6</ele>
        <time>2020-06-25T07:20:20.000Z</time>
      </trkpt>
      <trkpt lat="47.27029" lon="-2.31713">
        <ele>6</ele>
        <time>2020-06-25T07:20:25.000Z</time>
      </trkpt>
      <trkpt lat="47.27029" lon="-2.3171">
        <ele>6</ele>
        <time>2020-06-25T07:20:26.000Z</time>
      </trkpt>
      <trkpt lat="47.27029" lon="-2.31699">
        <ele>6.4000000953674</ele>
        <time>2020-06-25T07:20:30.000Z</time>
      </trkpt>
      <trkpt lat="47.27029" lon="-2.31695">
        <ele>6.8000001907349</ele>
        <time>2020-06-25T07:20:31.000Z</time>
      </trkpt>
      <trkpt lat="47.27029" lon="-2.3169">
        <ele>7.1999998092651</ele>
        <time>2020-06-25T07:20:32.000Z</time>
      </trkpt>
      <trkpt lat="47.2703" lon="-2.31686">
        <ele>7.5999999046326</ele>
        <time>2020-06-25T07:20:33.000Z</time>
      </trkpt>
      <trkpt lat="47.2703" lon="-2.31681">
        <ele>8</ele>
        <time>2020-06-25T07:20:34.000Z</time>
      </trkpt>
      <trkpt lat="47.27029" lon="-2.31662">
        <ele>8</ele>
        <time>2020-06-25T07:20:38.000Z</time>
      </trkpt>
      <trkpt lat="47.27028" lon="-2.3164">
        <ele>8.3999996185303</ele>
        <time>2020-06-25T07:20:42.000Z</time>
      </trkpt>
      <trkpt lat="47.27027" lon="-2.31634">
        <ele>8.8000001907349</ele>
        <time>2020-06-25T07:20:43.000Z</time>
      </trkpt>
      <trkpt lat="47.27027" lon="-2.31629">
        <ele>9.1999998092651</ele>
        <time>2020-06-25T07:20:44.000Z</time>
      </trkpt>
      <trkpt lat="47.27027" lon="-2.31624">
        <ele>9.8000001907349</ele>
        <time>2020-06-25T07:20:45.000Z</time>
      </trkpt>
      <trkpt lat="47.27027" lon="-2.3162">
        <ele>10.199999809265</ele>
        <time>2020-06-25T07:20:46.000Z</time>
      </trkpt>
      <trkpt lat="47.27027" lon="-2.31606">
        <ele>10.199999809265</ele>
        <time>2020-06-25T07:20:49.000Z</time>
      </trkpt>
      <trkpt lat="47.27026" lon="-2.31599">
        <ele>10.60000038147</ele>
        <time>2020-06-25T07:20:51.000Z</time>
      </trkpt>
      <trkpt lat="47.27024" lon="-2.31595">
        <ele>11</ele>
        <time>2020-06-25T07:20:52.000Z</time>
      </trkpt>
      <trkpt lat="47.27023" lon="-2.31592">
        <ele>11.39999961853</ele>
        <time>2020-06-25T07:20:53.000Z</time>
      </trkpt>
      <trkpt lat="47.27022" lon="-2.31589">
        <ele>12.199999809265</ele>
        <time>2020-06-25T07:20:54.000Z</time>
      </trkpt>
      <trkpt lat="47.2702" lon="-2.31581">
        <ele>12.199999809265</ele>
        <time>2020-06-25T07:20:56.000Z</time>
      </trkpt>
      <trkpt lat="47.27012" lon="-2.31559">
        <ele>12.199999809265</ele>
        <time>2020-06-25T07:21:03.000Z</time>
      </trkpt>
      <trkpt lat="47.27011" lon="-2.31554">
        <ele>12.60000038147</ele>
        <time>2020-06-25T07:21:04.000Z</time>
      </trkpt>
      <trkpt lat="47.2701" lon="-2.3155">
        <ele>13</ele>
        <time>2020-06-25T07:21:05.000Z</time>
      </trkpt>
      <trkpt lat="47.27009" lon="-2.31546">
        <ele>13.39999961853</ele>
        <time>2020-06-25T07:21:06.000Z</time>
      </trkpt>
      <trkpt lat="47.27008" lon="-2.31542">
        <ele>13.800000190735</ele>
        <time>2020-06-25T07:21:07.000Z</time>
      </trkpt>
      <trkpt lat="47.27006" lon="-2.31538">
        <ele>14.199999809265</ele>
        <time>2020-06-25T07:21:08.000Z</time>
      </trkpt>
      <trkpt lat="47.27004" lon="-2.3153">
        <ele>14.199999809265</ele>
        <time>2020-06-25T07:21:10.000Z</time>
      </trkpt>
      <trkpt lat="47.26998" lon="-2.31502">
        <ele>14.60000038147</ele>
        <time>2020-06-25T07:21:16.000Z</time>
      </trkpt>
      <trkpt lat="47.26997" lon="-2.31497">
        <ele>15</ele>
        <time>2020-06-25T07:21:17.000Z</time>
      </trkpt>
      <trkpt lat="47.26996" lon="-2.31492">
        <ele>15.39999961853</ele>
        <time>2020-06-25T07:21:18.000Z</time>
      </trkpt>
      <trkpt lat="47.26995" lon="-2.31486">
        <ele>16.39999961853</ele>
        <time>2020-06-25T07:21:19.000Z</time>
      </trkpt>
      <trkpt lat="47.26991" lon="-2.31465">
        <ele>16.39999961853</ele>
        <time>2020-06-25T07:21:23.000Z</time>
      </trkpt>
      <trkpt lat="47.26991" lon="-2.3146">
        <ele>16.799999237061</ele>
        <time>2020-06-25T07:21:24.000Z</time>
      </trkpt>
      <trkpt lat="47.26991" lon="-2.31455">
        <ele>17.200000762939</ele>
        <time>2020-06-25T07:21:25.000Z</time>
      </trkpt>
      <trkpt lat="47.2699" lon="-2.31449">
        <ele>17.60000038147</ele>
        <time>2020-06-25T07:21:26.000Z</time>
      </trkpt>
      <trkpt lat="47.26989" lon="-2.31442">
        <ele>18</ele>
        <time>2020-06-25T07:21:27.000Z</time>
      </trkpt>
      <trkpt lat="47.26989" lon="-2.31436">
        <ele>18.39999961853</ele>
        <time>2020-06-25T07:21:28.000Z</time>
      </trkpt>
      <trkpt lat="47.26988" lon="-2.3143">
        <ele>18.39999961853</ele>
        <time>2020-06-25T07:21:29.000Z</time>
      </trkpt>
      <trkpt lat="47.26987" lon="-2.31405">
        <ele>18.39999961853</ele>
        <time>2020-06-25T07:21:34.000Z</time>
      </trkpt>
      <trkpt lat="47.26984" lon="-2.31371">
        <ele>19</ele>
        <time>2020-06-25T07:21:40.000Z</time>
      </trkpt>
      <trkpt lat="47.26983" lon="-2.31366">
        <ele>19.39999961853</ele>
        <time>2020-06-25T07:21:41.000Z</time>
      </trkpt>
      <trkpt lat="47.26983" lon="-2.31361">
        <ele>20</ele>
        <time>2020-06-25T07:21:42.000Z</time>
      </trkpt>
      <trkpt lat="47.26983" lon="-2.31357">
        <ele>20.799999237061</ele>
        <time>2020-06-25T07:21:43.000Z</time>
      </trkpt>
      <trkpt lat="47.26979" lon="-2.31333">
        <ele>20.799999237061</ele>
        <time>2020-06-25T07:21:47.000Z</time>
      </trkpt>
      <trkpt lat="47.26974" lon="-2.31292">
        <ele>20.799999237061</ele>
        <time>2020-06-25T07:21:53.000Z</time>
      </trkpt>
      <trkpt lat="47.26973" lon="-2.31265">
        <ele>21.200000762939</ele>
        <time>2020-06-25T07:21:56.000Z</time>
      </trkpt>
      <trkpt lat="47.26973" lon="-2.31257">
        <ele>21.799999237061</ele>
        <time>2020-06-25T07:21:57.000Z</time>
      </trkpt>
      <trkpt lat="47.26973" lon="-2.31248">
        <ele>22.200000762939</ele>
        <time>2020-06-25T07:21:58.000Z</time>
      </trkpt>
      <trkpt lat="47.26974" lon="-2.31239">
        <ele>22.60000038147</ele>
        <time>2020-06-25T07:21:59.000Z</time>
      </trkpt>
      <trkpt lat="47.26976" lon="-2.3123">
        <ele>23</ele>
        <time>2020-06-25T07:22:00.000Z</time>
      </trkpt>
      <trkpt lat="47.26984" lon="-2.31172">
        <ele>23</ele>
        <time>2020-06-25T07:22:06.000Z</time>
      </trkpt>
      <trkpt lat="47.26987" lon="-2.3114">
        <ele>22.60000038147</ele>
        <time>2020-06-25T07:22:09.000Z</time>
      </trkpt>
      <trkpt lat="47.26988" lon="-2.31128">
        <ele>22</ele>
        <time>2020-06-25T07:22:10.000Z</time>
      </trkpt>
      <trkpt lat="47.26989" lon="-2.31117">
        <ele>21.60000038147</ele>
        <time>2020-06-25T07:22:11.000Z</time>
      </trkpt>
      <trkpt lat="47.26988" lon="-2.31106">
        <ele>21.200000762939</ele>
        <time>2020-06-25T07:22:12.000Z</time>
      </trkpt>
      <trkpt lat="47.26987" lon="-2.31096">
        <ele>20.799999237061</ele>
        <time>2020-06-25T07:22:13.000Z</time>
      </trkpt>
      <trkpt lat="47.26987" lon="-2.3108">
        <ele>20.39999961853</ele>
        <time>2020-06-25T07:22:15.000Z</time>
      </trkpt>
      <trkpt lat="47.26987" lon="-2.31075">
        <ele>20</ele>
        <time>2020-06-25T07:22:16.000Z</time>
      </trkpt>
      <trkpt lat="47.26989" lon="-2.3107">
        <ele>19.60000038147</ele>
        <time>2020-06-25T07:22:17.000Z</time>
      </trkpt>
      <trkpt lat="47.2699" lon="-2.31065">
        <ele>19.200000762939</ele>
        <time>2020-06-25T07:22:18.000Z</time>
      </trkpt>
      <trkpt lat="47.26993" lon="-2.3106">
        <ele>18.60000038147</ele>
        <time>2020-06-25T07:22:19.000Z</time>
      </trkpt>
      <trkpt lat="47.27" lon="-2.31052">
        <ele>18.60000038147</ele>
        <time>2020-06-25T07:22:21.000Z</time>
      </trkpt>
      <trkpt lat="47.2701" lon="-2.3104">
        <ele>18.200000762939</ele>
        <time>2020-06-25T07:22:24.000Z</time>
      </trkpt>
      <trkpt lat="47.27014" lon="-2.31036">
        <ele>17.799999237061</ele>
        <time>2020-06-25T07:22:25.000Z</time>
      </trkpt>
      <trkpt lat="47.27018" lon="-2.31031">
        <ele>17.39999961853</ele>
        <time>2020-06-25T07:22:26.000Z</time>
      </trkpt>
      <trkpt lat="47.27022" lon="-2.31027">
        <ele>17</ele>
        <time>2020-06-25T07:22:27.000Z</time>
      </trkpt>
      <trkpt lat="47.27026" lon="-2.31022">
        <ele>16.60000038147</ele>
        <time>2020-06-25T07:22:28.000Z</time>
      </trkpt>
      <trkpt lat="47.2704" lon="-2.31004">
        <ele>16.60000038147</ele>
        <time>2020-06-25T07:22:32.000Z</time>
      </trkpt>
      <trkpt lat="47.27042" lon="-2.30999">
        <ele>15.800000190735</ele>
        <time>2020-06-25T07:22:33.000Z</time>
      </trkpt>
      <trkpt lat="47.27042" lon="-2.30993">
        <ele>15.39999961853</ele>
        <time>2020-06-25T07:22:34.000Z</time>
      </trkpt>
      <trkpt lat="47.27043" lon="-2.30987">
        <ele>15</ele>
        <time>2020-06-25T07:22:35.000Z</time>
      </trkpt>
      <trkpt lat="47.27042" lon="-2.3098">
        <ele>14.60000038147</ele>
        <time>2020-06-25T07:22:36.000Z</time>
      </trkpt>
      <trkpt lat="47.27042" lon="-2.30974">
        <ele>14.60000038147</ele>
        <time>2020-06-25T07:22:37.000Z</time>
      </trkpt>
      <trkpt lat="47.27042" lon="-2.30955">
        <ele>14.60000038147</ele>
        <time>2020-06-25T07:22:40.000Z</time>
      </trkpt>
      <trkpt lat="47.27038" lon="-2.30934">
        <ele>14.60000038147</ele>
        <time>2020-06-25T07:22:44.000Z</time>
      </trkpt>
      <trkpt lat="47.27037" lon="-2.30914">
        <ele>14.60000038147</ele>
        <time>2020-06-25T07:22:48.000Z</time>
      </trkpt>
      <trkpt lat="47.27032" lon="-2.30888">
        <ele>14.60000038147</ele>
        <time>2020-06-25T07:22:52.000Z</time>
      </trkpt>
      <trkpt lat="47.27016" lon="-2.30854">
        <ele>14.60000038147</ele>
        <time>2020-06-25T07:22:58.000Z</time>
      </trkpt>
      <trkpt lat="47.27002" lon="-2.30828">
        <ele>14.60000038147</ele>
        <time>2020-06-25T07:23:03.000Z</time>
      </trkpt>
      <trkpt lat="47.26998" lon="-2.30822">
        <ele>15</ele>
        <time>2020-06-25T07:23:04.000Z</time>
      </trkpt>
      <trkpt lat="47.26995" lon="-2.30817">
        <ele>15.39999961853</ele>
        <time>2020-06-25T07:23:05.000Z</time>
      </trkpt>
      <trkpt lat="47.26992" lon="-2.30812">
        <ele>15.800000190735</ele>
        <time>2020-06-25T07:23:06.000Z</time>
      </trkpt>
      <trkpt lat="47.26989" lon="-2.30807">
        <ele>16.200000762939</ele>
        <time>2020-06-25T07:23:07.000Z</time>
      </trkpt>
      <trkpt lat="47.26986" lon="-2.30802">
        <ele>16.799999237061</ele>
        <time>2020-06-25T07:23:08.000Z</time>
      </trkpt>
      <trkpt lat="47.2698" lon="-2.30792">
        <ele>16.799999237061</ele>
        <time>2020-06-25T07:23:10.000Z</time>
      </trkpt>
      <trkpt lat="47.26968" lon="-2.30775">
        <ele>16.799999237061</ele>
        <time>2020-06-25T07:23:14.000Z</time>
      </trkpt>
      <trkpt lat="47.26965" lon="-2.3077">
        <ele>16.799999237061</ele>
        <time>2020-06-25T07:23:15.000Z</time>
      </trkpt>
      <trkpt lat="47.26962" lon="-2.30765">
        <ele>17.200000762939</ele>
        <time>2020-06-25T07:23:16.000Z</time>
      </trkpt>
      <trkpt lat="47.26958" lon="-2.3076">
        <ele>17.60000038147</ele>
        <time>2020-06-25T07:23:17.000Z</time>
      </trkpt>
      <trkpt lat="47.26954" lon="-2.30754">
        <ele>18</ele>
        <time>2020-06-25T07:23:18.000Z</time>
      </trkpt>
      <trkpt lat="47.26951" lon="-2.3075">
        <ele>18.39999961853</ele>
        <time>2020-06-25T07:23:19.000Z</time>
      </trkpt>
      <trkpt lat="47.26948" lon="-2.30746">
        <ele>18.799999237061</ele>
        <time>2020-06-25T07:23:20.000Z</time>
      </trkpt>
      <trkpt lat="47.26945" lon="-2.30742">
        <ele>18.799999237061</ele>
        <time>2020-06-25T07:23:21.000Z</time>
      </trkpt>
      <trkpt lat="47.26926" lon="-2.3071">
        <ele>19.200000762939</ele>
        <time>2020-06-25T07:23:27.000Z</time>
      </trkpt>
      <trkpt lat="47.26923" lon="-2.30705">
        <ele>19.60000038147</ele>
        <time>2020-06-25T07:23:28.000Z</time>
      </trkpt>
      <trkpt lat="47.26919" lon="-2.307">
        <ele>20</ele>
        <time>2020-06-25T07:23:29.000Z</time>
      </trkpt>
      <trkpt lat="47.26916" lon="-2.30695">
        <ele>20.39999961853</ele>
        <time>2020-06-25T07:23:30.000Z</time>
      </trkpt>
      <trkpt lat="47.26912" lon="-2.3069">
        <ele>20.799999237061</ele>
        <time>2020-06-25T07:23:31.000Z</time>
      </trkpt>
      <trkpt lat="47.26902" lon="-2.30675">
        <ele>20.799999237061</ele>
        <time>2020-06-25T07:23:34.000Z</time>
      </trkpt>
      <trkpt lat="47.26889" lon="-2.30669">
        <ele>20.799999237061</ele>
        <time>2020-06-25T07:23:38.000Z</time>
      </trkpt>
      <trkpt lat="47.26882" lon="-2.30678">
        <ele>20.799999237061</ele>
        <time>2020-06-25T07:23:40.000Z</time>
      </trkpt>
      <trkpt lat="47.26872" lon="-2.30693">
        <ele>20.799999237061</ele>
        <time>2020-06-25T07:23:43.000Z</time>
      </trkpt>
      <trkpt lat="47.26869" lon="-2.30698">
        <ele>20.799999237061</ele>
        <time>2020-06-25T07:23:44.000Z</time>
      </trkpt>
      <trkpt lat="47.26849" lon="-2.30743">
        <ele>20.799999237061</ele>
        <time>2020-06-25T07:23:51.000Z</time>
      </trkpt>
      <trkpt lat="47.26847" lon="-2.30749">
        <ele>20.799999237061</ele>
        <time>2020-06-25T07:23:52.000Z</time>
      </trkpt>
      <trkpt lat="47.26836" lon="-2.30776">
        <ele>20.799999237061</ele>
        <time>2020-06-25T07:23:56.000Z</time>
      </trkpt>
      <trkpt lat="47.26829" lon="-2.30788">
        <ele>20.799999237061</ele>
        <time>2020-06-25T07:23:58.000Z</time>
      </trkpt>
      <trkpt lat="47.26825" lon="-2.30793">
        <ele>20.799999237061</ele>
        <time>2020-06-25T07:23:59.000Z</time>
      </trkpt>
      <trkpt lat="47.26799" lon="-2.30816">
        <ele>20.799999237061</ele>
        <time>2020-06-25T07:24:05.000Z</time>
      </trkpt>
      <trkpt lat="47.26769" lon="-2.3085">
        <ele>20.799999237061</ele>
        <time>2020-06-25T07:24:12.000Z</time>
      </trkpt>
      <trkpt lat="47.26744" lon="-2.3087">
        <ele>20.799999237061</ele>
        <time>2020-06-25T07:24:17.000Z</time>
      </trkpt>
      <trkpt lat="47.26739" lon="-2.30871">
        <ele>20.799999237061</ele>
        <time>2020-06-25T07:24:18.000Z</time>
      </trkpt>
      <trkpt lat="47.26728" lon="-2.30862">
        <ele>20.799999237061</ele>
        <time>2020-06-25T07:24:21.000Z</time>
      </trkpt>
      <trkpt lat="47.26714" lon="-2.30834">
        <ele>20.799999237061</ele>
        <time>2020-06-25T07:24:26.000Z</time>
      </trkpt>
      <trkpt lat="47.26696" lon="-2.3079">
        <ele>20.799999237061</ele>
        <time>2020-06-25T07:24:31.000Z</time>
      </trkpt>
      <trkpt lat="47.26669" lon="-2.30722">
        <ele>20.799999237061</ele>
        <time>2020-06-25T07:24:38.000Z</time>
      </trkpt>
      <trkpt lat="47.26666" lon="-2.30714">
        <ele>20.39999961853</ele>
        <time>2020-06-25T07:24:39.000Z</time>
      </trkpt>
      <trkpt lat="47.26662" lon="-2.30706">
        <ele>20</ele>
        <time>2020-06-25T07:24:40.000Z</time>
      </trkpt>
      <trkpt lat="47.2666" lon="-2.30699">
        <ele>19.39999961853</ele>
        <time>2020-06-25T07:24:41.000Z</time>
      </trkpt>
      <trkpt lat="47.26657" lon="-2.30694">
        <ele>19</ele>
        <time>2020-06-25T07:24:42.000Z</time>
      </trkpt>
      <trkpt lat="47.26654" lon="-2.30692">
        <ele>18.39999961853</ele>
        <time>2020-06-25T07:24:43.000Z</time>
      </trkpt>
      <trkpt lat="47.26649" lon="-2.30697">
        <ele>18.39999961853</ele>
        <time>2020-06-25T07:24:45.000Z</time>
      </trkpt>
      <trkpt lat="47.26644" lon="-2.30712">
        <ele>18.39999961853</ele>
        <time>2020-06-25T07:24:48.000Z</time>
      </trkpt>
      <trkpt lat="47.26639" lon="-2.30722">
        <ele>18</ele>
        <time>2020-06-25T07:24:50.000Z</time>
      </trkpt>
      <trkpt lat="47.26636" lon="-2.30725">
        <ele>17.60000038147</ele>
        <time>2020-06-25T07:24:51.000Z</time>
      </trkpt>
      <trkpt lat="47.26632" lon="-2.30729">
        <ele>17.200000762939</ele>
        <time>2020-06-25T07:24:52.000Z</time>
      </trkpt>
      <trkpt lat="47.26628" lon="-2.30734">
        <ele>16.799999237061</ele>
        <time>2020-06-25T07:24:53.000Z</time>
      </trkpt>
      <trkpt lat="47.26625" lon="-2.30738">
        <ele>16.39999961853</ele>
        <time>2020-06-25T07:24:54.000Z</time>
      </trkpt>
      <trkpt lat="47.26621" lon="-2.30745">
        <ele>16.39999961853</ele>
        <time>2020-06-25T07:24:56.000Z</time>
      </trkpt>
      <trkpt lat="47.2662" lon="-2.30748">
        <ele>16.39999961853</ele>
        <time>2020-06-25T07:24:57.000Z</time>
      </trkpt>
      <trkpt lat="47.26617" lon="-2.30757">
        <ele>16.39999961853</ele>
        <time>2020-06-25T07:25:00.000Z</time>
      </trkpt>
      <trkpt lat="47.26609" lon="-2.30766">
        <ele>16.39999961853</ele>
        <time>2020-06-25T07:25:03.000Z</time>
      </trkpt>
      <trkpt lat="47.26606" lon="-2.30769">
        <ele>16.39999961853</ele>
        <time>2020-06-25T07:25:04.000Z</time>
      </trkpt>
      <trkpt lat="47.26595" lon="-2.30778">
        <ele>16</ele>
        <time>2020-06-25T07:25:07.000Z</time>
      </trkpt>
      <trkpt lat="47.26591" lon="-2.30783">
        <ele>15.60000038147</ele>
        <time>2020-06-25T07:25:08.000Z</time>
      </trkpt>
      <trkpt lat="47.26588" lon="-2.30787">
        <ele>15.199999809265</ele>
        <time>2020-06-25T07:25:09.000Z</time>
      </trkpt>
      <trkpt lat="47.26585" lon="-2.30791">
        <ele>14.800000190735</ele>
        <time>2020-06-25T07:25:10.000Z</time>
      </trkpt>
      <trkpt lat="47.26581" lon="-2.30795">
        <ele>14.39999961853</ele>
        <time>2020-06-25T07:25:11.000Z</time>
      </trkpt>
      <trkpt lat="47.26568" lon="-2.30816">
        <ele>14.39999961853</ele>
        <time>2020-06-25T07:25:15.000Z</time>
      </trkpt>
      <trkpt lat="47.26564" lon="-2.3082">
        <ele>14</ele>
        <time>2020-06-25T07:25:16.000Z</time>
      </trkpt>
      <trkpt lat="47.2656" lon="-2.30825">
        <ele>13.60000038147</ele>
        <time>2020-06-25T07:25:17.000Z</time>
      </trkpt>
      <trkpt lat="47.26557" lon="-2.30829">
        <ele>13.199999809265</ele>
        <time>2020-06-25T07:25:18.000Z</time>
      </trkpt>
      <trkpt lat="47.26554" lon="-2.30834">
        <ele>12.800000190735</ele>
        <time>2020-06-25T07:25:19.000Z</time>
      </trkpt>
      <trkpt lat="47.26551" lon="-2.30837">
        <ele>12.39999961853</ele>
        <time>2020-06-25T07:25:20.000Z</time>
      </trkpt>
      <trkpt lat="47.26536" lon="-2.30855">
        <ele>12.39999961853</ele>
        <time>2020-06-25T07:25:25.000Z</time>
      </trkpt>
      <trkpt lat="47.26515" lon="-2.30876">
        <ele>12</ele>
        <time>2020-06-25T07:25:32.000Z</time>
      </trkpt>
      <trkpt lat="47.26512" lon="-2.30877">
        <ele>11.60000038147</ele>
        <time>2020-06-25T07:25:33.000Z</time>
      </trkpt>
      <trkpt lat="47.26511" lon="-2.30875">
        <ele>11</ele>
        <time>2020-06-25T07:25:34.000Z</time>
      </trkpt>
      <trkpt lat="47.26509" lon="-2.30874">
        <ele>10.60000038147</ele>
        <time>2020-06-25T07:25:35.000Z</time>
      </trkpt>
      <trkpt lat="47.26508" lon="-2.30872">
        <ele>10.199999809265</ele>
        <time>2020-06-25T07:25:36.000Z</time>
      </trkpt>
      <trkpt lat="47.265" lon="-2.30859">
        <ele>10.60000038147</ele>
        <time>2020-06-25T07:25:41.000Z</time>
      </trkpt>
      <trkpt lat="47.26496" lon="-2.30854">
        <ele>11.199999809265</ele>
        <time>2020-06-25T07:25:42.000Z</time>
      </trkpt>
      <trkpt lat="47.26493" lon="-2.3085">
        <ele>11.60000038147</ele>
        <time>2020-06-25T07:25:43.000Z</time>
      </trkpt>
      <trkpt lat="47.26489" lon="-2.30846">
        <ele>12</ele>
        <time>2020-06-25T07:25:44.000Z</time>
      </trkpt>
      <trkpt lat="47.26486" lon="-2.30841">
        <ele>12.39999961853</ele>
        <time>2020-06-25T07:25:45.000Z</time>
      </trkpt>
      <trkpt lat="47.26481" lon="-2.30832">
        <ele>12.800000190735</ele>
        <time>2020-06-25T07:25:47.000Z</time>
      </trkpt>
      <trkpt lat="47.26478" lon="-2.30827">
        <ele>13.39999961853</ele>
        <time>2020-06-25T07:25:48.000Z</time>
      </trkpt>
      <trkpt lat="47.26475" lon="-2.30823">
        <ele>13.800000190735</ele>
        <time>2020-06-25T07:25:49.000Z</time>
      </trkpt>
      <trkpt lat="47.26473" lon="-2.30818">
        <ele>14.199999809265</ele>
        <time>2020-06-25T07:25:50.000Z</time>
      </trkpt>
      <trkpt lat="47.26471" lon="-2.30813">
        <ele>14.60000038147</ele>
        <time>2020-06-25T07:25:51.000Z</time>
      </trkpt>
      <trkpt lat="47.26466" lon="-2.30803">
        <ele>14.60000038147</ele>
        <time>2020-06-25T07:25:53.000Z</time>
      </trkpt>
      <trkpt lat="47.26462" lon="-2.30792">
        <ele>15</ele>
        <time>2020-06-25T07:25:55.000Z</time>
      </trkpt>
      <trkpt lat="47.2646" lon="-2.30787">
        <ele>15.60000038147</ele>
        <time>2020-06-25T07:25:56.000Z</time>
      </trkpt>
      <trkpt lat="47.26458" lon="-2.30783">
        <ele>16</ele>
        <time>2020-06-25T07:25:57.000Z</time>
      </trkpt>
      <trkpt lat="47.26456" lon="-2.30778">
        <ele>16.39999961853</ele>
        <time>2020-06-25T07:25:58.000Z</time>
      </trkpt>
      <trkpt lat="47.26454" lon="-2.30772">
        <ele>16.799999237061</ele>
        <time>2020-06-25T07:25:59.000Z</time>
      </trkpt>
      <trkpt lat="47.26451" lon="-2.30766">
        <ele>16.799999237061</ele>
        <time>2020-06-25T07:26:00.000Z</time>
      </trkpt>
      <trkpt lat="47.26442" lon="-2.30745">
        <ele>16.799999237061</ele>
        <time>2020-06-25T07:26:04.000Z</time>
      </trkpt>
      <trkpt lat="47.26429" lon="-2.30714">
        <ele>16.799999237061</ele>
        <time>2020-06-25T07:26:10.000Z</time>
      </trkpt>
      <trkpt lat="47.26419" lon="-2.30695">
        <ele>17.200000762939</ele>
        <time>2020-06-25T07:26:14.000Z</time>
      </trkpt>
      <trkpt lat="47.26416" lon="-2.30691">
        <ele>17.60000038147</ele>
        <time>2020-06-25T07:26:15.000Z</time>
      </trkpt>
      <trkpt lat="47.26413" lon="-2.30688">
        <ele>18.39999961853</ele>
        <time>2020-06-25T07:26:16.000Z</time>
      </trkpt>
      <trkpt lat="47.26409" lon="-2.30685">
        <ele>19</ele>
        <time>2020-06-25T07:26:17.000Z</time>
      </trkpt>
      <trkpt lat="47.26396" lon="-2.30676">
        <ele>19</ele>
        <time>2020-06-25T07:26:20.000Z</time>
      </trkpt>
      <trkpt lat="47.26387" lon="-2.30669">
        <ele>19</ele>
        <time>2020-06-25T07:26:22.000Z</time>
      </trkpt>
      <trkpt lat="47.26375" lon="-2.30654">
        <ele>19</ele>
        <time>2020-06-25T07:26:25.000Z</time>
      </trkpt>
      <trkpt lat="47.26372" lon="-2.30649">
        <ele>19</ele>
        <time>2020-06-25T07:26:26.000Z</time>
      </trkpt>
      <trkpt lat="47.26364" lon="-2.30628">
        <ele>19</ele>
        <time>2020-06-25T07:26:30.000Z</time>
      </trkpt>
      <trkpt lat="47.2635" lon="-2.306">
        <ele>19</ele>
        <time>2020-06-25T07:26:35.000Z</time>
      </trkpt>
      <trkpt lat="47.26345" lon="-2.3059">
        <ele>19</ele>
        <time>2020-06-25T07:26:37.000Z</time>
      </trkpt>
      <trkpt lat="47.26343" lon="-2.30585">
        <ele>19</ele>
        <time>2020-06-25T07:26:38.000Z</time>
      </trkpt>
      <trkpt lat="47.26343" lon="-2.30573">
        <ele>19</ele>
        <time>2020-06-25T07:26:41.000Z</time>
      </trkpt>
      <trkpt lat="47.26342" lon="-2.30552">
        <ele>19</ele>
        <time>2020-06-25T07:26:46.000Z</time>
      </trkpt>
      <trkpt lat="47.26342" lon="-2.30548">
        <ele>19</ele>
        <time>2020-06-25T07:26:47.000Z</time>
      </trkpt>
      <trkpt lat="47.26336" lon="-2.30521">
        <ele>19</ele>
        <time>2020-06-25T07:26:52.000Z</time>
      </trkpt>
      <trkpt lat="47.2633" lon="-2.30489">
        <ele>19.39999961853</ele>
        <time>2020-06-25T07:26:57.000Z</time>
      </trkpt>
      <trkpt lat="47.26329" lon="-2.30481">
        <ele>19.799999237061</ele>
        <time>2020-06-25T07:26:58.000Z</time>
      </trkpt>
      <trkpt lat="47.26327" lon="-2.30473">
        <ele>20.200000762939</ele>
        <time>2020-06-25T07:26:59.000Z</time>
      </trkpt>
      <trkpt lat="47.26325" lon="-2.30466">
        <ele>20.799999237061</ele>
        <time>2020-06-25T07:27:00.000Z</time>
      </trkpt>
      <trkpt lat="47.26324" lon="-2.30458">
        <ele>21.200000762939</ele>
        <time>2020-06-25T07:27:01.000Z</time>
      </trkpt>
      <trkpt lat="47.26323" lon="-2.30451">
        <ele>21.200000762939</ele>
        <time>2020-06-25T07:27:02.000Z</time>
      </trkpt>
      <trkpt lat="47.26321" lon="-2.30444">
        <ele>21.200000762939</ele>
        <time>2020-06-25T07:27:03.000Z</time>
      </trkpt>
      <trkpt lat="47.26314" lon="-2.30411">
        <ele>21.200000762939</ele>
        <time>2020-06-25T07:27:07.000Z</time>
      </trkpt>
      <trkpt lat="47.26304" lon="-2.30352">
        <ele>21.200000762939</ele>
        <time>2020-06-25T07:27:14.000Z</time>
      </trkpt>
      <trkpt lat="47.263" lon="-2.3033">
        <ele>21.200000762939</ele>
        <time>2020-06-25T07:27:17.000Z</time>
      </trkpt>
      <trkpt lat="47.26296" lon="-2.30317">
        <ele>21.200000762939</ele>
        <time>2020-06-25T07:27:19.000Z</time>
      </trkpt>
      <trkpt lat="47.26289" lon="-2.30295">
        <ele>21.200000762939</ele>
        <time>2020-06-25T07:27:22.000Z</time>
      </trkpt>
      <trkpt lat="47.26285" lon="-2.3028">
        <ele>21.200000762939</ele>
        <time>2020-06-25T07:27:24.000Z</time>
      </trkpt>
      <trkpt lat="47.26273" lon="-2.30217">
        <ele>21.200000762939</ele>
        <time>2020-06-25T07:27:32.000Z</time>
      </trkpt>
      <trkpt lat="47.26265" lon="-2.30178">
        <ele>21.200000762939</ele>
        <time>2020-06-25T07:27:38.000Z</time>
      </trkpt>
      <trkpt lat="47.26262" lon="-2.30172">
        <ele>21.200000762939</ele>
        <time>2020-06-25T07:27:39.000Z</time>
      </trkpt>
      <trkpt lat="47.26256" lon="-2.30154">
        <ele>21.200000762939</ele>
        <time>2020-06-25T07:27:42.000Z</time>
      </trkpt>
      <trkpt lat="47.26255" lon="-2.30148">
        <ele>21.200000762939</ele>
        <time>2020-06-25T07:27:43.000Z</time>
      </trkpt>
      <trkpt lat="47.26249" lon="-2.30139">
        <ele>21.60000038147</ele>
        <time>2020-06-25T07:27:45.000Z</time>
      </trkpt>
      <trkpt lat="47.26245" lon="-2.30138">
        <ele>22</ele>
        <time>2020-06-25T07:27:46.000Z</time>
      </trkpt>
      <trkpt lat="47.26241" lon="-2.30139">
        <ele>22.39999961853</ele>
        <time>2020-06-25T07:27:47.000Z</time>
      </trkpt>
      <trkpt lat="47.26236" lon="-2.3014">
        <ele>22.799999237061</ele>
        <time>2020-06-25T07:27:48.000Z</time>
      </trkpt>
      <trkpt lat="47.26232" lon="-2.30141">
        <ele>23.200000762939</ele>
        <time>2020-06-25T07:27:49.000Z</time>
      </trkpt>
      <trkpt lat="47.26227" lon="-2.30143">
        <ele>23.200000762939</ele>
        <time>2020-06-25T07:27:50.000Z</time>
      </trkpt>
      <trkpt lat="47.26189" lon="-2.30156">
        <ele>23.200000762939</ele>
        <time>2020-06-25T07:27:57.000Z</time>
      </trkpt>
      <trkpt lat="47.26177" lon="-2.30159">
        <ele>22.799999237061</ele>
        <time>2020-06-25T07:28:00.000Z</time>
      </trkpt>
      <trkpt lat="47.26174" lon="-2.30158">
        <ele>22.39999961853</ele>
        <time>2020-06-25T07:28:01.000Z</time>
      </trkpt>
      <trkpt lat="47.26173" lon="-2.30156">
        <ele>22</ele>
        <time>2020-06-25T07:28:02.000Z</time>
      </trkpt>
      <trkpt lat="47.26172" lon="-2.30153">
        <ele>21.60000038147</ele>
        <time>2020-06-25T07:28:03.000Z</time>
      </trkpt>
      <trkpt lat="47.26172" lon="-2.30151">
        <ele>21.200000762939</ele>
        <time>2020-06-25T07:28:04.000Z</time>
      </trkpt>
      <trkpt lat="47.26165" lon="-2.30151">
        <ele>21.200000762939</ele>
        <time>2020-06-25T07:28:07.000Z</time>
      </trkpt>
      <trkpt lat="47.26162" lon="-2.30152">
        <ele>21.200000762939</ele>
        <time>2020-06-25T07:28:08.000Z</time>
      </trkpt>
      <trkpt lat="47.26146" lon="-2.30157">
        <ele>21.200000762939</ele>
        <time>2020-06-25T07:28:12.000Z</time>
      </trkpt>
      <trkpt lat="47.26137" lon="-2.3016">
        <ele>20.799999237061</ele>
        <time>2020-06-25T07:28:14.000Z</time>
      </trkpt>
      <trkpt lat="47.26132" lon="-2.30162">
        <ele>20.39999961853</ele>
        <time>2020-06-25T07:28:15.000Z</time>
      </trkpt>
      <trkpt lat="47.26127" lon="-2.30163">
        <ele>20</ele>
        <time>2020-06-25T07:28:16.000Z</time>
      </trkpt>
      <trkpt lat="47.26122" lon="-2.30165">
        <ele>19.60000038147</ele>
        <time>2020-06-25T07:28:17.000Z</time>
      </trkpt>
      <trkpt lat="47.26119" lon="-2.30166">
        <ele>19.200000762939</ele>
        <time>2020-06-25T07:28:18.000Z</time>
      </trkpt>
      <trkpt lat="47.26115" lon="-2.30167">
        <ele>19.200000762939</ele>
        <time>2020-06-25T07:28:19.000Z</time>
      </trkpt>
      <trkpt lat="47.26105" lon="-2.30166">
        <ele>18.60000038147</ele>
        <time>2020-06-25T07:28:22.000Z</time>
      </trkpt>
      <trkpt lat="47.26103" lon="-2.30163">
        <ele>18.200000762939</ele>
        <time>2020-06-25T07:28:23.000Z</time>
      </trkpt>
      <trkpt lat="47.26101" lon="-2.30159">
        <ele>17.799999237061</ele>
        <time>2020-06-25T07:28:24.000Z</time>
      </trkpt>
      <trkpt lat="47.26099" lon="-2.30157">
        <ele>17.39999961853</ele>
        <time>2020-06-25T07:28:25.000Z</time>
      </trkpt>
      <trkpt lat="47.26097" lon="-2.30157">
        <ele>17</ele>
        <time>2020-06-25T07:28:26.000Z</time>
      </trkpt>
      <trkpt lat="47.2609" lon="-2.30158">
        <ele>17</ele>
        <time>2020-06-25T07:28:28.000Z</time>
      </trkpt>
      <trkpt lat="47.26083" lon="-2.3016">
        <ele>17</ele>
        <time>2020-06-25T07:28:30.000Z</time>
      </trkpt>
      <trkpt lat="47.26076" lon="-2.3016">
        <ele>17</ele>
        <time>2020-06-25T07:28:32.000Z</time>
      </trkpt>
      <trkpt lat="47.2607" lon="-2.30154">
        <ele>16.60000038147</ele>
        <time>2020-06-25T07:28:34.000Z</time>
      </trkpt>
      <trkpt lat="47.26067" lon="-2.30151">
        <ele>16.200000762939</ele>
        <time>2020-06-25T07:28:35.000Z</time>
      </trkpt>
      <trkpt lat="47.26063" lon="-2.30149">
        <ele>15.800000190735</ele>
        <time>2020-06-25T07:28:36.000Z</time>
      </trkpt>
      <trkpt lat="47.26059" lon="-2.30148">
        <ele>15.199999809265</ele>
        <time>2020-06-25T07:28:37.000Z</time>
      </trkpt>
      <trkpt lat="47.26055" lon="-2.30149">
        <ele>14.800000190735</ele>
        <time>2020-06-25T07:28:38.000Z</time>
      </trkpt>
      <trkpt lat="47.26051" lon="-2.3015">
        <ele>14.800000190735</ele>
        <time>2020-06-25T07:28:39.000Z</time>
      </trkpt>
      <trkpt lat="47.2603" lon="-2.30147">
        <ele>14.800000190735</ele>
        <time>2020-06-25T07:28:44.000Z</time>
      </trkpt>
      <trkpt lat="47.2602" lon="-2.30147">
        <ele>14.800000190735</ele>
        <time>2020-06-25T07:28:46.000Z</time>
      </trkpt>
      <trkpt lat="47.26015" lon="-2.30147">
        <ele>14.39999961853</ele>
        <time>2020-06-25T07:28:47.000Z</time>
      </trkpt>
      <trkpt lat="47.2601" lon="-2.30147">
        <ele>14</ele>
        <time>2020-06-25T07:28:48.000Z</time>
      </trkpt>
      <trkpt lat="47.26005" lon="-2.30147">
        <ele>13.60000038147</ele>
        <time>2020-06-25T07:28:49.000Z</time>
      </trkpt>
      <trkpt lat="47.26" lon="-2.30147">
        <ele>13.199999809265</ele>
        <time>2020-06-25T07:28:50.000Z</time>
      </trkpt>
      <trkpt lat="47.25994" lon="-2.30148">
        <ele>12.800000190735</ele>
        <time>2020-06-25T07:28:51.000Z</time>
      </trkpt>
      <trkpt lat="47.25982" lon="-2.3015">
        <ele>12.800000190735</ele>
        <time>2020-06-25T07:28:53.000Z</time>
      </trkpt>
      <trkpt lat="47.25976" lon="-2.30152">
        <ele>12.800000190735</ele>
        <time>2020-06-25T07:28:54.000Z</time>
      </trkpt>
      <trkpt lat="47.25966" lon="-2.30161">
        <ele>12.39999961853</ele>
        <time>2020-06-25T07:28:56.000Z</time>
      </trkpt>
      <trkpt lat="47.25962" lon="-2.30166">
        <ele>12</ele>
        <time>2020-06-25T07:28:57.000Z</time>
      </trkpt>
      <trkpt lat="47.25958" lon="-2.30171">
        <ele>11.60000038147</ele>
        <time>2020-06-25T07:28:58.000Z</time>
      </trkpt>
      <trkpt lat="47.25953" lon="-2.30174">
        <ele>11.199999809265</ele>
        <time>2020-06-25T07:28:59.000Z</time>
      </trkpt>
      <trkpt lat="47.25948" lon="-2.30177">
        <ele>10.800000190735</ele>
        <time>2020-06-25T07:29:00.000Z</time>
      </trkpt>
      <trkpt lat="47.25936" lon="-2.30178">
        <ele>10.800000190735</ele>
        <time>2020-06-25T07:29:02.000Z</time>
      </trkpt>
      <trkpt lat="47.25931" lon="-2.30178">
        <ele>10.800000190735</ele>
        <time>2020-06-25T07:29:03.000Z</time>
      </trkpt>
      <trkpt lat="47.2591" lon="-2.30179">
        <ele>10.800000190735</ele>
        <time>2020-06-25T07:29:07.000Z</time>
      </trkpt>
      <trkpt lat="47.25906" lon="-2.30179">
        <ele>10.800000190735</ele>
        <time>2020-06-25T07:29:08.000Z</time>
      </trkpt>
      <trkpt lat="47.25895" lon="-2.30188">
        <ele>10.800000190735</ele>
        <time>2020-06-25T07:29:11.000Z</time>
      </trkpt>
      <trkpt lat="47.25892" lon="-2.30207">
        <ele>11.199999809265</ele>
        <time>2020-06-25T07:29:14.000Z</time>
      </trkpt>
      <trkpt lat="47.25893" lon="-2.30214">
        <ele>11.60000038147</ele>
        <time>2020-06-25T07:29:15.000Z</time>
      </trkpt>
      <trkpt lat="47.25893" lon="-2.30222">
        <ele>12</ele>
        <time>2020-06-25T07:29:16.000Z</time>
      </trkpt>
      <trkpt lat="47.25894" lon="-2.30229">
        <ele>12.39999961853</ele>
        <time>2020-06-25T07:29:17.000Z</time>
      </trkpt>
      <trkpt lat="47.25895" lon="-2.30237">
        <ele>12.800000190735</ele>
        <time>2020-06-25T07:29:18.000Z</time>
      </trkpt>
      <trkpt lat="47.25896" lon="-2.30253">
        <ele>12.800000190735</ele>
        <time>2020-06-25T07:29:20.000Z</time>
      </trkpt>
      <trkpt lat="47.25897" lon="-2.30292">
        <ele>12.800000190735</ele>
        <time>2020-06-25T07:29:25.000Z</time>
      </trkpt>
      <trkpt lat="47.25894" lon="-2.30306">
        <ele>12.800000190735</ele>
        <time>2020-06-25T07:29:27.000Z</time>
      </trkpt>
      <trkpt lat="47.2588" lon="-2.3031">
        <ele>12.800000190735</ele>
        <time>2020-06-25T07:29:30.000Z</time>
      </trkpt>
      <trkpt lat="47.25867" lon="-2.30295">
        <ele>12.800000190735</ele>
        <time>2020-06-25T07:29:33.000Z</time>
      </trkpt>
      <trkpt lat="47.25844" lon="-2.30277">
        <ele>12.800000190735</ele>
        <time>2020-06-25T07:29:37.000Z</time>
      </trkpt>
      <trkpt lat="47.25838" lon="-2.30273">
        <ele>12.800000190735</ele>
        <time>2020-06-25T07:29:38.000Z</time>
      </trkpt>
      <trkpt lat="47.25802" lon="-2.30256">
        <ele>12.800000190735</ele>
        <time>2020-06-25T07:29:43.000Z</time>
      </trkpt>
      <trkpt lat="47.25747" lon="-2.30229">
        <ele>12.800000190735</ele>
        <time>2020-06-25T07:29:51.000Z</time>
      </trkpt>
      <trkpt lat="47.25741" lon="-2.30226">
        <ele>12.800000190735</ele>
        <time>2020-06-25T07:29:52.000Z</time>
      </trkpt>
      <trkpt lat="47.25723" lon="-2.30218">
        <ele>12.800000190735</ele>
        <time>2020-06-25T07:29:55.000Z</time>
      </trkpt>
      <trkpt lat="47.25711" lon="-2.30219">
        <ele>12.800000190735</ele>
        <time>2020-06-25T07:29:57.000Z</time>
      </trkpt>
      <trkpt lat="47.25697" lon="-2.30231">
        <ele>12.800000190735</ele>
        <time>2020-06-25T07:30:00.000Z</time>
      </trkpt>
      <trkpt lat="47.25689" lon="-2.30253">
        <ele>13.199999809265</ele>
        <time>2020-06-25T07:30:03.000Z</time>
      </trkpt>
      <trkpt lat="47.25688" lon="-2.30261">
        <ele>13.60000038147</ele>
        <time>2020-06-25T07:30:04.000Z</time>
      </trkpt>
      <trkpt lat="47.25687" lon="-2.30269">
        <ele>14.199999809265</ele>
        <time>2020-06-25T07:30:05.000Z</time>
      </trkpt>
      <trkpt lat="47.25687" lon="-2.30277">
        <ele>14.60000038147</ele>
        <time>2020-06-25T07:30:06.000Z</time>
      </trkpt>
      <trkpt lat="47.25688" lon="-2.30285">
        <ele>15</ele>
        <time>2020-06-25T07:30:07.000Z</time>
      </trkpt>
      <trkpt lat="47.25687" lon="-2.30301">
        <ele>15</ele>
        <time>2020-06-25T07:30:09.000Z</time>
      </trkpt>
      <trkpt lat="47.25676" lon="-2.30319">
        <ele>15</ele>
        <time>2020-06-25T07:30:12.000Z</time>
      </trkpt>
      <trkpt lat="47.25661" lon="-2.3033">
        <ele>15</ele>
        <time>2020-06-25T07:30:15.000Z</time>
      </trkpt>
      <trkpt lat="47.25656" lon="-2.30334">
        <ele>15</ele>
        <time>2020-06-25T07:30:16.000Z</time>
      </trkpt>
      <trkpt lat="47.25652" lon="-2.30338">
        <ele>15</ele>
        <time>2020-06-25T07:30:17.000Z</time>
      </trkpt>
      <trkpt lat="47.25636" lon="-2.30346">
        <ele>15</ele>
        <time>2020-06-25T07:30:21.000Z</time>
      </trkpt>
      <trkpt lat="47.25629" lon="-2.30329">
        <ele>15</ele>
        <time>2020-06-25T07:30:24.000Z</time>
      </trkpt>
      <trkpt lat="47.25628" lon="-2.30314">
        <ele>15</ele>
        <time>2020-06-25T07:30:26.000Z</time>
      </trkpt>
      <trkpt lat="47.25625" lon="-2.3029">
        <ele>15</ele>
        <time>2020-06-25T07:30:29.000Z</time>
      </trkpt>
      <trkpt lat="47.25616" lon="-2.30234">
        <ele>15</ele>
        <time>2020-06-25T07:30:36.000Z</time>
      </trkpt>
      <trkpt lat="47.25602" lon="-2.30208">
        <ele>15</ele>
        <time>2020-06-25T07:30:40.000Z</time>
      </trkpt>
      <trkpt lat="47.25583" lon="-2.30192">
        <ele>15</ele>
        <time>2020-06-25T07:30:44.000Z</time>
      </trkpt>
      <trkpt lat="47.25579" lon="-2.30189">
        <ele>15</ele>
        <time>2020-06-25T07:30:45.000Z</time>
      </trkpt>
      <trkpt lat="47.25574" lon="-2.30186">
        <ele>15</ele>
        <time>2020-06-25T07:30:46.000Z</time>
      </trkpt>
      <trkpt lat="47.25553" lon="-2.30184">
        <ele>15</ele>
        <time>2020-06-25T07:30:50.000Z</time>
      </trkpt>
      <trkpt lat="47.25544" lon="-2.30188">
        <ele>15</ele>
        <time>2020-06-25T07:30:52.000Z</time>
      </trkpt>
      <trkpt lat="47.25526" lon="-2.30198">
        <ele>15</ele>
        <time>2020-06-25T07:30:56.000Z</time>
      </trkpt>
      <trkpt lat="47.25509" lon="-2.30198">
        <ele>15</ele>
        <time>2020-06-25T07:31:00.000Z</time>
      </trkpt>
      <trkpt lat="47.25499" lon="-2.30205">
        <ele>15</ele>
        <time>2020-06-25T07:31:03.000Z</time>
      </trkpt>
      <trkpt lat="47.25491" lon="-2.30212">
        <ele>15</ele>
        <time>2020-06-25T07:31:05.000Z</time>
      </trkpt>
      <trkpt lat="47.25488" lon="-2.30216">
        <ele>15</ele>
        <time>2020-06-25T07:31:06.000Z</time>
      </trkpt>
      <trkpt lat="47.25484" lon="-2.30225">
        <ele>15.39999961853</ele>
        <time>2020-06-25T07:31:08.000Z</time>
      </trkpt>
      <trkpt lat="47.25483" lon="-2.30232">
        <ele>15.800000190735</ele>
        <time>2020-06-25T07:31:09.000Z</time>
      </trkpt>
      <trkpt lat="47.25481" lon="-2.30236">
        <ele>16.200000762939</ele>
        <time>2020-06-25T07:31:10.000Z</time>
      </trkpt>
      <trkpt lat="47.25478" lon="-2.30241">
        <ele>17</ele>
        <time>2020-06-25T07:31:11.000Z</time>
      </trkpt>
      <trkpt lat="47.25475" lon="-2.30242">
        <ele>17</ele>
        <time>2020-06-25T07:31:12.000Z</time>
      </trkpt>
      <trkpt lat="47.25466" lon="-2.30239">
        <ele>17</ele>
        <time>2020-06-25T07:31:15.000Z</time>
      </trkpt>
      <trkpt lat="47.25459" lon="-2.30238">
        <ele>17</ele>
        <time>2020-06-25T07:31:17.000Z</time>
      </trkpt>
      <trkpt lat="47.25431" lon="-2.30234">
        <ele>17</ele>
        <time>2020-06-25T07:31:24.000Z</time>
      </trkpt>
      <trkpt lat="47.25408" lon="-2.30228">
        <ele>17</ele>
        <time>2020-06-25T07:31:29.000Z</time>
      </trkpt>
      <trkpt lat="47.25398" lon="-2.30224">
        <ele>17.39999961853</ele>
        <time>2020-06-25T07:31:31.000Z</time>
      </trkpt>
      <trkpt lat="47.25393" lon="-2.30222">
        <ele>17.799999237061</ele>
        <time>2020-06-25T07:31:32.000Z</time>
      </trkpt>
      <trkpt lat="47.25388" lon="-2.3022">
        <ele>18.200000762939</ele>
        <time>2020-06-25T07:31:33.000Z</time>
      </trkpt>
      <trkpt lat="47.25382" lon="-2.30218">
        <ele>18.60000038147</ele>
        <time>2020-06-25T07:31:34.000Z</time>
      </trkpt>
      <trkpt lat="47.25376" lon="-2.30217">
        <ele>19</ele>
        <time>2020-06-25T07:31:35.000Z</time>
      </trkpt>
      <trkpt lat="47.25369" lon="-2.30215">
        <ele>19</ele>
        <time>2020-06-25T07:31:36.000Z</time>
      </trkpt>
      <trkpt lat="47.25336" lon="-2.30212">
        <ele>19</ele>
        <time>2020-06-25T07:31:42.000Z</time>
      </trkpt>
      <trkpt lat="47.25311" lon="-2.30211">
        <ele>19</ele>
        <time>2020-06-25T07:31:48.000Z</time>
      </trkpt>
      <trkpt lat="47.25305" lon="-2.30217">
        <ele>19</ele>
        <time>2020-06-25T07:31:51.000Z</time>
      </trkpt>
      <trkpt lat="47.25301" lon="-2.30216">
        <ele>19</ele>
        <time>2020-06-25T07:31:53.000Z</time>
      </trkpt>
      <trkpt lat="47.25295" lon="-2.30213">
        <ele>19</ele>
        <time>2020-06-25T07:31:55.000Z</time>
      </trkpt>
      <trkpt lat="47.25291" lon="-2.30212">
        <ele>19.39999961853</ele>
        <time>2020-06-25T07:31:56.000Z</time>
      </trkpt>
      <trkpt lat="47.25287" lon="-2.30211">
        <ele>20</ele>
        <time>2020-06-25T07:31:57.000Z</time>
      </trkpt>
      <trkpt lat="47.25282" lon="-2.30209">
        <ele>20.39999961853</ele>
        <time>2020-06-25T07:31:58.000Z</time>
      </trkpt>
      <trkpt lat="47.25278" lon="-2.30208">
        <ele>20.799999237061</ele>
        <time>2020-06-25T07:31:59.000Z</time>
      </trkpt>
      <trkpt lat="47.25273" lon="-2.30205">
        <ele>21.200000762939</ele>
        <time>2020-06-25T07:32:00.000Z</time>
      </trkpt>
      <trkpt lat="47.25247" lon="-2.30193">
        <ele>21.200000762939</ele>
        <time>2020-06-25T07:32:06.000Z</time>
      </trkpt>
      <trkpt lat="47.25234" lon="-2.30187">
        <ele>21.60000038147</ele>
        <time>2020-06-25T07:32:09.000Z</time>
      </trkpt>
      <trkpt lat="47.2523" lon="-2.30184">
        <ele>22</ele>
        <time>2020-06-25T07:32:10.000Z</time>
      </trkpt>
      <trkpt lat="47.25227" lon="-2.30181">
        <ele>22.39999961853</ele>
        <time>2020-06-25T07:32:11.000Z</time>
      </trkpt>
      <trkpt lat="47.25224" lon="-2.30177">
        <ele>22.799999237061</ele>
        <time>2020-06-25T07:32:12.000Z</time>
      </trkpt>
      <trkpt lat="47.2522" lon="-2.30173">
        <ele>23.200000762939</ele>
        <time>2020-06-25T07:32:13.000Z</time>
      </trkpt>
      <trkpt lat="47.25203" lon="-2.30155">
        <ele>23.200000762939</ele>
        <time>2020-06-25T07:32:17.000Z</time>
      </trkpt>
      <trkpt lat="47.25189" lon="-2.3013">
        <ele>23.200000762939</ele>
        <time>2020-06-25T07:32:22.000Z</time>
      </trkpt>
      <trkpt lat="47.25186" lon="-2.30128">
        <ele>23.60000038147</ele>
        <time>2020-06-25T07:32:23.000Z</time>
      </trkpt>
      <trkpt lat="47.25181" lon="-2.30127">
        <ele>24</ele>
        <time>2020-06-25T07:32:24.000Z</time>
      </trkpt>
      <trkpt lat="47.25177" lon="-2.30127">
        <ele>24.39999961853</ele>
        <time>2020-06-25T07:32:25.000Z</time>
      </trkpt>
      <trkpt lat="47.25171" lon="-2.30128">
        <ele>25.200000762939</ele>
        <time>2020-06-25T07:32:26.000Z</time>
      </trkpt>
      <trkpt lat="47.25166" lon="-2.30129">
        <ele>25.200000762939</ele>
        <time>2020-06-25T07:32:27.000Z</time>
      </trkpt>
      <trkpt lat="47.25159" lon="-2.30132">
        <ele>25.200000762939</ele>
        <time>2020-06-25T07:32:29.000Z</time>
      </trkpt>
      <trkpt lat="47.25136" lon="-2.30136">
        <ele>25.200000762939</ele>
        <time>2020-06-25T07:32:34.000Z</time>
      </trkpt>
      <trkpt lat="47.25132" lon="-2.30136">
        <ele>25.200000762939</ele>
        <time>2020-06-25T07:32:35.000Z</time>
      </trkpt>
      <trkpt lat="47.25117" lon="-2.30137">
        <ele>25.200000762939</ele>
        <time>2020-06-25T07:32:38.000Z</time>
      </trkpt>
      <trkpt lat="47.25111" lon="-2.30137">
        <ele>25.799999237061</ele>
        <time>2020-06-25T07:32:39.000Z</time>
      </trkpt>
      <trkpt lat="47.25105" lon="-2.30138">
        <ele>26.200000762939</ele>
        <time>2020-06-25T07:32:40.000Z</time>
      </trkpt>
      <trkpt lat="47.25099" lon="-2.30139">
        <ele>26.60000038147</ele>
        <time>2020-06-25T07:32:41.000Z</time>
      </trkpt>
      <trkpt lat="47.25094" lon="-2.30139">
        <ele>27</ele>
        <time>2020-06-25T07:32:42.000Z</time>
      </trkpt>
      <trkpt lat="47.25089" lon="-2.3014">
        <ele>27.39999961853</ele>
        <time>2020-06-25T07:32:43.000Z</time>
      </trkpt>
      <trkpt lat="47.25079" lon="-2.30139">
        <ele>27.39999961853</ele>
        <time>2020-06-25T07:32:45.000Z</time>
      </trkpt>
      <trkpt lat="47.25071" lon="-2.3013">
        <ele>27.39999961853</ele>
        <time>2020-06-25T07:32:47.000Z</time>
      </trkpt>
      <trkpt lat="47.25071" lon="-2.30109">
        <ele>27.39999961853</ele>
        <time>2020-06-25T07:32:50.000Z</time>
      </trkpt>
      <trkpt lat="47.25071" lon="-2.30102">
        <ele>27.39999961853</ele>
        <time>2020-06-25T07:32:51.000Z</time>
      </trkpt>
      <trkpt lat="47.25074" lon="-2.30068">
        <ele>27.39999961853</ele>
        <time>2020-06-25T07:32:56.000Z</time>
      </trkpt>
      <trkpt lat="47.25073" lon="-2.30059">
        <ele>27.39999961853</ele>
        <time>2020-06-25T07:32:58.000Z</time>
      </trkpt>
      <trkpt lat="47.2507" lon="-2.30058">
        <ele>27.39999961853</ele>
        <time>2020-06-25T07:32:59.000Z</time>
      </trkpt>
      <trkpt lat="47.25058" lon="-2.30057">
        <ele>27.39999961853</ele>
        <time>2020-06-25T07:33:04.000Z</time>
      </trkpt>
      <trkpt lat="47.25039" lon="-2.30057">
        <ele>27.39999961853</ele>
        <time>2020-06-25T07:33:09.000Z</time>
      </trkpt>
      <trkpt lat="47.2501" lon="-2.30055">
        <ele>27.39999961853</ele>
        <time>2020-06-25T07:33:15.000Z</time>
      </trkpt>
      <trkpt lat="47.24995" lon="-2.30057">
        <ele>27.799999237061</ele>
        <time>2020-06-25T07:33:18.000Z</time>
      </trkpt>
      <trkpt lat="47.2499" lon="-2.30057">
        <ele>28.200000762939</ele>
        <time>2020-06-25T07:33:19.000Z</time>
      </trkpt>
      <trkpt lat="47.24985" lon="-2.30058">
        <ele>28.60000038147</ele>
        <time>2020-06-25T07:33:20.000Z</time>
      </trkpt>
      <trkpt lat="47.2498" lon="-2.30058">
        <ele>29</ele>
        <time>2020-06-25T07:33:21.000Z</time>
      </trkpt>
      <trkpt lat="47.24975" lon="-2.30058">
        <ele>29.39999961853</ele>
        <time>2020-06-25T07:33:22.000Z</time>
      </trkpt>
      <trkpt lat="47.24944" lon="-2.30058">
        <ele>29.39999961853</ele>
        <time>2020-06-25T07:33:28.000Z</time>
      </trkpt>
      <trkpt lat="47.24909" lon="-2.30058">
        <ele>29.39999961853</ele>
        <time>2020-06-25T07:33:35.000Z</time>
      </trkpt>
      <trkpt lat="47.24906" lon="-2.30055">
        <ele>29.39999961853</ele>
        <time>2020-06-25T07:33:36.000Z</time>
      </trkpt>
      <trkpt lat="47.24904" lon="-2.30043">
        <ele>29.39999961853</ele>
        <time>2020-06-25T07:33:38.000Z</time>
      </trkpt>
      <trkpt lat="47.24903" lon="-2.3002">
        <ele>29.39999961853</ele>
        <time>2020-06-25T07:33:41.000Z</time>
      </trkpt>
      <trkpt lat="47.24901" lon="-2.30012">
        <ele>29.39999961853</ele>
        <time>2020-06-25T07:33:42.000Z</time>
      </trkpt>
      <trkpt lat="47.24885" lon="-2.2995">
        <ele>29.39999961853</ele>
        <time>2020-06-25T07:33:50.000Z</time>
      </trkpt>
      <trkpt lat="47.24881" lon="-2.29935">
        <ele>29.39999961853</ele>
        <time>2020-06-25T07:33:52.000Z</time>
      </trkpt>
      <trkpt lat="47.2488" lon="-2.29927">
        <ele>29.799999237061</ele>
        <time>2020-06-25T07:33:53.000Z</time>
      </trkpt>
      <trkpt lat="47.24878" lon="-2.29919">
        <ele>30.200000762939</ele>
        <time>2020-06-25T07:33:54.000Z</time>
      </trkpt>
      <trkpt lat="47.24877" lon="-2.29912">
        <ele>30.60000038147</ele>
        <time>2020-06-25T07:33:55.000Z</time>
      </trkpt>
      <trkpt lat="47.24876" lon="-2.29904">
        <ele>31</ele>
        <time>2020-06-25T07:33:56.000Z</time>
      </trkpt>
      <trkpt lat="47.24875" lon="-2.29896">
        <ele>31.39999961853</ele>
        <time>2020-06-25T07:33:57.000Z</time>
      </trkpt>
      <trkpt lat="47.24871" lon="-2.29875">
        <ele>31.39999961853</ele>
        <time>2020-06-25T07:34:00.000Z</time>
      </trkpt>
      <trkpt lat="47.24868" lon="-2.2986">
        <ele>31.39999961853</ele>
        <time>2020-06-25T07:34:02.000Z</time>
      </trkpt>
      <trkpt lat="47.24862" lon="-2.29834">
        <ele>31.39999961853</ele>
        <time>2020-06-25T07:34:06.000Z</time>
      </trkpt>
      <trkpt lat="47.24858" lon="-2.29832">
        <ele>31.39999961853</ele>
        <time>2020-06-25T07:34:07.000Z</time>
      </trkpt>
      <trkpt lat="47.24846" lon="-2.29839">
        <ele>31.39999961853</ele>
        <time>2020-06-25T07:34:10.000Z</time>
      </trkpt>
      <trkpt lat="47.24836" lon="-2.29843">
        <ele>31.39999961853</ele>
        <time>2020-06-25T07:34:12.000Z</time>
      </trkpt>
      <trkpt lat="47.24822" lon="-2.29851">
        <ele>31.39999961853</ele>
        <time>2020-06-25T07:34:15.000Z</time>
      </trkpt>
      <trkpt lat="47.24791" lon="-2.29865">
        <ele>31.39999961853</ele>
        <time>2020-06-25T07:34:20.000Z</time>
      </trkpt>
      <trkpt lat="47.24751" lon="-2.29896">
        <ele>31.39999961853</ele>
        <time>2020-06-25T07:34:27.000Z</time>
      </trkpt>
      <trkpt lat="47.24744" lon="-2.29917">
        <ele>31.39999961853</ele>
        <time>2020-06-25T07:34:30.000Z</time>
      </trkpt>
      <trkpt lat="47.24743" lon="-2.29946">
        <ele>31.39999961853</ele>
        <time>2020-06-25T07:34:33.000Z</time>
      </trkpt>
      <trkpt lat="47.24743" lon="-2.29956">
        <ele>31.39999961853</ele>
        <time>2020-06-25T07:34:34.000Z</time>
      </trkpt>
      <trkpt lat="47.2474" lon="-2.29976">
        <ele>31.39999961853</ele>
        <time>2020-06-25T07:34:36.000Z</time>
      </trkpt>
      <trkpt lat="47.24735" lon="-2.29993">
        <ele>31.39999961853</ele>
        <time>2020-06-25T07:34:38.000Z</time>
      </trkpt>
      <trkpt lat="47.24722" lon="-2.30016">
        <ele>31.39999961853</ele>
        <time>2020-06-25T07:34:41.000Z</time>
      </trkpt>
      <trkpt lat="47.24717" lon="-2.30023">
        <ele>31.39999961853</ele>
        <time>2020-06-25T07:34:42.000Z</time>
      </trkpt>
      <trkpt lat="47.2469" lon="-2.30051">
        <ele>31.39999961853</ele>
        <time>2020-06-25T07:34:47.000Z</time>
      </trkpt>
      <trkpt lat="47.24684" lon="-2.30055">
        <ele>31.39999961853</ele>
        <time>2020-06-25T07:34:48.000Z</time>
      </trkpt>
      <trkpt lat="47.24673" lon="-2.30062">
        <ele>30.799999237061</ele>
        <time>2020-06-25T07:34:50.000Z</time>
      </trkpt>
      <trkpt lat="47.24667" lon="-2.30066">
        <ele>30.39999961853</ele>
        <time>2020-06-25T07:34:51.000Z</time>
      </trkpt>
      <trkpt lat="47.24662" lon="-2.30071">
        <ele>30</ele>
        <time>2020-06-25T07:34:52.000Z</time>
      </trkpt>
      <trkpt lat="47.24657" lon="-2.30075">
        <ele>29.39999961853</ele>
        <time>2020-06-25T07:34:53.000Z</time>
      </trkpt>
      <trkpt lat="47.24653" lon="-2.30079">
        <ele>29</ele>
        <time>2020-06-25T07:34:54.000Z</time>
      </trkpt>
      <trkpt lat="47.24648" lon="-2.30082">
        <ele>28.60000038147</ele>
        <time>2020-06-25T07:34:56.000Z</time>
      </trkpt>
      <trkpt lat="47.24646" lon="-2.30083">
        <ele>28</ele>
        <time>2020-06-25T07:34:57.000Z</time>
      </trkpt>
      <trkpt lat="47.24644" lon="-2.30085">
        <ele>27.60000038147</ele>
        <time>2020-06-25T07:34:58.000Z</time>
      </trkpt>
      <trkpt lat="47.24643" lon="-2.30087">
        <ele>27.200000762939</ele>
        <time>2020-06-25T07:34:59.000Z</time>
      </trkpt>
      <trkpt lat="47.24641" lon="-2.30089">
        <ele>26.60000038147</ele>
        <time>2020-06-25T07:35:00.000Z</time>
      </trkpt>
      <trkpt lat="47.24637" lon="-2.30093">
        <ele>26.60000038147</ele>
        <time>2020-06-25T07:35:02.000Z</time>
      </trkpt>
      <trkpt lat="47.2462" lon="-2.30109">
        <ele>26.60000038147</ele>
        <time>2020-06-25T07:35:10.000Z</time>
      </trkpt>
      <trkpt lat="47.24605" lon="-2.30123">
        <ele>26.60000038147</ele>
        <time>2020-06-25T07:35:17.000Z</time>
      </trkpt>
      <trkpt lat="47.24589" lon="-2.30144">
        <ele>26.60000038147</ele>
        <time>2020-06-25T07:35:25.000Z</time>
      </trkpt>
      <trkpt lat="47.24576" lon="-2.30165">
        <ele>26.60000038147</ele>
        <time>2020-06-25T07:35:32.000Z</time>
      </trkpt>
      <trkpt lat="47.24562" lon="-2.30189">
        <ele>26.60000038147</ele>
        <time>2020-06-25T07:35:39.000Z</time>
      </trkpt>
      <trkpt lat="47.24545" lon="-2.30209">
        <ele>26.60000038147</ele>
        <time>2020-06-25T07:35:46.000Z</time>
      </trkpt>
      <trkpt lat="47.24528" lon="-2.30227">
        <ele>26.200000762939</ele>
        <time>2020-06-25T07:35:52.000Z</time>
      </trkpt>
      <trkpt lat="47.24525" lon="-2.3023">
        <ele>25.799999237061</ele>
        <time>2020-06-25T07:35:53.000Z</time>
      </trkpt>
      <trkpt lat="47.24522" lon="-2.30233">
        <ele>25.39999961853</ele>
        <time>2020-06-25T07:35:54.000Z</time>
      </trkpt>
      <trkpt lat="47.24518" lon="-2.30236">
        <ele>25</ele>
        <time>2020-06-25T07:35:55.000Z</time>
      </trkpt>
      <trkpt lat="47.24514" lon="-2.30239">
        <ele>24.60000038147</ele>
        <time>2020-06-25T07:35:56.000Z</time>
      </trkpt>
      <trkpt lat="47.2451" lon="-2.30241">
        <ele>24.60000038147</ele>
        <time>2020-06-25T07:35:57.000Z</time>
      </trkpt>
      <trkpt lat="47.24499" lon="-2.30249">
        <ele>24.60000038147</ele>
        <time>2020-06-25T07:36:00.000Z</time>
      </trkpt>
      <trkpt lat="47.24494" lon="-2.30251">
        <ele>24.60000038147</ele>
        <time>2020-06-25T07:36:01.000Z</time>
      </trkpt>
      <trkpt lat="47.2449" lon="-2.30248">
        <ele>24.60000038147</ele>
        <time>2020-06-25T07:36:02.000Z</time>
      </trkpt>
      <trkpt lat="47.24484" lon="-2.30239">
        <ele>24.60000038147</ele>
        <time>2020-06-25T07:36:04.000Z</time>
      </trkpt>
      <trkpt lat="47.24478" lon="-2.30228">
        <ele>24.60000038147</ele>
        <time>2020-06-25T07:36:06.000Z</time>
      </trkpt>
      <trkpt lat="47.24473" lon="-2.30217">
        <ele>24.60000038147</ele>
        <time>2020-06-25T07:36:09.000Z</time>
      </trkpt>
      <trkpt lat="47.24467" lon="-2.30201">
        <ele>24.60000038147</ele>
        <time>2020-06-25T07:36:14.000Z</time>
      </trkpt>
      <trkpt lat="47.24454" lon="-2.3019">
        <ele>24.60000038147</ele>
        <time>2020-06-25T07:36:20.000Z</time>
      </trkpt>
      <trkpt lat="47.24443" lon="-2.30173">
        <ele>24.60000038147</ele>
        <time>2020-06-25T07:36:25.000Z</time>
      </trkpt>
      <trkpt lat="47.2443" lon="-2.30155">
        <ele>24.60000038147</ele>
        <time>2020-06-25T07:36:31.000Z</time>
      </trkpt>
      <trkpt lat="47.24409" lon="-2.30142">
        <ele>24.60000038147</ele>
        <time>2020-06-25T07:36:37.000Z</time>
      </trkpt>
      <trkpt lat="47.24398" lon="-2.3012">
        <ele>24.60000038147</ele>
        <time>2020-06-25T07:36:41.000Z</time>
      </trkpt>
      <trkpt lat="47.24391" lon="-2.30103">
        <ele>24.60000038147</ele>
        <time>2020-06-25T07:36:44.000Z</time>
      </trkpt>
      <trkpt lat="47.24382" lon="-2.30091">
        <ele>24.60000038147</ele>
        <time>2020-06-25T07:36:47.000Z</time>
      </trkpt>
      <trkpt lat="47.24369" lon="-2.30093">
        <ele>24.60000038147</ele>
        <time>2020-06-25T07:36:50.000Z</time>
      </trkpt>
      <trkpt lat="47.24356" lon="-2.30108">
        <ele>24.60000038147</ele>
        <time>2020-06-25T07:36:54.000Z</time>
      </trkpt>
      <trkpt lat="47.24353" lon="-2.30112">
        <ele>24.60000038147</ele>
        <time>2020-06-25T07:36:55.000Z</time>
      </trkpt>
      <trkpt lat="47.24339" lon="-2.30125">
        <ele>24.60000038147</ele>
        <time>2020-06-25T07:37:00.000Z</time>
      </trkpt>
      <trkpt lat="47.2432" lon="-2.30133">
        <ele>24.60000038147</ele>
        <time>2020-06-25T07:37:06.000Z</time>
      </trkpt>
      <trkpt lat="47.24306" lon="-2.30123">
        <ele>24.60000038147</ele>
        <time>2020-06-25T07:37:10.000Z</time>
      </trkpt>
      <trkpt lat="47.24301" lon="-2.30121">
        <ele>24.60000038147</ele>
        <time>2020-06-25T07:37:11.000Z</time>
      </trkpt>
      <trkpt lat="47.24286" lon="-2.30125">
        <ele>24.60000038147</ele>
        <time>2020-06-25T07:37:14.000Z</time>
      </trkpt>
      <trkpt lat="47.24273" lon="-2.30138">
        <ele>24.60000038147</ele>
        <time>2020-06-25T07:37:17.000Z</time>
      </trkpt>
      <trkpt lat="47.24269" lon="-2.30142">
        <ele>24.60000038147</ele>
        <time>2020-06-25T07:37:18.000Z</time>
      </trkpt>
      <trkpt lat="47.24252" lon="-2.30165">
        <ele>23.799999237061</ele>
        <time>2020-06-25T07:37:22.000Z</time>
      </trkpt>
      <trkpt lat="47.24248" lon="-2.30172">
        <ele>23.39999961853</ele>
        <time>2020-06-25T07:37:23.000Z</time>
      </trkpt>
      <trkpt lat="47.24245" lon="-2.30179">
        <ele>23</ele>
        <time>2020-06-25T07:37:24.000Z</time>
      </trkpt>
      <trkpt lat="47.24242" lon="-2.30187">
        <ele>22.60000038147</ele>
        <time>2020-06-25T07:37:25.000Z</time>
      </trkpt>
      <trkpt lat="47.24231" lon="-2.3021">
        <ele>22.60000038147</ele>
        <time>2020-06-25T07:37:28.000Z</time>
      </trkpt>
      <trkpt lat="47.24227" lon="-2.30216">
        <ele>22</ele>
        <time>2020-06-25T07:37:29.000Z</time>
      </trkpt>
      <trkpt lat="47.24223" lon="-2.30221">
        <ele>21.60000038147</ele>
        <time>2020-06-25T07:37:30.000Z</time>
      </trkpt>
      <trkpt lat="47.24218" lon="-2.30225">
        <ele>21.200000762939</ele>
        <time>2020-06-25T07:37:31.000Z</time>
      </trkpt>
      <trkpt lat="47.24213" lon="-2.30228">
        <ele>20.799999237061</ele>
        <time>2020-06-25T07:37:32.000Z</time>
      </trkpt>
      <trkpt lat="47.24208" lon="-2.3023">
        <ele>20.39999961853</ele>
        <time>2020-06-25T07:37:33.000Z</time>
      </trkpt>
      <trkpt lat="47.24203" lon="-2.30232">
        <ele>20</ele>
        <time>2020-06-25T07:37:34.000Z</time>
      </trkpt>
      <trkpt lat="47.24199" lon="-2.30233">
        <ele>19.39999961853</ele>
        <time>2020-06-25T07:37:35.000Z</time>
      </trkpt>
      <trkpt lat="47.24196" lon="-2.30235">
        <ele>19</ele>
        <time>2020-06-25T07:37:36.000Z</time>
      </trkpt>
      <trkpt lat="47.24193" lon="-2.30238">
        <ele>18.60000038147</ele>
        <time>2020-06-25T07:37:37.000Z</time>
      </trkpt>
      <trkpt lat="47.2419" lon="-2.3024">
        <ele>18</ele>
        <time>2020-06-25T07:37:38.000Z</time>
      </trkpt>
      <trkpt lat="47.24188" lon="-2.30242">
        <ele>17.60000038147</ele>
        <time>2020-06-25T07:37:39.000Z</time>
      </trkpt>
      <trkpt lat="47.24186" lon="-2.30243">
        <ele>17</ele>
        <time>2020-06-25T07:37:40.000Z</time>
      </trkpt>
      <trkpt lat="47.24184" lon="-2.30244">
        <ele>16.60000038147</ele>
        <time>2020-06-25T07:37:41.000Z</time>
      </trkpt>
      <trkpt lat="47.24182" lon="-2.30244">
        <ele>16</ele>
        <time>2020-06-25T07:37:42.000Z</time>
      </trkpt>
      <trkpt lat="47.24173" lon="-2.30245">
        <ele>16</ele>
        <time>2020-06-25T07:37:47.000Z</time>
      </trkpt>
      <trkpt lat="47.24162" lon="-2.30232">
        <ele>16</ele>
        <time>2020-06-25T07:37:53.000Z</time>
      </trkpt>
      <trkpt lat="47.24154" lon="-2.30212">
        <ele>16</ele>
        <time>2020-06-25T07:37:59.000Z</time>
      </trkpt>
      <trkpt lat="47.2415" lon="-2.30199">
        <ele>16.39999961853</ele>
        <time>2020-06-25T07:38:03.000Z</time>
      </trkpt>
      <trkpt lat="47.2415" lon="-2.30196">
        <ele>16.799999237061</ele>
        <time>2020-06-25T07:38:04.000Z</time>
      </trkpt>
      <trkpt lat="47.24149" lon="-2.30193">
        <ele>17.200000762939</ele>
        <time>2020-06-25T07:38:05.000Z</time>
      </trkpt>
      <trkpt lat="47.24148" lon="-2.3019">
        <ele>17.60000038147</ele>
        <time>2020-06-25T07:38:06.000Z</time>
      </trkpt>
      <trkpt lat="47.24147" lon="-2.30186">
        <ele>18</ele>
        <time>2020-06-25T07:38:07.000Z</time>
      </trkpt>
      <trkpt lat="47.24143" lon="-2.30172">
        <ele>18</ele>
        <time>2020-06-25T07:38:11.000Z</time>
      </trkpt>
      <trkpt lat="47.24142" lon="-2.30155">
        <ele>18.39999961853</ele>
        <time>2020-06-25T07:38:16.000Z</time>
      </trkpt>
      <trkpt lat="47.24142" lon="-2.30152">
        <ele>18.799999237061</ele>
        <time>2020-06-25T07:38:17.000Z</time>
      </trkpt>
      <trkpt lat="47.24142" lon="-2.30148">
        <ele>19.200000762939</ele>
        <time>2020-06-25T07:38:18.000Z</time>
      </trkpt>
      <trkpt lat="47.24143" lon="-2.30145">
        <ele>19.799999237061</ele>
        <time>2020-06-25T07:38:19.000Z</time>
      </trkpt>
      <trkpt lat="47.24143" lon="-2.30141">
        <ele>20.200000762939</ele>
        <time>2020-06-25T07:38:20.000Z</time>
      </trkpt>
      <trkpt lat="47.24144" lon="-2.30124">
        <ele>20.200000762939</ele>
        <time>2020-06-25T07:38:25.000Z</time>
      </trkpt>
      <trkpt lat="47.24145" lon="-2.3011">
        <ele>20.200000762939</ele>
        <time>2020-06-25T07:38:29.000Z</time>
      </trkpt>
      <trkpt lat="47.24144" lon="-2.30107">
        <ele>20.60000038147</ele>
        <time>2020-06-25T07:38:30.000Z</time>
      </trkpt>
      <trkpt lat="47.24144" lon="-2.30104">
        <ele>21</ele>
        <time>2020-06-25T07:38:31.000Z</time>
      </trkpt>
      <trkpt lat="47.24143" lon="-2.301">
        <ele>21.39999961853</ele>
        <time>2020-06-25T07:38:32.000Z</time>
      </trkpt>
      <trkpt lat="47.24143" lon="-2.30098">
        <ele>21.799999237061</ele>
        <time>2020-06-25T07:38:33.000Z</time>
      </trkpt>
      <trkpt lat="47.24142" lon="-2.30094">
        <ele>22.200000762939</ele>
        <time>2020-06-25T07:38:34.000Z</time>
      </trkpt>
      <trkpt lat="47.2414" lon="-2.30083">
        <ele>22.200000762939</ele>
        <time>2020-06-25T07:38:37.000Z</time>
      </trkpt>
      <trkpt lat="47.24139" lon="-2.30074">
        <ele>22.200000762939</ele>
        <time>2020-06-25T07:38:39.000Z</time>
      </trkpt>
      <trkpt lat="47.24142" lon="-2.30063">
        <ele>22.200000762939</ele>
        <time>2020-06-25T07:38:42.000Z</time>
      </trkpt>
      <trkpt lat="47.24143" lon="-2.30059">
        <ele>22.60000038147</ele>
        <time>2020-06-25T07:38:43.000Z</time>
      </trkpt>
      <trkpt lat="47.24143" lon="-2.30057">
        <ele>23</ele>
        <time>2020-06-25T07:38:44.000Z</time>
      </trkpt>
      <trkpt lat="47.24144" lon="-2.30055">
        <ele>23.39999961853</ele>
        <time>2020-06-25T07:38:45.000Z</time>
      </trkpt>
      <trkpt lat="47.24143" lon="-2.30053">
        <ele>23.799999237061</ele>
        <time>2020-06-25T07:38:46.000Z</time>
      </trkpt>
      <trkpt lat="47.24143" lon="-2.30051">
        <ele>24.200000762939</ele>
        <time>2020-06-25T07:38:47.000Z</time>
      </trkpt>
      <trkpt lat="47.24144" lon="-2.30045">
        <ele>24.200000762939</ele>
        <time>2020-06-25T07:38:50.000Z</time>
      </trkpt>
      <trkpt lat="47.24151" lon="-2.30031">
        <ele>24.200000762939</ele>
        <time>2020-06-25T07:38:57.000Z</time>
      </trkpt>
      <trkpt lat="47.24164" lon="-2.30034">
        <ele>24.200000762939</ele>
        <time>2020-06-25T07:39:05.000Z</time>
      </trkpt>
      <trkpt lat="47.24171" lon="-2.30035">
        <ele>24.200000762939</ele>
        <time>2020-06-25T07:39:08.000Z</time>
      </trkpt>
      <trkpt lat="47.24177" lon="-2.30031">
        <ele>24.200000762939</ele>
        <time>2020-06-25T07:39:11.000Z</time>
      </trkpt>
      <trkpt lat="47.24178" lon="-2.30022">
        <ele>24.200000762939</ele>
        <time>2020-06-25T07:39:14.000Z</time>
      </trkpt>
      <trkpt lat="47.24177" lon="-2.3002">
        <ele>24.200000762939</ele>
        <time>2020-06-25T07:39:15.000Z</time>
      </trkpt>
      <trkpt lat="47.24172" lon="-2.30008">
        <ele>24.200000762939</ele>
        <time>2020-06-25T07:39:23.000Z</time>
      </trkpt>
      <trkpt lat="47.24168" lon="-2.30009">
        <ele>24.200000762939</ele>
        <time>2020-06-25T07:39:25.000Z</time>
      </trkpt>
      <trkpt lat="47.24161" lon="-2.3001">
        <ele>24.200000762939</ele>
        <time>2020-06-25T07:39:29.000Z</time>
      </trkpt>
      <trkpt lat="47.24159" lon="-2.3001">
        <ele>24.200000762939</ele>
        <time>2020-06-25T07:39:30.000Z</time>
      </trkpt>
      <trkpt lat="47.24159" lon="-2.30007">
        <ele>24.200000762939</ele>
        <time>2020-06-25T07:39:36.000Z</time>
      </trkpt>
      <trkpt lat="47.24158" lon="-2.30001">
        <ele>24.60000038147</ele>
        <time>2020-06-25T07:39:40.000Z</time>
      </trkpt>
      <trkpt lat="47.24157" lon="-2.29999">
        <ele>25</ele>
        <time>2020-06-25T07:39:41.000Z</time>
      </trkpt>
      <trkpt lat="47.24157" lon="-2.29998">
        <ele>25.39999961853</ele>
        <time>2020-06-25T07:39:42.000Z</time>
      </trkpt>
      <trkpt lat="47.24155" lon="-2.29998">
        <ele>25.799999237061</ele>
        <time>2020-06-25T07:39:43.000Z</time>
      </trkpt>
      <trkpt lat="47.24154" lon="-2.29998">
        <ele>26.39999961853</ele>
        <time>2020-06-25T07:39:44.000Z</time>
      </trkpt>
      <trkpt lat="47.24153" lon="-2.29999">
        <ele>26.39999961853</ele>
        <time>2020-06-25T07:39:45.000Z</time>
      </trkpt>
      <trkpt lat="47.2415" lon="-2.30004">
        <ele>26.39999961853</ele>
        <time>2020-06-25T07:39:49.000Z</time>
      </trkpt>
      <trkpt lat="47.24149" lon="-2.30006">
        <ele>26.39999961853</ele>
        <time>2020-06-25T07:39:50.000Z</time>
      </trkpt>
      <trkpt lat="47.24146" lon="-2.30017">
        <ele>26.39999961853</ele>
        <time>2020-06-25T07:39:57.000Z</time>
      </trkpt>
      <trkpt lat="47.24148" lon="-2.3002">
        <ele>26.39999961853</ele>
        <time>2020-06-25T07:40:02.000Z</time>
      </trkpt>
      <trkpt lat="47.24157" lon="-2.3002">
        <ele>26.39999961853</ele>
        <time>2020-06-25T07:40:09.000Z</time>
      </trkpt>
      <trkpt lat="47.24158" lon="-2.30013">
        <ele>26.39999961853</ele>
        <time>2020-06-25T07:40:16.000Z</time>
      </trkpt>
      <trkpt lat="47.24157" lon="-2.29995">
        <ele>26.39999961853</ele>
        <time>2020-06-25T07:40:25.000Z</time>
      </trkpt>
      <trkpt lat="47.24157" lon="-2.2999">
        <ele>26.39999961853</ele>
        <time>2020-06-25T07:40:27.000Z</time>
      </trkpt>
      <trkpt lat="47.24157" lon="-2.29979">
        <ele>26.39999961853</ele>
        <time>2020-06-25T07:40:31.000Z</time>
      </trkpt>
      <trkpt lat="47.24157" lon="-2.29976">
        <ele>26.39999961853</ele>
        <time>2020-06-25T07:40:32.000Z</time>
      </trkpt>
      <trkpt lat="47.24159" lon="-2.2995">
        <ele>26.39999961853</ele>
        <time>2020-06-25T07:40:38.000Z</time>
      </trkpt>
      <trkpt lat="47.24158" lon="-2.29927">
        <ele>26.39999961853</ele>
        <time>2020-06-25T07:40:43.000Z</time>
      </trkpt>
      <trkpt lat="47.24162" lon="-2.2989">
        <ele>26.39999961853</ele>
        <time>2020-06-25T07:40:49.000Z</time>
      </trkpt>
      <trkpt lat="47.24165" lon="-2.29853">
        <ele>26.39999961853</ele>
        <time>2020-06-25T07:40:55.000Z</time>
      </trkpt>
      <trkpt lat="47.24164" lon="-2.2984">
        <ele>26.39999961853</ele>
        <time>2020-06-25T07:41:00.000Z</time>
      </trkpt>
      <trkpt lat="47.24159" lon="-2.29843">
        <ele>26.39999961853</ele>
        <time>2020-06-25T07:41:10.000Z</time>
      </trkpt>
      <trkpt lat="47.24153" lon="-2.29843">
        <ele>26.39999961853</ele>
        <time>2020-06-25T07:41:12.000Z</time>
      </trkpt>
      <trkpt lat="47.24149" lon="-2.29843">
        <ele>26.799999237061</ele>
        <time>2020-06-25T07:41:13.000Z</time>
      </trkpt>
      <trkpt lat="47.24145" lon="-2.29844">
        <ele>27.200000762939</ele>
        <time>2020-06-25T07:41:14.000Z</time>
      </trkpt>
      <trkpt lat="47.24142" lon="-2.29845">
        <ele>27.60000038147</ele>
        <time>2020-06-25T07:41:15.000Z</time>
      </trkpt>
      <trkpt lat="47.24138" lon="-2.29846">
        <ele>28</ele>
        <time>2020-06-25T07:41:16.000Z</time>
      </trkpt>
      <trkpt lat="47.24135" lon="-2.29846">
        <ele>28.39999961853</ele>
        <time>2020-06-25T07:41:17.000Z</time>
      </trkpt>
      <trkpt lat="47.24127" lon="-2.29849">
        <ele>28.39999961853</ele>
        <time>2020-06-25T07:41:19.000Z</time>
      </trkpt>
      <trkpt lat="47.24104" lon="-2.2985">
        <ele>28.39999961853</ele>
        <time>2020-06-25T07:41:25.000Z</time>
      </trkpt>
      <trkpt lat="47.24091" lon="-2.29846">
        <ele>28.39999961853</ele>
        <time>2020-06-25T07:41:31.000Z</time>
      </trkpt>
      <trkpt lat="47.24088" lon="-2.29845">
        <ele>28.39999961853</ele>
        <time>2020-06-25T07:41:33.000Z</time>
      </trkpt>
      <trkpt lat="47.24088" lon="-2.29836">
        <ele>29.60000038147</ele>
        <time>2020-06-25T07:45:11.000Z</time>
      </trkpt>
      <trkpt lat="47.24089" lon="-2.29833">
        <ele>30</ele>
        <time>2020-06-25T07:45:12.000Z</time>
      </trkpt>
      <trkpt lat="47.24089" lon="-2.29829">
        <ele>30.39999961853</ele>
        <time>2020-06-25T07:45:13.000Z</time>
      </trkpt>
      <trkpt lat="47.2409" lon="-2.29816">
        <ele>30.39999961853</ele>
        <time>2020-06-25T07:45:16.000Z</time>
      </trkpt>
      <trkpt lat="47.24089" lon="-2.298">
        <ele>30.39999961853</ele>
        <time>2020-06-25T07:45:19.000Z</time>
      </trkpt>
      <trkpt lat="47.24084" lon="-2.29762">
        <ele>30.39999961853</ele>
        <time>2020-06-25T07:45:25.000Z</time>
      </trkpt>
      <trkpt lat="47.24072" lon="-2.29716">
        <ele>30.39999961853</ele>
        <time>2020-06-25T07:45:31.000Z</time>
      </trkpt>
      <trkpt lat="47.24064" lon="-2.29683">
        <ele>31.200000762939</ele>
        <time>2020-06-25T07:45:35.000Z</time>
      </trkpt>
      <trkpt lat="47.24063" lon="-2.29675">
        <ele>31.60000038147</ele>
        <time>2020-06-25T07:45:36.000Z</time>
      </trkpt>
      <trkpt lat="47.24061" lon="-2.29668">
        <ele>32</ele>
        <time>2020-06-25T07:45:37.000Z</time>
      </trkpt>
      <trkpt lat="47.24059" lon="-2.29658">
        <ele>32.400001525879</ele>
        <time>2020-06-25T07:45:38.000Z</time>
      </trkpt>
      <trkpt lat="47.24058" lon="-2.29649">
        <ele>32.400001525879</ele>
        <time>2020-06-25T07:45:39.000Z</time>
      </trkpt>
      <trkpt lat="47.24061" lon="-2.29633">
        <ele>32.400001525879</ele>
        <time>2020-06-25T07:45:41.000Z</time>
      </trkpt>
      <trkpt lat="47.24065" lon="-2.29621">
        <ele>32.400001525879</ele>
        <time>2020-06-25T07:45:43.000Z</time>
      </trkpt>
      <trkpt lat="47.24074" lon="-2.29611">
        <ele>32.400001525879</ele>
        <time>2020-06-25T07:45:45.000Z</time>
      </trkpt>
      <trkpt lat="47.24085" lon="-2.29604">
        <ele>32.400001525879</ele>
        <time>2020-06-25T07:45:47.000Z</time>
      </trkpt>
      <trkpt lat="47.24102" lon="-2.29594">
        <ele>32.400001525879</ele>
        <time>2020-06-25T07:45:50.000Z</time>
      </trkpt>
      <trkpt lat="47.24112" lon="-2.29583">
        <ele>32.400001525879</ele>
        <time>2020-06-25T07:45:52.000Z</time>
      </trkpt>
      <trkpt lat="47.24114" lon="-2.29567">
        <ele>32.400001525879</ele>
        <time>2020-06-25T07:45:54.000Z</time>
      </trkpt>
      <trkpt lat="47.24107" lon="-2.2954">
        <ele>32.400001525879</ele>
        <time>2020-06-25T07:45:57.000Z</time>
      </trkpt>
      <trkpt lat="47.24098" lon="-2.29504">
        <ele>32</ele>
        <time>2020-06-25T07:46:01.000Z</time>
      </trkpt>
      <trkpt lat="47.24097" lon="-2.29494">
        <ele>31.60000038147</ele>
        <time>2020-06-25T07:46:02.000Z</time>
      </trkpt>
      <trkpt lat="47.24098" lon="-2.29485">
        <ele>31.200000762939</ele>
        <time>2020-06-25T07:46:03.000Z</time>
      </trkpt>
      <trkpt lat="47.241" lon="-2.29475">
        <ele>30.799999237061</ele>
        <time>2020-06-25T07:46:04.000Z</time>
      </trkpt>
      <trkpt lat="47.24102" lon="-2.29468">
        <ele>30.200000762939</ele>
        <time>2020-06-25T07:46:05.000Z</time>
      </trkpt>
      <trkpt lat="47.24105" lon="-2.29462">
        <ele>30.200000762939</ele>
        <time>2020-06-25T07:46:06.000Z</time>
      </trkpt>
      <trkpt lat="47.24118" lon="-2.2945">
        <ele>30.200000762939</ele>
        <time>2020-06-25T07:46:09.000Z</time>
      </trkpt>
      <trkpt lat="47.24124" lon="-2.29447">
        <ele>30.200000762939</ele>
        <time>2020-06-25T07:46:10.000Z</time>
      </trkpt>
      <trkpt lat="47.24138" lon="-2.29442">
        <ele>30.200000762939</ele>
        <time>2020-06-25T07:46:12.000Z</time>
      </trkpt>
      <trkpt lat="47.24147" lon="-2.29441">
        <ele>30.200000762939</ele>
        <time>2020-06-25T07:46:13.000Z</time>
      </trkpt>
      <trkpt lat="47.2417" lon="-2.29438">
        <ele>30.200000762939</ele>
        <time>2020-06-25T07:46:16.000Z</time>
      </trkpt>
      <trkpt lat="47.24184" lon="-2.29439">
        <ele>30.200000762939</ele>
        <time>2020-06-25T07:46:18.000Z</time>
      </trkpt>
      <trkpt lat="47.24204" lon="-2.29447">
        <ele>30.200000762939</ele>
        <time>2020-06-25T07:46:21.000Z</time>
      </trkpt>
      <trkpt lat="47.24211" lon="-2.29452">
        <ele>30.200000762939</ele>
        <time>2020-06-25T07:46:22.000Z</time>
      </trkpt>
      <trkpt lat="47.24217" lon="-2.29456">
        <ele>29.799999237061</ele>
        <time>2020-06-25T07:46:23.000Z</time>
      </trkpt>
      <trkpt lat="47.24223" lon="-2.2946">
        <ele>29</ele>
        <time>2020-06-25T07:46:24.000Z</time>
      </trkpt>
      <trkpt lat="47.2423" lon="-2.29462">
        <ele>28.60000038147</ele>
        <time>2020-06-25T07:46:25.000Z</time>
      </trkpt>
      <trkpt lat="47.24238" lon="-2.29462">
        <ele>28.200000762939</ele>
        <time>2020-06-25T07:46:26.000Z</time>
      </trkpt>
      <trkpt lat="47.24266" lon="-2.2945">
        <ele>28.200000762939</ele>
        <time>2020-06-25T07:46:30.000Z</time>
      </trkpt>
      <trkpt lat="47.24273" lon="-2.29445">
        <ele>28.200000762939</ele>
        <time>2020-06-25T07:46:31.000Z</time>
      </trkpt>
      <trkpt lat="47.243" lon="-2.29434">
        <ele>28.200000762939</ele>
        <time>2020-06-25T07:46:35.000Z</time>
      </trkpt>
      <trkpt lat="47.24321" lon="-2.29441">
        <ele>28.200000762939</ele>
        <time>2020-06-25T07:46:38.000Z</time>
      </trkpt>
      <trkpt lat="47.24337" lon="-2.29456">
        <ele>28.200000762939</ele>
        <time>2020-06-25T07:46:41.000Z</time>
      </trkpt>
      <trkpt lat="47.24342" lon="-2.29461">
        <ele>28.200000762939</ele>
        <time>2020-06-25T07:46:42.000Z</time>
      </trkpt>
      <trkpt lat="47.24352" lon="-2.29469">
        <ele>28.200000762939</ele>
        <time>2020-06-25T07:46:44.000Z</time>
      </trkpt>
      <trkpt lat="47.24365" lon="-2.29466">
        <ele>28.200000762939</ele>
        <time>2020-06-25T07:46:46.000Z</time>
      </trkpt>
      <trkpt lat="47.24388" lon="-2.29446">
        <ele>28.200000762939</ele>
        <time>2020-06-25T07:46:50.000Z</time>
      </trkpt>
      <trkpt lat="47.24411" lon="-2.29435">
        <ele>28.200000762939</ele>
        <time>2020-06-25T07:46:54.000Z</time>
      </trkpt>
      <trkpt lat="47.24417" lon="-2.29434">
        <ele>28.200000762939</ele>
        <time>2020-06-25T07:46:55.000Z</time>
      </trkpt>
      <trkpt lat="47.24452" lon="-2.2943">
        <ele>28.200000762939</ele>
        <time>2020-06-25T07:47:01.000Z</time>
      </trkpt>
      <trkpt lat="47.24463" lon="-2.29429">
        <ele>28.60000038147</ele>
        <time>2020-06-25T07:47:03.000Z</time>
      </trkpt>
      <trkpt lat="47.24468" lon="-2.29428">
        <ele>29</ele>
        <time>2020-06-25T07:47:04.000Z</time>
      </trkpt>
      <trkpt lat="47.24474" lon="-2.29427">
        <ele>29.39999961853</ele>
        <time>2020-06-25T07:47:05.000Z</time>
      </trkpt>
      <trkpt lat="47.24479" lon="-2.29427">
        <ele>30</ele>
        <time>2020-06-25T07:47:06.000Z</time>
      </trkpt>
      <trkpt lat="47.24485" lon="-2.29426">
        <ele>30.39999961853</ele>
        <time>2020-06-25T07:47:07.000Z</time>
      </trkpt>
      <trkpt lat="47.24496" lon="-2.29424">
        <ele>30.39999961853</ele>
        <time>2020-06-25T07:47:09.000Z</time>
      </trkpt>
      <trkpt lat="47.24517" lon="-2.29416">
        <ele>30.39999961853</ele>
        <time>2020-06-25T07:47:13.000Z</time>
      </trkpt>
      <trkpt lat="47.2452" lon="-2.2941">
        <ele>30.799999237061</ele>
        <time>2020-06-25T07:47:14.000Z</time>
      </trkpt>
      <trkpt lat="47.24522" lon="-2.29402">
        <ele>31.200000762939</ele>
        <time>2020-06-25T07:47:15.000Z</time>
      </trkpt>
      <trkpt lat="47.24522" lon="-2.29395">
        <ele>31.60000038147</ele>
        <time>2020-06-25T07:47:16.000Z</time>
      </trkpt>
      <trkpt lat="47.24522" lon="-2.29387">
        <ele>32</ele>
        <time>2020-06-25T07:47:17.000Z</time>
      </trkpt>
      <trkpt lat="47.24521" lon="-2.29379">
        <ele>32.400001525879</ele>
        <time>2020-06-25T07:47:18.000Z</time>
      </trkpt>
      <trkpt lat="47.24518" lon="-2.29362">
        <ele>32.400001525879</ele>
        <time>2020-06-25T07:47:20.000Z</time>
      </trkpt>
      <trkpt lat="47.24516" lon="-2.29346">
        <ele>32.400001525879</ele>
        <time>2020-06-25T07:47:22.000Z</time>
      </trkpt>
      <trkpt lat="47.24516" lon="-2.29337">
        <ele>32.400001525879</ele>
        <time>2020-06-25T07:47:23.000Z</time>
      </trkpt>
      <trkpt lat="47.24517" lon="-2.29313">
        <ele>32.400001525879</ele>
        <time>2020-06-25T07:47:26.000Z</time>
      </trkpt>
      <trkpt lat="47.24517" lon="-2.29305">
        <ele>32.400001525879</ele>
        <time>2020-06-25T07:47:27.000Z</time>
      </trkpt>
      <trkpt lat="47.24514" lon="-2.29247">
        <ele>32.400001525879</ele>
        <time>2020-06-25T07:47:33.000Z</time>
      </trkpt>
      <trkpt lat="47.24518" lon="-2.29199">
        <ele>32.400001525879</ele>
        <time>2020-06-25T07:47:38.000Z</time>
      </trkpt>
      <trkpt lat="47.24536" lon="-2.29123">
        <ele>32.400001525879</ele>
        <time>2020-06-25T07:47:46.000Z</time>
      </trkpt>
      <trkpt lat="47.24551" lon="-2.29057">
        <ele>32.400001525879</ele>
        <time>2020-06-25T07:47:53.000Z</time>
      </trkpt>
      <trkpt lat="47.24555" lon="-2.29028">
        <ele>32.400001525879</ele>
        <time>2020-06-25T07:47:56.000Z</time>
      </trkpt>
      <trkpt lat="47.24555" lon="-2.29008">
        <ele>32.400001525879</ele>
        <time>2020-06-25T07:47:58.000Z</time>
      </trkpt>
      <trkpt lat="47.24555" lon="-2.28998">
        <ele>32.400001525879</ele>
        <time>2020-06-25T07:47:59.000Z</time>
      </trkpt>
      <trkpt lat="47.24549" lon="-2.2897">
        <ele>32</ele>
        <time>2020-06-25T07:48:02.000Z</time>
      </trkpt>
      <trkpt lat="47.24546" lon="-2.28961">
        <ele>31.200000762939</ele>
        <time>2020-06-25T07:48:03.000Z</time>
      </trkpt>
      <trkpt lat="47.24544" lon="-2.28952">
        <ele>30.60000038147</ele>
        <time>2020-06-25T07:48:04.000Z</time>
      </trkpt>
      <trkpt lat="47.24541" lon="-2.28943">
        <ele>30.200000762939</ele>
        <time>2020-06-25T07:48:05.000Z</time>
      </trkpt>
      <trkpt lat="47.24524" lon="-2.2889">
        <ele>30.200000762939</ele>
        <time>2020-06-25T07:48:11.000Z</time>
      </trkpt>
      <trkpt lat="47.24528" lon="-2.28862">
        <ele>30.200000762939</ele>
        <time>2020-06-25T07:48:14.000Z</time>
      </trkpt>
      <trkpt lat="47.24537" lon="-2.2885">
        <ele>29.799999237061</ele>
        <time>2020-06-25T07:48:16.000Z</time>
      </trkpt>
      <trkpt lat="47.24542" lon="-2.28845">
        <ele>29.39999961853</ele>
        <time>2020-06-25T07:48:17.000Z</time>
      </trkpt>
      <trkpt lat="47.24547" lon="-2.28841">
        <ele>29</ele>
        <time>2020-06-25T07:48:18.000Z</time>
      </trkpt>
      <trkpt lat="47.24552" lon="-2.28836">
        <ele>28.60000038147</ele>
        <time>2020-06-25T07:48:19.000Z</time>
      </trkpt>
      <trkpt lat="47.24557" lon="-2.28831">
        <ele>28.200000762939</ele>
        <time>2020-06-25T07:48:20.000Z</time>
      </trkpt>
      <trkpt lat="47.24571" lon="-2.28813">
        <ele>28.200000762939</ele>
        <time>2020-06-25T07:48:23.000Z</time>
      </trkpt>
      <trkpt lat="47.24599" lon="-2.28792">
        <ele>28.200000762939</ele>
        <time>2020-06-25T07:48:28.000Z</time>
      </trkpt>
      <trkpt lat="47.24604" lon="-2.28789">
        <ele>28.200000762939</ele>
        <time>2020-06-25T07:48:29.000Z</time>
      </trkpt>
      <trkpt lat="47.24618" lon="-2.28774">
        <ele>28.200000762939</ele>
        <time>2020-06-25T07:48:32.000Z</time>
      </trkpt>
      <trkpt lat="47.24622" lon="-2.28768">
        <ele>28.200000762939</ele>
        <time>2020-06-25T07:48:33.000Z</time>
      </trkpt>
      <trkpt lat="47.24626" lon="-2.28762">
        <ele>28.200000762939</ele>
        <time>2020-06-25T07:48:34.000Z</time>
      </trkpt>
      <trkpt lat="47.2464" lon="-2.28736">
        <ele>28.200000762939</ele>
        <time>2020-06-25T07:48:38.000Z</time>
      </trkpt>
      <trkpt lat="47.24668" lon="-2.28703">
        <ele>28.200000762939</ele>
        <time>2020-06-25T07:48:44.000Z</time>
      </trkpt>
      <trkpt lat="47.24696" lon="-2.28666">
        <ele>28.200000762939</ele>
        <time>2020-06-25T07:48:50.000Z</time>
      </trkpt>
      <trkpt lat="47.24708" lon="-2.28652">
        <ele>28.200000762939</ele>
        <time>2020-06-25T07:48:53.000Z</time>
      </trkpt>
      <trkpt lat="47.24713" lon="-2.28648">
        <ele>28.200000762939</ele>
        <time>2020-06-25T07:48:54.000Z</time>
      </trkpt>
      <trkpt lat="47.2473" lon="-2.28632">
        <ele>28.200000762939</ele>
        <time>2020-06-25T07:48:58.000Z</time>
      </trkpt>
      <trkpt lat="47.24737" lon="-2.28619">
        <ele>28.200000762939</ele>
        <time>2020-06-25T07:49:00.000Z</time>
      </trkpt>
      <trkpt lat="47.24745" lon="-2.28589">
        <ele>28.60000038147</ele>
        <time>2020-06-25T07:49:04.000Z</time>
      </trkpt>
      <trkpt lat="47.24747" lon="-2.28581">
        <ele>29</ele>
        <time>2020-06-25T07:49:05.000Z</time>
      </trkpt>
      <trkpt lat="47.24749" lon="-2.28573">
        <ele>29.39999961853</ele>
        <time>2020-06-25T07:49:06.000Z</time>
      </trkpt>
      <trkpt lat="47.24752" lon="-2.28566">
        <ele>29.799999237061</ele>
        <time>2020-06-25T07:49:07.000Z</time>
      </trkpt>
      <trkpt lat="47.24757" lon="-2.2856">
        <ele>30.200000762939</ele>
        <time>2020-06-25T07:49:08.000Z</time>
      </trkpt>
      <trkpt lat="47.24761" lon="-2.28555">
        <ele>30.200000762939</ele>
        <time>2020-06-25T07:49:09.000Z</time>
      </trkpt>
      <trkpt lat="47.24772" lon="-2.28545">
        <ele>30.200000762939</ele>
        <time>2020-06-25T07:49:11.000Z</time>
      </trkpt>
      <trkpt lat="47.24792" lon="-2.28524">
        <ele>30.200000762939</ele>
        <time>2020-06-25T07:49:15.000Z</time>
      </trkpt>
      <trkpt lat="47.24826" lon="-2.28498">
        <ele>30.200000762939</ele>
        <time>2020-06-25T07:49:21.000Z</time>
      </trkpt>
      <trkpt lat="47.24866" lon="-2.28464">
        <ele>30.200000762939</ele>
        <time>2020-06-25T07:49:28.000Z</time>
      </trkpt>
      <trkpt lat="47.24894" lon="-2.28434">
        <ele>30.200000762939</ele>
        <time>2020-06-25T07:49:33.000Z</time>
      </trkpt>
      <trkpt lat="47.24907" lon="-2.28426">
        <ele>30.200000762939</ele>
        <time>2020-06-25T07:49:35.000Z</time>
      </trkpt>
      <trkpt lat="47.24915" lon="-2.28422">
        <ele>29.799999237061</ele>
        <time>2020-06-25T07:49:36.000Z</time>
      </trkpt>
      <trkpt lat="47.24922" lon="-2.28419">
        <ele>29.200000762939</ele>
        <time>2020-06-25T07:49:37.000Z</time>
      </trkpt>
      <trkpt lat="47.24929" lon="-2.28417">
        <ele>28.799999237061</ele>
        <time>2020-06-25T07:49:38.000Z</time>
      </trkpt>
      <trkpt lat="47.24937" lon="-2.28414">
        <ele>28.39999961853</ele>
        <time>2020-06-25T07:49:39.000Z</time>
      </trkpt>
      <trkpt lat="47.24945" lon="-2.28412">
        <ele>28</ele>
        <time>2020-06-25T07:49:40.000Z</time>
      </trkpt>
      <trkpt lat="47.2496" lon="-2.28407">
        <ele>27.200000762939</ele>
        <time>2020-06-25T07:49:42.000Z</time>
      </trkpt>
      <trkpt lat="47.24967" lon="-2.28402">
        <ele>26.799999237061</ele>
        <time>2020-06-25T07:49:43.000Z</time>
      </trkpt>
      <trkpt lat="47.24975" lon="-2.28398">
        <ele>26.39999961853</ele>
        <time>2020-06-25T07:49:44.000Z</time>
      </trkpt>
      <trkpt lat="47.24982" lon="-2.28393">
        <ele>25.799999237061</ele>
        <time>2020-06-25T07:49:45.000Z</time>
      </trkpt>
      <trkpt lat="47.24995" lon="-2.28382">
        <ele>25.39999961853</ele>
        <time>2020-06-25T07:49:47.000Z</time>
      </trkpt>
      <trkpt lat="47.25" lon="-2.28376">
        <ele>25</ele>
        <time>2020-06-25T07:49:48.000Z</time>
      </trkpt>
      <trkpt lat="47.25006" lon="-2.28367">
        <ele>24.60000038147</ele>
        <time>2020-06-25T07:49:49.000Z</time>
      </trkpt>
      <trkpt lat="47.25009" lon="-2.28358">
        <ele>24</ele>
        <time>2020-06-25T07:49:50.000Z</time>
      </trkpt>
      <trkpt lat="47.25014" lon="-2.28351">
        <ele>23.60000038147</ele>
        <time>2020-06-25T07:49:51.000Z</time>
      </trkpt>
      <trkpt lat="47.25022" lon="-2.28337">
        <ele>23.60000038147</ele>
        <time>2020-06-25T07:49:53.000Z</time>
      </trkpt>
      <trkpt lat="47.25028" lon="-2.28331">
        <ele>23.60000038147</ele>
        <time>2020-06-25T07:49:54.000Z</time>
      </trkpt>
      <trkpt lat="47.25034" lon="-2.28318">
        <ele>23.60000038147</ele>
        <time>2020-06-25T07:49:56.000Z</time>
      </trkpt>
      <trkpt lat="47.2504" lon="-2.28285">
        <ele>23.60000038147</ele>
        <time>2020-06-25T07:50:00.000Z</time>
      </trkpt>
      <trkpt lat="47.25042" lon="-2.28275">
        <ele>24</ele>
        <time>2020-06-25T07:50:01.000Z</time>
      </trkpt>
      <trkpt lat="47.25043" lon="-2.28263">
        <ele>24.60000038147</ele>
        <time>2020-06-25T07:50:02.000Z</time>
      </trkpt>
      <trkpt lat="47.25044" lon="-2.28253">
        <ele>25</ele>
        <time>2020-06-25T07:50:03.000Z</time>
      </trkpt>
      <trkpt lat="47.25045" lon="-2.28243">
        <ele>25.39999961853</ele>
        <time>2020-06-25T07:50:04.000Z</time>
      </trkpt>
      <trkpt lat="47.25046" lon="-2.28233">
        <ele>26</ele>
        <time>2020-06-25T07:50:05.000Z</time>
      </trkpt>
      <trkpt lat="47.25047" lon="-2.28223">
        <ele>26</ele>
        <time>2020-06-25T07:50:06.000Z</time>
      </trkpt>
      <trkpt lat="47.25061" lon="-2.28161">
        <ele>26</ele>
        <time>2020-06-25T07:50:13.000Z</time>
      </trkpt>
      <trkpt lat="47.25077" lon="-2.28099">
        <ele>26</ele>
        <time>2020-06-25T07:50:21.000Z</time>
      </trkpt>
      <trkpt lat="47.25089" lon="-2.28063">
        <ele>26</ele>
        <time>2020-06-25T07:50:25.000Z</time>
      </trkpt>
      <trkpt lat="47.25112" lon="-2.28007">
        <ele>26</ele>
        <time>2020-06-25T07:50:32.000Z</time>
      </trkpt>
      <trkpt lat="47.25115" lon="-2.27999">
        <ele>26.39999961853</ele>
        <time>2020-06-25T07:50:33.000Z</time>
      </trkpt>
      <trkpt lat="47.25119" lon="-2.27992">
        <ele>26.799999237061</ele>
        <time>2020-06-25T07:50:34.000Z</time>
      </trkpt>
      <trkpt lat="47.25122" lon="-2.27985">
        <ele>27.200000762939</ele>
        <time>2020-06-25T07:50:35.000Z</time>
      </trkpt>
      <trkpt lat="47.25126" lon="-2.27979">
        <ele>27.60000038147</ele>
        <time>2020-06-25T07:50:36.000Z</time>
      </trkpt>
      <trkpt lat="47.25131" lon="-2.27973">
        <ele>28</ele>
        <time>2020-06-25T07:50:37.000Z</time>
      </trkpt>
      <trkpt lat="47.2514" lon="-2.27961">
        <ele>28</ele>
        <time>2020-06-25T07:50:39.000Z</time>
      </trkpt>
      <trkpt lat="47.25154" lon="-2.27947">
        <ele>28.39999961853</ele>
        <time>2020-06-25T07:50:42.000Z</time>
      </trkpt>
      <trkpt lat="47.25161" lon="-2.27943">
        <ele>28.799999237061</ele>
        <time>2020-06-25T07:50:43.000Z</time>
      </trkpt>
      <trkpt lat="47.25166" lon="-2.27939">
        <ele>29.200000762939</ele>
        <time>2020-06-25T07:50:44.000Z</time>
      </trkpt>
      <trkpt lat="47.25172" lon="-2.27935">
        <ele>29.60000038147</ele>
        <time>2020-06-25T07:50:45.000Z</time>
      </trkpt>
      <trkpt lat="47.25178" lon="-2.27931">
        <ele>30</ele>
        <time>2020-06-25T07:50:46.000Z</time>
      </trkpt>
      <trkpt lat="47.2522" lon="-2.27905">
        <ele>30</ele>
        <time>2020-06-25T07:50:53.000Z</time>
      </trkpt>
      <trkpt lat="47.25262" lon="-2.27884">
        <ele>30</ele>
        <time>2020-06-25T07:51:00.000Z</time>
      </trkpt>
      <trkpt lat="47.25294" lon="-2.27875">
        <ele>30.39999961853</ele>
        <time>2020-06-25T07:51:05.000Z</time>
      </trkpt>
      <trkpt lat="47.253" lon="-2.27874">
        <ele>30.799999237061</ele>
        <time>2020-06-25T07:51:06.000Z</time>
      </trkpt>
      <trkpt lat="47.25306" lon="-2.27873">
        <ele>31.200000762939</ele>
        <time>2020-06-25T07:51:07.000Z</time>
      </trkpt>
      <trkpt lat="47.25312" lon="-2.27872">
        <ele>31.60000038147</ele>
        <time>2020-06-25T07:51:08.000Z</time>
      </trkpt>
      <trkpt lat="47.25318" lon="-2.27871">
        <ele>32</ele>
        <time>2020-06-25T07:51:09.000Z</time>
      </trkpt>
      <trkpt lat="47.25347" lon="-2.27864">
        <ele>32</ele>
        <time>2020-06-25T07:51:14.000Z</time>
      </trkpt>
      <trkpt lat="47.25394" lon="-2.27849">
        <ele>32</ele>
        <time>2020-06-25T07:51:22.000Z</time>
      </trkpt>
      <trkpt lat="47.25416" lon="-2.27839">
        <ele>32.400001525879</ele>
        <time>2020-06-25T07:51:26.000Z</time>
      </trkpt>
      <trkpt lat="47.25422" lon="-2.27835">
        <ele>32.799999237061</ele>
        <time>2020-06-25T07:51:27.000Z</time>
      </trkpt>
      <trkpt lat="47.25428" lon="-2.27831">
        <ele>33.200000762939</ele>
        <time>2020-06-25T07:51:28.000Z</time>
      </trkpt>
      <trkpt lat="47.25434" lon="-2.27827">
        <ele>33.599998474121</ele>
        <time>2020-06-25T07:51:29.000Z</time>
      </trkpt>
      <trkpt lat="47.25439" lon="-2.27823">
        <ele>34</ele>
        <time>2020-06-25T07:51:30.000Z</time>
      </trkpt>
      <trkpt lat="47.25459" lon="-2.27802">
        <ele>34</ele>
        <time>2020-06-25T07:51:34.000Z</time>
      </trkpt>
      <trkpt lat="47.25488" lon="-2.27766">
        <ele>34</ele>
        <time>2020-06-25T07:51:41.000Z</time>
      </trkpt>
      <trkpt lat="47.25497" lon="-2.27757">
        <ele>34</ele>
        <time>2020-06-25T07:51:43.000Z</time>
      </trkpt>
      <trkpt lat="47.25505" lon="-2.27752">
        <ele>34.400001525879</ele>
        <time>2020-06-25T07:51:45.000Z</time>
      </trkpt>
      <trkpt lat="47.2551" lon="-2.27753">
        <ele>34.799999237061</ele>
        <time>2020-06-25T07:51:46.000Z</time>
      </trkpt>
      <trkpt lat="47.25514" lon="-2.27756">
        <ele>35.400001525879</ele>
        <time>2020-06-25T07:51:47.000Z</time>
      </trkpt>
      <trkpt lat="47.25519" lon="-2.27762">
        <ele>35.799999237061</ele>
        <time>2020-06-25T07:51:48.000Z</time>
      </trkpt>
      <trkpt lat="47.25523" lon="-2.27768">
        <ele>36.200000762939</ele>
        <time>2020-06-25T07:51:49.000Z</time>
      </trkpt>
      <trkpt lat="47.25531" lon="-2.27781">
        <ele>36.200000762939</ele>
        <time>2020-06-25T07:51:51.000Z</time>
      </trkpt>
      <trkpt lat="47.25546" lon="-2.27806">
        <ele>36.200000762939</ele>
        <time>2020-06-25T07:51:55.000Z</time>
      </trkpt>
      <trkpt lat="47.2557" lon="-2.27843">
        <ele>36.599998474121</ele>
        <time>2020-06-25T07:52:01.000Z</time>
      </trkpt>
      <trkpt lat="47.25575" lon="-2.27849">
        <ele>37</ele>
        <time>2020-06-25T07:52:02.000Z</time>
      </trkpt>
      <trkpt lat="47.25579" lon="-2.27854">
        <ele>37.400001525879</ele>
        <time>2020-06-25T07:52:03.000Z</time>
      </trkpt>
      <trkpt lat="47.25583" lon="-2.27859">
        <ele>37.799999237061</ele>
        <time>2020-06-25T07:52:04.000Z</time>
      </trkpt>
      <trkpt lat="47.25588" lon="-2.27865">
        <ele>38.200000762939</ele>
        <time>2020-06-25T07:52:05.000Z</time>
      </trkpt>
      <trkpt lat="47.25617" lon="-2.27895">
        <ele>38.200000762939</ele>
        <time>2020-06-25T07:52:11.000Z</time>
      </trkpt>
      <trkpt lat="47.25643" lon="-2.27917">
        <ele>38.599998474121</ele>
        <time>2020-06-25T07:52:16.000Z</time>
      </trkpt>
      <trkpt lat="47.25648" lon="-2.27922">
        <ele>39</ele>
        <time>2020-06-25T07:52:17.000Z</time>
      </trkpt>
      <trkpt lat="47.25652" lon="-2.27928">
        <ele>39.400001525879</ele>
        <time>2020-06-25T07:52:18.000Z</time>
      </trkpt>
      <trkpt lat="47.25657" lon="-2.27934">
        <ele>39.799999237061</ele>
        <time>2020-06-25T07:52:19.000Z</time>
      </trkpt>
      <trkpt lat="47.25661" lon="-2.2794">
        <ele>40.200000762939</ele>
        <time>2020-06-25T07:52:20.000Z</time>
      </trkpt>
      <trkpt lat="47.25669" lon="-2.27953">
        <ele>40.200000762939</ele>
        <time>2020-06-25T07:52:22.000Z</time>
      </trkpt>
      <trkpt lat="47.25687" lon="-2.27985">
        <ele>40.200000762939</ele>
        <time>2020-06-25T07:52:27.000Z</time>
      </trkpt>
      <trkpt lat="47.2569" lon="-2.27987">
        <ele>40.200000762939</ele>
        <time>2020-06-25T07:52:28.000Z</time>
      </trkpt>
      <trkpt lat="47.25701" lon="-2.2798">
        <ele>40.200000762939</ele>
        <time>2020-06-25T07:52:31.000Z</time>
      </trkpt>
      <trkpt lat="47.25704" lon="-2.27976">
        <ele>40.200000762939</ele>
        <time>2020-06-25T07:52:32.000Z</time>
      </trkpt>
      <trkpt lat="47.2571" lon="-2.27966">
        <ele>40.200000762939</ele>
        <time>2020-06-25T07:52:34.000Z</time>
      </trkpt>
      <trkpt lat="47.25718" lon="-2.27952">
        <ele>40.200000762939</ele>
        <time>2020-06-25T07:52:37.000Z</time>
      </trkpt>
      <trkpt lat="47.25734" lon="-2.2793">
        <ele>40.200000762939</ele>
        <time>2020-06-25T07:52:42.000Z</time>
      </trkpt>
      <trkpt lat="47.25748" lon="-2.27913">
        <ele>40.200000762939</ele>
        <time>2020-06-25T07:52:46.000Z</time>
      </trkpt>
      <trkpt lat="47.25755" lon="-2.27904">
        <ele>40.200000762939</ele>
        <time>2020-06-25T07:52:48.000Z</time>
      </trkpt>
      <trkpt lat="47.25781" lon="-2.27871">
        <ele>40.200000762939</ele>
        <time>2020-06-25T07:52:55.000Z</time>
      </trkpt>
      <trkpt lat="47.25815" lon="-2.27828">
        <ele>40.200000762939</ele>
        <time>2020-06-25T07:53:04.000Z</time>
      </trkpt>
      <trkpt lat="47.25849" lon="-2.27783">
        <ele>40.200000762939</ele>
        <time>2020-06-25T07:53:13.000Z</time>
      </trkpt>
      <trkpt lat="47.25853" lon="-2.27777">
        <ele>40.200000762939</ele>
        <time>2020-06-25T07:53:14.000Z</time>
      </trkpt>
      <trkpt lat="47.25859" lon="-2.27749">
        <ele>40.200000762939</ele>
        <time>2020-06-25T07:53:18.000Z</time>
      </trkpt>
      <trkpt lat="47.25859" lon="-2.27742">
        <ele>40.200000762939</ele>
        <time>2020-06-25T07:53:19.000Z</time>
      </trkpt>
      <trkpt lat="47.25858" lon="-2.27735">
        <ele>40.200000762939</ele>
        <time>2020-06-25T07:53:20.000Z</time>
      </trkpt>
      <trkpt lat="47.25862" lon="-2.27717">
        <ele>40.200000762939</ele>
        <time>2020-06-25T07:53:23.000Z</time>
      </trkpt>
      <trkpt lat="47.25872" lon="-2.27708">
        <ele>40.200000762939</ele>
        <time>2020-06-25T07:53:27.000Z</time>
      </trkpt>
      <trkpt lat="47.25875" lon="-2.27717">
        <ele>40.200000762939</ele>
        <time>2020-06-25T07:53:30.000Z</time>
      </trkpt>
      <trkpt lat="47.25876" lon="-2.27731">
        <ele>40.200000762939</ele>
        <time>2020-06-25T07:53:33.000Z</time>
      </trkpt>
      <trkpt lat="47.25877" lon="-2.27747">
        <ele>40.200000762939</ele>
        <time>2020-06-25T07:53:36.000Z</time>
      </trkpt>
      <trkpt lat="47.25884" lon="-2.27761">
        <ele>40.200000762939</ele>
        <time>2020-06-25T07:53:40.000Z</time>
      </trkpt>
      <trkpt lat="47.25888" lon="-2.27763">
        <ele>40.200000762939</ele>
        <time>2020-06-25T07:53:41.000Z</time>
      </trkpt>
      <trkpt lat="47.25895" lon="-2.27759">
        <ele>40.200000762939</ele>
        <time>2020-06-25T07:53:43.000Z</time>
      </trkpt>
      <trkpt lat="47.25912" lon="-2.27741">
        <ele>40.200000762939</ele>
        <time>2020-06-25T07:53:47.000Z</time>
      </trkpt>
      <trkpt lat="47.25917" lon="-2.27737">
        <ele>40.200000762939</ele>
        <time>2020-06-25T07:53:48.000Z</time>
      </trkpt>
      <trkpt lat="47.25953" lon="-2.27704">
        <ele>39.799999237061</ele>
        <time>2020-06-25T07:53:55.000Z</time>
      </trkpt>
      <trkpt lat="47.25958" lon="-2.27699">
        <ele>39.400001525879</ele>
        <time>2020-06-25T07:53:56.000Z</time>
      </trkpt>
      <trkpt lat="47.25963" lon="-2.27695">
        <ele>39</ele>
        <time>2020-06-25T07:53:57.000Z</time>
      </trkpt>
      <trkpt lat="47.25968" lon="-2.2769">
        <ele>38.599998474121</ele>
        <time>2020-06-25T07:53:58.000Z</time>
      </trkpt>
      <trkpt lat="47.25973" lon="-2.27685">
        <ele>38.200000762939</ele>
        <time>2020-06-25T07:53:59.000Z</time>
      </trkpt>
      <trkpt lat="47.26014" lon="-2.27649">
        <ele>38.200000762939</ele>
        <time>2020-06-25T07:54:07.000Z</time>
      </trkpt>
      <trkpt lat="47.26038" lon="-2.27627">
        <ele>38.200000762939</ele>
        <time>2020-06-25T07:54:12.000Z</time>
      </trkpt>
      <trkpt lat="47.26041" lon="-2.27621">
        <ele>38.200000762939</ele>
        <time>2020-06-25T07:54:13.000Z</time>
      </trkpt>
      <trkpt lat="47.26038" lon="-2.27605">
        <ele>38.200000762939</ele>
        <time>2020-06-25T07:54:16.000Z</time>
      </trkpt>
      <trkpt lat="47.26032" lon="-2.27585">
        <ele>38.200000762939</ele>
        <time>2020-06-25T07:54:19.000Z</time>
      </trkpt>
      <trkpt lat="47.26027" lon="-2.27573">
        <ele>38.200000762939</ele>
        <time>2020-06-25T07:54:21.000Z</time>
      </trkpt>
      <trkpt lat="47.26022" lon="-2.2756">
        <ele>38.200000762939</ele>
        <time>2020-06-25T07:54:23.000Z</time>
      </trkpt>
      <trkpt lat="47.26017" lon="-2.27539">
        <ele>38.200000762939</ele>
        <time>2020-06-25T07:54:26.000Z</time>
      </trkpt>
      <trkpt lat="47.26018" lon="-2.27509">
        <ele>38.200000762939</ele>
        <time>2020-06-25T07:54:30.000Z</time>
      </trkpt>
      <trkpt lat="47.26028" lon="-2.2748">
        <ele>38.200000762939</ele>
        <time>2020-06-25T07:54:34.000Z</time>
      </trkpt>
      <trkpt lat="47.26041" lon="-2.27447">
        <ele>38.200000762939</ele>
        <time>2020-06-25T07:54:38.000Z</time>
      </trkpt>
      <trkpt lat="47.26049" lon="-2.27432">
        <ele>38.200000762939</ele>
        <time>2020-06-25T07:54:40.000Z</time>
      </trkpt>
      <trkpt lat="47.26068" lon="-2.27397">
        <ele>37.799999237061</ele>
        <time>2020-06-25T07:54:45.000Z</time>
      </trkpt>
      <trkpt lat="47.26073" lon="-2.2739">
        <ele>37.400001525879</ele>
        <time>2020-06-25T07:54:46.000Z</time>
      </trkpt>
      <trkpt lat="47.26078" lon="-2.27384">
        <ele>37</ele>
        <time>2020-06-25T07:54:47.000Z</time>
      </trkpt>
      <trkpt lat="47.26083" lon="-2.27377">
        <ele>36.599998474121</ele>
        <time>2020-06-25T07:54:48.000Z</time>
      </trkpt>
      <trkpt lat="47.2609" lon="-2.27369">
        <ele>36.200000762939</ele>
        <time>2020-06-25T07:54:49.000Z</time>
      </trkpt>
      <trkpt lat="47.26097" lon="-2.27362">
        <ele>36.200000762939</ele>
        <time>2020-06-25T07:54:50.000Z</time>
      </trkpt>
      <trkpt lat="47.26134" lon="-2.27326">
        <ele>36.200000762939</ele>
        <time>2020-06-25T07:54:56.000Z</time>
      </trkpt>
      <trkpt lat="47.2614" lon="-2.27322">
        <ele>36.200000762939</ele>
        <time>2020-06-25T07:54:57.000Z</time>
      </trkpt>
      <trkpt lat="47.26159" lon="-2.27322">
        <ele>36.200000762939</ele>
        <time>2020-06-25T07:55:00.000Z</time>
      </trkpt>
      <trkpt lat="47.26179" lon="-2.2732">
        <ele>36.200000762939</ele>
        <time>2020-06-25T07:55:03.000Z</time>
      </trkpt>
      <trkpt lat="47.26191" lon="-2.27318">
        <ele>36.200000762939</ele>
        <time>2020-06-25T07:55:05.000Z</time>
      </trkpt>
      <trkpt lat="47.26198" lon="-2.27317">
        <ele>36.200000762939</ele>
        <time>2020-06-25T07:55:06.000Z</time>
      </trkpt>
      <trkpt lat="47.26224" lon="-2.27319">
        <ele>36.200000762939</ele>
        <time>2020-06-25T07:55:10.000Z</time>
      </trkpt>
      <trkpt lat="47.26248" lon="-2.27322">
        <ele>36.200000762939</ele>
        <time>2020-06-25T07:55:14.000Z</time>
      </trkpt>
      <trkpt lat="47.26296" lon="-2.27325">
        <ele>36.200000762939</ele>
        <time>2020-06-25T07:55:21.000Z</time>
      </trkpt>
      <trkpt lat="47.26335" lon="-2.2733">
        <ele>36.200000762939</ele>
        <time>2020-06-25T07:55:27.000Z</time>
      </trkpt>
      <trkpt lat="47.2638" lon="-2.27331">
        <ele>36.200000762939</ele>
        <time>2020-06-25T07:55:34.000Z</time>
      </trkpt>
      <trkpt lat="47.26386" lon="-2.27331">
        <ele>35.799999237061</ele>
        <time>2020-06-25T07:55:35.000Z</time>
      </trkpt>
      <trkpt lat="47.26394" lon="-2.27331">
        <ele>35.200000762939</ele>
        <time>2020-06-25T07:55:36.000Z</time>
      </trkpt>
      <trkpt lat="47.264" lon="-2.27332">
        <ele>34.799999237061</ele>
        <time>2020-06-25T07:55:37.000Z</time>
      </trkpt>
      <trkpt lat="47.26407" lon="-2.27333">
        <ele>34.400001525879</ele>
        <time>2020-06-25T07:55:38.000Z</time>
      </trkpt>
      <trkpt lat="47.26413" lon="-2.27335">
        <ele>34</ele>
        <time>2020-06-25T07:55:39.000Z</time>
      </trkpt>
      <trkpt lat="47.26419" lon="-2.27337">
        <ele>34</ele>
        <time>2020-06-25T07:55:40.000Z</time>
      </trkpt>
      <trkpt lat="47.26424" lon="-2.27339">
        <ele>34</ele>
        <time>2020-06-25T07:55:41.000Z</time>
      </trkpt>
      <trkpt lat="47.26431" lon="-2.27347">
        <ele>34</ele>
        <time>2020-06-25T07:55:43.000Z</time>
      </trkpt>
      <trkpt lat="47.2644" lon="-2.27364">
        <ele>34</ele>
        <time>2020-06-25T07:55:46.000Z</time>
      </trkpt>
      <trkpt lat="47.26443" lon="-2.2737">
        <ele>33.400001525879</ele>
        <time>2020-06-25T07:55:47.000Z</time>
      </trkpt>
      <trkpt lat="47.26446" lon="-2.27376">
        <ele>33</ele>
        <time>2020-06-25T07:55:48.000Z</time>
      </trkpt>
      <trkpt lat="47.26448" lon="-2.27383">
        <ele>32.599998474121</ele>
        <time>2020-06-25T07:55:49.000Z</time>
      </trkpt>
      <trkpt lat="47.26451" lon="-2.2739">
        <ele>32.200000762939</ele>
        <time>2020-06-25T07:55:50.000Z</time>
      </trkpt>
      <trkpt lat="47.26453" lon="-2.27398">
        <ele>31.799999237061</ele>
        <time>2020-06-25T07:55:51.000Z</time>
      </trkpt>
      <trkpt lat="47.26461" lon="-2.2742">
        <ele>31.799999237061</ele>
        <time>2020-06-25T07:55:54.000Z</time>
      </trkpt>
      <trkpt lat="47.26467" lon="-2.27438">
        <ele>31.799999237061</ele>
        <time>2020-06-25T07:55:56.000Z</time>
      </trkpt>
      <trkpt lat="47.26475" lon="-2.27465">
        <ele>31.799999237061</ele>
        <time>2020-06-25T07:55:59.000Z</time>
      </trkpt>
      <trkpt lat="47.26488" lon="-2.27519">
        <ele>31.799999237061</ele>
        <time>2020-06-25T07:56:05.000Z</time>
      </trkpt>
      <trkpt lat="47.2649" lon="-2.27528">
        <ele>31.39999961853</ele>
        <time>2020-06-25T07:56:06.000Z</time>
      </trkpt>
      <trkpt lat="47.26492" lon="-2.27537">
        <ele>31</ele>
        <time>2020-06-25T07:56:07.000Z</time>
      </trkpt>
      <trkpt lat="47.26494" lon="-2.27546">
        <ele>30.39999961853</ele>
        <time>2020-06-25T07:56:08.000Z</time>
      </trkpt>
      <trkpt lat="47.26495" lon="-2.27555">
        <ele>30</ele>
        <time>2020-06-25T07:56:09.000Z</time>
      </trkpt>
      <trkpt lat="47.26497" lon="-2.27563">
        <ele>29.60000038147</ele>
        <time>2020-06-25T07:56:10.000Z</time>
      </trkpt>
      <trkpt lat="47.26498" lon="-2.2757">
        <ele>29.60000038147</ele>
        <time>2020-06-25T07:56:11.000Z</time>
      </trkpt>
      <trkpt lat="47.26508" lon="-2.27581">
        <ele>29.200000762939</ele>
        <time>2020-06-25T07:56:14.000Z</time>
      </trkpt>
      <trkpt lat="47.26512" lon="-2.27581">
        <ele>28.799999237061</ele>
        <time>2020-06-25T07:56:15.000Z</time>
      </trkpt>
      <trkpt lat="47.26518" lon="-2.2758">
        <ele>28.39999961853</ele>
        <time>2020-06-25T07:56:16.000Z</time>
      </trkpt>
      <trkpt lat="47.26523" lon="-2.27579">
        <ele>28</ele>
        <time>2020-06-25T07:56:17.000Z</time>
      </trkpt>
      <trkpt lat="47.26528" lon="-2.27576">
        <ele>27.60000038147</ele>
        <time>2020-06-25T07:56:18.000Z</time>
      </trkpt>
      <trkpt lat="47.26543" lon="-2.27562">
        <ele>27.60000038147</ele>
        <time>2020-06-25T07:56:21.000Z</time>
      </trkpt>
      <trkpt lat="47.26557" lon="-2.27545">
        <ele>27.60000038147</ele>
        <time>2020-06-25T07:56:24.000Z</time>
      </trkpt>
      <trkpt lat="47.26564" lon="-2.27533">
        <ele>27.60000038147</ele>
        <time>2020-06-25T07:56:26.000Z</time>
      </trkpt>
      <trkpt lat="47.26567" lon="-2.27526">
        <ele>27.60000038147</ele>
        <time>2020-06-25T07:56:27.000Z</time>
      </trkpt>
      <trkpt lat="47.26573" lon="-2.27503">
        <ele>27.60000038147</ele>
        <time>2020-06-25T07:56:30.000Z</time>
      </trkpt>
      <trkpt lat="47.26579" lon="-2.27487">
        <ele>28</ele>
        <time>2020-06-25T07:56:32.000Z</time>
      </trkpt>
      <trkpt lat="47.26582" lon="-2.27481">
        <ele>28.39999961853</ele>
        <time>2020-06-25T07:56:33.000Z</time>
      </trkpt>
      <trkpt lat="47.26586" lon="-2.27475">
        <ele>28.799999237061</ele>
        <time>2020-06-25T07:56:34.000Z</time>
      </trkpt>
      <trkpt lat="47.26591" lon="-2.27469">
        <ele>29.200000762939</ele>
        <time>2020-06-25T07:56:35.000Z</time>
      </trkpt>
      <trkpt lat="47.26596" lon="-2.27463">
        <ele>29.60000038147</ele>
        <time>2020-06-25T07:56:36.000Z</time>
      </trkpt>
      <trkpt lat="47.26625" lon="-2.27432">
        <ele>29.60000038147</ele>
        <time>2020-06-25T07:56:42.000Z</time>
      </trkpt>
      <trkpt lat="47.26662" lon="-2.27396">
        <ele>29.60000038147</ele>
        <time>2020-06-25T07:56:49.000Z</time>
      </trkpt>
      <trkpt lat="47.26696" lon="-2.27371">
        <ele>29.60000038147</ele>
        <time>2020-06-25T07:56:55.000Z</time>
      </trkpt>
      <trkpt lat="47.26723" lon="-2.27359">
        <ele>29.60000038147</ele>
        <time>2020-06-25T07:57:00.000Z</time>
      </trkpt>
      <trkpt lat="47.26733" lon="-2.27356">
        <ele>29.60000038147</ele>
        <time>2020-06-25T07:57:02.000Z</time>
      </trkpt>
      <trkpt lat="47.26737" lon="-2.27356">
        <ele>29.60000038147</ele>
        <time>2020-06-25T07:57:04.000Z</time>
      </trkpt>
      <trkpt lat="47.26739" lon="-2.27358">
        <ele>29.60000038147</ele>
        <time>2020-06-25T07:57:07.000Z</time>
      </trkpt>
      <trkpt lat="47.26739" lon="-2.27359">
        <ele>29.60000038147</ele>
        <time>2020-06-25T07:57:18.000Z</time>
      </trkpt>
      <trkpt lat="47.26742" lon="-2.27361">
        <ele>29.60000038147</ele>
        <time>2020-06-25T07:57:19.000Z</time>
      </trkpt>
      <trkpt lat="47.26748" lon="-2.27379">
        <ele>29.60000038147</ele>
        <time>2020-06-25T07:57:23.000Z</time>
      </trkpt>
      <trkpt lat="47.26756" lon="-2.27414">
        <ele>29.60000038147</ele>
        <time>2020-06-25T07:57:29.000Z</time>
      </trkpt>
      <trkpt lat="47.26769" lon="-2.27416">
        <ele>29.60000038147</ele>
        <time>2020-06-25T07:57:32.000Z</time>
      </trkpt>
      <trkpt lat="47.26797" lon="-2.27415">
        <ele>29.60000038147</ele>
        <time>2020-06-25T07:57:37.000Z</time>
      </trkpt>
      <trkpt lat="47.26823" lon="-2.27413">
        <ele>29.200000762939</ele>
        <time>2020-06-25T07:57:42.000Z</time>
      </trkpt>
      <trkpt lat="47.26827" lon="-2.27413">
        <ele>28.799999237061</ele>
        <time>2020-06-25T07:57:43.000Z</time>
      </trkpt>
      <trkpt lat="47.26832" lon="-2.27411">
        <ele>28.39999961853</ele>
        <time>2020-06-25T07:57:44.000Z</time>
      </trkpt>
      <trkpt lat="47.26836" lon="-2.2741">
        <ele>27.799999237061</ele>
        <time>2020-06-25T07:57:45.000Z</time>
      </trkpt>
      <trkpt lat="47.26841" lon="-2.27408">
        <ele>27.39999961853</ele>
        <time>2020-06-25T07:57:46.000Z</time>
      </trkpt>
      <trkpt lat="47.26857" lon="-2.27403">
        <ele>27.39999961853</ele>
        <time>2020-06-25T07:57:49.000Z</time>
      </trkpt>
      <trkpt lat="47.26882" lon="-2.27392">
        <ele>27</ele>
        <time>2020-06-25T07:57:54.000Z</time>
      </trkpt>
      <trkpt lat="47.26887" lon="-2.2739">
        <ele>26.60000038147</ele>
        <time>2020-06-25T07:57:55.000Z</time>
      </trkpt>
      <trkpt lat="47.26891" lon="-2.27387">
        <ele>25.60000038147</ele>
        <time>2020-06-25T07:57:56.000Z</time>
      </trkpt>
      <trkpt lat="47.26896" lon="-2.27384">
        <ele>25.200000762939</ele>
        <time>2020-06-25T07:57:57.000Z</time>
      </trkpt>
      <trkpt lat="47.269" lon="-2.27382">
        <ele>25.200000762939</ele>
        <time>2020-06-25T07:57:58.000Z</time>
      </trkpt>
      <trkpt lat="47.26904" lon="-2.2738">
        <ele>24.799999237061</ele>
        <time>2020-06-25T07:57:59.000Z</time>
      </trkpt>
      <trkpt lat="47.26907" lon="-2.27377">
        <ele>24.39999961853</ele>
        <time>2020-06-25T07:58:00.000Z</time>
      </trkpt>
      <trkpt lat="47.26909" lon="-2.27373">
        <ele>24</ele>
        <time>2020-06-25T07:58:01.000Z</time>
      </trkpt>
      <trkpt lat="47.26911" lon="-2.2737">
        <ele>23.60000038147</ele>
        <time>2020-06-25T07:58:02.000Z</time>
      </trkpt>
      <trkpt lat="47.26912" lon="-2.27367">
        <ele>23.200000762939</ele>
        <time>2020-06-25T07:58:03.000Z</time>
      </trkpt>
      <trkpt lat="47.26913" lon="-2.2736">
        <ele>23.200000762939</ele>
        <time>2020-06-25T07:58:05.000Z</time>
      </trkpt>
      <trkpt lat="47.26914" lon="-2.27349">
        <ele>23.200000762939</ele>
        <time>2020-06-25T07:58:08.000Z</time>
      </trkpt>
      <trkpt lat="47.26916" lon="-2.27338">
        <ele>23.200000762939</ele>
        <time>2020-06-25T07:58:11.000Z</time>
      </trkpt>
      <trkpt lat="47.26919" lon="-2.27325">
        <ele>23.200000762939</ele>
        <time>2020-06-25T07:58:15.000Z</time>
      </trkpt>
      <trkpt lat="47.26922" lon="-2.27321">
        <ele>23.200000762939</ele>
        <time>2020-06-25T07:58:17.000Z</time>
      </trkpt>
      <trkpt lat="47.26925" lon="-2.27319">
        <ele>23.200000762939</ele>
        <time>2020-06-25T07:58:19.000Z</time>
      </trkpt>
      <trkpt lat="47.26926" lon="-2.27318">
        <ele>23.200000762939</ele>
        <time>2020-06-25T07:58:21.000Z</time>
      </trkpt>
      <trkpt lat="47.26927" lon="-2.2731">
        <ele>23.200000762939</ele>
        <time>2020-06-25T07:58:28.000Z</time>
      </trkpt>
      <trkpt lat="47.26927" lon="-2.27307">
        <ele>23.200000762939</ele>
        <time>2020-06-25T07:58:29.000Z</time>
      </trkpt>
      <trkpt lat="47.26927" lon="-2.27293">
        <ele>23.200000762939</ele>
        <time>2020-06-25T07:58:35.000Z</time>
      </trkpt>
      <trkpt lat="47.26928" lon="-2.27289">
        <ele>23.200000762939</ele>
        <time>2020-06-25T07:58:36.000Z</time>
      </trkpt>
      <trkpt lat="47.26929" lon="-2.27278">
        <ele>23.200000762939</ele>
        <time>2020-06-25T07:58:39.000Z</time>
      </trkpt>
      <trkpt lat="47.26931" lon="-2.27273">
        <ele>23.200000762939</ele>
        <time>2020-06-25T07:58:41.000Z</time>
      </trkpt>
      <trkpt lat="47.26934" lon="-2.27271">
        <ele>23.200000762939</ele>
        <time>2020-06-25T07:58:43.000Z</time>
      </trkpt>
      <trkpt lat="47.26939" lon="-2.27268">
        <ele>23.200000762939</ele>
        <time>2020-06-25T07:58:45.000Z</time>
      </trkpt>
      <trkpt lat="47.26942" lon="-2.27268">
        <ele>23.200000762939</ele>
        <time>2020-06-25T07:58:46.000Z</time>
      </trkpt>
      <trkpt lat="47.26949" lon="-2.27265">
        <ele>23.200000762939</ele>
        <time>2020-06-25T07:58:49.000Z</time>
      </trkpt>
      <trkpt lat="47.2695" lon="-2.27262">
        <ele>23.200000762939</ele>
        <time>2020-06-25T07:58:50.000Z</time>
      </trkpt>
      <trkpt lat="47.2696" lon="-2.27245">
        <ele>23.200000762939</ele>
        <time>2020-06-25T07:58:55.000Z</time>
      </trkpt>
      <trkpt lat="47.26965" lon="-2.27218">
        <ele>23.200000762939</ele>
        <time>2020-06-25T07:59:00.000Z</time>
      </trkpt>
      <trkpt lat="47.26969" lon="-2.27208">
        <ele>23.200000762939</ele>
        <time>2020-06-25T07:59:03.000Z</time>
      </trkpt>
      <trkpt lat="47.26971" lon="-2.27205">
        <ele>23.200000762939</ele>
        <time>2020-06-25T07:59:05.000Z</time>
      </trkpt>
      <trkpt lat="47.26974" lon="-2.27203">
        <ele>23.200000762939</ele>
        <time>2020-06-25T07:59:06.000Z</time>
      </trkpt>
      <trkpt lat="47.2699" lon="-2.27196">
        <ele>23.200000762939</ele>
        <time>2020-06-25T07:59:12.000Z</time>
      </trkpt>
      <trkpt lat="47.27" lon="-2.27196">
        <ele>23.200000762939</ele>
        <time>2020-06-25T07:59:18.000Z</time>
      </trkpt>
      <trkpt lat="47.27006" lon="-2.27188">
        <ele>23.200000762939</ele>
        <time>2020-06-25T07:59:32.000Z</time>
      </trkpt>
      <trkpt lat="47.27011" lon="-2.27183">
        <ele>22.799999237061</ele>
        <time>2020-06-25T07:59:36.000Z</time>
      </trkpt>
      <trkpt lat="47.27013" lon="-2.27182">
        <ele>22.39999961853</ele>
        <time>2020-06-25T07:59:37.000Z</time>
      </trkpt>
      <trkpt lat="47.27014" lon="-2.27181">
        <ele>22</ele>
        <time>2020-06-25T07:59:38.000Z</time>
      </trkpt>
      <trkpt lat="47.27015" lon="-2.27179">
        <ele>21.39999961853</ele>
        <time>2020-06-25T07:59:39.000Z</time>
      </trkpt>
      <trkpt lat="47.27016" lon="-2.27177">
        <ele>21</ele>
        <time>2020-06-25T07:59:40.000Z</time>
      </trkpt>
      <trkpt lat="47.27021" lon="-2.27168">
        <ele>21</ele>
        <time>2020-06-25T07:59:45.000Z</time>
      </trkpt>
      <trkpt lat="47.27029" lon="-2.27156">
        <ele>21</ele>
        <time>2020-06-25T07:59:51.000Z</time>
      </trkpt>
      <trkpt lat="47.27033" lon="-2.27153">
        <ele>20.60000038147</ele>
        <time>2020-06-25T07:59:52.000Z</time>
      </trkpt>
      <trkpt lat="47.27035" lon="-2.27151">
        <ele>20.200000762939</ele>
        <time>2020-06-25T07:59:53.000Z</time>
      </trkpt>
      <trkpt lat="47.27037" lon="-2.27151">
        <ele>19.799999237061</ele>
        <time>2020-06-25T07:59:54.000Z</time>
      </trkpt>
      <trkpt lat="47.27039" lon="-2.27152">
        <ele>19.39999961853</ele>
        <time>2020-06-25T07:59:55.000Z</time>
      </trkpt>
      <trkpt lat="47.27041" lon="-2.27153">
        <ele>19</ele>
        <time>2020-06-25T07:59:56.000Z</time>
      </trkpt>
      <trkpt lat="47.27045" lon="-2.27158">
        <ele>19</ele>
        <time>2020-06-25T07:59:58.000Z</time>
      </trkpt>
      <trkpt lat="47.27051" lon="-2.2717">
        <ele>19</ele>
        <time>2020-06-25T08:00:01.000Z</time>
      </trkpt>
      <trkpt lat="47.27066" lon="-2.27196">
        <ele>19.39999961853</ele>
        <time>2020-06-25T08:00:06.000Z</time>
      </trkpt>
      <trkpt lat="47.27069" lon="-2.27201">
        <ele>20</ele>
        <time>2020-06-25T08:00:07.000Z</time>
      </trkpt>
      <trkpt lat="47.27072" lon="-2.27206">
        <ele>20.39999961853</ele>
        <time>2020-06-25T08:00:08.000Z</time>
      </trkpt>
      <trkpt lat="47.27076" lon="-2.27211">
        <ele>20.799999237061</ele>
        <time>2020-06-25T08:00:09.000Z</time>
      </trkpt>
      <trkpt lat="47.27079" lon="-2.27217">
        <ele>21.200000762939</ele>
        <time>2020-06-25T08:00:10.000Z</time>
      </trkpt>
      <trkpt lat="47.27085" lon="-2.27226">
        <ele>21.799999237061</ele>
        <time>2020-06-25T08:00:12.000Z</time>
      </trkpt>
      <trkpt lat="47.27088" lon="-2.27231">
        <ele>22.200000762939</ele>
        <time>2020-06-25T08:00:13.000Z</time>
      </trkpt>
      <trkpt lat="47.27092" lon="-2.27236">
        <ele>22.60000038147</ele>
        <time>2020-06-25T08:00:14.000Z</time>
      </trkpt>
      <trkpt lat="47.27095" lon="-2.27241">
        <ele>23.200000762939</ele>
        <time>2020-06-25T08:00:15.000Z</time>
      </trkpt>
      <trkpt lat="47.27098" lon="-2.27245">
        <ele>23.60000038147</ele>
        <time>2020-06-25T08:00:16.000Z</time>
      </trkpt>
      <trkpt lat="47.27115" lon="-2.27276">
        <ele>23.60000038147</ele>
        <time>2020-06-25T08:00:22.000Z</time>
      </trkpt>
      <trkpt lat="47.27118" lon="-2.27281">
        <ele>24</ele>
        <time>2020-06-25T08:00:23.000Z</time>
      </trkpt>
      <trkpt lat="47.2712" lon="-2.27287">
        <ele>24.39999961853</ele>
        <time>2020-06-25T08:00:24.000Z</time>
      </trkpt>
      <trkpt lat="47.27122" lon="-2.27292">
        <ele>24.799999237061</ele>
        <time>2020-06-25T08:00:25.000Z</time>
      </trkpt>
      <trkpt lat="47.27124" lon="-2.27298">
        <ele>25.60000038147</ele>
        <time>2020-06-25T08:00:26.000Z</time>
      </trkpt>
      <trkpt lat="47.27127" lon="-2.2731">
        <ele>25.60000038147</ele>
        <time>2020-06-25T08:00:28.000Z</time>
      </trkpt>
      <trkpt lat="47.2713" lon="-2.27329">
        <ele>25.60000038147</ele>
        <time>2020-06-25T08:00:31.000Z</time>
      </trkpt>
      <trkpt lat="47.2713" lon="-2.27344">
        <ele>26</ele>
        <time>2020-06-25T08:00:33.000Z</time>
      </trkpt>
      <trkpt lat="47.27131" lon="-2.27352">
        <ele>26.39999961853</ele>
        <time>2020-06-25T08:00:34.000Z</time>
      </trkpt>
      <trkpt lat="47.27132" lon="-2.27359">
        <ele>26.799999237061</ele>
        <time>2020-06-25T08:00:35.000Z</time>
      </trkpt>
      <trkpt lat="47.27132" lon="-2.27367">
        <ele>27.200000762939</ele>
        <time>2020-06-25T08:00:36.000Z</time>
      </trkpt>
      <trkpt lat="47.27133" lon="-2.27374">
        <ele>27.60000038147</ele>
        <time>2020-06-25T08:00:37.000Z</time>
      </trkpt>
      <trkpt lat="47.27137" lon="-2.27395">
        <ele>27.60000038147</ele>
        <time>2020-06-25T08:00:40.000Z</time>
      </trkpt>
      <trkpt lat="47.27143" lon="-2.27446">
        <ele>27.60000038147</ele>
        <time>2020-06-25T08:00:47.000Z</time>
      </trkpt>
      <trkpt lat="47.2715" lon="-2.27501">
        <ele>27.60000038147</ele>
        <time>2020-06-25T08:00:54.000Z</time>
      </trkpt>
      <trkpt lat="47.2715" lon="-2.27568">
        <ele>27.60000038147</ele>
        <time>2020-06-25T08:01:01.000Z</time>
      </trkpt>
      <trkpt lat="47.27142" lon="-2.27604">
        <ele>27.60000038147</ele>
        <time>2020-06-25T08:01:05.000Z</time>
      </trkpt>
      <trkpt lat="47.27126" lon="-2.2762">
        <ele>27.60000038147</ele>
        <time>2020-06-25T08:01:08.000Z</time>
      </trkpt>
      <trkpt lat="47.2712" lon="-2.27624">
        <ele>27.60000038147</ele>
        <time>2020-06-25T08:01:09.000Z</time>
      </trkpt>
      <trkpt lat="47.27087" lon="-2.27645">
        <ele>27.60000038147</ele>
        <time>2020-06-25T08:01:14.000Z</time>
      </trkpt>
      <trkpt lat="47.27049" lon="-2.27678">
        <ele>27.60000038147</ele>
        <time>2020-06-25T08:01:21.000Z</time>
      </trkpt>
      <trkpt lat="47.27031" lon="-2.27704">
        <ele>27.60000038147</ele>
        <time>2020-06-25T08:01:26.000Z</time>
      </trkpt>
      <trkpt lat="47.27028" lon="-2.27709">
        <ele>27.60000038147</ele>
        <time>2020-06-25T08:01:27.000Z</time>
      </trkpt>
      <trkpt lat="47.27027" lon="-2.2772">
        <ele>27.60000038147</ele>
        <time>2020-06-25T08:01:30.000Z</time>
      </trkpt>
      <trkpt lat="47.27028" lon="-2.27722">
        <ele>27.60000038147</ele>
        <time>2020-06-25T08:01:31.000Z</time>
      </trkpt>
      <trkpt lat="47.27036" lon="-2.27728">
        <ele>27.60000038147</ele>
        <time>2020-06-25T08:01:35.000Z</time>
      </trkpt>
      <trkpt lat="47.27052" lon="-2.27735">
        <ele>27.60000038147</ele>
        <time>2020-06-25T08:01:39.000Z</time>
      </trkpt>
      <trkpt lat="47.27057" lon="-2.27736">
        <ele>27.60000038147</ele>
        <time>2020-06-25T08:01:40.000Z</time>
      </trkpt>
      <trkpt lat="47.27075" lon="-2.27742">
        <ele>28</ele>
        <time>2020-06-25T08:01:44.000Z</time>
      </trkpt>
      <trkpt lat="47.2708" lon="-2.27744">
        <ele>28.60000038147</ele>
        <time>2020-06-25T08:01:45.000Z</time>
      </trkpt>
      <trkpt lat="47.27084" lon="-2.27746">
        <ele>29</ele>
        <time>2020-06-25T08:01:46.000Z</time>
      </trkpt>
      <trkpt lat="47.27088" lon="-2.27748">
        <ele>29.39999961853</ele>
        <time>2020-06-25T08:01:47.000Z</time>
      </trkpt>
      <trkpt lat="47.27093" lon="-2.27751">
        <ele>29.799999237061</ele>
        <time>2020-06-25T08:01:48.000Z</time>
      </trkpt>
      <trkpt lat="47.27105" lon="-2.27764">
        <ele>29.799999237061</ele>
        <time>2020-06-25T08:01:52.000Z</time>
      </trkpt>
      <trkpt lat="47.27109" lon="-2.27782">
        <ele>29.799999237061</ele>
        <time>2020-06-25T08:01:57.000Z</time>
      </trkpt>
      <trkpt lat="47.27113" lon="-2.27795">
        <ele>29.799999237061</ele>
        <time>2020-06-25T08:02:03.000Z</time>
      </trkpt>
      <trkpt lat="47.27117" lon="-2.27808">
        <ele>29.799999237061</ele>
        <time>2020-06-25T08:02:10.000Z</time>
      </trkpt>
      <trkpt lat="47.27115" lon="-2.27821">
        <ele>29.799999237061</ele>
        <time>2020-06-25T08:02:17.000Z</time>
      </trkpt>
      <trkpt lat="47.2711" lon="-2.27834">
        <ele>30.200000762939</ele>
        <time>2020-06-25T08:02:21.000Z</time>
      </trkpt>
      <trkpt lat="47.2711" lon="-2.27837">
        <ele>30.60000038147</ele>
        <time>2020-06-25T08:02:22.000Z</time>
      </trkpt>
      <trkpt lat="47.27109" lon="-2.27841">
        <ele>31</ele>
        <time>2020-06-25T08:02:23.000Z</time>
      </trkpt>
      <trkpt lat="47.27108" lon="-2.27845">
        <ele>31.39999961853</ele>
        <time>2020-06-25T08:02:24.000Z</time>
      </trkpt>
      <trkpt lat="47.27107" lon="-2.27848">
        <ele>31.799999237061</ele>
        <time>2020-06-25T08:02:25.000Z</time>
      </trkpt>
      <trkpt lat="47.27104" lon="-2.27862">
        <ele>31.799999237061</ele>
        <time>2020-06-25T08:02:29.000Z</time>
      </trkpt>
      <trkpt lat="47.27098" lon="-2.27883">
        <ele>32.200000762939</ele>
        <time>2020-06-25T08:02:35.000Z</time>
      </trkpt>
      <trkpt lat="47.27096" lon="-2.27885">
        <ele>32.599998474121</ele>
        <time>2020-06-25T08:02:36.000Z</time>
      </trkpt>
      <trkpt lat="47.27093" lon="-2.27887">
        <ele>33.200000762939</ele>
        <time>2020-06-25T08:02:37.000Z</time>
      </trkpt>
      <trkpt lat="47.27091" lon="-2.27889">
        <ele>33.599998474121</ele>
        <time>2020-06-25T08:02:38.000Z</time>
      </trkpt>
      <trkpt lat="47.27088" lon="-2.27891">
        <ele>34</ele>
        <time>2020-06-25T08:02:39.000Z</time>
      </trkpt>
      <trkpt lat="47.27076" lon="-2.27909">
        <ele>34</ele>
        <time>2020-06-25T08:02:45.000Z</time>
      </trkpt>
      <trkpt lat="47.27069" lon="-2.2793">
        <ele>34</ele>
        <time>2020-06-25T08:02:51.000Z</time>
      </trkpt>
      <trkpt lat="47.27068" lon="-2.27949">
        <ele>34.400001525879</ele>
        <time>2020-06-25T08:02:56.000Z</time>
      </trkpt>
      <trkpt lat="47.27069" lon="-2.27954">
        <ele>34.799999237061</ele>
        <time>2020-06-25T08:02:57.000Z</time>
      </trkpt>
      <trkpt lat="47.2707" lon="-2.27958">
        <ele>35.200000762939</ele>
        <time>2020-06-25T08:02:58.000Z</time>
      </trkpt>
      <trkpt lat="47.2707" lon="-2.27961">
        <ele>35.599998474121</ele>
        <time>2020-06-25T08:02:59.000Z</time>
      </trkpt>
      <trkpt lat="47.27071" lon="-2.27965">
        <ele>36</ele>
        <time>2020-06-25T08:03:00.000Z</time>
      </trkpt>
      <trkpt lat="47.2708" lon="-2.2798">
        <ele>36</ele>
        <time>2020-06-25T08:03:04.000Z</time>
      </trkpt>
      <trkpt lat="47.271" lon="-2.27991">
        <ele>36</ele>
        <time>2020-06-25T08:03:10.000Z</time>
      </trkpt>
      <trkpt lat="47.27116" lon="-2.28005">
        <ele>36</ele>
        <time>2020-06-25T08:03:15.000Z</time>
      </trkpt>
      <trkpt lat="47.2712" lon="-2.2803">
        <ele>36</ele>
        <time>2020-06-25T08:03:20.000Z</time>
      </trkpt>
      <trkpt lat="47.27125" lon="-2.28053">
        <ele>36</ele>
        <time>2020-06-25T08:03:27.000Z</time>
      </trkpt>
      <trkpt lat="47.27124" lon="-2.28056">
        <ele>34</ele>
        <time>2020-06-25T08:04:02.000Z</time>
      </trkpt>
      <trkpt lat="47.27123" lon="-2.28065">
        <ele>34</ele>
        <time>2020-06-25T08:04:05.000Z</time>
      </trkpt>
      <trkpt lat="47.27124" lon="-2.28092">
        <ele>34</ele>
        <time>2020-06-25T08:04:11.000Z</time>
      </trkpt>
      <trkpt lat="47.27124" lon="-2.28109">
        <ele>34</ele>
        <time>2020-06-25T08:04:14.000Z</time>
      </trkpt>
      <trkpt lat="47.27125" lon="-2.28126">
        <ele>34</ele>
        <time>2020-06-25T08:04:17.000Z</time>
      </trkpt>
      <trkpt lat="47.27131" lon="-2.28151">
        <ele>34</ele>
        <time>2020-06-25T08:04:22.000Z</time>
      </trkpt>
      <trkpt lat="47.27142" lon="-2.2815">
        <ele>34</ele>
        <time>2020-06-25T08:04:25.000Z</time>
      </trkpt>
      <trkpt lat="47.27152" lon="-2.28152">
        <ele>34</ele>
        <time>2020-06-25T08:04:27.000Z</time>
      </trkpt>
      <trkpt lat="47.27159" lon="-2.2815">
        <ele>34</ele>
        <time>2020-06-25T08:04:29.000Z</time>
      </trkpt>
      <trkpt lat="47.27163" lon="-2.28148">
        <ele>33.599998474121</ele>
        <time>2020-06-25T08:04:31.000Z</time>
      </trkpt>
      <trkpt lat="47.27165" lon="-2.28147">
        <ele>33.200000762939</ele>
        <time>2020-06-25T08:04:32.000Z</time>
      </trkpt>
      <trkpt lat="47.27166" lon="-2.28146">
        <ele>32.799999237061</ele>
        <time>2020-06-25T08:04:33.000Z</time>
      </trkpt>
      <trkpt lat="47.27167" lon="-2.28146">
        <ele>31.799999237061</ele>
        <time>2020-06-25T08:04:34.000Z</time>
      </trkpt>
      <trkpt lat="47.27167" lon="-2.28146">
        <ele>31.799999237061</ele>
        <time>2020-06-25T08:04:35.000Z</time>
      </trkpt>
      <trkpt lat="47.27167" lon="-2.28146">
        <ele>31.799999237061</ele>
        <time>2020-06-25T08:05:01.000Z</time>
      </trkpt>
      <trkpt lat="47.27171" lon="-2.28143">
        <ele>31.799999237061</ele>
        <time>2020-06-25T08:05:03.000Z</time>
      </trkpt>
      <trkpt lat="47.27183" lon="-2.28129">
        <ele>31.799999237061</ele>
        <time>2020-06-25T08:05:08.000Z</time>
      </trkpt>
      <trkpt lat="47.27204" lon="-2.28112">
        <ele>31.799999237061</ele>
        <time>2020-06-25T08:05:14.000Z</time>
      </trkpt>
      <trkpt lat="47.27237" lon="-2.2809">
        <ele>31.799999237061</ele>
        <time>2020-06-25T08:05:22.000Z</time>
      </trkpt>
      <trkpt lat="47.27246" lon="-2.28086">
        <ele>31.799999237061</ele>
        <time>2020-06-25T08:05:24.000Z</time>
      </trkpt>
      <trkpt lat="47.27261" lon="-2.28073">
        <ele>31.799999237061</ele>
        <time>2020-06-25T08:05:28.000Z</time>
      </trkpt>
      <trkpt lat="47.27282" lon="-2.28059">
        <ele>31.799999237061</ele>
        <time>2020-06-25T08:05:33.000Z</time>
      </trkpt>
      <trkpt lat="47.27287" lon="-2.28057">
        <ele>31.799999237061</ele>
        <time>2020-06-25T08:05:34.000Z</time>
      </trkpt>
      <trkpt lat="47.27307" lon="-2.28051">
        <ele>31.799999237061</ele>
        <time>2020-06-25T08:05:38.000Z</time>
      </trkpt>
      <trkpt lat="47.27317" lon="-2.28049">
        <ele>31.799999237061</ele>
        <time>2020-06-25T08:05:40.000Z</time>
      </trkpt>
      <trkpt lat="47.27331" lon="-2.2805">
        <ele>31.799999237061</ele>
        <time>2020-06-25T08:05:43.000Z</time>
      </trkpt>
      <trkpt lat="47.27345" lon="-2.28051">
        <ele>31.39999961853</ele>
        <time>2020-06-25T08:05:46.000Z</time>
      </trkpt>
      <trkpt lat="47.27349" lon="-2.28053">
        <ele>31</ele>
        <time>2020-06-25T08:05:47.000Z</time>
      </trkpt>
      <trkpt lat="47.27353" lon="-2.28056">
        <ele>30.200000762939</ele>
        <time>2020-06-25T08:05:48.000Z</time>
      </trkpt>
      <trkpt lat="47.27357" lon="-2.28061">
        <ele>29.799999237061</ele>
        <time>2020-06-25T08:05:49.000Z</time>
      </trkpt>
      <trkpt lat="47.27364" lon="-2.28073">
        <ele>29.799999237061</ele>
        <time>2020-06-25T08:05:51.000Z</time>
      </trkpt>
      <trkpt lat="47.27375" lon="-2.28095">
        <ele>29.799999237061</ele>
        <time>2020-06-25T08:05:54.000Z</time>
      </trkpt>
      <trkpt lat="47.27386" lon="-2.2811">
        <ele>29.799999237061</ele>
        <time>2020-06-25T08:05:56.000Z</time>
      </trkpt>
      <trkpt lat="47.27429" lon="-2.28163">
        <ele>29.799999237061</ele>
        <time>2020-06-25T08:06:04.000Z</time>
      </trkpt>
      <trkpt lat="47.27433" lon="-2.2817">
        <ele>29.799999237061</ele>
        <time>2020-06-25T08:06:05.000Z</time>
      </trkpt>
      <trkpt lat="47.27437" lon="-2.28186">
        <ele>29.799999237061</ele>
        <time>2020-06-25T08:06:07.000Z</time>
      </trkpt>
      <trkpt lat="47.27436" lon="-2.28195">
        <ele>29.39999961853</ele>
        <time>2020-06-25T08:06:08.000Z</time>
      </trkpt>
      <trkpt lat="47.27436" lon="-2.28204">
        <ele>29</ele>
        <time>2020-06-25T08:06:09.000Z</time>
      </trkpt>
      <trkpt lat="47.27435" lon="-2.28213">
        <ele>28.60000038147</ele>
        <time>2020-06-25T08:06:10.000Z</time>
      </trkpt>
      <trkpt lat="47.27434" lon="-2.28223">
        <ele>28.200000762939</ele>
        <time>2020-06-25T08:06:11.000Z</time>
      </trkpt>
      <trkpt lat="47.27432" lon="-2.28232">
        <ele>27.799999237061</ele>
        <time>2020-06-25T08:06:12.000Z</time>
      </trkpt>
      <trkpt lat="47.27422" lon="-2.28288">
        <ele>27.799999237061</ele>
        <time>2020-06-25T08:06:18.000Z</time>
      </trkpt>
      <trkpt lat="47.27419" lon="-2.28298">
        <ele>27.799999237061</ele>
        <time>2020-06-25T08:06:19.000Z</time>
      </trkpt>
      <trkpt lat="47.27411" lon="-2.28338">
        <ele>27.799999237061</ele>
        <time>2020-06-25T08:06:23.000Z</time>
      </trkpt>
      <trkpt lat="47.27409" lon="-2.28387">
        <ele>27.799999237061</ele>
        <time>2020-06-25T08:06:28.000Z</time>
      </trkpt>
      <trkpt lat="47.2741" lon="-2.28456">
        <ele>27.799999237061</ele>
        <time>2020-06-25T08:06:35.000Z</time>
      </trkpt>
      <trkpt lat="47.27409" lon="-2.28465">
        <ele>27.799999237061</ele>
        <time>2020-06-25T08:06:36.000Z</time>
      </trkpt>
      <trkpt lat="47.27403" lon="-2.28501">
        <ele>27.799999237061</ele>
        <time>2020-06-25T08:06:40.000Z</time>
      </trkpt>
      <trkpt lat="47.27391" lon="-2.28551">
        <ele>27.799999237061</ele>
        <time>2020-06-25T08:06:46.000Z</time>
      </trkpt>
      <trkpt lat="47.27375" lon="-2.28589">
        <ele>27.799999237061</ele>
        <time>2020-06-25T08:06:52.000Z</time>
      </trkpt>
      <trkpt lat="47.27369" lon="-2.28618">
        <ele>27.799999237061</ele>
        <time>2020-06-25T08:06:58.000Z</time>
      </trkpt>
      <trkpt lat="47.27379" lon="-2.28625">
        <ele>27.799999237061</ele>
        <time>2020-06-25T08:07:01.000Z</time>
      </trkpt>
      <trkpt lat="47.27385" lon="-2.28627">
        <ele>27.799999237061</ele>
        <time>2020-06-25T08:07:02.000Z</time>
      </trkpt>
      <trkpt lat="47.27403" lon="-2.28632">
        <ele>27.39999961853</ele>
        <time>2020-06-25T08:07:05.000Z</time>
      </trkpt>
      <trkpt lat="47.27411" lon="-2.28633">
        <ele>27</ele>
        <time>2020-06-25T08:07:06.000Z</time>
      </trkpt>
      <trkpt lat="47.27419" lon="-2.28635">
        <ele>26.39999961853</ele>
        <time>2020-06-25T08:07:07.000Z</time>
      </trkpt>
      <trkpt lat="47.27426" lon="-2.28636">
        <ele>26</ele>
        <time>2020-06-25T08:07:08.000Z</time>
      </trkpt>
      <trkpt lat="47.27432" lon="-2.28635">
        <ele>25.60000038147</ele>
        <time>2020-06-25T08:07:09.000Z</time>
      </trkpt>
      <trkpt lat="47.27443" lon="-2.28631">
        <ele>25.60000038147</ele>
        <time>2020-06-25T08:07:11.000Z</time>
      </trkpt>
      <trkpt lat="47.27455" lon="-2.28614">
        <ele>25.60000038147</ele>
        <time>2020-06-25T08:07:14.000Z</time>
      </trkpt>
      <trkpt lat="47.27465" lon="-2.28606">
        <ele>25.60000038147</ele>
        <time>2020-06-25T08:07:17.000Z</time>
      </trkpt>
      <trkpt lat="47.27477" lon="-2.28623">
        <ele>25.60000038147</ele>
        <time>2020-06-25T08:07:20.000Z</time>
      </trkpt>
      <trkpt lat="47.2748" lon="-2.28632">
        <ele>25.60000038147</ele>
        <time>2020-06-25T08:07:21.000Z</time>
      </trkpt>
      <trkpt lat="47.275" lon="-2.28672">
        <ele>25.60000038147</ele>
        <time>2020-06-25T08:07:26.000Z</time>
      </trkpt>
      <trkpt lat="47.27524" lon="-2.28706">
        <ele>25.60000038147</ele>
        <time>2020-06-25T08:07:32.000Z</time>
      </trkpt>
      <trkpt lat="47.27528" lon="-2.2871">
        <ele>25.60000038147</ele>
        <time>2020-06-25T08:07:33.000Z</time>
      </trkpt>
      <trkpt lat="47.27548" lon="-2.28722">
        <ele>25.60000038147</ele>
        <time>2020-06-25T08:07:37.000Z</time>
      </trkpt>
      <trkpt lat="47.27582" lon="-2.28739">
        <ele>25.60000038147</ele>
        <time>2020-06-25T08:07:42.000Z</time>
      </trkpt>
      <trkpt lat="47.27625" lon="-2.28751">
        <ele>25.60000038147</ele>
        <time>2020-06-25T08:07:47.000Z</time>
      </trkpt>
      <trkpt lat="47.27664" lon="-2.28767">
        <ele>25.60000038147</ele>
        <time>2020-06-25T08:07:53.000Z</time>
      </trkpt>
      <trkpt lat="47.2767" lon="-2.28772">
        <ele>25.200000762939</ele>
        <time>2020-06-25T08:07:54.000Z</time>
      </trkpt>
      <trkpt lat="47.27676" lon="-2.28776">
        <ele>24.799999237061</ele>
        <time>2020-06-25T08:07:55.000Z</time>
      </trkpt>
      <trkpt lat="47.27682" lon="-2.28782">
        <ele>24.39999961853</ele>
        <time>2020-06-25T08:07:56.000Z</time>
      </trkpt>
      <trkpt lat="47.27688" lon="-2.28789">
        <ele>24</ele>
        <time>2020-06-25T08:07:57.000Z</time>
      </trkpt>
      <trkpt lat="47.27694" lon="-2.28798">
        <ele>23.60000038147</ele>
        <time>2020-06-25T08:07:58.000Z</time>
      </trkpt>
      <trkpt lat="47.27705" lon="-2.28815">
        <ele>23.60000038147</ele>
        <time>2020-06-25T08:08:01.000Z</time>
      </trkpt>
      <trkpt lat="47.27721" lon="-2.28812">
        <ele>23.60000038147</ele>
        <time>2020-06-25T08:08:04.000Z</time>
      </trkpt>
      <trkpt lat="47.27756" lon="-2.28799">
        <ele>23.60000038147</ele>
        <time>2020-06-25T08:08:10.000Z</time>
      </trkpt>
      <trkpt lat="47.27775" lon="-2.28796">
        <ele>23.60000038147</ele>
        <time>2020-06-25T08:08:13.000Z</time>
      </trkpt>
      <trkpt lat="47.27788" lon="-2.28798">
        <ele>23.60000038147</ele>
        <time>2020-06-25T08:08:15.000Z</time>
      </trkpt>
      <trkpt lat="47.27794" lon="-2.28798">
        <ele>23.60000038147</ele>
        <time>2020-06-25T08:08:16.000Z</time>
      </trkpt>
      <trkpt lat="47.27813" lon="-2.28793">
        <ele>23.60000038147</ele>
        <time>2020-06-25T08:08:19.000Z</time>
      </trkpt>
      <trkpt lat="47.27819" lon="-2.28794">
        <ele>23.60000038147</ele>
        <time>2020-06-25T08:08:20.000Z</time>
      </trkpt>
      <trkpt lat="47.27836" lon="-2.288">
        <ele>23.60000038147</ele>
        <time>2020-06-25T08:08:23.000Z</time>
      </trkpt>
      <trkpt lat="47.27842" lon="-2.28803">
        <ele>23.60000038147</ele>
        <time>2020-06-25T08:08:24.000Z</time>
      </trkpt>
      <trkpt lat="47.27858" lon="-2.28813">
        <ele>23.60000038147</ele>
        <time>2020-06-25T08:08:27.000Z</time>
      </trkpt>
      <trkpt lat="47.27862" lon="-2.28813">
        <ele>23.60000038147</ele>
        <time>2020-06-25T08:08:28.000Z</time>
      </trkpt>
      <trkpt lat="47.2787" lon="-2.28803">
        <ele>23.60000038147</ele>
        <time>2020-06-25T08:08:31.000Z</time>
      </trkpt>
      <trkpt lat="47.27872" lon="-2.28792">
        <ele>23.60000038147</ele>
        <time>2020-06-25T08:08:33.000Z</time>
      </trkpt>
      <trkpt lat="47.27875" lon="-2.2878">
        <ele>23.60000038147</ele>
        <time>2020-06-25T08:08:35.000Z</time>
      </trkpt>
      <trkpt lat="47.27885" lon="-2.28768">
        <ele>23.60000038147</ele>
        <time>2020-06-25T08:08:38.000Z</time>
      </trkpt>
      <trkpt lat="47.27903" lon="-2.28763">
        <ele>23.60000038147</ele>
        <time>2020-06-25T08:08:41.000Z</time>
      </trkpt>
      <trkpt lat="47.2791" lon="-2.28762">
        <ele>23.60000038147</ele>
        <time>2020-06-25T08:08:42.000Z</time>
      </trkpt>
      <trkpt lat="47.27953" lon="-2.2875">
        <ele>23.60000038147</ele>
        <time>2020-06-25T08:08:49.000Z</time>
      </trkpt>
      <trkpt lat="47.27979" lon="-2.28749">
        <ele>23.60000038147</ele>
        <time>2020-06-25T08:08:53.000Z</time>
      </trkpt>
      <trkpt lat="47.27985" lon="-2.2875">
        <ele>23.60000038147</ele>
        <time>2020-06-25T08:08:54.000Z</time>
      </trkpt>
      <trkpt lat="47.2803" lon="-2.28758">
        <ele>23.60000038147</ele>
        <time>2020-06-25T08:09:01.000Z</time>
      </trkpt>
      <trkpt lat="47.28064" lon="-2.28769">
        <ele>23.60000038147</ele>
        <time>2020-06-25T08:09:07.000Z</time>
      </trkpt>
      <trkpt lat="47.2811" lon="-2.28791">
        <ele>23.60000038147</ele>
        <time>2020-06-25T08:09:15.000Z</time>
      </trkpt>
      <trkpt lat="47.28144" lon="-2.28812">
        <ele>24</ele>
        <time>2020-06-25T08:09:21.000Z</time>
      </trkpt>
      <trkpt lat="47.28149" lon="-2.28816">
        <ele>24.39999961853</ele>
        <time>2020-06-25T08:09:22.000Z</time>
      </trkpt>
      <trkpt lat="47.28154" lon="-2.2882">
        <ele>24.799999237061</ele>
        <time>2020-06-25T08:09:23.000Z</time>
      </trkpt>
      <trkpt lat="47.28159" lon="-2.28825">
        <ele>25.799999237061</ele>
        <time>2020-06-25T08:09:24.000Z</time>
      </trkpt>
      <trkpt lat="47.28182" lon="-2.28846">
        <ele>26.200000762939</ele>
        <time>2020-06-25T08:09:29.000Z</time>
      </trkpt>
      <trkpt lat="47.28186" lon="-2.28851">
        <ele>26.60000038147</ele>
        <time>2020-06-25T08:09:30.000Z</time>
      </trkpt>
      <trkpt lat="47.28191" lon="-2.28855">
        <ele>27</ele>
        <time>2020-06-25T08:09:31.000Z</time>
      </trkpt>
      <trkpt lat="47.28195" lon="-2.2886">
        <ele>27.39999961853</ele>
        <time>2020-06-25T08:09:32.000Z</time>
      </trkpt>
      <trkpt lat="47.282" lon="-2.28864">
        <ele>27.799999237061</ele>
        <time>2020-06-25T08:09:33.000Z</time>
      </trkpt>
      <trkpt lat="47.2821" lon="-2.28872">
        <ele>27.799999237061</ele>
        <time>2020-06-25T08:09:35.000Z</time>
      </trkpt>
      <trkpt lat="47.28221" lon="-2.28872">
        <ele>27.799999237061</ele>
        <time>2020-06-25T08:09:37.000Z</time>
      </trkpt>
      <trkpt lat="47.28233" lon="-2.28855">
        <ele>27.799999237061</ele>
        <time>2020-06-25T08:09:40.000Z</time>
      </trkpt>
      <trkpt lat="47.28235" lon="-2.28832">
        <ele>27.799999237061</ele>
        <time>2020-06-25T08:09:43.000Z</time>
      </trkpt>
      <trkpt lat="47.28243" lon="-2.2878">
        <ele>27.799999237061</ele>
        <time>2020-06-25T08:09:49.000Z</time>
      </trkpt>
      <trkpt lat="47.28245" lon="-2.28771">
        <ele>28.200000762939</ele>
        <time>2020-06-25T08:09:50.000Z</time>
      </trkpt>
      <trkpt lat="47.28247" lon="-2.28762">
        <ele>28.60000038147</ele>
        <time>2020-06-25T08:09:51.000Z</time>
      </trkpt>
      <trkpt lat="47.28248" lon="-2.28753">
        <ele>29</ele>
        <time>2020-06-25T08:09:52.000Z</time>
      </trkpt>
      <trkpt lat="47.28249" lon="-2.28744">
        <ele>29.39999961853</ele>
        <time>2020-06-25T08:09:53.000Z</time>
      </trkpt>
      <trkpt lat="47.28251" lon="-2.28735">
        <ele>29.799999237061</ele>
        <time>2020-06-25T08:09:54.000Z</time>
      </trkpt>
      <trkpt lat="47.28257" lon="-2.28698">
        <ele>29.799999237061</ele>
        <time>2020-06-25T08:09:58.000Z</time>
      </trkpt>
      <trkpt lat="47.2827" lon="-2.28633">
        <ele>29.799999237061</ele>
        <time>2020-06-25T08:10:05.000Z</time>
      </trkpt>
      <trkpt lat="47.28286" lon="-2.28558">
        <ele>29.799999237061</ele>
        <time>2020-06-25T08:10:13.000Z</time>
      </trkpt>
      <trkpt lat="47.28287" lon="-2.28548">
        <ele>29.799999237061</ele>
        <time>2020-06-25T08:10:14.000Z</time>
      </trkpt>
      <trkpt lat="47.28296" lon="-2.2848">
        <ele>29.799999237061</ele>
        <time>2020-06-25T08:10:21.000Z</time>
      </trkpt>
      <trkpt lat="47.28309" lon="-2.28421">
        <ele>29.799999237061</ele>
        <time>2020-06-25T08:10:28.000Z</time>
      </trkpt>
      <trkpt lat="47.2832" lon="-2.2838">
        <ele>29.799999237061</ele>
        <time>2020-06-25T08:10:33.000Z</time>
      </trkpt>
      <trkpt lat="47.28322" lon="-2.28363">
        <ele>29.799999237061</ele>
        <time>2020-06-25T08:10:35.000Z</time>
      </trkpt>
      <trkpt lat="47.28324" lon="-2.28313">
        <ele>29.799999237061</ele>
        <time>2020-06-25T08:10:41.000Z</time>
      </trkpt>
      <trkpt lat="47.28325" lon="-2.28258">
        <ele>29.799999237061</ele>
        <time>2020-06-25T08:10:47.000Z</time>
      </trkpt>
      <trkpt lat="47.28325" lon="-2.28194">
        <ele>29.39999961853</ele>
        <time>2020-06-25T08:10:53.000Z</time>
      </trkpt>
      <trkpt lat="47.28325" lon="-2.28183">
        <ele>29</ele>
        <time>2020-06-25T08:10:54.000Z</time>
      </trkpt>
      <trkpt lat="47.28325" lon="-2.28172">
        <ele>28.60000038147</ele>
        <time>2020-06-25T08:10:55.000Z</time>
      </trkpt>
      <trkpt lat="47.28325" lon="-2.28161">
        <ele>28.200000762939</ele>
        <time>2020-06-25T08:10:56.000Z</time>
      </trkpt>
      <trkpt lat="47.28325" lon="-2.2815">
        <ele>27.60000038147</ele>
        <time>2020-06-25T08:10:57.000Z</time>
      </trkpt>
      <trkpt lat="47.28325" lon="-2.2814">
        <ele>27.200000762939</ele>
        <time>2020-06-25T08:10:58.000Z</time>
      </trkpt>
      <trkpt lat="47.28324" lon="-2.28131">
        <ele>26.60000038147</ele>
        <time>2020-06-25T08:10:59.000Z</time>
      </trkpt>
      <trkpt lat="47.28324" lon="-2.28122">
        <ele>26.200000762939</ele>
        <time>2020-06-25T08:11:00.000Z</time>
      </trkpt>
      <trkpt lat="47.28324" lon="-2.28114">
        <ele>25.60000038147</ele>
        <time>2020-06-25T08:11:01.000Z</time>
      </trkpt>
      <trkpt lat="47.28324" lon="-2.28107">
        <ele>25</ele>
        <time>2020-06-25T08:11:02.000Z</time>
      </trkpt>
      <trkpt lat="47.28323" lon="-2.28101">
        <ele>23.799999237061</ele>
        <time>2020-06-25T08:11:03.000Z</time>
      </trkpt>
      <trkpt lat="47.28324" lon="-2.28095">
        <ele>23.200000762939</ele>
        <time>2020-06-25T08:11:04.000Z</time>
      </trkpt>
      <trkpt lat="47.28326" lon="-2.28092">
        <ele>22.799999237061</ele>
        <time>2020-06-25T08:11:05.000Z</time>
      </trkpt>
      <trkpt lat="47.28329" lon="-2.2809">
        <ele>22.39999961853</ele>
        <time>2020-06-25T08:11:06.000Z</time>
      </trkpt>
      <trkpt lat="47.28331" lon="-2.28089">
        <ele>22</ele>
        <time>2020-06-25T08:11:07.000Z</time>
      </trkpt>
      <trkpt lat="47.28333" lon="-2.28087">
        <ele>21.60000038147</ele>
        <time>2020-06-25T08:11:08.000Z</time>
      </trkpt>
      <trkpt lat="47.28335" lon="-2.28087">
        <ele>21</ele>
        <time>2020-06-25T08:11:09.000Z</time>
      </trkpt>
      <trkpt lat="47.28337" lon="-2.28086">
        <ele>21</ele>
        <time>2020-06-25T08:11:10.000Z</time>
      </trkpt>
      <trkpt lat="47.28352" lon="-2.28078">
        <ele>21</ele>
        <time>2020-06-25T08:11:17.000Z</time>
      </trkpt>
      <trkpt lat="47.28357" lon="-2.28074">
        <ele>21</ele>
        <time>2020-06-25T08:11:19.000Z</time>
      </trkpt>
      <trkpt lat="47.28366" lon="-2.28063">
        <ele>21</ele>
        <time>2020-06-25T08:11:25.000Z</time>
      </trkpt>
      <trkpt lat="47.28369" lon="-2.28056">
        <ele>21.60000038147</ele>
        <time>2020-06-25T08:11:30.000Z</time>
      </trkpt>
      <trkpt lat="47.2837" lon="-2.28055">
        <ele>22</ele>
        <time>2020-06-25T08:11:31.000Z</time>
      </trkpt>
      <trkpt lat="47.28371" lon="-2.28054">
        <ele>22.39999961853</ele>
        <time>2020-06-25T08:11:32.000Z</time>
      </trkpt>
      <trkpt lat="47.28372" lon="-2.28055">
        <ele>22.799999237061</ele>
        <time>2020-06-25T08:11:33.000Z</time>
      </trkpt>
      <trkpt lat="47.28373" lon="-2.28057">
        <ele>23.39999961853</ele>
        <time>2020-06-25T08:11:34.000Z</time>
      </trkpt>
      <trkpt lat="47.28374" lon="-2.2806">
        <ele>23.39999961853</ele>
        <time>2020-06-25T08:11:35.000Z</time>
      </trkpt>
      <trkpt lat="47.28376" lon="-2.28067">
        <ele>23.39999961853</ele>
        <time>2020-06-25T08:11:38.000Z</time>
      </trkpt>
      <trkpt lat="47.28379" lon="-2.2807">
        <ele>23</ele>
        <time>2020-06-25T08:11:41.000Z</time>
      </trkpt>
      <trkpt lat="47.2838" lon="-2.2807">
        <ele>22.60000038147</ele>
        <time>2020-06-25T08:11:42.000Z</time>
      </trkpt>
      <trkpt lat="47.28382" lon="-2.28071">
        <ele>22.200000762939</ele>
        <time>2020-06-25T08:11:43.000Z</time>
      </trkpt>
      <trkpt lat="47.28383" lon="-2.28071">
        <ele>21.799999237061</ele>
        <time>2020-06-25T08:11:44.000Z</time>
      </trkpt>
      <trkpt lat="47.28385" lon="-2.28072">
        <ele>21.39999961853</ele>
        <time>2020-06-25T08:11:45.000Z</time>
      </trkpt>
      <trkpt lat="47.28388" lon="-2.28072">
        <ele>21.39999961853</ele>
        <time>2020-06-25T08:11:47.000Z</time>
      </trkpt>
      <trkpt lat="47.284" lon="-2.28078">
        <ele>21.39999961853</ele>
        <time>2020-06-25T08:11:52.000Z</time>
      </trkpt>
      <trkpt lat="47.28411" lon="-2.28082">
        <ele>21.39999961853</ele>
        <time>2020-06-25T08:11:58.000Z</time>
      </trkpt>
      <trkpt lat="47.28417" lon="-2.28081">
        <ele>21.39999961853</ele>
        <time>2020-06-25T08:12:02.000Z</time>
      </trkpt>
      <trkpt lat="47.2842" lon="-2.28083">
        <ele>21.39999961853</ele>
        <time>2020-06-25T08:12:03.000Z</time>
      </trkpt>
      <trkpt lat="47.28438" lon="-2.28085">
        <ele>21.39999961853</ele>
        <time>2020-06-25T08:12:08.000Z</time>
      </trkpt>
      <trkpt lat="47.28459" lon="-2.28095">
        <ele>21.39999961853</ele>
        <time>2020-06-25T08:12:13.000Z</time>
      </trkpt>
      <trkpt lat="47.28463" lon="-2.28095">
        <ele>21.39999961853</ele>
        <time>2020-06-25T08:12:14.000Z</time>
      </trkpt>
      <trkpt lat="47.28473" lon="-2.28092">
        <ele>21.39999961853</ele>
        <time>2020-06-25T08:12:17.000Z</time>
      </trkpt>
      <trkpt lat="47.28476" lon="-2.2809">
        <ele>21.39999961853</ele>
        <time>2020-06-25T08:12:18.000Z</time>
      </trkpt>
      <trkpt lat="47.28487" lon="-2.28081">
        <ele>21.39999961853</ele>
        <time>2020-06-25T08:12:22.000Z</time>
      </trkpt>
      <trkpt lat="47.28488" lon="-2.28077">
        <ele>21.799999237061</ele>
        <time>2020-06-25T08:12:23.000Z</time>
      </trkpt>
      <trkpt lat="47.28488" lon="-2.28075">
        <ele>22.200000762939</ele>
        <time>2020-06-25T08:12:24.000Z</time>
      </trkpt>
      <trkpt lat="47.28488" lon="-2.28073">
        <ele>22.60000038147</ele>
        <time>2020-06-25T08:12:25.000Z</time>
      </trkpt>
      <trkpt lat="47.28487" lon="-2.28072">
        <ele>23.200000762939</ele>
        <time>2020-06-25T08:12:26.000Z</time>
      </trkpt>
      <trkpt lat="47.28487" lon="-2.2807">
        <ele>23.60000038147</ele>
        <time>2020-06-25T08:12:27.000Z</time>
      </trkpt>
      <trkpt lat="47.28483" lon="-2.28055">
        <ele>23.60000038147</ele>
        <time>2020-06-25T08:12:32.000Z</time>
      </trkpt>
      <trkpt lat="47.28486" lon="-2.28043">
        <ele>23.60000038147</ele>
        <time>2020-06-25T08:12:38.000Z</time>
      </trkpt>
      <trkpt lat="47.28494" lon="-2.2804">
        <ele>23.60000038147</ele>
        <time>2020-06-25T08:12:42.000Z</time>
      </trkpt>
      <trkpt lat="47.28497" lon="-2.28042">
        <ele>23.60000038147</ele>
        <time>2020-06-25T08:12:43.000Z</time>
      </trkpt>
      <trkpt lat="47.28512" lon="-2.2805">
        <ele>23.60000038147</ele>
        <time>2020-06-25T08:12:47.000Z</time>
      </trkpt>
      <trkpt lat="47.2853" lon="-2.28049">
        <ele>23.60000038147</ele>
        <time>2020-06-25T08:12:51.000Z</time>
      </trkpt>
      <trkpt lat="47.28534" lon="-2.2805">
        <ele>23.200000762939</ele>
        <time>2020-06-25T08:12:52.000Z</time>
      </trkpt>
      <trkpt lat="47.28537" lon="-2.2805">
        <ele>22.60000038147</ele>
        <time>2020-06-25T08:12:53.000Z</time>
      </trkpt>
      <trkpt lat="47.2854" lon="-2.28049">
        <ele>22.200000762939</ele>
        <time>2020-06-25T08:12:54.000Z</time>
      </trkpt>
      <trkpt lat="47.28544" lon="-2.28049">
        <ele>21.799999237061</ele>
        <time>2020-06-25T08:12:55.000Z</time>
      </trkpt>
      <trkpt lat="47.28546" lon="-2.28051">
        <ele>21.39999961853</ele>
        <time>2020-06-25T08:12:56.000Z</time>
      </trkpt>
      <trkpt lat="47.28549" lon="-2.28052">
        <ele>21</ele>
        <time>2020-06-25T08:12:57.000Z</time>
      </trkpt>
      <trkpt lat="47.28551" lon="-2.28054">
        <ele>20.60000038147</ele>
        <time>2020-06-25T08:12:58.000Z</time>
      </trkpt>
      <trkpt lat="47.28555" lon="-2.28056">
        <ele>20.200000762939</ele>
        <time>2020-06-25T08:12:59.000Z</time>
      </trkpt>
      <trkpt lat="47.28558" lon="-2.28056">
        <ele>19.799999237061</ele>
        <time>2020-06-25T08:13:00.000Z</time>
      </trkpt>
      <trkpt lat="47.28562" lon="-2.28055">
        <ele>19.39999961853</ele>
        <time>2020-06-25T08:13:01.000Z</time>
      </trkpt>
      <trkpt lat="47.28564" lon="-2.28054">
        <ele>19.39999961853</ele>
        <time>2020-06-25T08:13:02.000Z</time>
      </trkpt>
      <trkpt lat="47.28576" lon="-2.28045">
        <ele>19.39999961853</ele>
        <time>2020-06-25T08:13:07.000Z</time>
      </trkpt>
      <trkpt lat="47.28582" lon="-2.28031">
        <ele>19.39999961853</ele>
        <time>2020-06-25T08:13:11.000Z</time>
      </trkpt>
      <trkpt lat="47.28588" lon="-2.28012">
        <ele>19.39999961853</ele>
        <time>2020-06-25T08:13:15.000Z</time>
      </trkpt>
      <trkpt lat="47.2859" lon="-2.28005">
        <ele>19.39999961853</ele>
        <time>2020-06-25T08:13:16.000Z</time>
      </trkpt>
      <trkpt lat="47.28603" lon="-2.27959">
        <ele>19.39999961853</ele>
        <time>2020-06-25T08:13:22.000Z</time>
      </trkpt>
      <trkpt lat="47.28616" lon="-2.27941">
        <ele>19.39999961853</ele>
        <time>2020-06-25T08:13:25.000Z</time>
      </trkpt>
      <trkpt lat="47.28618" lon="-2.27933">
        <ele>19.39999961853</ele>
        <time>2020-06-25T08:13:26.000Z</time>
      </trkpt>
      <trkpt lat="47.28627" lon="-2.27883">
        <ele>19.39999961853</ele>
        <time>2020-06-25T08:13:31.000Z</time>
      </trkpt>
      <trkpt lat="47.28646" lon="-2.27805">
        <ele>19.39999961853</ele>
        <time>2020-06-25T08:13:38.000Z</time>
      </trkpt>
      <trkpt lat="47.28663" lon="-2.27745">
        <ele>19.39999961853</ele>
        <time>2020-06-25T08:13:44.000Z</time>
      </trkpt>
      <trkpt lat="47.28687" lon="-2.27702">
        <ele>19.39999961853</ele>
        <time>2020-06-25T08:13:49.000Z</time>
      </trkpt>
      <trkpt lat="47.28692" lon="-2.27694">
        <ele>19</ele>
        <time>2020-06-25T08:13:50.000Z</time>
      </trkpt>
      <trkpt lat="47.28697" lon="-2.27687">
        <ele>18.60000038147</ele>
        <time>2020-06-25T08:13:51.000Z</time>
      </trkpt>
      <trkpt lat="47.28702" lon="-2.27678">
        <ele>18.200000762939</ele>
        <time>2020-06-25T08:13:52.000Z</time>
      </trkpt>
      <trkpt lat="47.28707" lon="-2.27671">
        <ele>17.799999237061</ele>
        <time>2020-06-25T08:13:53.000Z</time>
      </trkpt>
      <trkpt lat="47.28711" lon="-2.27664">
        <ele>17.200000762939</ele>
        <time>2020-06-25T08:13:54.000Z</time>
      </trkpt>
      <trkpt lat="47.2872" lon="-2.2765">
        <ele>17.200000762939</ele>
        <time>2020-06-25T08:13:56.000Z</time>
      </trkpt>
      <trkpt lat="47.28749" lon="-2.27606">
        <ele>17.200000762939</ele>
        <time>2020-06-25T08:14:03.000Z</time>
      </trkpt>
      <trkpt lat="47.28753" lon="-2.27601">
        <ele>17.200000762939</ele>
        <time>2020-06-25T08:14:04.000Z</time>
      </trkpt>
      <trkpt lat="47.28771" lon="-2.27581">
        <ele>16.799999237061</ele>
        <time>2020-06-25T08:14:08.000Z</time>
      </trkpt>
      <trkpt lat="47.28775" lon="-2.27577">
        <ele>16.39999961853</ele>
        <time>2020-06-25T08:14:09.000Z</time>
      </trkpt>
      <trkpt lat="47.28779" lon="-2.27572">
        <ele>16</ele>
        <time>2020-06-25T08:14:10.000Z</time>
      </trkpt>
      <trkpt lat="47.28784" lon="-2.27567">
        <ele>15.60000038147</ele>
        <time>2020-06-25T08:14:11.000Z</time>
      </trkpt>
      <trkpt lat="47.28787" lon="-2.27562">
        <ele>15.199999809265</ele>
        <time>2020-06-25T08:14:12.000Z</time>
      </trkpt>
      <trkpt lat="47.28793" lon="-2.27548">
        <ele>15.199999809265</ele>
        <time>2020-06-25T08:14:14.000Z</time>
      </trkpt>
      <trkpt lat="47.2881" lon="-2.27538">
        <ele>15.199999809265</ele>
        <time>2020-06-25T08:14:18.000Z</time>
      </trkpt>
      <trkpt lat="47.28815" lon="-2.27537">
        <ele>15.199999809265</ele>
        <time>2020-06-25T08:14:19.000Z</time>
      </trkpt>
      <trkpt lat="47.28839" lon="-2.27533">
        <ele>15.199999809265</ele>
        <time>2020-06-25T08:14:24.000Z</time>
      </trkpt>
      <trkpt lat="47.28863" lon="-2.27531">
        <ele>15.199999809265</ele>
        <time>2020-06-25T08:14:30.000Z</time>
      </trkpt>
      <trkpt lat="47.28881" lon="-2.27526">
        <ele>15.199999809265</ele>
        <time>2020-06-25T08:14:34.000Z</time>
      </trkpt>
      <trkpt lat="47.28886" lon="-2.27526">
        <ele>15.199999809265</ele>
        <time>2020-06-25T08:14:35.000Z</time>
      </trkpt>
      <trkpt lat="47.2892" lon="-2.27522">
        <ele>15.199999809265</ele>
        <time>2020-06-25T08:14:42.000Z</time>
      </trkpt>
      <trkpt lat="47.28955" lon="-2.27522">
        <ele>15.199999809265</ele>
        <time>2020-06-25T08:14:49.000Z</time>
      </trkpt>
      <trkpt lat="47.28973" lon="-2.27521">
        <ele>15.199999809265</ele>
        <time>2020-06-25T08:14:53.000Z</time>
      </trkpt>
      <trkpt lat="47.29016" lon="-2.27522">
        <ele>15.199999809265</ele>
        <time>2020-06-25T08:15:01.000Z</time>
      </trkpt>
      <trkpt lat="47.2906" lon="-2.27524">
        <ele>15.199999809265</ele>
        <time>2020-06-25T08:15:09.000Z</time>
      </trkpt>
      <trkpt lat="47.29098" lon="-2.2753">
        <ele>15.199999809265</ele>
        <time>2020-06-25T08:15:16.000Z</time>
      </trkpt>
      <trkpt lat="47.29103" lon="-2.27527">
        <ele>15.199999809265</ele>
        <time>2020-06-25T08:15:18.000Z</time>
      </trkpt>
      <trkpt lat="47.29104" lon="-2.27525">
        <ele>15.199999809265</ele>
        <time>2020-06-25T08:15:19.000Z</time>
      </trkpt>
      <trkpt lat="47.29106" lon="-2.27514">
        <ele>15.199999809265</ele>
        <time>2020-06-25T08:15:22.000Z</time>
      </trkpt>
      <trkpt lat="47.29106" lon="-2.27509">
        <ele>15.199999809265</ele>
        <time>2020-06-25T08:15:23.000Z</time>
      </trkpt>
      <trkpt lat="47.29107" lon="-2.27473">
        <ele>15.199999809265</ele>
        <time>2020-06-25T08:15:29.000Z</time>
      </trkpt>
      <trkpt lat="47.29108" lon="-2.27466">
        <ele>15.199999809265</ele>
        <time>2020-06-25T08:15:30.000Z</time>
      </trkpt>
      <trkpt lat="47.2911" lon="-2.2745">
        <ele>15.199999809265</ele>
        <time>2020-06-25T08:15:32.000Z</time>
      </trkpt>
      <trkpt lat="47.29112" lon="-2.27434">
        <ele>15.199999809265</ele>
        <time>2020-06-25T08:15:34.000Z</time>
      </trkpt>
      <trkpt lat="47.29111" lon="-2.27411">
        <ele>15.199999809265</ele>
        <time>2020-06-25T08:15:37.000Z</time>
      </trkpt>
      <trkpt lat="47.2911" lon="-2.27399">
        <ele>15.199999809265</ele>
        <time>2020-06-25T08:15:39.000Z</time>
      </trkpt>
      <trkpt lat="47.29106" lon="-2.27373">
        <ele>14.800000190735</ele>
        <time>2020-06-25T08:15:43.000Z</time>
      </trkpt>
      <trkpt lat="47.29105" lon="-2.27368">
        <ele>14.39999961853</ele>
        <time>2020-06-25T08:15:44.000Z</time>
      </trkpt>
      <trkpt lat="47.29104" lon="-2.27366">
        <ele>14</ele>
        <time>2020-06-25T08:15:45.000Z</time>
      </trkpt>
      <trkpt lat="47.29101" lon="-2.27363">
        <ele>13.60000038147</ele>
        <time>2020-06-25T08:15:46.000Z</time>
      </trkpt>
      <trkpt lat="47.291" lon="-2.2736">
        <ele>13</ele>
        <time>2020-06-25T08:15:47.000Z</time>
      </trkpt>
      <trkpt lat="47.291" lon="-2.27351">
        <ele>13</ele>
        <time>2020-06-25T08:15:49.000Z</time>
      </trkpt>
      <trkpt lat="47.29103" lon="-2.27328">
        <ele>13</ele>
        <time>2020-06-25T08:15:54.000Z</time>
      </trkpt>
      <trkpt lat="47.29104" lon="-2.27299">
        <ele>13</ele>
        <time>2020-06-25T08:16:01.000Z</time>
      </trkpt>
      <trkpt lat="47.29104" lon="-2.27278">
        <ele>13</ele>
        <time>2020-06-25T08:16:07.000Z</time>
      </trkpt>
      <trkpt lat="47.29104" lon="-2.27255">
        <ele>13</ele>
        <time>2020-06-25T08:16:14.000Z</time>
      </trkpt>
      <trkpt lat="47.29108" lon="-2.27248">
        <ele>13</ele>
        <time>2020-06-25T08:16:16.000Z</time>
      </trkpt>
      <trkpt lat="47.29112" lon="-2.27243">
        <ele>13</ele>
        <time>2020-06-25T08:16:19.000Z</time>
      </trkpt>
      <trkpt lat="47.29116" lon="-2.27236">
        <ele>13</ele>
        <time>2020-06-25T08:16:23.000Z</time>
      </trkpt>
      <trkpt lat="47.29116" lon="-2.27235">
        <ele>13</ele>
        <time>2020-06-25T08:16:25.000Z</time>
      </trkpt>
      <trkpt lat="47.29115" lon="-2.27214">
        <ele>13</ele>
        <time>2020-06-25T08:16:36.000Z</time>
      </trkpt>
      <trkpt lat="47.29111" lon="-2.27212">
        <ele>13</ele>
        <time>2020-06-25T08:16:38.000Z</time>
      </trkpt>
      <trkpt lat="47.29105" lon="-2.27209">
        <ele>13</ele>
        <time>2020-06-25T08:16:41.000Z</time>
      </trkpt>
      <trkpt lat="47.29102" lon="-2.27208">
        <ele>13</ele>
        <time>2020-06-25T08:16:42.000Z</time>
      </trkpt>
      <trkpt lat="47.29091" lon="-2.27206">
        <ele>13</ele>
        <time>2020-06-25T08:16:46.000Z</time>
      </trkpt>
      <trkpt lat="47.29087" lon="-2.27203">
        <ele>13</ele>
        <time>2020-06-25T08:16:47.000Z</time>
      </trkpt>
      <trkpt lat="47.29074" lon="-2.2719">
        <ele>13</ele>
        <time>2020-06-25T08:16:51.000Z</time>
      </trkpt>
      <trkpt lat="47.29071" lon="-2.27174">
        <ele>13</ele>
        <time>2020-06-25T08:16:55.000Z</time>
      </trkpt>
      <trkpt lat="47.29072" lon="-2.27164">
        <ele>13</ele>
        <time>2020-06-25T08:16:57.000Z</time>
      </trkpt>
      <trkpt lat="47.29072" lon="-2.27144">
        <ele>13</ele>
        <time>2020-06-25T08:17:00.000Z</time>
      </trkpt>
      <trkpt lat="47.29074" lon="-2.27132">
        <ele>13</ele>
        <time>2020-06-25T08:17:02.000Z</time>
      </trkpt>
      <trkpt lat="47.29076" lon="-2.27093">
        <ele>13</ele>
        <time>2020-06-25T08:17:08.000Z</time>
      </trkpt>
      <trkpt lat="47.29079" lon="-2.27073">
        <ele>13</ele>
        <time>2020-06-25T08:17:14.000Z</time>
      </trkpt>
      <trkpt lat="47.29076" lon="-2.27048">
        <ele>13</ele>
        <time>2020-06-25T08:17:21.000Z</time>
      </trkpt>
      <trkpt lat="47.29071" lon="-2.2704">
        <ele>13</ele>
        <time>2020-06-25T08:17:24.000Z</time>
      </trkpt>
      <trkpt lat="47.29067" lon="-2.27037">
        <ele>13</ele>
        <time>2020-06-25T08:17:26.000Z</time>
      </trkpt>
      <trkpt lat="47.29059" lon="-2.27019">
        <ele>13</ele>
        <time>2020-06-25T08:17:29.000Z</time>
      </trkpt>
      <trkpt lat="47.29056" lon="-2.27008">
        <ele>13</ele>
        <time>2020-06-25T08:17:30.000Z</time>
      </trkpt>
      <trkpt lat="47.29053" lon="-2.26988">
        <ele>13</ele>
        <time>2020-06-25T08:17:32.000Z</time>
      </trkpt>
      <trkpt lat="47.29052" lon="-2.26918">
        <ele>13</ele>
        <time>2020-06-25T08:17:39.000Z</time>
      </trkpt>
      <trkpt lat="47.29053" lon="-2.26907">
        <ele>13</ele>
        <time>2020-06-25T08:17:40.000Z</time>
      </trkpt>
      <trkpt lat="47.29058" lon="-2.26856">
        <ele>13</ele>
        <time>2020-06-25T08:17:45.000Z</time>
      </trkpt>
      <trkpt lat="47.2906" lon="-2.26786">
        <ele>13</ele>
        <time>2020-06-25T08:17:52.000Z</time>
      </trkpt>
      <trkpt lat="47.29057" lon="-2.2674">
        <ele>13.60000038147</ele>
        <time>2020-06-25T08:17:57.000Z</time>
      </trkpt>
      <trkpt lat="47.29056" lon="-2.26732">
        <ele>14</ele>
        <time>2020-06-25T08:17:58.000Z</time>
      </trkpt>
      <trkpt lat="47.29055" lon="-2.26724">
        <ele>14.39999961853</ele>
        <time>2020-06-25T08:17:59.000Z</time>
      </trkpt>
      <trkpt lat="47.29054" lon="-2.26717">
        <ele>14.800000190735</ele>
        <time>2020-06-25T08:18:00.000Z</time>
      </trkpt>
      <trkpt lat="47.29054" lon="-2.26709">
        <ele>15.199999809265</ele>
        <time>2020-06-25T08:18:01.000Z</time>
      </trkpt>
      <trkpt lat="47.29053" lon="-2.26695">
        <ele>15.60000038147</ele>
        <time>2020-06-25T08:18:03.000Z</time>
      </trkpt>
      <trkpt lat="47.29052" lon="-2.26688">
        <ele>16</ele>
        <time>2020-06-25T08:18:04.000Z</time>
      </trkpt>
      <trkpt lat="47.29052" lon="-2.26681">
        <ele>16.60000038147</ele>
        <time>2020-06-25T08:18:05.000Z</time>
      </trkpt>
      <trkpt lat="47.29051" lon="-2.26675">
        <ele>17</ele>
        <time>2020-06-25T08:18:06.000Z</time>
      </trkpt>
      <trkpt lat="47.29051" lon="-2.26668">
        <ele>17.39999961853</ele>
        <time>2020-06-25T08:18:07.000Z</time>
      </trkpt>
      <trkpt lat="47.29048" lon="-2.26639">
        <ele>18</ele>
        <time>2020-06-25T08:18:11.000Z</time>
      </trkpt>
      <trkpt lat="47.29048" lon="-2.26632">
        <ele>18.39999961853</ele>
        <time>2020-06-25T08:18:12.000Z</time>
      </trkpt>
      <trkpt lat="47.29047" lon="-2.26626">
        <ele>18.799999237061</ele>
        <time>2020-06-25T08:18:13.000Z</time>
      </trkpt>
      <trkpt lat="47.29046" lon="-2.26619">
        <ele>19.200000762939</ele>
        <time>2020-06-25T08:18:14.000Z</time>
      </trkpt>
      <trkpt lat="47.29045" lon="-2.26613">
        <ele>19.799999237061</ele>
        <time>2020-06-25T08:18:15.000Z</time>
      </trkpt>
      <trkpt lat="47.29038" lon="-2.26567">
        <ele>19.799999237061</ele>
        <time>2020-06-25T08:18:22.000Z</time>
      </trkpt>
      <trkpt lat="47.29027" lon="-2.26509">
        <ele>19.799999237061</ele>
        <time>2020-06-25T08:18:30.000Z</time>
      </trkpt>
      <trkpt lat="47.29011" lon="-2.26439">
        <ele>19.799999237061</ele>
        <time>2020-06-25T08:18:40.000Z</time>
      </trkpt>
      <trkpt lat="47.29009" lon="-2.26419">
        <ele>20.200000762939</ele>
        <time>2020-06-25T08:18:43.000Z</time>
      </trkpt>
      <trkpt lat="47.29009" lon="-2.26413">
        <ele>20.60000038147</ele>
        <time>2020-06-25T08:18:44.000Z</time>
      </trkpt>
      <trkpt lat="47.29009" lon="-2.26406">
        <ele>21</ele>
        <time>2020-06-25T08:18:45.000Z</time>
      </trkpt>
      <trkpt lat="47.29009" lon="-2.264">
        <ele>21.39999961853</ele>
        <time>2020-06-25T08:18:46.000Z</time>
      </trkpt>
      <trkpt lat="47.2901" lon="-2.26393">
        <ele>21.799999237061</ele>
        <time>2020-06-25T08:18:47.000Z</time>
      </trkpt>
      <trkpt lat="47.29011" lon="-2.26386">
        <ele>22.200000762939</ele>
        <time>2020-06-25T08:18:48.000Z</time>
      </trkpt>
      <trkpt lat="47.29015" lon="-2.26378">
        <ele>22.60000038147</ele>
        <time>2020-06-25T08:18:49.000Z</time>
      </trkpt>
      <trkpt lat="47.29018" lon="-2.26372">
        <ele>23</ele>
        <time>2020-06-25T08:18:50.000Z</time>
      </trkpt>
      <trkpt lat="47.29021" lon="-2.26366">
        <ele>23.60000038147</ele>
        <time>2020-06-25T08:18:51.000Z</time>
      </trkpt>
      <trkpt lat="47.29025" lon="-2.26361">
        <ele>24</ele>
        <time>2020-06-25T08:18:52.000Z</time>
      </trkpt>
      <trkpt lat="47.29029" lon="-2.26356">
        <ele>24</ele>
        <time>2020-06-25T08:18:53.000Z</time>
      </trkpt>
      <trkpt lat="47.29034" lon="-2.26352">
        <ele>24</ele>
        <time>2020-06-25T08:18:54.000Z</time>
      </trkpt>
      <trkpt lat="47.29062" lon="-2.26318">
        <ele>24</ele>
        <time>2020-06-25T08:19:00.000Z</time>
      </trkpt>
      <trkpt lat="47.29065" lon="-2.2631">
        <ele>24</ele>
        <time>2020-06-25T08:19:01.000Z</time>
      </trkpt>
      <trkpt lat="47.29072" lon="-2.26284">
        <ele>24</ele>
        <time>2020-06-25T08:19:04.000Z</time>
      </trkpt>
      <trkpt lat="47.29085" lon="-2.26221">
        <ele>24</ele>
        <time>2020-06-25T08:19:11.000Z</time>
      </trkpt>
      <trkpt lat="47.29095" lon="-2.26158">
        <ele>24</ele>
        <time>2020-06-25T08:19:19.000Z</time>
      </trkpt>
      <trkpt lat="47.29099" lon="-2.26127">
        <ele>24</ele>
        <time>2020-06-25T08:19:24.000Z</time>
      </trkpt>
      <trkpt lat="47.29101" lon="-2.26123">
        <ele>23.60000038147</ele>
        <time>2020-06-25T08:19:25.000Z</time>
      </trkpt>
      <trkpt lat="47.29102" lon="-2.26119">
        <ele>23.200000762939</ele>
        <time>2020-06-25T08:19:26.000Z</time>
      </trkpt>
      <trkpt lat="47.29102" lon="-2.26114">
        <ele>22.799999237061</ele>
        <time>2020-06-25T08:19:27.000Z</time>
      </trkpt>
      <trkpt lat="47.29103" lon="-2.26111">
        <ele>22.200000762939</ele>
        <time>2020-06-25T08:19:28.000Z</time>
      </trkpt>
      <trkpt lat="47.29103" lon="-2.26106">
        <ele>21.799999237061</ele>
        <time>2020-06-25T08:19:29.000Z</time>
      </trkpt>
      <trkpt lat="47.291" lon="-2.26079">
        <ele>21.799999237061</ele>
        <time>2020-06-25T08:19:34.000Z</time>
      </trkpt>
      <trkpt lat="47.29087" lon="-2.26037">
        <ele>21.799999237061</ele>
        <time>2020-06-25T08:19:40.000Z</time>
      </trkpt>
      <trkpt lat="47.2907" lon="-2.25983">
        <ele>21.799999237061</ele>
        <time>2020-06-25T08:19:48.000Z</time>
      </trkpt>
      <trkpt lat="47.29065" lon="-2.25968">
        <ele>21.799999237061</ele>
        <time>2020-06-25T08:19:51.000Z</time>
      </trkpt>
      <trkpt lat="47.29067" lon="-2.25967">
        <ele>21.39999961853</ele>
        <time>2020-06-25T08:19:52.000Z</time>
      </trkpt>
      <trkpt lat="47.2907" lon="-2.25967">
        <ele>21</ele>
        <time>2020-06-25T08:19:53.000Z</time>
      </trkpt>
      <trkpt lat="47.29075" lon="-2.25967">
        <ele>20.60000038147</ele>
        <time>2020-06-25T08:19:54.000Z</time>
      </trkpt>
      <trkpt lat="47.29082" lon="-2.25967">
        <ele>20.200000762939</ele>
        <time>2020-06-25T08:19:55.000Z</time>
      </trkpt>
      <trkpt lat="47.29088" lon="-2.25966">
        <ele>19.799999237061</ele>
        <time>2020-06-25T08:19:56.000Z</time>
      </trkpt>
      <trkpt lat="47.2911" lon="-2.25966">
        <ele>19.799999237061</ele>
        <time>2020-06-25T08:20:00.000Z</time>
      </trkpt>
      <trkpt lat="47.29131" lon="-2.25967">
        <ele>19.799999237061</ele>
        <time>2020-06-25T08:20:04.000Z</time>
      </trkpt>
      <trkpt lat="47.29136" lon="-2.25968">
        <ele>19.799999237061</ele>
        <time>2020-06-25T08:20:05.000Z</time>
      </trkpt>
      <trkpt lat="47.29156" lon="-2.25979">
        <ele>19.799999237061</ele>
        <time>2020-06-25T08:20:09.000Z</time>
      </trkpt>
      <trkpt lat="47.29161" lon="-2.25981">
        <ele>19.799999237061</ele>
        <time>2020-06-25T08:20:10.000Z</time>
      </trkpt>
      <trkpt lat="47.29167" lon="-2.25983">
        <ele>19.799999237061</ele>
        <time>2020-06-25T08:20:11.000Z</time>
      </trkpt>
      <trkpt lat="47.2918" lon="-2.25989">
        <ele>19.799999237061</ele>
        <time>2020-06-25T08:20:14.000Z</time>
      </trkpt>
      <trkpt lat="47.29192" lon="-2.26013">
        <ele>19.799999237061</ele>
        <time>2020-06-25T08:20:18.000Z</time>
      </trkpt>
      <trkpt lat="47.29194" lon="-2.26019">
        <ele>19.799999237061</ele>
        <time>2020-06-25T08:20:19.000Z</time>
      </trkpt>
      <trkpt lat="47.29205" lon="-2.26042">
        <ele>20.200000762939</ele>
        <time>2020-06-25T08:20:24.000Z</time>
      </trkpt>
      <trkpt lat="47.29207" lon="-2.26045">
        <ele>20.60000038147</ele>
        <time>2020-06-25T08:20:25.000Z</time>
      </trkpt>
      <trkpt lat="47.2921" lon="-2.26048">
        <ele>21</ele>
        <time>2020-06-25T08:20:26.000Z</time>
      </trkpt>
      <trkpt lat="47.29213" lon="-2.26051">
        <ele>21.39999961853</ele>
        <time>2020-06-25T08:20:27.000Z</time>
      </trkpt>
      <trkpt lat="47.29215" lon="-2.26054">
        <ele>21.799999237061</ele>
        <time>2020-06-25T08:20:28.000Z</time>
      </trkpt>
      <trkpt lat="47.29219" lon="-2.26061">
        <ele>21.799999237061</ele>
        <time>2020-06-25T08:20:30.000Z</time>
      </trkpt>
      <trkpt lat="47.29234" lon="-2.26085">
        <ele>21.799999237061</ele>
        <time>2020-06-25T08:20:37.000Z</time>
      </trkpt>
      <trkpt lat="47.29244" lon="-2.2608">
        <ele>21.799999237061</ele>
        <time>2020-06-25T08:20:42.000Z</time>
      </trkpt>
      <trkpt lat="47.29252" lon="-2.26076">
        <ele>21.799999237061</ele>
        <time>2020-06-25T08:20:45.000Z</time>
      </trkpt>
      <trkpt lat="47.29262" lon="-2.2607">
        <ele>21.799999237061</ele>
        <time>2020-06-25T08:20:49.000Z</time>
      </trkpt>
      <trkpt lat="47.29264" lon="-2.26067">
        <ele>21.799999237061</ele>
        <time>2020-06-25T08:20:50.000Z</time>
      </trkpt>
      <trkpt lat="47.29266" lon="-2.2605">
        <ele>21.799999237061</ele>
        <time>2020-06-25T08:20:54.000Z</time>
      </trkpt>
      <trkpt lat="47.29265" lon="-2.26046">
        <ele>21.799999237061</ele>
        <time>2020-06-25T08:20:55.000Z</time>
      </trkpt>
      <trkpt lat="47.29262" lon="-2.26026">
        <ele>21.799999237061</ele>
        <time>2020-06-25T08:21:00.000Z</time>
      </trkpt>
      <trkpt lat="47.29257" lon="-2.26008">
        <ele>21.39999961853</ele>
        <time>2020-06-25T08:21:06.000Z</time>
      </trkpt>
      <trkpt lat="47.29257" lon="-2.26004">
        <ele>21</ele>
        <time>2020-06-25T08:21:07.000Z</time>
      </trkpt>
      <trkpt lat="47.29257" lon="-2.26002">
        <ele>20.60000038147</ele>
        <time>2020-06-25T08:21:08.000Z</time>
      </trkpt>
      <trkpt lat="47.29258" lon="-2.25999">
        <ele>20.200000762939</ele>
        <time>2020-06-25T08:21:09.000Z</time>
      </trkpt>
      <trkpt lat="47.29259" lon="-2.25997">
        <ele>19.799999237061</ele>
        <time>2020-06-25T08:21:10.000Z</time>
      </trkpt>
      <trkpt lat="47.29265" lon="-2.25991">
        <ele>19.799999237061</ele>
        <time>2020-06-25T08:21:14.000Z</time>
      </trkpt>
      <trkpt lat="47.29284" lon="-2.25982">
        <ele>19.799999237061</ele>
        <time>2020-06-25T08:21:20.000Z</time>
      </trkpt>
      <trkpt lat="47.29287" lon="-2.25978">
        <ele>19.799999237061</ele>
        <time>2020-06-25T08:21:21.000Z</time>
      </trkpt>
      <trkpt lat="47.29296" lon="-2.25966">
        <ele>19.799999237061</ele>
        <time>2020-06-25T08:21:24.000Z</time>
      </trkpt>
      <trkpt lat="47.29309" lon="-2.25923">
        <ele>19.799999237061</ele>
        <time>2020-06-25T08:21:30.000Z</time>
      </trkpt>
      <trkpt lat="47.29309" lon="-2.2588">
        <ele>19.799999237061</ele>
        <time>2020-06-25T08:21:37.000Z</time>
      </trkpt>
      <trkpt lat="47.29308" lon="-2.25858">
        <ele>19.799999237061</ele>
        <time>2020-06-25T08:21:43.000Z</time>
      </trkpt>
      <trkpt lat="47.29309" lon="-2.2586">
        <ele>19.799999237061</ele>
        <time>2020-06-25T08:21:44.000Z</time>
      </trkpt>
      <trkpt lat="47.29312" lon="-2.25867">
        <ele>19.799999237061</ele>
        <time>2020-06-25T08:21:46.000Z</time>
      </trkpt>
      <trkpt lat="47.29319" lon="-2.25885">
        <ele>19.799999237061</ele>
        <time>2020-06-25T08:21:49.000Z</time>
      </trkpt>
      <trkpt lat="47.29324" lon="-2.25896">
        <ele>19.799999237061</ele>
        <time>2020-06-25T08:21:51.000Z</time>
      </trkpt>
      <trkpt lat="47.29336" lon="-2.25915">
        <ele>19.799999237061</ele>
        <time>2020-06-25T08:21:56.000Z</time>
      </trkpt>
      <trkpt lat="47.29349" lon="-2.25925">
        <ele>19.799999237061</ele>
        <time>2020-06-25T08:22:01.000Z</time>
      </trkpt>
      <trkpt lat="47.29351" lon="-2.25929">
        <ele>19.799999237061</ele>
        <time>2020-06-25T08:22:03.000Z</time>
      </trkpt>
      <trkpt lat="47.29349" lon="-2.25931">
        <ele>19.799999237061</ele>
        <time>2020-06-25T08:22:05.000Z</time>
      </trkpt>
      <trkpt lat="47.29348" lon="-2.2593">
        <ele>19.799999237061</ele>
        <time>2020-06-25T08:22:06.000Z</time>
      </trkpt>
      <trkpt lat="47.29344" lon="-2.2593">
        <ele>19.799999237061</ele>
        <time>2020-06-25T08:22:08.000Z</time>
      </trkpt>
      <trkpt lat="47.29342" lon="-2.25931">
        <ele>19.799999237061</ele>
        <time>2020-06-25T08:22:09.000Z</time>
      </trkpt>
      <trkpt lat="47.29337" lon="-2.25946">
        <ele>19.799999237061</ele>
        <time>2020-06-25T08:22:12.000Z</time>
      </trkpt>
      <trkpt lat="47.29332" lon="-2.25973">
        <ele>19.799999237061</ele>
        <time>2020-06-25T08:22:17.000Z</time>
      </trkpt>
      <trkpt lat="47.29329" lon="-2.25983">
        <ele>19.799999237061</ele>
        <time>2020-06-25T08:22:22.000Z</time>
      </trkpt>
      <trkpt lat="47.29329" lon="-2.25967">
        <ele>19.799999237061</ele>
        <time>2020-06-25T08:22:27.000Z</time>
      </trkpt>
      <trkpt lat="47.29339" lon="-2.25958">
        <ele>19.799999237061</ele>
        <time>2020-06-25T08:22:32.000Z</time>
      </trkpt>
      <trkpt lat="47.29345" lon="-2.25962">
        <ele>19.39999961853</ele>
        <time>2020-06-25T08:22:34.000Z</time>
      </trkpt>
      <trkpt lat="47.29347" lon="-2.25966">
        <ele>19</ele>
        <time>2020-06-25T08:22:35.000Z</time>
      </trkpt>
      <trkpt lat="47.29352" lon="-2.25976">
        <ele>17.799999237061</ele>
        <time>2020-06-25T08:22:36.000Z</time>
      </trkpt>
      <trkpt lat="47.29363" lon="-2.25987">
        <ele>17.39999961853</ele>
        <time>2020-06-25T08:22:39.000Z</time>
      </trkpt>
      <trkpt lat="47.29364" lon="-2.25992">
        <ele>16.799999237061</ele>
        <time>2020-06-25T08:22:40.000Z</time>
      </trkpt>
      <trkpt lat="47.29367" lon="-2.25999">
        <ele>16.39999961853</ele>
        <time>2020-06-25T08:22:41.000Z</time>
      </trkpt>
      <trkpt lat="47.2937" lon="-2.26006">
        <ele>16</ele>
        <time>2020-06-25T08:22:42.000Z</time>
      </trkpt>
      <trkpt lat="47.29372" lon="-2.26014">
        <ele>15.39999961853</ele>
        <time>2020-06-25T08:22:43.000Z</time>
      </trkpt>
      <trkpt lat="47.29383" lon="-2.26068">
        <ele>15.39999961853</ele>
        <time>2020-06-25T08:22:51.000Z</time>
      </trkpt>
      <trkpt lat="47.29403" lon="-2.26109">
        <ele>15.39999961853</ele>
        <time>2020-06-25T08:22:57.000Z</time>
      </trkpt>
      <trkpt lat="47.29406" lon="-2.26123">
        <ele>15.39999961853</ele>
        <time>2020-06-25T08:22:59.000Z</time>
      </trkpt>
      <trkpt lat="47.29409" lon="-2.26149">
        <ele>15.39999961853</ele>
        <time>2020-06-25T08:23:03.000Z</time>
      </trkpt>
      <trkpt lat="47.29413" lon="-2.26158">
        <ele>15.39999961853</ele>
        <time>2020-06-25T08:23:06.000Z</time>
      </trkpt>
      <trkpt lat="47.29415" lon="-2.26158">
        <ele>15.39999961853</ele>
        <time>2020-06-25T08:23:07.000Z</time>
      </trkpt>
      <trkpt lat="47.29425" lon="-2.26158">
        <ele>15.39999961853</ele>
        <time>2020-06-25T08:23:11.000Z</time>
      </trkpt>
      <trkpt lat="47.29428" lon="-2.26157">
        <ele>15.39999961853</ele>
        <time>2020-06-25T08:23:12.000Z</time>
      </trkpt>
      <trkpt lat="47.29445" lon="-2.2615">
        <ele>15.39999961853</ele>
        <time>2020-06-25T08:23:18.000Z</time>
      </trkpt>
      <trkpt lat="47.2947" lon="-2.26137">
        <ele>14.60000038147</ele>
        <time>2020-06-25T08:23:24.000Z</time>
      </trkpt>
      <trkpt lat="47.29476" lon="-2.26134">
        <ele>14.199999809265</ele>
        <time>2020-06-25T08:23:25.000Z</time>
      </trkpt>
      <trkpt lat="47.29482" lon="-2.2613">
        <ele>13.800000190735</ele>
        <time>2020-06-25T08:23:26.000Z</time>
      </trkpt>
      <trkpt lat="47.29487" lon="-2.26127">
        <ele>13.39999961853</ele>
        <time>2020-06-25T08:23:27.000Z</time>
      </trkpt>
      <trkpt lat="47.295" lon="-2.26116">
        <ele>13.39999961853</ele>
        <time>2020-06-25T08:23:30.000Z</time>
      </trkpt>
      <trkpt lat="47.29504" lon="-2.26111">
        <ele>13.39999961853</ele>
        <time>2020-06-25T08:23:31.000Z</time>
      </trkpt>
      <trkpt lat="47.29516" lon="-2.26097">
        <ele>13</ele>
        <time>2020-06-25T08:23:34.000Z</time>
      </trkpt>
      <trkpt lat="47.2952" lon="-2.26094">
        <ele>12.60000038147</ele>
        <time>2020-06-25T08:23:35.000Z</time>
      </trkpt>
      <trkpt lat="47.29526" lon="-2.26092">
        <ele>12.199999809265</ele>
        <time>2020-06-25T08:23:36.000Z</time>
      </trkpt>
      <trkpt lat="47.2953" lon="-2.26089">
        <ele>11.800000190735</ele>
        <time>2020-06-25T08:23:37.000Z</time>
      </trkpt>
      <trkpt lat="47.29534" lon="-2.26087">
        <ele>11.199999809265</ele>
        <time>2020-06-25T08:23:38.000Z</time>
      </trkpt>
      <trkpt lat="47.29543" lon="-2.26085">
        <ele>11.199999809265</ele>
        <time>2020-06-25T08:23:40.000Z</time>
      </trkpt>
      <trkpt lat="47.29549" lon="-2.26084">
        <ele>11.199999809265</ele>
        <time>2020-06-25T08:23:41.000Z</time>
      </trkpt>
      <trkpt lat="47.29554" lon="-2.26081">
        <ele>10.800000190735</ele>
        <time>2020-06-25T08:23:42.000Z</time>
      </trkpt>
      <trkpt lat="47.29558" lon="-2.26075">
        <ele>10.39999961853</ele>
        <time>2020-06-25T08:23:43.000Z</time>
      </trkpt>
      <trkpt lat="47.29561" lon="-2.26069">
        <ele>10</ele>
        <time>2020-06-25T08:23:44.000Z</time>
      </trkpt>
      <trkpt lat="47.29564" lon="-2.26062">
        <ele>9.6000003814697</ele>
        <time>2020-06-25T08:23:45.000Z</time>
      </trkpt>
      <trkpt lat="47.29568" lon="-2.26056">
        <ele>9.1999998092651</ele>
        <time>2020-06-25T08:23:46.000Z</time>
      </trkpt>
      <trkpt lat="47.29579" lon="-2.26049">
        <ele>9.1999998092651</ele>
        <time>2020-06-25T08:23:48.000Z</time>
      </trkpt>
      <trkpt lat="47.29591" lon="-2.26044">
        <ele>8.8000001907349</ele>
        <time>2020-06-25T08:23:50.000Z</time>
      </trkpt>
      <trkpt lat="47.29598" lon="-2.26041">
        <ele>8.3999996185303</ele>
        <time>2020-06-25T08:23:51.000Z</time>
      </trkpt>
      <trkpt lat="47.29604" lon="-2.26038">
        <ele>7.8000001907349</ele>
        <time>2020-06-25T08:23:52.000Z</time>
      </trkpt>
      <trkpt lat="47.29611" lon="-2.26035">
        <ele>7.4000000953674</ele>
        <time>2020-06-25T08:23:53.000Z</time>
      </trkpt>
      <trkpt lat="47.29618" lon="-2.26031">
        <ele>7</ele>
        <time>2020-06-25T08:23:54.000Z</time>
      </trkpt>
      <trkpt lat="47.29645" lon="-2.26015">
        <ele>7</ele>
        <time>2020-06-25T08:23:58.000Z</time>
      </trkpt>
      <trkpt lat="47.29651" lon="-2.26012">
        <ele>6.5999999046326</ele>
        <time>2020-06-25T08:23:59.000Z</time>
      </trkpt>
      <trkpt lat="47.29656" lon="-2.26009">
        <ele>6.1999998092651</ele>
        <time>2020-06-25T08:24:00.000Z</time>
      </trkpt>
      <trkpt lat="47.2966" lon="-2.26006">
        <ele>5.8000001907349</ele>
        <time>2020-06-25T08:24:01.000Z</time>
      </trkpt>
      <trkpt lat="47.29662" lon="-2.26002">
        <ele>5.4000000953674</ele>
        <time>2020-06-25T08:24:02.000Z</time>
      </trkpt>
      <trkpt lat="47.29663" lon="-2.25998">
        <ele>4.8000001907349</ele>
        <time>2020-06-25T08:24:03.000Z</time>
      </trkpt>
      <trkpt lat="47.29663" lon="-2.25992">
        <ele>4.8000001907349</ele>
        <time>2020-06-25T08:24:05.000Z</time>
      </trkpt>
      <trkpt lat="47.29662" lon="-2.25984">
        <ele>4.8000001907349</ele>
        <time>2020-06-25T08:24:10.000Z</time>
      </trkpt>
      <trkpt lat="47.29664" lon="-2.25977">
        <ele>4.8000001907349</ele>
        <time>2020-06-25T08:24:14.000Z</time>
      </trkpt>
      <trkpt lat="47.29665" lon="-2.25977">
        <ele>4.8000001907349</ele>
        <time>2020-06-25T08:24:15.000Z</time>
      </trkpt>
      <trkpt lat="47.29667" lon="-2.25974">
        <ele>4.8000001907349</ele>
        <time>2020-06-25T08:24:18.000Z</time>
      </trkpt>
      <trkpt lat="47.29669" lon="-2.2597">
        <ele>4.8000001907349</ele>
        <time>2020-06-25T08:24:20.000Z</time>
      </trkpt>
      <trkpt lat="47.2968" lon="-2.2597">
        <ele>4.8000001907349</ele>
        <time>2020-06-25T08:24:24.000Z</time>
      </trkpt>
      <trkpt lat="47.29698" lon="-2.25984">
        <ele>4.8000001907349</ele>
        <time>2020-06-25T08:24:28.000Z</time>
      </trkpt>
      <trkpt lat="47.29712" lon="-2.26007">
        <ele>4.8000001907349</ele>
        <time>2020-06-25T08:24:32.000Z</time>
      </trkpt>
      <trkpt lat="47.29714" lon="-2.26028">
        <ele>4.8000001907349</ele>
        <time>2020-06-25T08:24:35.000Z</time>
      </trkpt>
      <trkpt lat="47.29705" lon="-2.26053">
        <ele>4.8000001907349</ele>
        <time>2020-06-25T08:24:39.000Z</time>
      </trkpt>
      <trkpt lat="47.29702" lon="-2.26058">
        <ele>4.8000001907349</ele>
        <time>2020-06-25T08:24:40.000Z</time>
      </trkpt>
      <trkpt lat="47.29682" lon="-2.26091">
        <ele>4.8000001907349</ele>
        <time>2020-06-25T08:24:46.000Z</time>
      </trkpt>
      <trkpt lat="47.29656" lon="-2.26131">
        <ele>4.8000001907349</ele>
        <time>2020-06-25T08:24:53.000Z</time>
      </trkpt>
      <trkpt lat="47.2963" lon="-2.2616">
        <ele>4.8000001907349</ele>
        <time>2020-06-25T08:24:59.000Z</time>
      </trkpt>
      <trkpt lat="47.29625" lon="-2.26165">
        <ele>5.4000000953674</ele>
        <time>2020-06-25T08:25:00.000Z</time>
      </trkpt>
      <trkpt lat="47.29621" lon="-2.26169">
        <ele>5.8000001907349</ele>
        <time>2020-06-25T08:25:01.000Z</time>
      </trkpt>
      <trkpt lat="47.29616" lon="-2.26173">
        <ele>6.1999998092651</ele>
        <time>2020-06-25T08:25:02.000Z</time>
      </trkpt>
      <trkpt lat="47.29611" lon="-2.26176">
        <ele>7</ele>
        <time>2020-06-25T08:25:03.000Z</time>
      </trkpt>
      <trkpt lat="47.29607" lon="-2.2618">
        <ele>7</ele>
        <time>2020-06-25T08:25:04.000Z</time>
      </trkpt>
      <trkpt lat="47.29598" lon="-2.26187">
        <ele>7</ele>
        <time>2020-06-25T08:25:06.000Z</time>
      </trkpt>
      <trkpt lat="47.29588" lon="-2.26193">
        <ele>7.4000000953674</ele>
        <time>2020-06-25T08:25:08.000Z</time>
      </trkpt>
      <trkpt lat="47.29584" lon="-2.26195">
        <ele>7.8000001907349</ele>
        <time>2020-06-25T08:25:09.000Z</time>
      </trkpt>
      <trkpt lat="47.29579" lon="-2.26198">
        <ele>8.3999996185303</ele>
        <time>2020-06-25T08:25:10.000Z</time>
      </trkpt>
      <trkpt lat="47.29575" lon="-2.262">
        <ele>8.8000001907349</ele>
        <time>2020-06-25T08:25:11.000Z</time>
      </trkpt>
      <trkpt lat="47.29571" lon="-2.26203">
        <ele>9.1999998092651</ele>
        <time>2020-06-25T08:25:12.000Z</time>
      </trkpt>
      <trkpt lat="47.29556" lon="-2.26217">
        <ele>9.6000003814697</ele>
        <time>2020-06-25T08:25:17.000Z</time>
      </trkpt>
      <trkpt lat="47.29553" lon="-2.2622">
        <ele>10</ele>
        <time>2020-06-25T08:25:18.000Z</time>
      </trkpt>
      <trkpt lat="47.29551" lon="-2.26223">
        <ele>10.39999961853</ele>
        <time>2020-06-25T08:25:19.000Z</time>
      </trkpt>
      <trkpt lat="47.29548" lon="-2.26225">
        <ele>10.800000190735</ele>
        <time>2020-06-25T08:25:20.000Z</time>
      </trkpt>
      <trkpt lat="47.29546" lon="-2.26228">
        <ele>11.199999809265</ele>
        <time>2020-06-25T08:25:21.000Z</time>
      </trkpt>
      <trkpt lat="47.29538" lon="-2.26238">
        <ele>11.199999809265</ele>
        <time>2020-06-25T08:25:25.000Z</time>
      </trkpt>
      <trkpt lat="47.29536" lon="-2.26242">
        <ele>11.199999809265</ele>
        <time>2020-06-25T08:25:26.000Z</time>
      </trkpt>
      <trkpt lat="47.29537" lon="-2.26249">
        <ele>11.199999809265</ele>
        <time>2020-06-25T08:25:28.000Z</time>
      </trkpt>
      <trkpt lat="47.29545" lon="-2.2625">
        <ele>11.199999809265</ele>
        <time>2020-06-25T08:25:31.000Z</time>
      </trkpt>
      <trkpt lat="47.29548" lon="-2.26251">
        <ele>11.199999809265</ele>
        <time>2020-06-25T08:25:32.000Z</time>
      </trkpt>
      <trkpt lat="47.2956" lon="-2.26254">
        <ele>11.199999809265</ele>
        <time>2020-06-25T08:25:35.000Z</time>
      </trkpt>
      <trkpt lat="47.29574" lon="-2.26254">
        <ele>10.800000190735</ele>
        <time>2020-06-25T08:25:37.000Z</time>
      </trkpt>
      <trkpt lat="47.29588" lon="-2.26254">
        <ele>10.39999961853</ele>
        <time>2020-06-25T08:25:38.000Z</time>
      </trkpt>
      <trkpt lat="47.29598" lon="-2.26253">
        <ele>9.8000001907349</ele>
        <time>2020-06-25T08:25:39.000Z</time>
      </trkpt>
      <trkpt lat="47.29607" lon="-2.26252">
        <ele>9.3999996185303</ele>
        <time>2020-06-25T08:25:40.000Z</time>
      </trkpt>
      <trkpt lat="47.29614" lon="-2.26252">
        <ele>9</ele>
        <time>2020-06-25T08:25:41.000Z</time>
      </trkpt>
      <trkpt lat="47.29632" lon="-2.2625">
        <ele>8.6000003814697</ele>
        <time>2020-06-25T08:25:43.000Z</time>
      </trkpt>
      <trkpt lat="47.29641" lon="-2.26247">
        <ele>8.1999998092651</ele>
        <time>2020-06-25T08:25:44.000Z</time>
      </trkpt>
      <trkpt lat="47.29651" lon="-2.26243">
        <ele>7.8000001907349</ele>
        <time>2020-06-25T08:25:45.000Z</time>
      </trkpt>
      <trkpt lat="47.2966" lon="-2.26238">
        <ele>7.4000000953674</ele>
        <time>2020-06-25T08:25:46.000Z</time>
      </trkpt>
      <trkpt lat="47.29668" lon="-2.26233">
        <ele>7</ele>
        <time>2020-06-25T08:25:47.000Z</time>
      </trkpt>
      <trkpt lat="47.29676" lon="-2.26227">
        <ele>7</ele>
        <time>2020-06-25T08:25:48.000Z</time>
      </trkpt>
      <trkpt lat="47.29684" lon="-2.26221">
        <ele>7</ele>
        <time>2020-06-25T08:25:49.000Z</time>
      </trkpt>
      <trkpt lat="47.29691" lon="-2.26216">
        <ele>7</ele>
        <time>2020-06-25T08:25:50.000Z</time>
      </trkpt>
      <trkpt lat="47.29708" lon="-2.2621">
        <ele>6.1999998092651</ele>
        <time>2020-06-25T08:25:52.000Z</time>
      </trkpt>
      <trkpt lat="47.29716" lon="-2.26208">
        <ele>5.8000001907349</ele>
        <time>2020-06-25T08:25:53.000Z</time>
      </trkpt>
      <trkpt lat="47.29724" lon="-2.26208">
        <ele>5.4000000953674</ele>
        <time>2020-06-25T08:25:54.000Z</time>
      </trkpt>
      <trkpt lat="47.29732" lon="-2.26209">
        <ele>5</ele>
        <time>2020-06-25T08:25:55.000Z</time>
      </trkpt>
      <trkpt lat="47.29747" lon="-2.26214">
        <ele>5</ele>
        <time>2020-06-25T08:25:57.000Z</time>
      </trkpt>
      <trkpt lat="47.29784" lon="-2.26238">
        <ele>5</ele>
        <time>2020-06-25T08:26:02.000Z</time>
      </trkpt>
      <trkpt lat="47.29814" lon="-2.26267">
        <ele>5</ele>
        <time>2020-06-25T08:26:07.000Z</time>
      </trkpt>
      <trkpt lat="47.29839" lon="-2.2628">
        <ele>5</ele>
        <time>2020-06-25T08:26:11.000Z</time>
      </trkpt>
      <trkpt lat="47.29846" lon="-2.26281">
        <ele>5</ele>
        <time>2020-06-25T08:26:12.000Z</time>
      </trkpt>
      <trkpt lat="47.29872" lon="-2.2628">
        <ele>5</ele>
        <time>2020-06-25T08:26:16.000Z</time>
      </trkpt>
      <trkpt lat="47.29895" lon="-2.26279">
        <ele>5</ele>
        <time>2020-06-25T08:26:20.000Z</time>
      </trkpt>
      <trkpt lat="47.299" lon="-2.26276">
        <ele>5</ele>
        <time>2020-06-25T08:26:21.000Z</time>
      </trkpt>
      <trkpt lat="47.29906" lon="-2.26256">
        <ele>5</ele>
        <time>2020-06-25T08:26:24.000Z</time>
      </trkpt>
      <trkpt lat="47.29902" lon="-2.26229">
        <ele>5</ele>
        <time>2020-06-25T08:26:28.000Z</time>
      </trkpt>
      <trkpt lat="47.29882" lon="-2.26179">
        <ele>5</ele>
        <time>2020-06-25T08:26:35.000Z</time>
      </trkpt>
      <trkpt lat="47.29859" lon="-2.26139">
        <ele>5</ele>
        <time>2020-06-25T08:26:41.000Z</time>
      </trkpt>
      <trkpt lat="47.29855" lon="-2.26131">
        <ele>5</ele>
        <time>2020-06-25T08:26:42.000Z</time>
      </trkpt>
      <trkpt lat="47.29842" lon="-2.26106">
        <ele>5</ele>
        <time>2020-06-25T08:26:45.000Z</time>
      </trkpt>
      <trkpt lat="47.29839" lon="-2.26097">
        <ele>5</ele>
        <time>2020-06-25T08:26:46.000Z</time>
      </trkpt>
      <trkpt lat="47.29832" lon="-2.26055">
        <ele>5</ele>
        <time>2020-06-25T08:26:50.000Z</time>
      </trkpt>
      <trkpt lat="47.29832" lon="-2.26045">
        <ele>5</ele>
        <time>2020-06-25T08:26:51.000Z</time>
      </trkpt>
      <trkpt lat="47.29834" lon="-2.25976">
        <ele>4.5999999046326</ele>
        <time>2020-06-25T08:26:58.000Z</time>
      </trkpt>
      <trkpt lat="47.29834" lon="-2.25966">
        <ele>4.1999998092651</ele>
        <time>2020-06-25T08:26:59.000Z</time>
      </trkpt>
      <trkpt lat="47.29834" lon="-2.25958">
        <ele>3.7999999523163</ele>
        <time>2020-06-25T08:27:00.000Z</time>
      </trkpt>
      <trkpt lat="47.29834" lon="-2.25949">
        <ele>3.2000000476837</ele>
        <time>2020-06-25T08:27:01.000Z</time>
      </trkpt>
      <trkpt lat="47.29834" lon="-2.2594">
        <ele>2.7999999523163</ele>
        <time>2020-06-25T08:27:02.000Z</time>
      </trkpt>
      <trkpt lat="47.29836" lon="-2.25905">
        <ele>2.7999999523163</ele>
        <time>2020-06-25T08:27:06.000Z</time>
      </trkpt>
      <trkpt lat="47.29842" lon="-2.25858">
        <ele>2.7999999523163</ele>
        <time>2020-06-25T08:27:11.000Z</time>
      </trkpt>
      <trkpt lat="47.29854" lon="-2.25798">
        <ele>2.7999999523163</ele>
        <time>2020-06-25T08:27:18.000Z</time>
      </trkpt>
      <trkpt lat="47.29865" lon="-2.25738">
        <ele>2.7999999523163</ele>
        <time>2020-06-25T08:27:25.000Z</time>
      </trkpt>
      <trkpt lat="47.29869" lon="-2.25676">
        <ele>2.7999999523163</ele>
        <time>2020-06-25T08:27:32.000Z</time>
      </trkpt>
      <trkpt lat="47.29869" lon="-2.25607">
        <ele>2.7999999523163</ele>
        <time>2020-06-25T08:27:40.000Z</time>
      </trkpt>
      <trkpt lat="47.29872" lon="-2.25547">
        <ele>2.7999999523163</ele>
        <time>2020-06-25T08:27:47.000Z</time>
      </trkpt>
      <trkpt lat="47.29875" lon="-2.25513">
        <ele>3.2000000476837</ele>
        <time>2020-06-25T08:27:51.000Z</time>
      </trkpt>
      <trkpt lat="47.29876" lon="-2.25503">
        <ele>3.5999999046326</ele>
        <time>2020-06-25T08:27:52.000Z</time>
      </trkpt>
      <trkpt lat="47.29877" lon="-2.25495">
        <ele>4.1999998092651</ele>
        <time>2020-06-25T08:27:53.000Z</time>
      </trkpt>
      <trkpt lat="47.29878" lon="-2.25487">
        <ele>4.5999999046326</ele>
        <time>2020-06-25T08:27:54.000Z</time>
      </trkpt>
      <trkpt lat="47.29879" lon="-2.25478">
        <ele>5</ele>
        <time>2020-06-25T08:27:55.000Z</time>
      </trkpt>
      <trkpt lat="47.29888" lon="-2.25416">
        <ele>5</ele>
        <time>2020-06-25T08:28:02.000Z</time>
      </trkpt>
      <trkpt lat="47.2989" lon="-2.25353">
        <ele>5</ele>
        <time>2020-06-25T08:28:08.000Z</time>
      </trkpt>
      <trkpt lat="47.29882" lon="-2.25295">
        <ele>5</ele>
        <time>2020-06-25T08:28:14.000Z</time>
      </trkpt>
      <trkpt lat="47.29861" lon="-2.25241">
        <ele>5</ele>
        <time>2020-06-25T08:28:20.000Z</time>
      </trkpt>
      <trkpt lat="47.29845" lon="-2.25183">
        <ele>5</ele>
        <time>2020-06-25T08:28:27.000Z</time>
      </trkpt>
      <trkpt lat="47.29835" lon="-2.25125">
        <ele>5</ele>
        <time>2020-06-25T08:28:34.000Z</time>
      </trkpt>
      <trkpt lat="47.29828" lon="-2.25098">
        <ele>5</ele>
        <time>2020-06-25T08:28:39.000Z</time>
      </trkpt>
      <trkpt lat="47.29818" lon="-2.25096">
        <ele>5</ele>
        <time>2020-06-25T08:28:43.000Z</time>
      </trkpt>
      <trkpt lat="47.29804" lon="-2.25102">
        <ele>5</ele>
        <time>2020-06-25T08:28:48.000Z</time>
      </trkpt>
      <trkpt lat="47.29799" lon="-2.25101">
        <ele>5</ele>
        <time>2020-06-25T08:28:49.000Z</time>
      </trkpt>
      <trkpt lat="47.2979" lon="-2.25095">
        <ele>5</ele>
        <time>2020-06-25T08:28:51.000Z</time>
      </trkpt>
      <trkpt lat="47.29786" lon="-2.2509">
        <ele>5.4000000953674</ele>
        <time>2020-06-25T08:28:52.000Z</time>
      </trkpt>
      <trkpt lat="47.29783" lon="-2.25083">
        <ele>5.8000001907349</ele>
        <time>2020-06-25T08:28:53.000Z</time>
      </trkpt>
      <trkpt lat="47.29781" lon="-2.25076">
        <ele>6.1999998092651</ele>
        <time>2020-06-25T08:28:54.000Z</time>
      </trkpt>
      <trkpt lat="47.29779" lon="-2.25069">
        <ele>6.5999999046326</ele>
        <time>2020-06-25T08:28:55.000Z</time>
      </trkpt>
      <trkpt lat="47.29777" lon="-2.25062">
        <ele>7</ele>
        <time>2020-06-25T08:28:56.000Z</time>
      </trkpt>
      <trkpt lat="47.29773" lon="-2.25029">
        <ele>7</ele>
        <time>2020-06-25T08:29:00.000Z</time>
      </trkpt>
      <trkpt lat="47.29761" lon="-2.2498">
        <ele>7</ele>
        <time>2020-06-25T08:29:06.000Z</time>
      </trkpt>
      <trkpt lat="47.2974" lon="-2.24915">
        <ele>7</ele>
        <time>2020-06-25T08:29:14.000Z</time>
      </trkpt>
      <trkpt lat="47.29715" lon="-2.24838">
        <ele>7</ele>
        <time>2020-06-25T08:29:23.000Z</time>
      </trkpt>
      <trkpt lat="47.29713" lon="-2.24829">
        <ele>7</ele>
        <time>2020-06-25T08:29:24.000Z</time>
      </trkpt>
      <trkpt lat="47.29695" lon="-2.24772">
        <ele>7</ele>
        <time>2020-06-25T08:29:31.000Z</time>
      </trkpt>
      <trkpt lat="47.29677" lon="-2.24716">
        <ele>7</ele>
        <time>2020-06-25T08:29:38.000Z</time>
      </trkpt>
      <trkpt lat="47.29658" lon="-2.24656">
        <ele>7</ele>
        <time>2020-06-25T08:29:45.000Z</time>
      </trkpt>
      <trkpt lat="47.29635" lon="-2.24581">
        <ele>7</ele>
        <time>2020-06-25T08:29:54.000Z</time>
      </trkpt>
      <trkpt lat="47.2963" lon="-2.24566">
        <ele>7</ele>
        <time>2020-06-25T08:29:56.000Z</time>
      </trkpt>
      <trkpt lat="47.29614" lon="-2.24512">
        <ele>7</ele>
        <time>2020-06-25T08:30:03.000Z</time>
      </trkpt>
      <trkpt lat="47.29595" lon="-2.24436">
        <ele>7</ele>
        <time>2020-06-25T08:30:12.000Z</time>
      </trkpt>
      <trkpt lat="47.2958" lon="-2.24367">
        <ele>7</ele>
        <time>2020-06-25T08:30:20.000Z</time>
      </trkpt>
      <trkpt lat="47.29576" lon="-2.24347">
        <ele>6.1999998092651</ele>
        <time>2020-06-25T08:30:23.000Z</time>
      </trkpt>
      <trkpt lat="47.29575" lon="-2.24341">
        <ele>5.8000001907349</ele>
        <time>2020-06-25T08:30:24.000Z</time>
      </trkpt>
      <trkpt lat="47.29574" lon="-2.24336">
        <ele>5.4000000953674</ele>
        <time>2020-06-25T08:30:25.000Z</time>
      </trkpt>
      <trkpt lat="47.29573" lon="-2.24331">
        <ele>5</ele>
        <time>2020-06-25T08:30:26.000Z</time>
      </trkpt>
      <trkpt lat="47.29574" lon="-2.24318">
        <ele>5</ele>
        <time>2020-06-25T08:30:29.000Z</time>
      </trkpt>
      <trkpt lat="47.29576" lon="-2.24316">
        <ele>5</ele>
        <time>2020-06-25T08:30:30.000Z</time>
      </trkpt>
      <trkpt lat="47.29593" lon="-2.24315">
        <ele>5</ele>
        <time>2020-06-25T08:30:35.000Z</time>
      </trkpt>
      <trkpt lat="47.29621" lon="-2.2431">
        <ele>5</ele>
        <time>2020-06-25T08:30:42.000Z</time>
      </trkpt>
      <trkpt lat="47.2963" lon="-2.24308">
        <ele>5</ele>
        <time>2020-06-25T08:30:44.000Z</time>
      </trkpt>
      <trkpt lat="47.29641" lon="-2.243">
        <ele>5</ele>
        <time>2020-06-25T08:30:47.000Z</time>
      </trkpt>
      <trkpt lat="47.29649" lon="-2.24297">
        <ele>5</ele>
        <time>2020-06-25T08:30:49.000Z</time>
      </trkpt>
      <trkpt lat="47.29665" lon="-2.24287">
        <ele>5</ele>
        <time>2020-06-25T08:30:53.000Z</time>
      </trkpt>
      <trkpt lat="47.29682" lon="-2.24277">
        <ele>5.4000000953674</ele>
        <time>2020-06-25T08:30:57.000Z</time>
      </trkpt>
      <trkpt lat="47.29687" lon="-2.24274">
        <ele>5.8000001907349</ele>
        <time>2020-06-25T08:30:58.000Z</time>
      </trkpt>
      <trkpt lat="47.29691" lon="-2.24272">
        <ele>6.1999998092651</ele>
        <time>2020-06-25T08:30:59.000Z</time>
      </trkpt>
      <trkpt lat="47.29696" lon="-2.24269">
        <ele>6.5999999046326</ele>
        <time>2020-06-25T08:31:00.000Z</time>
      </trkpt>
      <trkpt lat="47.297" lon="-2.24267">
        <ele>7</ele>
        <time>2020-06-25T08:31:01.000Z</time>
      </trkpt>
      <trkpt lat="47.29724" lon="-2.24254">
        <ele>7</ele>
        <time>2020-06-25T08:31:07.000Z</time>
      </trkpt>
      <trkpt lat="47.29735" lon="-2.24248">
        <ele>7.4000000953674</ele>
        <time>2020-06-25T08:31:10.000Z</time>
      </trkpt>
      <trkpt lat="47.29739" lon="-2.24246">
        <ele>7.8000001907349</ele>
        <time>2020-06-25T08:31:11.000Z</time>
      </trkpt>
      <trkpt lat="47.29743" lon="-2.24244">
        <ele>8.8000001907349</ele>
        <time>2020-06-25T08:31:12.000Z</time>
      </trkpt>
      <trkpt lat="47.29748" lon="-2.24242">
        <ele>9.1999998092651</ele>
        <time>2020-06-25T08:31:13.000Z</time>
      </trkpt>
      <trkpt lat="47.29775" lon="-2.24229">
        <ele>9.6000003814697</ele>
        <time>2020-06-25T08:31:20.000Z</time>
      </trkpt>
      <trkpt lat="47.29779" lon="-2.24227">
        <ele>10</ele>
        <time>2020-06-25T08:31:21.000Z</time>
      </trkpt>
      <trkpt lat="47.29782" lon="-2.24225">
        <ele>10.39999961853</ele>
        <time>2020-06-25T08:31:22.000Z</time>
      </trkpt>
      <trkpt lat="47.29786" lon="-2.24223">
        <ele>10.800000190735</ele>
        <time>2020-06-25T08:31:23.000Z</time>
      </trkpt>
      <trkpt lat="47.2979" lon="-2.24221">
        <ele>11.199999809265</ele>
        <time>2020-06-25T08:31:24.000Z</time>
      </trkpt>
      <trkpt lat="47.29801" lon="-2.24219">
        <ele>11.199999809265</ele>
        <time>2020-06-25T08:31:27.000Z</time>
      </trkpt>
      <trkpt lat="47.29823" lon="-2.24229">
        <ele>11.60000038147</ele>
        <time>2020-06-25T08:31:33.000Z</time>
      </trkpt>
      <trkpt lat="47.29826" lon="-2.24232">
        <ele>12</ele>
        <time>2020-06-25T08:31:34.000Z</time>
      </trkpt>
      <trkpt lat="47.2983" lon="-2.24234">
        <ele>12.39999961853</ele>
        <time>2020-06-25T08:31:35.000Z</time>
      </trkpt>
      <trkpt lat="47.29834" lon="-2.24236">
        <ele>13.199999809265</ele>
        <time>2020-06-25T08:31:36.000Z</time>
      </trkpt>
      <trkpt lat="47.2985" lon="-2.24242">
        <ele>13.199999809265</ele>
        <time>2020-06-25T08:31:40.000Z</time>
      </trkpt>
      <trkpt lat="47.2988" lon="-2.24257">
        <ele>13.199999809265</ele>
        <time>2020-06-25T08:31:47.000Z</time>
      </trkpt>
      <trkpt lat="47.29902" lon="-2.24275">
        <ele>13.199999809265</ele>
        <time>2020-06-25T08:31:52.000Z</time>
      </trkpt>
      <trkpt lat="47.29916" lon="-2.24283">
        <ele>13.199999809265</ele>
        <time>2020-06-25T08:31:55.000Z</time>
      </trkpt>
      <trkpt lat="47.2994" lon="-2.24299">
        <ele>13.199999809265</ele>
        <time>2020-06-25T08:32:01.000Z</time>
      </trkpt>
      <trkpt lat="47.29943" lon="-2.24303">
        <ele>13.199999809265</ele>
        <time>2020-06-25T08:32:02.000Z</time>
      </trkpt>
      <trkpt lat="47.29956" lon="-2.24323">
        <ele>13.199999809265</ele>
        <time>2020-06-25T08:32:07.000Z</time>
      </trkpt>
      <trkpt lat="47.29977" lon="-2.24351">
        <ele>13.199999809265</ele>
        <time>2020-06-25T08:32:14.000Z</time>
      </trkpt>
      <trkpt lat="47.29991" lon="-2.24362">
        <ele>13.199999809265</ele>
        <time>2020-06-25T08:32:19.000Z</time>
      </trkpt>
      <trkpt lat="47.29995" lon="-2.24359">
        <ele>13.199999809265</ele>
        <time>2020-06-25T08:32:21.000Z</time>
      </trkpt>
      <trkpt lat="47.29998" lon="-2.24352">
        <ele>13.199999809265</ele>
        <time>2020-06-25T08:32:24.000Z</time>
      </trkpt>
      <trkpt lat="47.30001" lon="-2.24341">
        <ele>13.199999809265</ele>
        <time>2020-06-25T08:32:27.000Z</time>
      </trkpt>
      <trkpt lat="47.30003" lon="-2.24333">
        <ele>13.60000038147</ele>
        <time>2020-06-25T08:32:29.000Z</time>
      </trkpt>
      <trkpt lat="47.30004" lon="-2.24328">
        <ele>14</ele>
        <time>2020-06-25T08:32:30.000Z</time>
      </trkpt>
      <trkpt lat="47.30005" lon="-2.24323">
        <ele>14.39999961853</ele>
        <time>2020-06-25T08:32:31.000Z</time>
      </trkpt>
      <trkpt lat="47.30007" lon="-2.24319">
        <ele>14.800000190735</ele>
        <time>2020-06-25T08:32:32.000Z</time>
      </trkpt>
      <trkpt lat="47.30008" lon="-2.24315">
        <ele>15.39999961853</ele>
        <time>2020-06-25T08:32:33.000Z</time>
      </trkpt>
      <trkpt lat="47.30014" lon="-2.24301">
        <ele>15.39999961853</ele>
        <time>2020-06-25T08:32:36.000Z</time>
      </trkpt>
      <trkpt lat="47.30018" lon="-2.24288">
        <ele>15.39999961853</ele>
        <time>2020-06-25T08:32:40.000Z</time>
      </trkpt>
      <trkpt lat="47.30024" lon="-2.24271">
        <ele>15.39999961853</ele>
        <time>2020-06-25T08:32:45.000Z</time>
      </trkpt>
      <trkpt lat="47.30022" lon="-2.24248">
        <ele>14.39999961853</ele>
        <time>2020-06-25T08:32:49.000Z</time>
      </trkpt>
      <trkpt lat="47.30021" lon="-2.2424">
        <ele>14</ele>
        <time>2020-06-25T08:32:50.000Z</time>
      </trkpt>
      <trkpt lat="47.30021" lon="-2.24233">
        <ele>13.60000038147</ele>
        <time>2020-06-25T08:32:51.000Z</time>
      </trkpt>
      <trkpt lat="47.3002" lon="-2.24225">
        <ele>13.199999809265</ele>
        <time>2020-06-25T08:32:52.000Z</time>
      </trkpt>
      <trkpt lat="47.3002" lon="-2.2421">
        <ele>13.199999809265</ele>
        <time>2020-06-25T08:32:54.000Z</time>
      </trkpt>
      <trkpt lat="47.3002" lon="-2.24202">
        <ele>12.800000190735</ele>
        <time>2020-06-25T08:32:55.000Z</time>
      </trkpt>
      <trkpt lat="47.3002" lon="-2.24193">
        <ele>12.39999961853</ele>
        <time>2020-06-25T08:32:56.000Z</time>
      </trkpt>
      <trkpt lat="47.30019" lon="-2.24185">
        <ele>12</ele>
        <time>2020-06-25T08:32:57.000Z</time>
      </trkpt>
      <trkpt lat="47.30018" lon="-2.2418">
        <ele>11.60000038147</ele>
        <time>2020-06-25T08:32:58.000Z</time>
      </trkpt>
      <trkpt lat="47.30017" lon="-2.24175">
        <ele>11</ele>
        <time>2020-06-25T08:32:59.000Z</time>
      </trkpt>
      <trkpt lat="47.30016" lon="-2.2417">
        <ele>10.39999961853</ele>
        <time>2020-06-25T08:33:00.000Z</time>
      </trkpt>
      <trkpt lat="47.30015" lon="-2.24166">
        <ele>9.8000001907349</ele>
        <time>2020-06-25T08:33:01.000Z</time>
      </trkpt>
      <trkpt lat="47.30015" lon="-2.24162">
        <ele>9.1999998092651</ele>
        <time>2020-06-25T08:33:02.000Z</time>
      </trkpt>
      <trkpt lat="47.30014" lon="-2.24159">
        <ele>8.6000003814697</ele>
        <time>2020-06-25T08:33:03.000Z</time>
      </trkpt>
      <trkpt lat="47.30013" lon="-2.24156">
        <ele>8.6000003814697</ele>
        <time>2020-06-25T08:33:04.000Z</time>
      </trkpt>
      <trkpt lat="47.30015" lon="-2.24147">
        <ele>8.6000003814697</ele>
        <time>2020-06-25T08:33:08.000Z</time>
      </trkpt>
      <trkpt lat="47.30019" lon="-2.24144">
        <ele>8.6000003814697</ele>
        <time>2020-06-25T08:33:10.000Z</time>
      </trkpt>
      <trkpt lat="47.30034" lon="-2.2413">
        <ele>8.6000003814697</ele>
        <time>2020-06-25T08:33:18.000Z</time>
      </trkpt>
      <trkpt lat="47.3005" lon="-2.24116">
        <ele>8.6000003814697</ele>
        <time>2020-06-25T08:33:23.000Z</time>
      </trkpt>
      <trkpt lat="47.30061" lon="-2.24109">
        <ele>9</ele>
        <time>2020-06-25T08:33:26.000Z</time>
      </trkpt>
      <trkpt lat="47.30068" lon="-2.24105">
        <ele>9.3999996185303</ele>
        <time>2020-06-25T08:33:27.000Z</time>
      </trkpt>
      <trkpt lat="47.30075" lon="-2.24101">
        <ele>10</ele>
        <time>2020-06-25T08:33:28.000Z</time>
      </trkpt>
      <trkpt lat="47.30081" lon="-2.24097">
        <ele>10.39999961853</ele>
        <time>2020-06-25T08:33:29.000Z</time>
      </trkpt>
      <trkpt lat="47.30086" lon="-2.24095">
        <ele>10.800000190735</ele>
        <time>2020-06-25T08:33:30.000Z</time>
      </trkpt>
      <trkpt lat="47.30101" lon="-2.24092">
        <ele>10.800000190735</ele>
        <time>2020-06-25T08:33:33.000Z</time>
      </trkpt>
      <trkpt lat="47.3012" lon="-2.24081">
        <ele>10.800000190735</ele>
        <time>2020-06-25T08:33:38.000Z</time>
      </trkpt>
      <trkpt lat="47.30149" lon="-2.24065">
        <ele>10.800000190735</ele>
        <time>2020-06-25T08:33:44.000Z</time>
      </trkpt>
      <trkpt lat="47.3018" lon="-2.24058">
        <ele>10.800000190735</ele>
        <time>2020-06-25T08:33:49.000Z</time>
      </trkpt>
      <trkpt lat="47.30196" lon="-2.24059">
        <ele>10.800000190735</ele>
        <time>2020-06-25T08:33:52.000Z</time>
      </trkpt>
      <trkpt lat="47.30213" lon="-2.24059">
        <ele>10.800000190735</ele>
        <time>2020-06-25T08:33:55.000Z</time>
      </trkpt>
      <trkpt lat="47.30244" lon="-2.24062">
        <ele>10.800000190735</ele>
        <time>2020-06-25T08:34:01.000Z</time>
      </trkpt>
      <trkpt lat="47.30262" lon="-2.24063">
        <ele>10.800000190735</ele>
        <time>2020-06-25T08:34:05.000Z</time>
      </trkpt>
      <trkpt lat="47.30267" lon="-2.24061">
        <ele>10.39999961853</ele>
        <time>2020-06-25T08:34:06.000Z</time>
      </trkpt>
      <trkpt lat="47.30271" lon="-2.24059">
        <ele>10</ele>
        <time>2020-06-25T08:34:07.000Z</time>
      </trkpt>
      <trkpt lat="47.30275" lon="-2.24054">
        <ele>9.6000003814697</ele>
        <time>2020-06-25T08:34:08.000Z</time>
      </trkpt>
      <trkpt lat="47.30278" lon="-2.24048">
        <ele>9.1999998092651</ele>
        <time>2020-06-25T08:34:09.000Z</time>
      </trkpt>
      <trkpt lat="47.3028" lon="-2.24041">
        <ele>8.8000001907349</ele>
        <time>2020-06-25T08:34:10.000Z</time>
      </trkpt>
      <trkpt lat="47.30281" lon="-2.24035">
        <ele>8.8000001907349</ele>
        <time>2020-06-25T08:34:11.000Z</time>
      </trkpt>
      <trkpt lat="47.30281" lon="-2.24011">
        <ele>8.8000001907349</ele>
        <time>2020-06-25T08:34:14.000Z</time>
      </trkpt>
      <trkpt lat="47.30277" lon="-2.2398">
        <ele>8.1999998092651</ele>
        <time>2020-06-25T08:34:17.000Z</time>
      </trkpt>
      <trkpt lat="47.30274" lon="-2.2397">
        <ele>7.8000001907349</ele>
        <time>2020-06-25T08:34:18.000Z</time>
      </trkpt>
      <trkpt lat="47.30272" lon="-2.23959">
        <ele>7.4000000953674</ele>
        <time>2020-06-25T08:34:19.000Z</time>
      </trkpt>
      <trkpt lat="47.30269" lon="-2.23949">
        <ele>7</ele>
        <time>2020-06-25T08:34:20.000Z</time>
      </trkpt>
      <trkpt lat="47.30266" lon="-2.23939">
        <ele>6.4000000953674</ele>
        <time>2020-06-25T08:34:21.000Z</time>
      </trkpt>
      <trkpt lat="47.30261" lon="-2.23912">
        <ele>6</ele>
        <time>2020-06-25T08:34:24.000Z</time>
      </trkpt>
      <trkpt lat="47.30265" lon="-2.23904">
        <ele>5.5999999046326</ele>
        <time>2020-06-25T08:34:25.000Z</time>
      </trkpt>
      <trkpt lat="47.30268" lon="-2.23898">
        <ele>5.1999998092651</ele>
        <time>2020-06-25T08:34:26.000Z</time>
      </trkpt>
      <trkpt lat="47.30271" lon="-2.23893">
        <ele>4.8000001907349</ele>
        <time>2020-06-25T08:34:27.000Z</time>
      </trkpt>
      <trkpt lat="47.30274" lon="-2.2389">
        <ele>4.1999998092651</ele>
        <time>2020-06-25T08:34:28.000Z</time>
      </trkpt>
      <trkpt lat="47.30278" lon="-2.23887">
        <ele>4.1999998092651</ele>
        <time>2020-06-25T08:34:29.000Z</time>
      </trkpt>
      <trkpt lat="47.30286" lon="-2.23886">
        <ele>4.1999998092651</ele>
        <time>2020-06-25T08:34:31.000Z</time>
      </trkpt>
      <trkpt lat="47.30296" lon="-2.23884">
        <ele>4.1999998092651</ele>
        <time>2020-06-25T08:34:33.000Z</time>
      </trkpt>
      <trkpt lat="47.30321" lon="-2.23874">
        <ele>4.1999998092651</ele>
        <time>2020-06-25T08:34:38.000Z</time>
      </trkpt>
      <trkpt lat="47.30327" lon="-2.23871">
        <ele>4.1999998092651</ele>
        <time>2020-06-25T08:34:39.000Z</time>
      </trkpt>
      <trkpt lat="47.30356" lon="-2.23861">
        <ele>4.1999998092651</ele>
        <time>2020-06-25T08:34:44.000Z</time>
      </trkpt>
      <trkpt lat="47.30408" lon="-2.2385">
        <ele>4.1999998092651</ele>
        <time>2020-06-25T08:34:52.000Z</time>
      </trkpt>
      <trkpt lat="47.30462" lon="-2.23842">
        <ele>4.1999998092651</ele>
        <time>2020-06-25T08:35:00.000Z</time>
      </trkpt>
      <trkpt lat="47.30468" lon="-2.23841">
        <ele>3.7999999523163</ele>
        <time>2020-06-25T08:35:01.000Z</time>
      </trkpt>
      <trkpt lat="47.30475" lon="-2.2384">
        <ele>3.4000000953674</ele>
        <time>2020-06-25T08:35:02.000Z</time>
      </trkpt>
      <trkpt lat="47.30482" lon="-2.23841">
        <ele>3</ele>
        <time>2020-06-25T08:35:03.000Z</time>
      </trkpt>
      <trkpt lat="47.30488" lon="-2.23844">
        <ele>2.5999999046326</ele>
        <time>2020-06-25T08:35:04.000Z</time>
      </trkpt>
      <trkpt lat="47.30495" lon="-2.23849">
        <ele>2.2000000476837</ele>
        <time>2020-06-25T08:35:05.000Z</time>
      </trkpt>
      <trkpt lat="47.3051" lon="-2.23868">
        <ele>2.2000000476837</ele>
        <time>2020-06-25T08:35:08.000Z</time>
      </trkpt>
      <trkpt lat="47.30515" lon="-2.23874">
        <ele>2.2000000476837</ele>
        <time>2020-06-25T08:35:09.000Z</time>
      </trkpt>
      <trkpt lat="47.30549" lon="-2.23924">
        <ele>2.2000000476837</ele>
        <time>2020-06-25T08:35:17.000Z</time>
      </trkpt>
      <trkpt lat="47.30551" lon="-2.23939">
        <ele>2.2000000476837</ele>
        <time>2020-06-25T08:35:19.000Z</time>
      </trkpt>
      <trkpt lat="47.30544" lon="-2.23956">
        <ele>2.2000000476837</ele>
        <time>2020-06-25T08:35:22.000Z</time>
      </trkpt>
      <trkpt lat="47.30537" lon="-2.23966">
        <ele>2.2000000476837</ele>
        <time>2020-06-25T08:35:24.000Z</time>
      </trkpt>
      <trkpt lat="47.30528" lon="-2.23975">
        <ele>2.5999999046326</ele>
        <time>2020-06-25T08:35:26.000Z</time>
      </trkpt>
      <trkpt lat="47.30524" lon="-2.23979">
        <ele>3</ele>
        <time>2020-06-25T08:35:27.000Z</time>
      </trkpt>
      <trkpt lat="47.30519" lon="-2.23984">
        <ele>3.4000000953674</ele>
        <time>2020-06-25T08:35:28.000Z</time>
      </trkpt>
      <trkpt lat="47.30515" lon="-2.23989">
        <ele>4</ele>
        <time>2020-06-25T08:35:29.000Z</time>
      </trkpt>
      <trkpt lat="47.30512" lon="-2.23994">
        <ele>4.4000000953674</ele>
        <time>2020-06-25T08:35:30.000Z</time>
      </trkpt>
      <trkpt lat="47.30505" lon="-2.24004">
        <ele>4.8000001907349</ele>
        <time>2020-06-25T08:35:32.000Z</time>
      </trkpt>
      <trkpt lat="47.30501" lon="-2.24009">
        <ele>5.1999998092651</ele>
        <time>2020-06-25T08:35:33.000Z</time>
      </trkpt>
      <trkpt lat="47.30498" lon="-2.24013">
        <ele>5.5999999046326</ele>
        <time>2020-06-25T08:35:34.000Z</time>
      </trkpt>
      <trkpt lat="47.30495" lon="-2.24018">
        <ele>6</ele>
        <time>2020-06-25T08:35:35.000Z</time>
      </trkpt>
      <trkpt lat="47.30492" lon="-2.24022">
        <ele>6.4000000953674</ele>
        <time>2020-06-25T08:35:36.000Z</time>
      </trkpt>
      <trkpt lat="47.30485" lon="-2.24027">
        <ele>6.4000000953674</ele>
        <time>2020-06-25T08:35:38.000Z</time>
      </trkpt>
      <trkpt lat="47.30482" lon="-2.2403">
        <ele>6.8000001907349</ele>
        <time>2020-06-25T08:35:39.000Z</time>
      </trkpt>
      <trkpt lat="47.3048" lon="-2.24032">
        <ele>7.1999998092651</ele>
        <time>2020-06-25T08:35:40.000Z</time>
      </trkpt>
      <trkpt lat="47.30477" lon="-2.24035">
        <ele>8</ele>
        <time>2020-06-25T08:35:41.000Z</time>
      </trkpt>
      <trkpt lat="47.30475" lon="-2.24037">
        <ele>8.3999996185303</ele>
        <time>2020-06-25T08:35:42.000Z</time>
      </trkpt>
      <trkpt lat="47.30472" lon="-2.24038">
        <ele>8.3999996185303</ele>
        <time>2020-06-25T08:35:43.000Z</time>
      </trkpt>
      <trkpt lat="47.30469" lon="-2.24039">
        <ele>8.8000001907349</ele>
        <time>2020-06-25T08:35:44.000Z</time>
      </trkpt>
      <trkpt lat="47.30466" lon="-2.24041">
        <ele>9.1999998092651</ele>
        <time>2020-06-25T08:35:45.000Z</time>
      </trkpt>
      <trkpt lat="47.30462" lon="-2.24042">
        <ele>9.6000003814697</ele>
        <time>2020-06-25T08:35:46.000Z</time>
      </trkpt>
      <trkpt lat="47.30459" lon="-2.24045">
        <ele>10</ele>
        <time>2020-06-25T08:35:47.000Z</time>
      </trkpt>
      <trkpt lat="47.30455" lon="-2.24048">
        <ele>10.39999961853</ele>
        <time>2020-06-25T08:35:48.000Z</time>
      </trkpt>
      <trkpt lat="47.30432" lon="-2.24073">
        <ele>10.800000190735</ele>
        <time>2020-06-25T08:35:55.000Z</time>
      </trkpt>
      <trkpt lat="47.3043" lon="-2.24076">
        <ele>11.39999961853</ele>
        <time>2020-06-25T08:35:56.000Z</time>
      </trkpt>
      <trkpt lat="47.30427" lon="-2.2408">
        <ele>11.800000190735</ele>
        <time>2020-06-25T08:35:57.000Z</time>
      </trkpt>
      <trkpt lat="47.30425" lon="-2.24083">
        <ele>12.199999809265</ele>
        <time>2020-06-25T08:35:58.000Z</time>
      </trkpt>
      <trkpt lat="47.30422" lon="-2.24086">
        <ele>12.60000038147</ele>
        <time>2020-06-25T08:35:59.000Z</time>
      </trkpt>
      <trkpt lat="47.30418" lon="-2.24093">
        <ele>12.60000038147</ele>
        <time>2020-06-25T08:36:01.000Z</time>
      </trkpt>
      <trkpt lat="47.30406" lon="-2.24105">
        <ele>13.39999961853</ele>
        <time>2020-06-25T08:36:05.000Z</time>
      </trkpt>
      <trkpt lat="47.30403" lon="-2.24108">
        <ele>13.800000190735</ele>
        <time>2020-06-25T08:36:06.000Z</time>
      </trkpt>
      <trkpt lat="47.30401" lon="-2.24111">
        <ele>14.199999809265</ele>
        <time>2020-06-25T08:36:07.000Z</time>
      </trkpt>
      <trkpt lat="47.30398" lon="-2.24114">
        <ele>14.60000038147</ele>
        <time>2020-06-25T08:36:08.000Z</time>
      </trkpt>
      <trkpt lat="47.30394" lon="-2.24117">
        <ele>14.60000038147</ele>
        <time>2020-06-25T08:36:09.000Z</time>
      </trkpt>
      <trkpt lat="47.30375" lon="-2.24136">
        <ele>14.60000038147</ele>
        <time>2020-06-25T08:36:14.000Z</time>
      </trkpt>
      <trkpt lat="47.30371" lon="-2.24142">
        <ele>14.60000038147</ele>
        <time>2020-06-25T08:36:15.000Z</time>
      </trkpt>
      <trkpt lat="47.30367" lon="-2.24148">
        <ele>15</ele>
        <time>2020-06-25T08:36:16.000Z</time>
      </trkpt>
      <trkpt lat="47.30362" lon="-2.24155">
        <ele>15.39999961853</ele>
        <time>2020-06-25T08:36:17.000Z</time>
      </trkpt>
      <trkpt lat="47.30358" lon="-2.24162">
        <ele>15.800000190735</ele>
        <time>2020-06-25T08:36:18.000Z</time>
      </trkpt>
      <trkpt lat="47.30354" lon="-2.24169">
        <ele>16.200000762939</ele>
        <time>2020-06-25T08:36:19.000Z</time>
      </trkpt>
      <trkpt lat="47.30351" lon="-2.24176">
        <ele>16.60000038147</ele>
        <time>2020-06-25T08:36:20.000Z</time>
      </trkpt>
      <trkpt lat="47.30348" lon="-2.24184">
        <ele>16.60000038147</ele>
        <time>2020-06-25T08:36:21.000Z</time>
      </trkpt>
      <trkpt lat="47.30344" lon="-2.24202">
        <ele>16.200000762939</ele>
        <time>2020-06-25T08:36:24.000Z</time>
      </trkpt>
      <trkpt lat="47.30344" lon="-2.24206">
        <ele>15.800000190735</ele>
        <time>2020-06-25T08:36:25.000Z</time>
      </trkpt>
      <trkpt lat="47.30346" lon="-2.2421">
        <ele>15.199999809265</ele>
        <time>2020-06-25T08:36:26.000Z</time>
      </trkpt>
      <trkpt lat="47.30349" lon="-2.24214">
        <ele>14.800000190735</ele>
        <time>2020-06-25T08:36:27.000Z</time>
      </trkpt>
      <trkpt lat="47.30351" lon="-2.24219">
        <ele>14.39999961853</ele>
        <time>2020-06-25T08:36:28.000Z</time>
      </trkpt>
      <trkpt lat="47.30375" lon="-2.24245">
        <ele>14.39999961853</ele>
        <time>2020-06-25T08:36:34.000Z</time>
      </trkpt>
      <trkpt lat="47.30402" lon="-2.24267">
        <ele>14.39999961853</ele>
        <time>2020-06-25T08:36:39.000Z</time>
      </trkpt>
      <trkpt lat="47.30415" lon="-2.24273">
        <ele>14.39999961853</ele>
        <time>2020-06-25T08:36:41.000Z</time>
      </trkpt>
      <trkpt lat="47.30428" lon="-2.24276">
        <ele>14.39999961853</ele>
        <time>2020-06-25T08:36:43.000Z</time>
      </trkpt>
      <trkpt lat="47.30447" lon="-2.24279">
        <ele>14.39999961853</ele>
        <time>2020-06-25T08:36:46.000Z</time>
      </trkpt>
      <trkpt lat="47.30475" lon="-2.24289">
        <ele>14.39999961853</ele>
        <time>2020-06-25T08:36:51.000Z</time>
      </trkpt>
      <trkpt lat="47.3048" lon="-2.24292">
        <ele>14.39999961853</ele>
        <time>2020-06-25T08:36:52.000Z</time>
      </trkpt>
      <trkpt lat="47.3051" lon="-2.24315">
        <ele>14.39999961853</ele>
        <time>2020-06-25T08:36:58.000Z</time>
      </trkpt>
      <trkpt lat="47.30548" lon="-2.24355">
        <ele>14.39999961853</ele>
        <time>2020-06-25T08:37:06.000Z</time>
      </trkpt>
      <trkpt lat="47.30584" lon="-2.24395">
        <ele>14.39999961853</ele>
        <time>2020-06-25T08:37:13.000Z</time>
      </trkpt>
      <trkpt lat="47.30605" lon="-2.24414">
        <ele>14.39999961853</ele>
        <time>2020-06-25T08:37:17.000Z</time>
      </trkpt>
      <trkpt lat="47.30616" lon="-2.2442">
        <ele>14.39999961853</ele>
        <time>2020-06-25T08:37:19.000Z</time>
      </trkpt>
      <trkpt lat="47.30631" lon="-2.2443">
        <ele>14.39999961853</ele>
        <time>2020-06-25T08:37:22.000Z</time>
      </trkpt>
      <trkpt lat="47.30635" lon="-2.24434">
        <ele>13.800000190735</ele>
        <time>2020-06-25T08:37:23.000Z</time>
      </trkpt>
      <trkpt lat="47.30637" lon="-2.24435">
        <ele>13.39999961853</ele>
        <time>2020-06-25T08:37:24.000Z</time>
      </trkpt>
      <trkpt lat="47.30639" lon="-2.24436">
        <ele>12.800000190735</ele>
        <time>2020-06-25T08:37:25.000Z</time>
      </trkpt>
      <trkpt lat="47.30639" lon="-2.24435">
        <ele>12.39999961853</ele>
        <time>2020-06-25T08:37:26.000Z</time>
      </trkpt>
      <trkpt lat="47.30639" lon="-2.24435">
        <ele>11.800000190735</ele>
        <time>2020-06-25T08:37:27.000Z</time>
      </trkpt>
      <trkpt lat="47.30639" lon="-2.24436">
        <ele>11.800000190735</ele>
        <time>2020-06-25T08:37:28.000Z</time>
      </trkpt>
      <trkpt lat="47.3064" lon="-2.24438">
        <ele>11.800000190735</ele>
        <time>2020-06-25T08:37:29.000Z</time>
      </trkpt>
      <trkpt lat="47.30638" lon="-2.24455">
        <ele>11.800000190735</ele>
        <time>2020-06-25T08:37:32.000Z</time>
      </trkpt>
      <trkpt lat="47.30632" lon="-2.24503">
        <ele>11.800000190735</ele>
        <time>2020-06-25T08:37:37.000Z</time>
      </trkpt>
      <trkpt lat="47.30628" lon="-2.24526">
        <ele>11.39999961853</ele>
        <time>2020-06-25T08:37:39.000Z</time>
      </trkpt>
      <trkpt lat="47.30626" lon="-2.24539">
        <ele>11</ele>
        <time>2020-06-25T08:37:40.000Z</time>
      </trkpt>
      <trkpt lat="47.30624" lon="-2.24551">
        <ele>10.60000038147</ele>
        <time>2020-06-25T08:37:41.000Z</time>
      </trkpt>
      <trkpt lat="47.30622" lon="-2.24563">
        <ele>10.199999809265</ele>
        <time>2020-06-25T08:37:42.000Z</time>
      </trkpt>
      <trkpt lat="47.3062" lon="-2.24576">
        <ele>9.6000003814697</ele>
        <time>2020-06-25T08:37:43.000Z</time>
      </trkpt>
      <trkpt lat="47.30618" lon="-2.24589">
        <ele>9.1999998092651</ele>
        <time>2020-06-25T08:37:44.000Z</time>
      </trkpt>
      <trkpt lat="47.30617" lon="-2.24602">
        <ele>8.8000001907349</ele>
        <time>2020-06-25T08:37:45.000Z</time>
      </trkpt>
      <trkpt lat="47.30617" lon="-2.24615">
        <ele>8.3999996185303</ele>
        <time>2020-06-25T08:37:46.000Z</time>
      </trkpt>
      <trkpt lat="47.30618" lon="-2.24628">
        <ele>8</ele>
        <time>2020-06-25T08:37:47.000Z</time>
      </trkpt>
      <trkpt lat="47.3062" lon="-2.2464">
        <ele>7.4000000953674</ele>
        <time>2020-06-25T08:37:48.000Z</time>
      </trkpt>
      <trkpt lat="47.30626" lon="-2.24664">
        <ele>7.4000000953674</ele>
        <time>2020-06-25T08:37:50.000Z</time>
      </trkpt>
      <trkpt lat="47.30633" lon="-2.24686">
        <ele>7</ele>
        <time>2020-06-25T08:37:52.000Z</time>
      </trkpt>
      <trkpt lat="47.30636" lon="-2.24697">
        <ele>6.5999999046326</ele>
        <time>2020-06-25T08:37:53.000Z</time>
      </trkpt>
      <trkpt lat="47.3064" lon="-2.24708">
        <ele>6.1999998092651</ele>
        <time>2020-06-25T08:37:54.000Z</time>
      </trkpt>
      <trkpt lat="47.30643" lon="-2.24718">
        <ele>5.8000001907349</ele>
        <time>2020-06-25T08:37:55.000Z</time>
      </trkpt>
      <trkpt lat="47.30647" lon="-2.24727">
        <ele>5.4000000953674</ele>
        <time>2020-06-25T08:37:56.000Z</time>
      </trkpt>
      <trkpt lat="47.30654" lon="-2.24745">
        <ele>5.4000000953674</ele>
        <time>2020-06-25T08:37:58.000Z</time>
      </trkpt>
      <trkpt lat="47.30678" lon="-2.24792">
        <ele>5.4000000953674</ele>
        <time>2020-06-25T08:38:04.000Z</time>
      </trkpt>
      <trkpt lat="47.30703" lon="-2.24823">
        <ele>5.4000000953674</ele>
        <time>2020-06-25T08:38:09.000Z</time>
      </trkpt>
      <trkpt lat="47.30732" lon="-2.24869">
        <ele>5.4000000953674</ele>
        <time>2020-06-25T08:38:16.000Z</time>
      </trkpt>
      <trkpt lat="47.30743" lon="-2.2488">
        <ele>5.4000000953674</ele>
        <time>2020-06-25T08:38:18.000Z</time>
      </trkpt>
      <trkpt lat="47.30755" lon="-2.24888">
        <ele>5.4000000953674</ele>
        <time>2020-06-25T08:38:20.000Z</time>
      </trkpt>
      <trkpt lat="47.30768" lon="-2.24895">
        <ele>5.4000000953674</ele>
        <time>2020-06-25T08:38:22.000Z</time>
      </trkpt>
      <trkpt lat="47.30801" lon="-2.24911">
        <ele>5.4000000953674</ele>
        <time>2020-06-25T08:38:27.000Z</time>
      </trkpt>
      <trkpt lat="47.30848" lon="-2.24935">
        <ele>5.4000000953674</ele>
        <time>2020-06-25T08:38:34.000Z</time>
      </trkpt>
      <trkpt lat="47.3086" lon="-2.24947">
        <ele>5.4000000953674</ele>
        <time>2020-06-25T08:38:36.000Z</time>
      </trkpt>
      <trkpt lat="47.30872" lon="-2.24962">
        <ele>5.4000000953674</ele>
        <time>2020-06-25T08:38:38.000Z</time>
      </trkpt>
      <trkpt lat="47.30886" lon="-2.24994">
        <ele>5.4000000953674</ele>
        <time>2020-06-25T08:38:42.000Z</time>
      </trkpt>
      <trkpt lat="47.30898" lon="-2.25044">
        <ele>5.4000000953674</ele>
        <time>2020-06-25T08:38:48.000Z</time>
      </trkpt>
      <trkpt lat="47.30899" lon="-2.25092">
        <ele>5.4000000953674</ele>
        <time>2020-06-25T08:38:54.000Z</time>
      </trkpt>
      <trkpt lat="47.30899" lon="-2.25099">
        <ele>5.4000000953674</ele>
        <time>2020-06-25T08:38:55.000Z</time>
      </trkpt>
      <trkpt lat="47.30903" lon="-2.25124">
        <ele>5.4000000953674</ele>
        <time>2020-06-25T08:38:59.000Z</time>
      </trkpt>
      <trkpt lat="47.30912" lon="-2.25173">
        <ele>5.4000000953674</ele>
        <time>2020-06-25T08:39:06.000Z</time>
      </trkpt>
      <trkpt lat="47.30925" lon="-2.25202">
        <ele>5.4000000953674</ele>
        <time>2020-06-25T08:39:11.000Z</time>
      </trkpt>
      <trkpt lat="47.3094" lon="-2.25217">
        <ele>5.4000000953674</ele>
        <time>2020-06-25T08:39:16.000Z</time>
      </trkpt>
      <trkpt lat="47.30967" lon="-2.25228">
        <ele>5.4000000953674</ele>
        <time>2020-06-25T08:39:23.000Z</time>
      </trkpt>
      <trkpt lat="47.30995" lon="-2.25234">
        <ele>5.4000000953674</ele>
        <time>2020-06-25T08:39:28.000Z</time>
      </trkpt>
      <trkpt lat="47.31034" lon="-2.25247">
        <ele>5.4000000953674</ele>
        <time>2020-06-25T08:39:35.000Z</time>
      </trkpt>
      <trkpt lat="47.31039" lon="-2.2525">
        <ele>5.4000000953674</ele>
        <time>2020-06-25T08:39:36.000Z</time>
      </trkpt>
      <trkpt lat="47.31054" lon="-2.25267">
        <ele>5.4000000953674</ele>
        <time>2020-06-25T08:39:39.000Z</time>
      </trkpt>
      <trkpt lat="47.31062" lon="-2.2528">
        <ele>5.4000000953674</ele>
        <time>2020-06-25T08:39:41.000Z</time>
      </trkpt>
      <trkpt lat="47.31077" lon="-2.25308">
        <ele>5.8000001907349</ele>
        <time>2020-06-25T08:39:45.000Z</time>
      </trkpt>
      <trkpt lat="47.3108" lon="-2.25315">
        <ele>6.1999998092651</ele>
        <time>2020-06-25T08:39:46.000Z</time>
      </trkpt>
      <trkpt lat="47.31084" lon="-2.25321">
        <ele>7.1999998092651</ele>
        <time>2020-06-25T08:39:47.000Z</time>
      </trkpt>
      <trkpt lat="47.31087" lon="-2.25327">
        <ele>7.5999999046326</ele>
        <time>2020-06-25T08:39:48.000Z</time>
      </trkpt>
      <trkpt lat="47.31103" lon="-2.2535">
        <ele>7.5999999046326</ele>
        <time>2020-06-25T08:39:52.000Z</time>
      </trkpt>
      <trkpt lat="47.31123" lon="-2.25379">
        <ele>7.5999999046326</ele>
        <time>2020-06-25T08:39:57.000Z</time>
      </trkpt>
      <trkpt lat="47.31126" lon="-2.25386">
        <ele>7.5999999046326</ele>
        <time>2020-06-25T08:39:58.000Z</time>
      </trkpt>
      <trkpt lat="47.31133" lon="-2.25408">
        <ele>7.5999999046326</ele>
        <time>2020-06-25T08:40:01.000Z</time>
      </trkpt>
      <trkpt lat="47.31137" lon="-2.25425">
        <ele>7.5999999046326</ele>
        <time>2020-06-25T08:40:03.000Z</time>
      </trkpt>
      <trkpt lat="47.31138" lon="-2.25434">
        <ele>7.5999999046326</ele>
        <time>2020-06-25T08:40:04.000Z</time>
      </trkpt>
      <trkpt lat="47.31143" lon="-2.2547">
        <ele>7.5999999046326</ele>
        <time>2020-06-25T08:40:08.000Z</time>
      </trkpt>
      <trkpt lat="47.31152" lon="-2.25517">
        <ele>7.5999999046326</ele>
        <time>2020-06-25T08:40:14.000Z</time>
      </trkpt>
      <trkpt lat="47.31157" lon="-2.25543">
        <ele>8</ele>
        <time>2020-06-25T08:40:17.000Z</time>
      </trkpt>
      <trkpt lat="47.31158" lon="-2.25552">
        <ele>8.3999996185303</ele>
        <time>2020-06-25T08:40:18.000Z</time>
      </trkpt>
      <trkpt lat="47.31159" lon="-2.2556">
        <ele>8.8000001907349</ele>
        <time>2020-06-25T08:40:19.000Z</time>
      </trkpt>
      <trkpt lat="47.31161" lon="-2.25569">
        <ele>9.1999998092651</ele>
        <time>2020-06-25T08:40:20.000Z</time>
      </trkpt>
      <trkpt lat="47.31162" lon="-2.25577">
        <ele>9.6000003814697</ele>
        <time>2020-06-25T08:40:21.000Z</time>
      </trkpt>
      <trkpt lat="47.31162" lon="-2.25622">
        <ele>9.6000003814697</ele>
        <time>2020-06-25T08:40:26.000Z</time>
      </trkpt>
      <trkpt lat="47.31156" lon="-2.25683">
        <ele>9.6000003814697</ele>
        <time>2020-06-25T08:40:33.000Z</time>
      </trkpt>
      <trkpt lat="47.31157" lon="-2.25749">
        <ele>9.6000003814697</ele>
        <time>2020-06-25T08:40:40.000Z</time>
      </trkpt>
      <trkpt lat="47.31159" lon="-2.25781">
        <ele>9.6000003814697</ele>
        <time>2020-06-25T08:40:44.000Z</time>
      </trkpt>
      <trkpt lat="47.31161" lon="-2.25796">
        <ele>9.6000003814697</ele>
        <time>2020-06-25T08:40:46.000Z</time>
      </trkpt>
      <trkpt lat="47.31164" lon="-2.25822">
        <ele>9.6000003814697</ele>
        <time>2020-06-25T08:40:50.000Z</time>
      </trkpt>
      <trkpt lat="47.3117" lon="-2.2583">
        <ele>9.6000003814697</ele>
        <time>2020-06-25T08:40:52.000Z</time>
      </trkpt>
      <trkpt lat="47.31182" lon="-2.25828">
        <ele>9.6000003814697</ele>
        <time>2020-06-25T08:40:55.000Z</time>
      </trkpt>
      <trkpt lat="47.31191" lon="-2.25824">
        <ele>9.6000003814697</ele>
        <time>2020-06-25T08:40:57.000Z</time>
      </trkpt>
      <trkpt lat="47.31202" lon="-2.2582">
        <ele>9.6000003814697</ele>
        <time>2020-06-25T08:40:59.000Z</time>
      </trkpt>
      <trkpt lat="47.31208" lon="-2.25818">
        <ele>9.6000003814697</ele>
        <time>2020-06-25T08:41:00.000Z</time>
      </trkpt>
      <trkpt lat="47.31246" lon="-2.258">
        <ele>9.6000003814697</ele>
        <time>2020-06-25T08:41:07.000Z</time>
      </trkpt>
      <trkpt lat="47.31279" lon="-2.25771">
        <ele>9.6000003814697</ele>
        <time>2020-06-25T08:41:13.000Z</time>
      </trkpt>
      <trkpt lat="47.31307" lon="-2.25749">
        <ele>9.6000003814697</ele>
        <time>2020-06-25T08:41:19.000Z</time>
      </trkpt>
      <trkpt lat="47.31347" lon="-2.25724">
        <ele>9.6000003814697</ele>
        <time>2020-06-25T08:41:27.000Z</time>
      </trkpt>
      <trkpt lat="47.31387" lon="-2.25703">
        <ele>9.6000003814697</ele>
        <time>2020-06-25T08:41:34.000Z</time>
      </trkpt>
      <trkpt lat="47.31393" lon="-2.257">
        <ele>9.1999998092651</ele>
        <time>2020-06-25T08:41:35.000Z</time>
      </trkpt>
      <trkpt lat="47.31399" lon="-2.25697">
        <ele>8.8000001907349</ele>
        <time>2020-06-25T08:41:36.000Z</time>
      </trkpt>
      <trkpt lat="47.31405" lon="-2.25694">
        <ele>8.3999996185303</ele>
        <time>2020-06-25T08:41:37.000Z</time>
      </trkpt>
      <trkpt lat="47.31411" lon="-2.25691">
        <ele>8</ele>
        <time>2020-06-25T08:41:38.000Z</time>
      </trkpt>
      <trkpt lat="47.31417" lon="-2.25687">
        <ele>7.5999999046326</ele>
        <time>2020-06-25T08:41:39.000Z</time>
      </trkpt>
      <trkpt lat="47.3143" lon="-2.25681">
        <ele>7.5999999046326</ele>
        <time>2020-06-25T08:41:41.000Z</time>
      </trkpt>
      <trkpt lat="47.31468" lon="-2.2566">
        <ele>7.5999999046326</ele>
        <time>2020-06-25T08:41:47.000Z</time>
      </trkpt>
      <trkpt lat="47.31475" lon="-2.25656">
        <ele>7.1999998092651</ele>
        <time>2020-06-25T08:41:48.000Z</time>
      </trkpt>
      <trkpt lat="47.31482" lon="-2.25653">
        <ele>6.8000001907349</ele>
        <time>2020-06-25T08:41:49.000Z</time>
      </trkpt>
      <trkpt lat="47.31489" lon="-2.25651">
        <ele>5.8000001907349</ele>
        <time>2020-06-25T08:41:50.000Z</time>
      </trkpt>
      <trkpt lat="47.31496" lon="-2.25649">
        <ele>5.4000000953674</ele>
        <time>2020-06-25T08:41:51.000Z</time>
      </trkpt>
      <trkpt lat="47.31502" lon="-2.25649">
        <ele>5.4000000953674</ele>
        <time>2020-06-25T08:41:52.000Z</time>
      </trkpt>
      <trkpt lat="47.31507" lon="-2.25651">
        <ele>5.4000000953674</ele>
        <time>2020-06-25T08:41:53.000Z</time>
      </trkpt>
      <trkpt lat="47.31516" lon="-2.25667">
        <ele>5.4000000953674</ele>
        <time>2020-06-25T08:41:56.000Z</time>
      </trkpt>
      <trkpt lat="47.31518" lon="-2.25673">
        <ele>5.4000000953674</ele>
        <time>2020-06-25T08:41:57.000Z</time>
      </trkpt>
      <trkpt lat="47.3153" lon="-2.25706">
        <ele>5.4000000953674</ele>
        <time>2020-06-25T08:42:02.000Z</time>
      </trkpt>
      <trkpt lat="47.31534" lon="-2.25719">
        <ele>5.4000000953674</ele>
        <time>2020-06-25T08:42:04.000Z</time>
      </trkpt>
      <trkpt lat="47.31537" lon="-2.25736">
        <ele>5.4000000953674</ele>
        <time>2020-06-25T08:42:07.000Z</time>
      </trkpt>
      <trkpt lat="47.31542" lon="-2.25765">
        <ele>5.4000000953674</ele>
        <time>2020-06-25T08:42:13.000Z</time>
      </trkpt>
      <trkpt lat="47.31548" lon="-2.25808">
        <ele>5.4000000953674</ele>
        <time>2020-06-25T08:42:20.000Z</time>
      </trkpt>
      <trkpt lat="47.31552" lon="-2.25846">
        <ele>5.4000000953674</ele>
        <time>2020-06-25T08:42:26.000Z</time>
      </trkpt>
      <trkpt lat="47.31552" lon="-2.25865">
        <ele>5.4000000953674</ele>
        <time>2020-06-25T08:42:29.000Z</time>
      </trkpt>
      <trkpt lat="47.31551" lon="-2.25872">
        <ele>5</ele>
        <time>2020-06-25T08:42:30.000Z</time>
      </trkpt>
      <trkpt lat="47.31549" lon="-2.25877">
        <ele>4.5999999046326</ele>
        <time>2020-06-25T08:42:31.000Z</time>
      </trkpt>
      <trkpt lat="47.31547" lon="-2.25882">
        <ele>4.1999998092651</ele>
        <time>2020-06-25T08:42:32.000Z</time>
      </trkpt>
      <trkpt lat="47.31545" lon="-2.25886">
        <ele>3.7999999523163</ele>
        <time>2020-06-25T08:42:33.000Z</time>
      </trkpt>
      <trkpt lat="47.31544" lon="-2.25889">
        <ele>3.4000000953674</ele>
        <time>2020-06-25T08:42:34.000Z</time>
      </trkpt>
      <trkpt lat="47.31543" lon="-2.2589">
        <ele>3.4000000953674</ele>
        <time>2020-06-25T08:42:35.000Z</time>
      </trkpt>
      <trkpt lat="47.31537" lon="-2.259">
        <ele>3.4000000953674</ele>
        <time>2020-06-25T08:42:42.000Z</time>
      </trkpt>
      <trkpt lat="47.31533" lon="-2.25914">
        <ele>3.4000000953674</ele>
        <time>2020-06-25T08:42:48.000Z</time>
      </trkpt>
      <trkpt lat="47.3154" lon="-2.25924">
        <ele>3.4000000953674</ele>
        <time>2020-06-25T08:42:53.000Z</time>
      </trkpt>
      <trkpt lat="47.31543" lon="-2.25927">
        <ele>3.4000000953674</ele>
        <time>2020-06-25T08:42:57.000Z</time>
      </trkpt>
      <trkpt lat="47.31536" lon="-2.25922">
        <ele>3.4000000953674</ele>
        <time>2020-06-25T08:54:29.000Z</time>
      </trkpt>
      <trkpt lat="47.31526" lon="-2.25926">
        <ele>3.4000000953674</ele>
        <time>2020-06-25T08:54:34.000Z</time>
      </trkpt>
      <trkpt lat="47.31511" lon="-2.25948">
        <ele>3.4000000953674</ele>
        <time>2020-06-25T08:54:40.000Z</time>
      </trkpt>
      <trkpt lat="47.31509" lon="-2.25953">
        <ele>3.7999999523163</ele>
        <time>2020-06-25T08:54:41.000Z</time>
      </trkpt>
      <trkpt lat="47.31506" lon="-2.25957">
        <ele>4.1999998092651</ele>
        <time>2020-06-25T08:54:42.000Z</time>
      </trkpt>
      <trkpt lat="47.31504" lon="-2.25962">
        <ele>4.8000001907349</ele>
        <time>2020-06-25T08:54:43.000Z</time>
      </trkpt>
      <trkpt lat="47.31501" lon="-2.25967">
        <ele>5.1999998092651</ele>
        <time>2020-06-25T08:54:44.000Z</time>
      </trkpt>
      <trkpt lat="47.31498" lon="-2.25972">
        <ele>5.5999999046326</ele>
        <time>2020-06-25T08:54:45.000Z</time>
      </trkpt>
      <trkpt lat="47.31491" lon="-2.25987">
        <ele>5.5999999046326</ele>
        <time>2020-06-25T08:54:48.000Z</time>
      </trkpt>
      <trkpt lat="47.31468" lon="-2.26028">
        <ele>5.5999999046326</ele>
        <time>2020-06-25T08:54:56.000Z</time>
      </trkpt>
      <trkpt lat="47.31443" lon="-2.26068">
        <ele>5.5999999046326</ele>
        <time>2020-06-25T08:55:04.000Z</time>
      </trkpt>
      <trkpt lat="47.31425" lon="-2.26106">
        <ele>5.5999999046326</ele>
        <time>2020-06-25T08:55:10.000Z</time>
      </trkpt>
      <trkpt lat="47.31422" lon="-2.26113">
        <ele>5.5999999046326</ele>
        <time>2020-06-25T08:55:11.000Z</time>
      </trkpt>
      <trkpt lat="47.31408" lon="-2.26133">
        <ele>5.5999999046326</ele>
        <time>2020-06-25T08:55:15.000Z</time>
      </trkpt>
      <trkpt lat="47.3138" lon="-2.26156">
        <ele>5.5999999046326</ele>
        <time>2020-06-25T08:55:21.000Z</time>
      </trkpt>
      <trkpt lat="47.31375" lon="-2.26158">
        <ele>5.5999999046326</ele>
        <time>2020-06-25T08:55:22.000Z</time>
      </trkpt>
      <trkpt lat="47.3136" lon="-2.26157">
        <ele>5.5999999046326</ele>
        <time>2020-06-25T08:55:25.000Z</time>
      </trkpt>
      <trkpt lat="47.31349" lon="-2.26154">
        <ele>5.5999999046326</ele>
        <time>2020-06-25T08:55:27.000Z</time>
      </trkpt>
      <trkpt lat="47.31295" lon="-2.26133">
        <ele>5.5999999046326</ele>
        <time>2020-06-25T08:55:37.000Z</time>
      </trkpt>
      <trkpt lat="47.31289" lon="-2.2613">
        <ele>5.5999999046326</ele>
        <time>2020-06-25T08:55:38.000Z</time>
      </trkpt>
      <trkpt lat="47.31239" lon="-2.26102">
        <ele>5.5999999046326</ele>
        <time>2020-06-25T08:55:47.000Z</time>
      </trkpt>
      <trkpt lat="47.31203" lon="-2.26079">
        <ele>5.5999999046326</ele>
        <time>2020-06-25T08:55:54.000Z</time>
      </trkpt>
      <trkpt lat="47.31172" lon="-2.26061">
        <ele>5.5999999046326</ele>
        <time>2020-06-25T08:56:01.000Z</time>
      </trkpt>
      <trkpt lat="47.31168" lon="-2.26068">
        <ele>5.5999999046326</ele>
        <time>2020-06-25T08:56:04.000Z</time>
      </trkpt>
      <trkpt lat="47.31168" lon="-2.26072">
        <ele>5.5999999046326</ele>
        <time>2020-06-25T08:56:05.000Z</time>
      </trkpt>
      <trkpt lat="47.31168" lon="-2.2609">
        <ele>5.5999999046326</ele>
        <time>2020-06-25T08:56:08.000Z</time>
      </trkpt>
      <trkpt lat="47.31166" lon="-2.26101">
        <ele>5.5999999046326</ele>
        <time>2020-06-25T08:56:11.000Z</time>
      </trkpt>
      <trkpt lat="47.31164" lon="-2.26105">
        <ele>5.5999999046326</ele>
        <time>2020-06-25T08:56:14.000Z</time>
      </trkpt>
      <trkpt lat="47.31164" lon="-2.26102">
        <ele>5.5999999046326</ele>
        <time>2020-06-25T08:56:34.000Z</time>
      </trkpt>
      <trkpt lat="47.31165" lon="-2.26099">
        <ele>5.5999999046326</ele>
        <time>2020-06-25T08:56:35.000Z</time>
      </trkpt>
      <trkpt lat="47.31167" lon="-2.26079">
        <ele>5.5999999046326</ele>
        <time>2020-06-25T08:56:40.000Z</time>
      </trkpt>
      <trkpt lat="47.31164" lon="-2.26054">
        <ele>5.5999999046326</ele>
        <time>2020-06-25T08:56:45.000Z</time>
      </trkpt>
      <trkpt lat="47.31157" lon="-2.26047">
        <ele>5.5999999046326</ele>
        <time>2020-06-25T08:56:47.000Z</time>
      </trkpt>
      <trkpt lat="47.3115" lon="-2.26042">
        <ele>5.5999999046326</ele>
        <time>2020-06-25T08:56:49.000Z</time>
      </trkpt>
      <trkpt lat="47.31122" lon="-2.26026">
        <ele>6</ele>
        <time>2020-06-25T08:56:56.000Z</time>
      </trkpt>
      <trkpt lat="47.31118" lon="-2.26024">
        <ele>6.4000000953674</ele>
        <time>2020-06-25T08:56:57.000Z</time>
      </trkpt>
      <trkpt lat="47.31114" lon="-2.26021">
        <ele>6.8000001907349</ele>
        <time>2020-06-25T08:56:58.000Z</time>
      </trkpt>
      <trkpt lat="47.31109" lon="-2.26018">
        <ele>7.1999998092651</ele>
        <time>2020-06-25T08:56:59.000Z</time>
      </trkpt>
      <trkpt lat="47.31105" lon="-2.26015">
        <ele>7.5999999046326</ele>
        <time>2020-06-25T08:57:00.000Z</time>
      </trkpt>
      <trkpt lat="47.31087" lon="-2.26008">
        <ele>7.5999999046326</ele>
        <time>2020-06-25T08:57:04.000Z</time>
      </trkpt>
      <trkpt lat="47.31072" lon="-2.26015">
        <ele>7.5999999046326</ele>
        <time>2020-06-25T08:57:08.000Z</time>
      </trkpt>
      <trkpt lat="47.31068" lon="-2.26018">
        <ele>7.5999999046326</ele>
        <time>2020-06-25T08:57:09.000Z</time>
      </trkpt>
      <trkpt lat="47.31054" lon="-2.26043">
        <ele>7.5999999046326</ele>
        <time>2020-06-25T08:57:14.000Z</time>
      </trkpt>
      <trkpt lat="47.31051" lon="-2.2605">
        <ele>7.5999999046326</ele>
        <time>2020-06-25T08:57:15.000Z</time>
      </trkpt>
      <trkpt lat="47.31045" lon="-2.2608">
        <ele>7.5999999046326</ele>
        <time>2020-06-25T08:57:19.000Z</time>
      </trkpt>
      <trkpt lat="47.31034" lon="-2.26152">
        <ele>7.5999999046326</ele>
        <time>2020-06-25T08:57:28.000Z</time>
      </trkpt>
      <trkpt lat="47.31025" lon="-2.26217">
        <ele>7.5999999046326</ele>
        <time>2020-06-25T08:57:36.000Z</time>
      </trkpt>
      <trkpt lat="47.31019" lon="-2.26257">
        <ele>7.5999999046326</ele>
        <time>2020-06-25T08:57:42.000Z</time>
      </trkpt>
      <trkpt lat="47.31017" lon="-2.26274">
        <ele>7.5999999046326</ele>
        <time>2020-06-25T08:57:47.000Z</time>
      </trkpt>
      <trkpt lat="47.31013" lon="-2.26297">
        <ele>7.5999999046326</ele>
        <time>2020-06-25T08:57:52.000Z</time>
      </trkpt>
      <trkpt lat="47.31008" lon="-2.26329">
        <ele>7.5999999046326</ele>
        <time>2020-06-25T08:57:57.000Z</time>
      </trkpt>
      <trkpt lat="47.31006" lon="-2.26336">
        <ele>7.5999999046326</ele>
        <time>2020-06-25T08:57:58.000Z</time>
      </trkpt>
      <trkpt lat="47.30997" lon="-2.26385">
        <ele>7.5999999046326</ele>
        <time>2020-06-25T08:58:05.000Z</time>
      </trkpt>
      <trkpt lat="47.30988" lon="-2.26431">
        <ele>7.5999999046326</ele>
        <time>2020-06-25T08:58:12.000Z</time>
      </trkpt>
      <trkpt lat="47.30979" lon="-2.26484">
        <ele>7.5999999046326</ele>
        <time>2020-06-25T08:58:19.000Z</time>
      </trkpt>
      <trkpt lat="47.30966" lon="-2.26557">
        <ele>7.5999999046326</ele>
        <time>2020-06-25T08:58:28.000Z</time>
      </trkpt>
      <trkpt lat="47.30953" lon="-2.26626">
        <ele>7.5999999046326</ele>
        <time>2020-06-25T08:58:36.000Z</time>
      </trkpt>
      <trkpt lat="47.3094" lon="-2.26696">
        <ele>7.5999999046326</ele>
        <time>2020-06-25T08:58:44.000Z</time>
      </trkpt>
      <trkpt lat="47.30926" lon="-2.26774">
        <ele>7.5999999046326</ele>
        <time>2020-06-25T08:58:53.000Z</time>
      </trkpt>
      <trkpt lat="47.30913" lon="-2.26841">
        <ele>7.5999999046326</ele>
        <time>2020-06-25T08:59:01.000Z</time>
      </trkpt>
      <trkpt lat="47.309" lon="-2.26887">
        <ele>7.5999999046326</ele>
        <time>2020-06-25T08:59:07.000Z</time>
      </trkpt>
      <trkpt lat="47.30897" lon="-2.26894">
        <ele>7.5999999046326</ele>
        <time>2020-06-25T08:59:08.000Z</time>
      </trkpt>
      <trkpt lat="47.30896" lon="-2.26901">
        <ele>7.5999999046326</ele>
        <time>2020-06-25T08:59:09.000Z</time>
      </trkpt>
      <trkpt lat="47.30897" lon="-2.26916">
        <ele>7.5999999046326</ele>
        <time>2020-06-25T08:59:11.000Z</time>
      </trkpt>
      <trkpt lat="47.30911" lon="-2.26927">
        <ele>7.5999999046326</ele>
        <time>2020-06-25T08:59:14.000Z</time>
      </trkpt>
      <trkpt lat="47.30917" lon="-2.26931">
        <ele>7.1999998092651</ele>
        <time>2020-06-25T08:59:15.000Z</time>
      </trkpt>
      <trkpt lat="47.30922" lon="-2.26934">
        <ele>6.4000000953674</ele>
        <time>2020-06-25T08:59:16.000Z</time>
      </trkpt>
      <trkpt lat="47.30927" lon="-2.26937">
        <ele>6</ele>
        <time>2020-06-25T08:59:17.000Z</time>
      </trkpt>
      <trkpt lat="47.30933" lon="-2.26941">
        <ele>5.5999999046326</ele>
        <time>2020-06-25T08:59:18.000Z</time>
      </trkpt>
      <trkpt lat="47.30955" lon="-2.26955">
        <ele>5.5999999046326</ele>
        <time>2020-06-25T08:59:22.000Z</time>
      </trkpt>
      <trkpt lat="47.30983" lon="-2.26976">
        <ele>5.5999999046326</ele>
        <time>2020-06-25T08:59:27.000Z</time>
      </trkpt>
      <trkpt lat="47.30988" lon="-2.26982">
        <ele>5.5999999046326</ele>
        <time>2020-06-25T08:59:28.000Z</time>
      </trkpt>
      <trkpt lat="47.30992" lon="-2.26988">
        <ele>5.5999999046326</ele>
        <time>2020-06-25T08:59:29.000Z</time>
      </trkpt>
      <trkpt lat="47.30998" lon="-2.27014">
        <ele>5.5999999046326</ele>
        <time>2020-06-25T08:59:32.000Z</time>
      </trkpt>
      <trkpt lat="47.30999" lon="-2.2703">
        <ele>5.5999999046326</ele>
        <time>2020-06-25T08:59:34.000Z</time>
      </trkpt>
      <trkpt lat="47.30999" lon="-2.27039">
        <ele>5.5999999046326</ele>
        <time>2020-06-25T08:59:35.000Z</time>
      </trkpt>
      <trkpt lat="47.31" lon="-2.27057">
        <ele>5.5999999046326</ele>
        <time>2020-06-25T08:59:37.000Z</time>
      </trkpt>
      <trkpt lat="47.31" lon="-2.27066">
        <ele>6</ele>
        <time>2020-06-25T08:59:38.000Z</time>
      </trkpt>
      <trkpt lat="47.31001" lon="-2.27075">
        <ele>6.5999999046326</ele>
        <time>2020-06-25T08:59:39.000Z</time>
      </trkpt>
      <trkpt lat="47.31001" lon="-2.27083">
        <ele>7</ele>
        <time>2020-06-25T08:59:40.000Z</time>
      </trkpt>
      <trkpt lat="47.31" lon="-2.27092">
        <ele>8</ele>
        <time>2020-06-25T08:59:41.000Z</time>
      </trkpt>
      <trkpt lat="47.31" lon="-2.27117">
        <ele>8.3999996185303</ele>
        <time>2020-06-25T08:59:44.000Z</time>
      </trkpt>
      <trkpt lat="47.31001" lon="-2.27126">
        <ele>8.8000001907349</ele>
        <time>2020-06-25T08:59:45.000Z</time>
      </trkpt>
      <trkpt lat="47.31002" lon="-2.27135">
        <ele>9.1999998092651</ele>
        <time>2020-06-25T08:59:46.000Z</time>
      </trkpt>
      <trkpt lat="47.31003" lon="-2.27144">
        <ele>9.8000001907349</ele>
        <time>2020-06-25T08:59:47.000Z</time>
      </trkpt>
      <trkpt lat="47.31003" lon="-2.27152">
        <ele>10.199999809265</ele>
        <time>2020-06-25T08:59:48.000Z</time>
      </trkpt>
      <trkpt lat="47.31004" lon="-2.2716">
        <ele>10.199999809265</ele>
        <time>2020-06-25T08:59:49.000Z</time>
      </trkpt>
      <trkpt lat="47.31009" lon="-2.27217">
        <ele>10.199999809265</ele>
        <time>2020-06-25T08:59:56.000Z</time>
      </trkpt>
      <trkpt lat="47.31023" lon="-2.27243">
        <ele>10.199999809265</ele>
        <time>2020-06-25T09:00:00.000Z</time>
      </trkpt>
      <trkpt lat="47.31046" lon="-2.27254">
        <ele>10.199999809265</ele>
        <time>2020-06-25T09:00:04.000Z</time>
      </trkpt>
      <trkpt lat="47.31066" lon="-2.27249">
        <ele>10.199999809265</ele>
        <time>2020-06-25T09:00:07.000Z</time>
      </trkpt>
      <trkpt lat="47.31072" lon="-2.27247">
        <ele>10.199999809265</ele>
        <time>2020-06-25T09:00:08.000Z</time>
      </trkpt>
      <trkpt lat="47.31117" lon="-2.27232">
        <ele>10.199999809265</ele>
        <time>2020-06-25T09:00:15.000Z</time>
      </trkpt>
      <trkpt lat="47.31135" lon="-2.27222">
        <ele>10.199999809265</ele>
        <time>2020-06-25T09:00:18.000Z</time>
      </trkpt>
      <trkpt lat="47.31152" lon="-2.2721">
        <ele>10.199999809265</ele>
        <time>2020-06-25T09:00:21.000Z</time>
      </trkpt>
      <trkpt lat="47.31179" lon="-2.27181">
        <ele>10.199999809265</ele>
        <time>2020-06-25T09:00:26.000Z</time>
      </trkpt>
      <trkpt lat="47.3122" lon="-2.27139">
        <ele>10.199999809265</ele>
        <time>2020-06-25T09:00:33.000Z</time>
      </trkpt>
      <trkpt lat="47.31272" lon="-2.27101">
        <ele>10.199999809265</ele>
        <time>2020-06-25T09:00:41.000Z</time>
      </trkpt>
      <trkpt lat="47.31316" lon="-2.27078">
        <ele>10.199999809265</ele>
        <time>2020-06-25T09:00:48.000Z</time>
      </trkpt>
      <trkpt lat="47.3137" lon="-2.27061">
        <ele>10.199999809265</ele>
        <time>2020-06-25T09:00:56.000Z</time>
      </trkpt>
      <trkpt lat="47.31377" lon="-2.27058">
        <ele>10.199999809265</ele>
        <time>2020-06-25T09:00:57.000Z</time>
      </trkpt>
      <trkpt lat="47.31421" lon="-2.27031">
        <ele>10.199999809265</ele>
        <time>2020-06-25T09:01:04.000Z</time>
      </trkpt>
      <trkpt lat="47.31447" lon="-2.27011">
        <ele>9.6000003814697</ele>
        <time>2020-06-25T09:01:09.000Z</time>
      </trkpt>
      <trkpt lat="47.31452" lon="-2.27007">
        <ele>9.1999998092651</ele>
        <time>2020-06-25T09:01:10.000Z</time>
      </trkpt>
      <trkpt lat="47.31457" lon="-2.27003">
        <ele>8.8000001907349</ele>
        <time>2020-06-25T09:01:11.000Z</time>
      </trkpt>
      <trkpt lat="47.31462" lon="-2.26999">
        <ele>8.1999998092651</ele>
        <time>2020-06-25T09:01:12.000Z</time>
      </trkpt>
      <trkpt lat="47.31467" lon="-2.26995">
        <ele>7.8000001907349</ele>
        <time>2020-06-25T09:01:13.000Z</time>
      </trkpt>
      <trkpt lat="47.31481" lon="-2.26986">
        <ele>7.8000001907349</ele>
        <time>2020-06-25T09:01:16.000Z</time>
      </trkpt>
      <trkpt lat="47.3149" lon="-2.26978">
        <ele>7.8000001907349</ele>
        <time>2020-06-25T09:01:18.000Z</time>
      </trkpt>
      <trkpt lat="47.31494" lon="-2.26966">
        <ele>7.8000001907349</ele>
        <time>2020-06-25T09:01:20.000Z</time>
      </trkpt>
      <trkpt lat="47.31498" lon="-2.26952">
        <ele>7.8000001907349</ele>
        <time>2020-06-25T09:01:22.000Z</time>
      </trkpt>
      <trkpt lat="47.31504" lon="-2.26929">
        <ele>7.8000001907349</ele>
        <time>2020-06-25T09:01:25.000Z</time>
      </trkpt>
      <trkpt lat="47.31515" lon="-2.26884">
        <ele>7.8000001907349</ele>
        <time>2020-06-25T09:01:31.000Z</time>
      </trkpt>
      <trkpt lat="47.31524" lon="-2.26859">
        <ele>7.4000000953674</ele>
        <time>2020-06-25T09:01:34.000Z</time>
      </trkpt>
      <trkpt lat="47.31529" lon="-2.26851">
        <ele>7</ele>
        <time>2020-06-25T09:01:35.000Z</time>
      </trkpt>
      <trkpt lat="47.31532" lon="-2.26843">
        <ele>6.5999999046326</ele>
        <time>2020-06-25T09:01:36.000Z</time>
      </trkpt>
      <trkpt lat="47.31536" lon="-2.26835">
        <ele>6.1999998092651</ele>
        <time>2020-06-25T09:01:37.000Z</time>
      </trkpt>
      <trkpt lat="47.31538" lon="-2.26828">
        <ele>5.8000001907349</ele>
        <time>2020-06-25T09:01:38.000Z</time>
      </trkpt>
      <trkpt lat="47.31547" lon="-2.26808">
        <ele>5.8000001907349</ele>
        <time>2020-06-25T09:01:41.000Z</time>
      </trkpt>
      <trkpt lat="47.31564" lon="-2.26769">
        <ele>5.8000001907349</ele>
        <time>2020-06-25T09:01:47.000Z</time>
      </trkpt>
      <trkpt lat="47.31569" lon="-2.26765">
        <ele>5.8000001907349</ele>
        <time>2020-06-25T09:01:48.000Z</time>
      </trkpt>
      <trkpt lat="47.31579" lon="-2.2676">
        <ele>5.8000001907349</ele>
        <time>2020-06-25T09:01:50.000Z</time>
      </trkpt>
      <trkpt lat="47.31595" lon="-2.2676">
        <ele>5.8000001907349</ele>
        <time>2020-06-25T09:01:53.000Z</time>
      </trkpt>
      <trkpt lat="47.31607" lon="-2.26759">
        <ele>5.8000001907349</ele>
        <time>2020-06-25T09:01:55.000Z</time>
      </trkpt>
      <trkpt lat="47.31618" lon="-2.26757">
        <ele>5.8000001907349</ele>
        <time>2020-06-25T09:01:57.000Z</time>
      </trkpt>
      <trkpt lat="47.31632" lon="-2.26746">
        <ele>5.8000001907349</ele>
        <time>2020-06-25T09:02:00.000Z</time>
      </trkpt>
      <trkpt lat="47.31636" lon="-2.26741">
        <ele>5.8000001907349</ele>
        <time>2020-06-25T09:02:01.000Z</time>
      </trkpt>
      <trkpt lat="47.31644" lon="-2.26734">
        <ele>5.8000001907349</ele>
        <time>2020-06-25T09:02:03.000Z</time>
      </trkpt>
      <trkpt lat="47.31658" lon="-2.26728">
        <ele>5.8000001907349</ele>
        <time>2020-06-25T09:02:06.000Z</time>
      </trkpt>
      <trkpt lat="47.31662" lon="-2.26727">
        <ele>5.8000001907349</ele>
        <time>2020-06-25T09:02:07.000Z</time>
      </trkpt>
      <trkpt lat="47.31682" lon="-2.26722">
        <ele>5.8000001907349</ele>
        <time>2020-06-25T09:02:11.000Z</time>
      </trkpt>
      <trkpt lat="47.31692" lon="-2.2672">
        <ele>5.8000001907349</ele>
        <time>2020-06-25T09:02:13.000Z</time>
      </trkpt>
      <trkpt lat="47.31716" lon="-2.26717">
        <ele>5.8000001907349</ele>
        <time>2020-06-25T09:02:17.000Z</time>
      </trkpt>
      <trkpt lat="47.31743" lon="-2.26712">
        <ele>6.1999998092651</ele>
        <time>2020-06-25T09:02:22.000Z</time>
      </trkpt>
      <trkpt lat="47.31748" lon="-2.2671">
        <ele>6.5999999046326</ele>
        <time>2020-06-25T09:02:23.000Z</time>
      </trkpt>
      <trkpt lat="47.31753" lon="-2.26708">
        <ele>7</ele>
        <time>2020-06-25T09:02:24.000Z</time>
      </trkpt>
      <trkpt lat="47.31757" lon="-2.26707">
        <ele>7.4000000953674</ele>
        <time>2020-06-25T09:02:25.000Z</time>
      </trkpt>
      <trkpt lat="47.31762" lon="-2.26705">
        <ele>7.8000001907349</ele>
        <time>2020-06-25T09:02:26.000Z</time>
      </trkpt>
      <trkpt lat="47.31787" lon="-2.26698">
        <ele>7.8000001907349</ele>
        <time>2020-06-25T09:02:31.000Z</time>
      </trkpt>
      <trkpt lat="47.31796" lon="-2.26697">
        <ele>7.8000001907349</ele>
        <time>2020-06-25T09:02:33.000Z</time>
      </trkpt>
      <trkpt lat="47.318" lon="-2.26697">
        <ele>8.1999998092651</ele>
        <time>2020-06-25T09:02:34.000Z</time>
      </trkpt>
      <trkpt lat="47.31804" lon="-2.26701">
        <ele>8.6000003814697</ele>
        <time>2020-06-25T09:02:35.000Z</time>
      </trkpt>
      <trkpt lat="47.31807" lon="-2.26705">
        <ele>9</ele>
        <time>2020-06-25T09:02:36.000Z</time>
      </trkpt>
      <trkpt lat="47.3181" lon="-2.2671">
        <ele>9.3999996185303</ele>
        <time>2020-06-25T09:02:37.000Z</time>
      </trkpt>
      <trkpt lat="47.31812" lon="-2.26716">
        <ele>9.8000001907349</ele>
        <time>2020-06-25T09:02:38.000Z</time>
      </trkpt>
      <trkpt lat="47.31815" lon="-2.26723">
        <ele>9.8000001907349</ele>
        <time>2020-06-25T09:02:39.000Z</time>
      </trkpt>
      <trkpt lat="47.31819" lon="-2.26729">
        <ele>9.8000001907349</ele>
        <time>2020-06-25T09:02:40.000Z</time>
      </trkpt>
      <trkpt lat="47.31833" lon="-2.2674">
        <ele>9.8000001907349</ele>
        <time>2020-06-25T09:02:43.000Z</time>
      </trkpt>
      <trkpt lat="47.31856" lon="-2.26736">
        <ele>9.8000001907349</ele>
        <time>2020-06-25T09:02:47.000Z</time>
      </trkpt>
      <trkpt lat="47.31866" lon="-2.2673">
        <ele>9.8000001907349</ele>
        <time>2020-06-25T09:02:49.000Z</time>
      </trkpt>
      <trkpt lat="47.31877" lon="-2.26722">
        <ele>9.8000001907349</ele>
        <time>2020-06-25T09:02:51.000Z</time>
      </trkpt>
      <trkpt lat="47.31893" lon="-2.26709">
        <ele>10.199999809265</ele>
        <time>2020-06-25T09:02:54.000Z</time>
      </trkpt>
      <trkpt lat="47.31898" lon="-2.26704">
        <ele>10.60000038147</ele>
        <time>2020-06-25T09:02:55.000Z</time>
      </trkpt>
      <trkpt lat="47.31904" lon="-2.26699">
        <ele>11</ele>
        <time>2020-06-25T09:02:56.000Z</time>
      </trkpt>
      <trkpt lat="47.31908" lon="-2.26694">
        <ele>11.39999961853</ele>
        <time>2020-06-25T09:02:57.000Z</time>
      </trkpt>
      <trkpt lat="47.31913" lon="-2.2669">
        <ele>11.800000190735</ele>
        <time>2020-06-25T09:02:58.000Z</time>
      </trkpt>
      <trkpt lat="47.31924" lon="-2.26681">
        <ele>11.800000190735</ele>
        <time>2020-06-25T09:03:00.000Z</time>
      </trkpt>
      <trkpt lat="47.31959" lon="-2.26653">
        <ele>11.800000190735</ele>
        <time>2020-06-25T09:03:06.000Z</time>
      </trkpt>
      <trkpt lat="47.32006" lon="-2.26622">
        <ele>11.800000190735</ele>
        <time>2020-06-25T09:03:13.000Z</time>
      </trkpt>
      <trkpt lat="47.32053" lon="-2.26594">
        <ele>11.800000190735</ele>
        <time>2020-06-25T09:03:20.000Z</time>
      </trkpt>
      <trkpt lat="47.32059" lon="-2.26591">
        <ele>11.39999961853</ele>
        <time>2020-06-25T09:03:21.000Z</time>
      </trkpt>
      <trkpt lat="47.32065" lon="-2.26588">
        <ele>10.60000038147</ele>
        <time>2020-06-25T09:03:22.000Z</time>
      </trkpt>
      <trkpt lat="47.32072" lon="-2.26586">
        <ele>10.199999809265</ele>
        <time>2020-06-25T09:03:23.000Z</time>
      </trkpt>
      <trkpt lat="47.32079" lon="-2.26585">
        <ele>9.6000003814697</ele>
        <time>2020-06-25T09:03:24.000Z</time>
      </trkpt>
      <trkpt lat="47.32086" lon="-2.26585">
        <ele>9.6000003814697</ele>
        <time>2020-06-25T09:03:25.000Z</time>
      </trkpt>
      <trkpt lat="47.32111" lon="-2.26589">
        <ele>9.6000003814697</ele>
        <time>2020-06-25T09:03:29.000Z</time>
      </trkpt>
      <trkpt lat="47.32117" lon="-2.26591">
        <ele>9.6000003814697</ele>
        <time>2020-06-25T09:03:30.000Z</time>
      </trkpt>
      <trkpt lat="47.32163" lon="-2.26608">
        <ele>9.6000003814697</ele>
        <time>2020-06-25T09:03:37.000Z</time>
      </trkpt>
      <trkpt lat="47.32208" lon="-2.26609">
        <ele>9.6000003814697</ele>
        <time>2020-06-25T09:03:43.000Z</time>
      </trkpt>
      <trkpt lat="47.32269" lon="-2.26605">
        <ele>9.6000003814697</ele>
        <time>2020-06-25T09:03:51.000Z</time>
      </trkpt>
      <trkpt lat="47.32285" lon="-2.26603">
        <ele>9.6000003814697</ele>
        <time>2020-06-25T09:03:53.000Z</time>
      </trkpt>
      <trkpt lat="47.32299" lon="-2.26593">
        <ele>9.6000003814697</ele>
        <time>2020-06-25T09:03:55.000Z</time>
      </trkpt>
      <trkpt lat="47.32316" lon="-2.26571">
        <ele>9.6000003814697</ele>
        <time>2020-06-25T09:03:58.000Z</time>
      </trkpt>
      <trkpt lat="47.32321" lon="-2.26564">
        <ele>9.6000003814697</ele>
        <time>2020-06-25T09:03:59.000Z</time>
      </trkpt>
      <trkpt lat="47.32327" lon="-2.26557">
        <ele>9.1999998092651</ele>
        <time>2020-06-25T09:04:00.000Z</time>
      </trkpt>
      <trkpt lat="47.32333" lon="-2.2655">
        <ele>8.8000001907349</ele>
        <time>2020-06-25T09:04:01.000Z</time>
      </trkpt>
      <trkpt lat="47.32339" lon="-2.26544">
        <ele>8.3999996185303</ele>
        <time>2020-06-25T09:04:02.000Z</time>
      </trkpt>
      <trkpt lat="47.32346" lon="-2.26539">
        <ele>7.8000001907349</ele>
        <time>2020-06-25T09:04:03.000Z</time>
      </trkpt>
      <trkpt lat="47.32353" lon="-2.26536">
        <ele>7.4000000953674</ele>
        <time>2020-06-25T09:04:04.000Z</time>
      </trkpt>
      <trkpt lat="47.32374" lon="-2.26528">
        <ele>7.4000000953674</ele>
        <time>2020-06-25T09:04:07.000Z</time>
      </trkpt>
      <trkpt lat="47.32389" lon="-2.26528">
        <ele>7.4000000953674</ele>
        <time>2020-06-25T09:04:09.000Z</time>
      </trkpt>
      <trkpt lat="47.32419" lon="-2.26523">
        <ele>7.4000000953674</ele>
        <time>2020-06-25T09:04:13.000Z</time>
      </trkpt>
      <trkpt lat="47.32425" lon="-2.2652">
        <ele>7.4000000953674</ele>
        <time>2020-06-25T09:04:14.000Z</time>
      </trkpt>
      <trkpt lat="47.32466" lon="-2.26501">
        <ele>7.4000000953674</ele>
        <time>2020-06-25T09:04:20.000Z</time>
      </trkpt>
      <trkpt lat="47.32508" lon="-2.26481">
        <ele>7.4000000953674</ele>
        <time>2020-06-25T09:04:26.000Z</time>
      </trkpt>
      <trkpt lat="47.32554" lon="-2.26459">
        <ele>7.4000000953674</ele>
        <time>2020-06-25T09:04:33.000Z</time>
      </trkpt>
      <trkpt lat="47.32593" lon="-2.26445">
        <ele>7.4000000953674</ele>
        <time>2020-06-25T09:04:39.000Z</time>
      </trkpt>
      <trkpt lat="47.32615" lon="-2.26439">
        <ele>7</ele>
        <time>2020-06-25T09:04:44.000Z</time>
      </trkpt>
      <trkpt lat="47.32617" lon="-2.26438">
        <ele>6.4000000953674</ele>
        <time>2020-06-25T09:04:45.000Z</time>
      </trkpt>
      <trkpt lat="47.32619" lon="-2.26438">
        <ele>6</ele>
        <time>2020-06-25T09:04:46.000Z</time>
      </trkpt>
      <trkpt lat="47.3262" lon="-2.26438">
        <ele>5.4000000953674</ele>
        <time>2020-06-25T09:04:47.000Z</time>
      </trkpt>
      <trkpt lat="47.32621" lon="-2.26439">
        <ele>5</ele>
        <time>2020-06-25T09:04:48.000Z</time>
      </trkpt>
      <trkpt lat="47.32621" lon="-2.26439">
        <ele>5</ele>
        <time>2020-06-25T09:04:49.000Z</time>
      </trkpt>
      <trkpt lat="47.32628" lon="-2.26443">
        <ele>5</ele>
        <time>2020-06-25T09:05:02.000Z</time>
      </trkpt>
      <trkpt lat="47.32628" lon="-2.26448">
        <ele>5</ele>
        <time>2020-06-25T09:05:04.000Z</time>
      </trkpt>
      <trkpt lat="47.32621" lon="-2.26465">
        <ele>5</ele>
        <time>2020-06-25T09:05:09.000Z</time>
      </trkpt>
      <trkpt lat="47.32609" lon="-2.26494">
        <ele>5</ele>
        <time>2020-06-25T09:05:16.000Z</time>
      </trkpt>
      <trkpt lat="47.32595" lon="-2.26533">
        <ele>5</ele>
        <time>2020-06-25T09:05:24.000Z</time>
      </trkpt>
      <trkpt lat="47.3258" lon="-2.26571">
        <ele>5</ele>
        <time>2020-06-25T09:05:31.000Z</time>
      </trkpt>
      <trkpt lat="47.32565" lon="-2.26617">
        <ele>5</ele>
        <time>2020-06-25T09:05:39.000Z</time>
      </trkpt>
      <trkpt lat="47.32549" lon="-2.26664">
        <ele>5</ele>
        <time>2020-06-25T09:05:46.000Z</time>
      </trkpt>
      <trkpt lat="47.32541" lon="-2.26707">
        <ele>5</ele>
        <time>2020-06-25T09:05:52.000Z</time>
      </trkpt>
      <trkpt lat="47.3254" lon="-2.26714">
        <ele>5</ele>
        <time>2020-06-25T09:05:53.000Z</time>
      </trkpt>
      <trkpt lat="47.32535" lon="-2.2674">
        <ele>5</ele>
        <time>2020-06-25T09:05:56.000Z</time>
      </trkpt>
      <trkpt lat="47.32531" lon="-2.26754">
        <ele>5</ele>
        <time>2020-06-25T09:05:58.000Z</time>
      </trkpt>
      <trkpt lat="47.3253" lon="-2.26762">
        <ele>5</ele>
        <time>2020-06-25T09:05:59.000Z</time>
      </trkpt>
      <trkpt lat="47.32526" lon="-2.26792">
        <ele>5</ele>
        <time>2020-06-25T09:06:03.000Z</time>
      </trkpt>
      <trkpt lat="47.32527" lon="-2.26828">
        <ele>5</ele>
        <time>2020-06-25T09:06:08.000Z</time>
      </trkpt>
      <trkpt lat="47.32528" lon="-2.26843">
        <ele>5</ele>
        <time>2020-06-25T09:06:10.000Z</time>
      </trkpt>
      <trkpt lat="47.32532" lon="-2.26866">
        <ele>5</ele>
        <time>2020-06-25T09:06:13.000Z</time>
      </trkpt>
      <trkpt lat="47.32536" lon="-2.2688">
        <ele>5</ele>
        <time>2020-06-25T09:06:15.000Z</time>
      </trkpt>
      <trkpt lat="47.3254" lon="-2.26891">
        <ele>5</ele>
        <time>2020-06-25T09:06:17.000Z</time>
      </trkpt>
      <trkpt lat="47.32549" lon="-2.26909">
        <ele>5</ele>
        <time>2020-06-25T09:06:20.000Z</time>
      </trkpt>
      <trkpt lat="47.32572" lon="-2.26958">
        <ele>5</ele>
        <time>2020-06-25T09:06:28.000Z</time>
      </trkpt>
      <trkpt lat="47.32593" lon="-2.26999">
        <ele>5</ele>
        <time>2020-06-25T09:06:35.000Z</time>
      </trkpt>
      <trkpt lat="47.326" lon="-2.27009">
        <ele>5</ele>
        <time>2020-06-25T09:06:37.000Z</time>
      </trkpt>
      <trkpt lat="47.32606" lon="-2.27018">
        <ele>5</ele>
        <time>2020-06-25T09:06:39.000Z</time>
      </trkpt>
      <trkpt lat="47.32617" lon="-2.27035">
        <ele>5</ele>
        <time>2020-06-25T09:06:42.000Z</time>
      </trkpt>
      <trkpt lat="47.32623" lon="-2.2705">
        <ele>5</ele>
        <time>2020-06-25T09:06:44.000Z</time>
      </trkpt>
      <trkpt lat="47.32623" lon="-2.27066">
        <ele>5</ele>
        <time>2020-06-25T09:06:46.000Z</time>
      </trkpt>
      <trkpt lat="47.32614" lon="-2.27099">
        <ele>5</ele>
        <time>2020-06-25T09:06:51.000Z</time>
      </trkpt>
      <trkpt lat="47.32606" lon="-2.27124">
        <ele>5</ele>
        <time>2020-06-25T09:06:56.000Z</time>
      </trkpt>
      <trkpt lat="47.32602" lon="-2.27154">
        <ele>5</ele>
        <time>2020-06-25T09:07:02.000Z</time>
      </trkpt>
      <trkpt lat="47.32604" lon="-2.27174">
        <ele>5</ele>
        <time>2020-06-25T09:07:06.000Z</time>
      </trkpt>
      <trkpt lat="47.32606" lon="-2.27188">
        <ele>5</ele>
        <time>2020-06-25T09:07:10.000Z</time>
      </trkpt>
      <trkpt lat="47.32606" lon="-2.27215">
        <ele>5</ele>
        <time>2020-06-25T09:07:16.000Z</time>
      </trkpt>
      <trkpt lat="47.32606" lon="-2.2724">
        <ele>5</ele>
        <time>2020-06-25T09:07:22.000Z</time>
      </trkpt>
      <trkpt lat="47.32603" lon="-2.27275">
        <ele>5</ele>
        <time>2020-06-25T09:07:28.000Z</time>
      </trkpt>
      <trkpt lat="47.32599" lon="-2.27307">
        <ele>5</ele>
        <time>2020-06-25T09:07:33.000Z</time>
      </trkpt>
      <trkpt lat="47.32595" lon="-2.27345">
        <ele>5</ele>
        <time>2020-06-25T09:07:39.000Z</time>
      </trkpt>
      <trkpt lat="47.32594" lon="-2.2739">
        <ele>5</ele>
        <time>2020-06-25T09:07:46.000Z</time>
      </trkpt>
      <trkpt lat="47.32589" lon="-2.27438">
        <ele>5</ele>
        <time>2020-06-25T09:07:53.000Z</time>
      </trkpt>
      <trkpt lat="47.32582" lon="-2.2748">
        <ele>5</ele>
        <time>2020-06-25T09:07:59.000Z</time>
      </trkpt>
      <trkpt lat="47.32579" lon="-2.27487">
        <ele>5</ele>
        <time>2020-06-25T09:08:00.000Z</time>
      </trkpt>
      <trkpt lat="47.32574" lon="-2.27499">
        <ele>5</ele>
        <time>2020-06-25T09:08:02.000Z</time>
      </trkpt>
      <trkpt lat="47.32572" lon="-2.27504">
        <ele>5</ele>
        <time>2020-06-25T09:08:03.000Z</time>
      </trkpt>
      <trkpt lat="47.32561" lon="-2.27515">
        <ele>5</ele>
        <time>2020-06-25T09:08:06.000Z</time>
      </trkpt>
      <trkpt lat="47.32554" lon="-2.27523">
        <ele>5</ele>
        <time>2020-06-25T09:08:08.000Z</time>
      </trkpt>
      <trkpt lat="47.32535" lon="-2.27543">
        <ele>5</ele>
        <time>2020-06-25T09:08:13.000Z</time>
      </trkpt>
      <trkpt lat="47.32525" lon="-2.27551">
        <ele>5</ele>
        <time>2020-06-25T09:08:15.000Z</time>
      </trkpt>
      <trkpt lat="47.32501" lon="-2.27569">
        <ele>5</ele>
        <time>2020-06-25T09:08:21.000Z</time>
      </trkpt>
      <trkpt lat="47.32481" lon="-2.27572">
        <ele>5</ele>
        <time>2020-06-25T09:08:25.000Z</time>
      </trkpt>
      <trkpt lat="47.32475" lon="-2.27569">
        <ele>5</ele>
        <time>2020-06-25T09:08:26.000Z</time>
      </trkpt>
      <trkpt lat="47.32444" lon="-2.27555">
        <ele>5</ele>
        <time>2020-06-25T09:08:31.000Z</time>
      </trkpt>
      <trkpt lat="47.32429" lon="-2.27547">
        <ele>5</ele>
        <time>2020-06-25T09:08:34.000Z</time>
      </trkpt>
      <trkpt lat="47.3242" lon="-2.27547">
        <ele>5</ele>
        <time>2020-06-25T09:08:36.000Z</time>
      </trkpt>
      <trkpt lat="47.32409" lon="-2.27556">
        <ele>5</ele>
        <time>2020-06-25T09:08:40.000Z</time>
      </trkpt>
      <trkpt lat="47.32408" lon="-2.27574">
        <ele>5</ele>
        <time>2020-06-25T09:08:43.000Z</time>
      </trkpt>
      <trkpt lat="47.32411" lon="-2.27586">
        <ele>5</ele>
        <time>2020-06-25T09:08:45.000Z</time>
      </trkpt>
      <trkpt lat="47.32417" lon="-2.27602">
        <ele>5</ele>
        <time>2020-06-25T09:08:48.000Z</time>
      </trkpt>
      <trkpt lat="47.32429" lon="-2.27634">
        <ele>5</ele>
        <time>2020-06-25T09:08:54.000Z</time>
      </trkpt>
      <trkpt lat="47.32439" lon="-2.27663">
        <ele>5</ele>
        <time>2020-06-25T09:08:59.000Z</time>
      </trkpt>
      <trkpt lat="47.32439" lon="-2.27668">
        <ele>5</ele>
        <time>2020-06-25T09:09:00.000Z</time>
      </trkpt>
      <trkpt lat="47.32439" lon="-2.27682">
        <ele>5</ele>
        <time>2020-06-25T09:09:04.000Z</time>
      </trkpt>
      <trkpt lat="47.32439" lon="-2.27685">
        <ele>5</ele>
        <time>2020-06-25T09:09:05.000Z</time>
      </trkpt>
      <trkpt lat="47.32439" lon="-2.27696">
        <ele>5</ele>
        <time>2020-06-25T09:09:10.000Z</time>
      </trkpt>
      <trkpt lat="47.32438" lon="-2.27714">
        <ele>5</ele>
        <time>2020-06-25T09:09:15.000Z</time>
      </trkpt>
      <trkpt lat="47.32438" lon="-2.2774">
        <ele>5</ele>
        <time>2020-06-25T09:09:22.000Z</time>
      </trkpt>
      <trkpt lat="47.32438" lon="-2.27752">
        <ele>5</ele>
        <time>2020-06-25T09:09:28.000Z</time>
      </trkpt>
      <trkpt lat="47.32439" lon="-2.27768">
        <ele>5</ele>
        <time>2020-06-25T09:09:35.000Z</time>
      </trkpt>
      <trkpt lat="47.32444" lon="-2.27767">
        <ele>5</ele>
        <time>2020-06-25T09:09:39.000Z</time>
      </trkpt>
      <trkpt lat="47.32446" lon="-2.27768">
        <ele>5</ele>
        <time>2020-06-25T09:09:40.000Z</time>
      </trkpt>
      <trkpt lat="47.32454" lon="-2.27761">
        <ele>5</ele>
        <time>2020-06-25T09:09:45.000Z</time>
      </trkpt>
      <trkpt lat="47.32456" lon="-2.27762">
        <ele>5</ele>
        <time>2020-06-25T09:09:46.000Z</time>
      </trkpt>
      <trkpt lat="47.32463" lon="-2.27763">
        <ele>5</ele>
        <time>2020-06-25T09:09:49.000Z</time>
      </trkpt>
      <trkpt lat="47.32476" lon="-2.27757">
        <ele>5</ele>
        <time>2020-06-25T09:09:53.000Z</time>
      </trkpt>
      <trkpt lat="47.32486" lon="-2.27765">
        <ele>5</ele>
        <time>2020-06-25T09:09:56.000Z</time>
      </trkpt>
      <trkpt lat="47.32495" lon="-2.27776">
        <ele>5</ele>
        <time>2020-06-25T09:09:59.000Z</time>
      </trkpt>
      <trkpt lat="47.32503" lon="-2.27789">
        <ele>5</ele>
        <time>2020-06-25T09:10:02.000Z</time>
      </trkpt>
      <trkpt lat="47.32524" lon="-2.27822">
        <ele>5</ele>
        <time>2020-06-25T09:10:09.000Z</time>
      </trkpt>
      <trkpt lat="47.32533" lon="-2.27842">
        <ele>5</ele>
        <time>2020-06-25T09:10:14.000Z</time>
      </trkpt>
      <trkpt lat="47.32536" lon="-2.27849">
        <ele>5</ele>
        <time>2020-06-25T09:10:19.000Z</time>
      </trkpt>
      <trkpt lat="47.32537" lon="-2.27852">
        <ele>5</ele>
        <time>2020-06-25T09:10:36.000Z</time>
      </trkpt>
      <trkpt lat="47.3254" lon="-2.2786">
        <ele>5</ele>
        <time>2020-06-25T09:10:39.000Z</time>
      </trkpt>
      <trkpt lat="47.32543" lon="-2.27876">
        <ele>5</ele>
        <time>2020-06-25T09:10:44.000Z</time>
      </trkpt>
      <trkpt lat="47.32547" lon="-2.27898">
        <ele>5</ele>
        <time>2020-06-25T09:10:48.000Z</time>
      </trkpt>
      <trkpt lat="47.32549" lon="-2.27905">
        <ele>5</ele>
        <time>2020-06-25T09:10:49.000Z</time>
      </trkpt>
      <trkpt lat="47.32553" lon="-2.27929">
        <ele>5</ele>
        <time>2020-06-25T09:10:53.000Z</time>
      </trkpt>
      <trkpt lat="47.32555" lon="-2.2794">
        <ele>5</ele>
        <time>2020-06-25T09:10:55.000Z</time>
      </trkpt>
      <trkpt lat="47.32555" lon="-2.27949">
        <ele>5</ele>
        <time>2020-06-25T09:10:57.000Z</time>
      </trkpt>
      <trkpt lat="47.32558" lon="-2.27958">
        <ele>5</ele>
        <time>2020-06-25T09:11:00.000Z</time>
      </trkpt>
      <trkpt lat="47.32564" lon="-2.27974">
        <ele>5</ele>
        <time>2020-06-25T09:11:06.000Z</time>
      </trkpt>
      <trkpt lat="47.32565" lon="-2.27993">
        <ele>5</ele>
        <time>2020-06-25T09:11:10.000Z</time>
      </trkpt>
      <trkpt lat="47.32567" lon="-2.28004">
        <ele>5</ele>
        <time>2020-06-25T09:11:14.000Z</time>
      </trkpt>
      <trkpt lat="47.32573" lon="-2.28026">
        <ele>5</ele>
        <time>2020-06-25T09:11:19.000Z</time>
      </trkpt>
      <trkpt lat="47.32579" lon="-2.28052">
        <ele>5</ele>
        <time>2020-06-25T09:11:25.000Z</time>
      </trkpt>
      <trkpt lat="47.32585" lon="-2.28077">
        <ele>5</ele>
        <time>2020-06-25T09:11:31.000Z</time>
      </trkpt>
      <trkpt lat="47.32591" lon="-2.28103">
        <ele>5</ele>
        <time>2020-06-25T09:11:37.000Z</time>
      </trkpt>
      <trkpt lat="47.32596" lon="-2.28129">
        <ele>5</ele>
        <time>2020-06-25T09:11:43.000Z</time>
      </trkpt>
      <trkpt lat="47.32603" lon="-2.28164">
        <ele>5</ele>
        <time>2020-06-25T09:11:51.000Z</time>
      </trkpt>
      <trkpt lat="47.32604" lon="-2.28167">
        <ele>5</ele>
        <time>2020-06-25T09:11:54.000Z</time>
      </trkpt>
      <trkpt lat="47.32605" lon="-2.28173">
        <ele>5</ele>
        <time>2020-06-25T09:12:23.000Z</time>
      </trkpt>
      <trkpt lat="47.3261" lon="-2.28194">
        <ele>5</ele>
        <time>2020-06-25T09:12:29.000Z</time>
      </trkpt>
      <trkpt lat="47.32616" lon="-2.28227">
        <ele>5</ele>
        <time>2020-06-25T09:12:35.000Z</time>
      </trkpt>
      <trkpt lat="47.32625" lon="-2.28265">
        <ele>5</ele>
        <time>2020-06-25T09:12:42.000Z</time>
      </trkpt>
      <trkpt lat="47.32634" lon="-2.28268">
        <ele>5</ele>
        <time>2020-06-25T09:12:45.000Z</time>
      </trkpt>
      <trkpt lat="47.32645" lon="-2.2825">
        <ele>5</ele>
        <time>2020-06-25T09:12:50.000Z</time>
      </trkpt>
      <trkpt lat="47.32649" lon="-2.2824">
        <ele>5</ele>
        <time>2020-06-25T09:12:54.000Z</time>
      </trkpt>
      <trkpt lat="47.32649" lon="-2.2824">
        <ele>5</ele>
        <time>2020-06-25T09:12:56.000Z</time>
      </trkpt>
      <trkpt lat="47.32649" lon="-2.2824">
        <ele>5</ele>
        <time>2020-06-25T09:13:22.000Z</time>
      </trkpt>
      <trkpt lat="47.32651" lon="-2.28241">
        <ele>5</ele>
        <time>2020-06-25T09:13:23.000Z</time>
      </trkpt>
      <trkpt lat="47.32656" lon="-2.28246">
        <ele>5</ele>
        <time>2020-06-25T09:13:26.000Z</time>
      </trkpt>
      <trkpt lat="47.32663" lon="-2.28254">
        <ele>5</ele>
        <time>2020-06-25T09:13:29.000Z</time>
      </trkpt>
      <trkpt lat="47.32676" lon="-2.28273">
        <ele>5</ele>
        <time>2020-06-25T09:13:34.000Z</time>
      </trkpt>
      <trkpt lat="47.32684" lon="-2.28285">
        <ele>5.4000000953674</ele>
        <time>2020-06-25T09:13:37.000Z</time>
      </trkpt>
      <trkpt lat="47.32688" lon="-2.28289">
        <ele>6.1999998092651</ele>
        <time>2020-06-25T09:13:38.000Z</time>
      </trkpt>
      <trkpt lat="47.32693" lon="-2.28297">
        <ele>7.1999998092651</ele>
        <time>2020-06-25T09:13:40.000Z</time>
      </trkpt>
      <trkpt lat="47.32698" lon="-2.28303">
        <ele>7.1999998092651</ele>
        <time>2020-06-25T09:13:44.000Z</time>
      </trkpt>
      <trkpt lat="47.32701" lon="-2.28307">
        <ele>7.1999998092651</ele>
        <time>2020-06-25T09:13:46.000Z</time>
      </trkpt>
      <trkpt lat="47.32704" lon="-2.28315">
        <ele>7.1999998092651</ele>
        <time>2020-06-25T09:13:48.000Z</time>
      </trkpt>
      <trkpt lat="47.32706" lon="-2.28326">
        <ele>7.1999998092651</ele>
        <time>2020-06-25T09:13:50.000Z</time>
      </trkpt>
      <trkpt lat="47.32707" lon="-2.2834">
        <ele>7.1999998092651</ele>
        <time>2020-06-25T09:13:52.000Z</time>
      </trkpt>
      <trkpt lat="47.32713" lon="-2.28393">
        <ele>7.1999998092651</ele>
        <time>2020-06-25T09:13:59.000Z</time>
      </trkpt>
      <trkpt lat="47.32721" lon="-2.28456">
        <ele>7.1999998092651</ele>
        <time>2020-06-25T09:14:07.000Z</time>
      </trkpt>
      <trkpt lat="47.32725" lon="-2.28496">
        <ele>7.5999999046326</ele>
        <time>2020-06-25T09:14:12.000Z</time>
      </trkpt>
      <trkpt lat="47.32726" lon="-2.28504">
        <ele>8</ele>
        <time>2020-06-25T09:14:13.000Z</time>
      </trkpt>
      <trkpt lat="47.32727" lon="-2.28512">
        <ele>8.3999996185303</ele>
        <time>2020-06-25T09:14:14.000Z</time>
      </trkpt>
      <trkpt lat="47.32727" lon="-2.28521">
        <ele>8.8000001907349</ele>
        <time>2020-06-25T09:14:15.000Z</time>
      </trkpt>
      <trkpt lat="47.32728" lon="-2.2853">
        <ele>9.1999998092651</ele>
        <time>2020-06-25T09:14:16.000Z</time>
      </trkpt>
      <trkpt lat="47.32738" lon="-2.2858">
        <ele>9.1999998092651</ele>
        <time>2020-06-25T09:14:22.000Z</time>
      </trkpt>
      <trkpt lat="47.32757" lon="-2.2862">
        <ele>9.1999998092651</ele>
        <time>2020-06-25T09:14:28.000Z</time>
      </trkpt>
      <trkpt lat="47.32781" lon="-2.28669">
        <ele>9.1999998092651</ele>
        <time>2020-06-25T09:14:35.000Z</time>
      </trkpt>
      <trkpt lat="47.32784" lon="-2.28676">
        <ele>9.1999998092651</ele>
        <time>2020-06-25T09:14:36.000Z</time>
      </trkpt>
      <trkpt lat="47.32788" lon="-2.28692">
        <ele>9.6000003814697</ele>
        <time>2020-06-25T09:14:38.000Z</time>
      </trkpt>
      <trkpt lat="47.32789" lon="-2.287">
        <ele>10</ele>
        <time>2020-06-25T09:14:39.000Z</time>
      </trkpt>
      <trkpt lat="47.32791" lon="-2.28708">
        <ele>10.39999961853</ele>
        <time>2020-06-25T09:14:40.000Z</time>
      </trkpt>
      <trkpt lat="47.32792" lon="-2.28716">
        <ele>10.800000190735</ele>
        <time>2020-06-25T09:14:41.000Z</time>
      </trkpt>
      <trkpt lat="47.32794" lon="-2.28724">
        <ele>11.199999809265</ele>
        <time>2020-06-25T09:14:42.000Z</time>
      </trkpt>
      <trkpt lat="47.32799" lon="-2.2877">
        <ele>11.199999809265</ele>
        <time>2020-06-25T09:14:47.000Z</time>
      </trkpt>
      <trkpt lat="47.328" lon="-2.28797">
        <ele>11.199999809265</ele>
        <time>2020-06-25T09:14:50.000Z</time>
      </trkpt>
      <trkpt lat="47.32798" lon="-2.28817">
        <ele>11.199999809265</ele>
        <time>2020-06-25T09:14:52.000Z</time>
      </trkpt>
      <trkpt lat="47.32796" lon="-2.28827">
        <ele>11.199999809265</ele>
        <time>2020-06-25T09:14:53.000Z</time>
      </trkpt>
      <trkpt lat="47.32788" lon="-2.28855">
        <ele>11.199999809265</ele>
        <time>2020-06-25T09:14:56.000Z</time>
      </trkpt>
      <trkpt lat="47.32772" lon="-2.2891">
        <ele>11.199999809265</ele>
        <time>2020-06-25T09:15:02.000Z</time>
      </trkpt>
      <trkpt lat="47.32766" lon="-2.28961">
        <ele>11.199999809265</ele>
        <time>2020-06-25T09:15:07.000Z</time>
      </trkpt>
      <trkpt lat="47.32762" lon="-2.29031">
        <ele>11.199999809265</ele>
        <time>2020-06-25T09:15:15.000Z</time>
      </trkpt>
      <trkpt lat="47.32759" lon="-2.29083">
        <ele>11.199999809265</ele>
        <time>2020-06-25T09:15:21.000Z</time>
      </trkpt>
      <trkpt lat="47.32759" lon="-2.29118">
        <ele>11.199999809265</ele>
        <time>2020-06-25T09:15:25.000Z</time>
      </trkpt>
      <trkpt lat="47.32761" lon="-2.29126">
        <ele>11.199999809265</ele>
        <time>2020-06-25T09:15:26.000Z</time>
      </trkpt>
      <trkpt lat="47.32773" lon="-2.29143">
        <ele>11.199999809265</ele>
        <time>2020-06-25T09:15:29.000Z</time>
      </trkpt>
      <trkpt lat="47.32788" lon="-2.29157">
        <ele>11.199999809265</ele>
        <time>2020-06-25T09:15:32.000Z</time>
      </trkpt>
      <trkpt lat="47.32799" lon="-2.29162">
        <ele>11.199999809265</ele>
        <time>2020-06-25T09:15:34.000Z</time>
      </trkpt>
      <trkpt lat="47.3281" lon="-2.29165">
        <ele>11.199999809265</ele>
        <time>2020-06-25T09:15:36.000Z</time>
      </trkpt>
      <trkpt lat="47.32828" lon="-2.29164">
        <ele>11.199999809265</ele>
        <time>2020-06-25T09:15:39.000Z</time>
      </trkpt>
      <trkpt lat="47.32863" lon="-2.29153">
        <ele>11.199999809265</ele>
        <time>2020-06-25T09:15:45.000Z</time>
      </trkpt>
      <trkpt lat="47.32906" lon="-2.29139">
        <ele>11.199999809265</ele>
        <time>2020-06-25T09:15:52.000Z</time>
      </trkpt>
      <trkpt lat="47.32953" lon="-2.29122">
        <ele>11.199999809265</ele>
        <time>2020-06-25T09:16:00.000Z</time>
      </trkpt>
      <trkpt lat="47.32981" lon="-2.29111">
        <ele>11.199999809265</ele>
        <time>2020-06-25T09:16:05.000Z</time>
      </trkpt>
      <trkpt lat="47.33021" lon="-2.29097">
        <ele>11.800000190735</ele>
        <time>2020-06-25T09:16:12.000Z</time>
      </trkpt>
      <trkpt lat="47.33026" lon="-2.29095">
        <ele>12.199999809265</ele>
        <time>2020-06-25T09:16:13.000Z</time>
      </trkpt>
      <trkpt lat="47.33032" lon="-2.29093">
        <ele>12.60000038147</ele>
        <time>2020-06-25T09:16:14.000Z</time>
      </trkpt>
      <trkpt lat="47.33037" lon="-2.2909">
        <ele>13</ele>
        <time>2020-06-25T09:16:15.000Z</time>
      </trkpt>
      <trkpt lat="47.33042" lon="-2.29088">
        <ele>13.39999961853</ele>
        <time>2020-06-25T09:16:16.000Z</time>
      </trkpt>
      <trkpt lat="47.33067" lon="-2.2908">
        <ele>13.39999961853</ele>
        <time>2020-06-25T09:16:21.000Z</time>
      </trkpt>
      <trkpt lat="47.33097" lon="-2.2907">
        <ele>13.39999961853</ele>
        <time>2020-06-25T09:16:28.000Z</time>
      </trkpt>
      <trkpt lat="47.33123" lon="-2.29059">
        <ele>13.39999961853</ele>
        <time>2020-06-25T09:16:34.000Z</time>
      </trkpt>
      <trkpt lat="47.33159" lon="-2.29056">
        <ele>13.39999961853</ele>
        <time>2020-06-25T09:16:41.000Z</time>
      </trkpt>
      <trkpt lat="47.33197" lon="-2.29063">
        <ele>13.39999961853</ele>
        <time>2020-06-25T09:16:48.000Z</time>
      </trkpt>
      <trkpt lat="47.3323" lon="-2.29075">
        <ele>13.39999961853</ele>
        <time>2020-06-25T09:16:54.000Z</time>
      </trkpt>
      <trkpt lat="47.33252" lon="-2.29085">
        <ele>13.39999961853</ele>
        <time>2020-06-25T09:16:58.000Z</time>
      </trkpt>
      <trkpt lat="47.33257" lon="-2.2909">
        <ele>13</ele>
        <time>2020-06-25T09:16:59.000Z</time>
      </trkpt>
      <trkpt lat="47.3326" lon="-2.29097">
        <ele>12.60000038147</ele>
        <time>2020-06-25T09:17:00.000Z</time>
      </trkpt>
      <trkpt lat="47.33262" lon="-2.29105">
        <ele>12.199999809265</ele>
        <time>2020-06-25T09:17:01.000Z</time>
      </trkpt>
      <trkpt lat="47.33262" lon="-2.29113">
        <ele>11.800000190735</ele>
        <time>2020-06-25T09:17:02.000Z</time>
      </trkpt>
      <trkpt lat="47.33262" lon="-2.29122">
        <ele>11.199999809265</ele>
        <time>2020-06-25T09:17:03.000Z</time>
      </trkpt>
      <trkpt lat="47.33262" lon="-2.29131">
        <ele>11.199999809265</ele>
        <time>2020-06-25T09:17:04.000Z</time>
      </trkpt>
      <trkpt lat="47.3326" lon="-2.29168">
        <ele>11.199999809265</ele>
        <time>2020-06-25T09:17:08.000Z</time>
      </trkpt>
      <trkpt lat="47.33256" lon="-2.29223">
        <ele>11.199999809265</ele>
        <time>2020-06-25T09:17:14.000Z</time>
      </trkpt>
      <trkpt lat="47.3325" lon="-2.29299">
        <ele>11.199999809265</ele>
        <time>2020-06-25T09:17:22.000Z</time>
      </trkpt>
      <trkpt lat="47.33246" lon="-2.29374">
        <ele>11.199999809265</ele>
        <time>2020-06-25T09:17:30.000Z</time>
      </trkpt>
      <trkpt lat="47.33244" lon="-2.29459">
        <ele>11.199999809265</ele>
        <time>2020-06-25T09:17:39.000Z</time>
      </trkpt>
      <trkpt lat="47.33245" lon="-2.29513">
        <ele>11.199999809265</ele>
        <time>2020-06-25T09:17:45.000Z</time>
      </trkpt>
      <trkpt lat="47.33244" lon="-2.29555">
        <ele>11.199999809265</ele>
        <time>2020-06-25T09:17:50.000Z</time>
      </trkpt>
      <trkpt lat="47.33243" lon="-2.296">
        <ele>11.199999809265</ele>
        <time>2020-06-25T09:17:55.000Z</time>
      </trkpt>
      <trkpt lat="47.33239" lon="-2.29617">
        <ele>11.199999809265</ele>
        <time>2020-06-25T09:17:57.000Z</time>
      </trkpt>
      <trkpt lat="47.3322" lon="-2.29647">
        <ele>11.199999809265</ele>
        <time>2020-06-25T09:18:01.000Z</time>
      </trkpt>
      <trkpt lat="47.33208" lon="-2.29658">
        <ele>11.199999809265</ele>
        <time>2020-06-25T09:18:03.000Z</time>
      </trkpt>
      <trkpt lat="47.33188" lon="-2.29673">
        <ele>11.199999809265</ele>
        <time>2020-06-25T09:18:06.000Z</time>
      </trkpt>
      <trkpt lat="47.33153" lon="-2.29686">
        <ele>11.199999809265</ele>
        <time>2020-06-25T09:18:11.000Z</time>
      </trkpt>
      <trkpt lat="47.33095" lon="-2.29701">
        <ele>11.199999809265</ele>
        <time>2020-06-25T09:18:20.000Z</time>
      </trkpt>
      <trkpt lat="47.33071" lon="-2.29707">
        <ele>11.199999809265</ele>
        <time>2020-06-25T09:18:24.000Z</time>
      </trkpt>
      <trkpt lat="47.3306" lon="-2.29711">
        <ele>11.199999809265</ele>
        <time>2020-06-25T09:18:26.000Z</time>
      </trkpt>
      <trkpt lat="47.33028" lon="-2.29716">
        <ele>11.199999809265</ele>
        <time>2020-06-25T09:18:32.000Z</time>
      </trkpt>
      <trkpt lat="47.33023" lon="-2.29718">
        <ele>11.199999809265</ele>
        <time>2020-06-25T09:18:33.000Z</time>
      </trkpt>
      <trkpt lat="47.33018" lon="-2.29727">
        <ele>11.199999809265</ele>
        <time>2020-06-25T09:18:35.000Z</time>
      </trkpt>
      <trkpt lat="47.33017" lon="-2.2975">
        <ele>11.199999809265</ele>
        <time>2020-06-25T09:18:38.000Z</time>
      </trkpt>
      <trkpt lat="47.33018" lon="-2.29758">
        <ele>11.199999809265</ele>
        <time>2020-06-25T09:18:39.000Z</time>
      </trkpt>
      <trkpt lat="47.33018" lon="-2.29767">
        <ele>11.199999809265</ele>
        <time>2020-06-25T09:18:40.000Z</time>
      </trkpt>
      <trkpt lat="47.33015" lon="-2.29794">
        <ele>11.199999809265</ele>
        <time>2020-06-25T09:18:43.000Z</time>
      </trkpt>
      <trkpt lat="47.33007" lon="-2.29836">
        <ele>11.199999809265</ele>
        <time>2020-06-25T09:18:48.000Z</time>
      </trkpt>
      <trkpt lat="47.33002" lon="-2.29852">
        <ele>11.199999809265</ele>
        <time>2020-06-25T09:18:50.000Z</time>
      </trkpt>
      <trkpt lat="47.32983" lon="-2.29916">
        <ele>11.199999809265</ele>
        <time>2020-06-25T09:18:58.000Z</time>
      </trkpt>
      <trkpt lat="47.32969" lon="-2.29978">
        <ele>11.199999809265</ele>
        <time>2020-06-25T09:19:05.000Z</time>
      </trkpt>
      <trkpt lat="47.32966" lon="-2.3003">
        <ele>11.199999809265</ele>
        <time>2020-06-25T09:19:11.000Z</time>
      </trkpt>
      <trkpt lat="47.32968" lon="-2.30048">
        <ele>11.60000038147</ele>
        <time>2020-06-25T09:19:13.000Z</time>
      </trkpt>
      <trkpt lat="47.32969" lon="-2.30057">
        <ele>12</ele>
        <time>2020-06-25T09:19:14.000Z</time>
      </trkpt>
      <trkpt lat="47.32971" lon="-2.30065">
        <ele>12.60000038147</ele>
        <time>2020-06-25T09:19:15.000Z</time>
      </trkpt>
      <trkpt lat="47.32973" lon="-2.30074">
        <ele>13</ele>
        <time>2020-06-25T09:19:16.000Z</time>
      </trkpt>
      <trkpt lat="47.32975" lon="-2.30083">
        <ele>13.39999961853</ele>
        <time>2020-06-25T09:19:17.000Z</time>
      </trkpt>
      <trkpt lat="47.32987" lon="-2.30154">
        <ele>13.39999961853</ele>
        <time>2020-06-25T09:19:25.000Z</time>
      </trkpt>
      <trkpt lat="47.32993" lon="-2.30206">
        <ele>13.39999961853</ele>
        <time>2020-06-25T09:19:30.000Z</time>
      </trkpt>
      <trkpt lat="47.32992" lon="-2.3024">
        <ele>12.800000190735</ele>
        <time>2020-06-25T09:19:33.000Z</time>
      </trkpt>
      <trkpt lat="47.3299" lon="-2.3025">
        <ele>12.39999961853</ele>
        <time>2020-06-25T09:19:34.000Z</time>
      </trkpt>
      <trkpt lat="47.32987" lon="-2.30261">
        <ele>12</ele>
        <time>2020-06-25T09:19:35.000Z</time>
      </trkpt>
      <trkpt lat="47.32984" lon="-2.30271">
        <ele>11.60000038147</ele>
        <time>2020-06-25T09:19:36.000Z</time>
      </trkpt>
      <trkpt lat="47.3298" lon="-2.30282">
        <ele>11.199999809265</ele>
        <time>2020-06-25T09:19:37.000Z</time>
      </trkpt>
      <trkpt lat="47.32975" lon="-2.30292">
        <ele>11.199999809265</ele>
        <time>2020-06-25T09:19:38.000Z</time>
      </trkpt>
      <trkpt lat="47.32953" lon="-2.30344">
        <ele>11.199999809265</ele>
        <time>2020-06-25T09:19:43.000Z</time>
      </trkpt>
      <trkpt lat="47.32948" lon="-2.30356">
        <ele>10.60000038147</ele>
        <time>2020-06-25T09:19:44.000Z</time>
      </trkpt>
      <trkpt lat="47.32944" lon="-2.30367">
        <ele>10.199999809265</ele>
        <time>2020-06-25T09:19:45.000Z</time>
      </trkpt>
      <trkpt lat="47.3294" lon="-2.30377">
        <ele>9.8000001907349</ele>
        <time>2020-06-25T09:19:46.000Z</time>
      </trkpt>
      <trkpt lat="47.32937" lon="-2.30388">
        <ele>9.3999996185303</ele>
        <time>2020-06-25T09:19:47.000Z</time>
      </trkpt>
      <trkpt lat="47.32936" lon="-2.30398">
        <ele>9</ele>
        <time>2020-06-25T09:19:48.000Z</time>
      </trkpt>
      <trkpt lat="47.32938" lon="-2.30423">
        <ele>9</ele>
        <time>2020-06-25T09:19:51.000Z</time>
      </trkpt>
      <trkpt lat="47.32941" lon="-2.30436">
        <ele>9</ele>
        <time>2020-06-25T09:19:54.000Z</time>
      </trkpt>
      <trkpt lat="47.32943" lon="-2.30438">
        <ele>8.6000003814697</ele>
        <time>2020-06-25T09:19:55.000Z</time>
      </trkpt>
      <trkpt lat="47.32945" lon="-2.30438">
        <ele>8.1999998092651</ele>
        <time>2020-06-25T09:19:56.000Z</time>
      </trkpt>
      <trkpt lat="47.32947" lon="-2.30439">
        <ele>7.8000001907349</ele>
        <time>2020-06-25T09:19:57.000Z</time>
      </trkpt>
      <trkpt lat="47.32951" lon="-2.30435">
        <ele>7.4000000953674</ele>
        <time>2020-06-25T09:19:58.000Z</time>
      </trkpt>
      <trkpt lat="47.32955" lon="-2.3043">
        <ele>7</ele>
        <time>2020-06-25T09:19:59.000Z</time>
      </trkpt>
      <trkpt lat="47.32979" lon="-2.30406">
        <ele>7</ele>
        <time>2020-06-25T09:20:04.000Z</time>
      </trkpt>
      <trkpt lat="47.3302" lon="-2.30367">
        <ele>7</ele>
        <time>2020-06-25T09:20:10.000Z</time>
      </trkpt>
      <trkpt lat="47.33064" lon="-2.30331">
        <ele>7</ele>
        <time>2020-06-25T09:20:17.000Z</time>
      </trkpt>
      <trkpt lat="47.33081" lon="-2.30313">
        <ele>7</ele>
        <time>2020-06-25T09:20:20.000Z</time>
      </trkpt>
      <trkpt lat="47.3309" lon="-2.30299">
        <ele>7</ele>
        <time>2020-06-25T09:20:22.000Z</time>
      </trkpt>
      <trkpt lat="47.33127" lon="-2.30252">
        <ele>7</ele>
        <time>2020-06-25T09:20:29.000Z</time>
      </trkpt>
      <trkpt lat="47.33161" lon="-2.30223">
        <ele>7</ele>
        <time>2020-06-25T09:20:35.000Z</time>
      </trkpt>
      <trkpt lat="47.3321" lon="-2.30182">
        <ele>7</ele>
        <time>2020-06-25T09:20:44.000Z</time>
      </trkpt>
      <trkpt lat="47.33214" lon="-2.30177">
        <ele>7</ele>
        <time>2020-06-25T09:20:45.000Z</time>
      </trkpt>
      <trkpt lat="47.33225" lon="-2.30158">
        <ele>7</ele>
        <time>2020-06-25T09:20:48.000Z</time>
      </trkpt>
      <trkpt lat="47.33229" lon="-2.30151">
        <ele>7</ele>
        <time>2020-06-25T09:20:49.000Z</time>
      </trkpt>
      <trkpt lat="47.33248" lon="-2.30096">
        <ele>7</ele>
        <time>2020-06-25T09:20:56.000Z</time>
      </trkpt>
      <trkpt lat="47.33263" lon="-2.30032">
        <ele>7</ele>
        <time>2020-06-25T09:21:04.000Z</time>
      </trkpt>
      <trkpt lat="47.33265" lon="-2.29997">
        <ele>7</ele>
        <time>2020-06-25T09:21:08.000Z</time>
      </trkpt>
      <trkpt lat="47.33268" lon="-2.29981">
        <ele>7</ele>
        <time>2020-06-25T09:21:10.000Z</time>
      </trkpt>
      <trkpt lat="47.33277" lon="-2.29953">
        <ele>7</ele>
        <time>2020-06-25T09:21:15.000Z</time>
      </trkpt>
      <trkpt lat="47.33289" lon="-2.29925">
        <ele>7</ele>
        <time>2020-06-25T09:21:22.000Z</time>
      </trkpt>
      <trkpt lat="47.33302" lon="-2.29923">
        <ele>7</ele>
        <time>2020-06-25T09:21:27.000Z</time>
      </trkpt>
      <trkpt lat="47.33313" lon="-2.29923">
        <ele>7</ele>
        <time>2020-06-25T09:21:33.000Z</time>
      </trkpt>
      <trkpt lat="47.33322" lon="-2.29924">
        <ele>7</ele>
        <time>2020-06-25T09:21:39.000Z</time>
      </trkpt>
      <trkpt lat="47.33317" lon="-2.29924">
        <ele>5</ele>
        <time>2020-06-25T09:22:25.000Z</time>
      </trkpt>
      <trkpt lat="47.33312" lon="-2.29924">
        <ele>5</ele>
        <time>2020-06-25T09:22:28.000Z</time>
      </trkpt>
      <trkpt lat="47.33307" lon="-2.29922">
        <ele>5</ele>
        <time>2020-06-25T09:22:31.000Z</time>
      </trkpt>
      <trkpt lat="47.33297" lon="-2.29921">
        <ele>5</ele>
        <time>2020-06-25T09:22:35.000Z</time>
      </trkpt>
      <trkpt lat="47.33285" lon="-2.29932">
        <ele>5</ele>
        <time>2020-06-25T09:22:40.000Z</time>
      </trkpt>
      <trkpt lat="47.33279" lon="-2.29947">
        <ele>5.8000001907349</ele>
        <time>2020-06-25T09:22:44.000Z</time>
      </trkpt>
      <trkpt lat="47.33278" lon="-2.29951">
        <ele>6.1999998092651</ele>
        <time>2020-06-25T09:22:45.000Z</time>
      </trkpt>
      <trkpt lat="47.33278" lon="-2.29955">
        <ele>6.5999999046326</ele>
        <time>2020-06-25T09:22:46.000Z</time>
      </trkpt>
      <trkpt lat="47.33277" lon="-2.29959">
        <ele>7</ele>
        <time>2020-06-25T09:22:47.000Z</time>
      </trkpt>
      <trkpt lat="47.33272" lon="-2.29978">
        <ele>7</ele>
        <time>2020-06-25T09:22:51.000Z</time>
      </trkpt>
      <trkpt lat="47.33268" lon="-2.30009">
        <ele>7</ele>
        <time>2020-06-25T09:22:57.000Z</time>
      </trkpt>
      <trkpt lat="47.33267" lon="-2.30034">
        <ele>7</ele>
        <time>2020-06-25T09:23:02.000Z</time>
      </trkpt>
      <trkpt lat="47.33261" lon="-2.30069">
        <ele>7</ele>
        <time>2020-06-25T09:23:08.000Z</time>
      </trkpt>
      <trkpt lat="47.33248" lon="-2.30113">
        <ele>7</ele>
        <time>2020-06-25T09:23:15.000Z</time>
      </trkpt>
      <trkpt lat="47.33235" lon="-2.30153">
        <ele>7</ele>
        <time>2020-06-25T09:23:22.000Z</time>
      </trkpt>
      <trkpt lat="47.33229" lon="-2.30164">
        <ele>7</ele>
        <time>2020-06-25T09:23:24.000Z</time>
      </trkpt>
      <trkpt lat="47.33216" lon="-2.30177">
        <ele>7</ele>
        <time>2020-06-25T09:23:27.000Z</time>
      </trkpt>
      <trkpt lat="47.33182" lon="-2.30204">
        <ele>7</ele>
        <time>2020-06-25T09:23:34.000Z</time>
      </trkpt>
      <trkpt lat="47.33143" lon="-2.30239">
        <ele>7</ele>
        <time>2020-06-25T09:23:43.000Z</time>
      </trkpt>
      <trkpt lat="47.33122" lon="-2.3026">
        <ele>7</ele>
        <time>2020-06-25T09:23:48.000Z</time>
      </trkpt>
      <trkpt lat="47.33118" lon="-2.30264">
        <ele>7</ele>
        <time>2020-06-25T09:23:49.000Z</time>
      </trkpt>
      <trkpt lat="47.33096" lon="-2.30293">
        <ele>7</ele>
        <time>2020-06-25T09:23:55.000Z</time>
      </trkpt>
      <trkpt lat="47.33089" lon="-2.30304">
        <ele>7</ele>
        <time>2020-06-25T09:23:57.000Z</time>
      </trkpt>
      <trkpt lat="47.33078" lon="-2.30317">
        <ele>7</ele>
        <time>2020-06-25T09:24:00.000Z</time>
      </trkpt>
      <trkpt lat="47.3307" lon="-2.30326">
        <ele>7</ele>
        <time>2020-06-25T09:24:02.000Z</time>
      </trkpt>
      <trkpt lat="47.33061" lon="-2.30334">
        <ele>7</ele>
        <time>2020-06-25T09:24:04.000Z</time>
      </trkpt>
      <trkpt lat="47.33053" lon="-2.3034">
        <ele>7</ele>
        <time>2020-06-25T09:24:06.000Z</time>
      </trkpt>
      <trkpt lat="47.33045" lon="-2.30346">
        <ele>7</ele>
        <time>2020-06-25T09:24:08.000Z</time>
      </trkpt>
      <trkpt lat="47.33025" lon="-2.3036">
        <ele>7</ele>
        <time>2020-06-25T09:24:12.000Z</time>
      </trkpt>
      <trkpt lat="47.3301" lon="-2.30371">
        <ele>7</ele>
        <time>2020-06-25T09:24:15.000Z</time>
      </trkpt>
      <trkpt lat="47.32995" lon="-2.30381">
        <ele>7</ele>
        <time>2020-06-25T09:24:18.000Z</time>
      </trkpt>
      <trkpt lat="47.32957" lon="-2.30405">
        <ele>7</ele>
        <time>2020-06-25T09:24:26.000Z</time>
      </trkpt>
      <trkpt lat="47.32948" lon="-2.3041">
        <ele>7</ele>
        <time>2020-06-25T09:24:28.000Z</time>
      </trkpt>
      <trkpt lat="47.3294" lon="-2.30424">
        <ele>7</ele>
        <time>2020-06-25T09:24:31.000Z</time>
      </trkpt>
      <trkpt lat="47.32938" lon="-2.30437">
        <ele>7</ele>
        <time>2020-06-25T09:24:33.000Z</time>
      </trkpt>
      <trkpt lat="47.32934" lon="-2.30468">
        <ele>7</ele>
        <time>2020-06-25T09:24:37.000Z</time>
      </trkpt>
      <trkpt lat="47.3293" lon="-2.30522">
        <ele>7</ele>
        <time>2020-06-25T09:24:43.000Z</time>
      </trkpt>
      <trkpt lat="47.32929" lon="-2.30532">
        <ele>7.4000000953674</ele>
        <time>2020-06-25T09:24:44.000Z</time>
      </trkpt>
      <trkpt lat="47.32928" lon="-2.30541">
        <ele>7.8000001907349</ele>
        <time>2020-06-25T09:24:45.000Z</time>
      </trkpt>
      <trkpt lat="47.32927" lon="-2.30551">
        <ele>8.3999996185303</ele>
        <time>2020-06-25T09:24:46.000Z</time>
      </trkpt>
      <trkpt lat="47.32926" lon="-2.30561">
        <ele>9.1999998092651</ele>
        <time>2020-06-25T09:24:47.000Z</time>
      </trkpt>
      <trkpt lat="47.32925" lon="-2.30587">
        <ele>9.1999998092651</ele>
        <time>2020-06-25T09:24:50.000Z</time>
      </trkpt>
      <trkpt lat="47.32925" lon="-2.30596">
        <ele>9.6000003814697</ele>
        <time>2020-06-25T09:24:51.000Z</time>
      </trkpt>
      <trkpt lat="47.32925" lon="-2.30603">
        <ele>10</ele>
        <time>2020-06-25T09:24:52.000Z</time>
      </trkpt>
      <trkpt lat="47.32925" lon="-2.30611">
        <ele>10.39999961853</ele>
        <time>2020-06-25T09:24:53.000Z</time>
      </trkpt>
      <trkpt lat="47.32925" lon="-2.30618">
        <ele>10.800000190735</ele>
        <time>2020-06-25T09:24:54.000Z</time>
      </trkpt>
      <trkpt lat="47.32925" lon="-2.30626">
        <ele>11.199999809265</ele>
        <time>2020-06-25T09:24:55.000Z</time>
      </trkpt>
      <trkpt lat="47.32926" lon="-2.30642">
        <ele>11.199999809265</ele>
        <time>2020-06-25T09:24:57.000Z</time>
      </trkpt>
      <trkpt lat="47.32924" lon="-2.30709">
        <ele>11.199999809265</ele>
        <time>2020-06-25T09:25:05.000Z</time>
      </trkpt>
      <trkpt lat="47.32917" lon="-2.30784">
        <ele>11.199999809265</ele>
        <time>2020-06-25T09:25:14.000Z</time>
      </trkpt>
      <trkpt lat="47.32913" lon="-2.30838">
        <ele>11.199999809265</ele>
        <time>2020-06-25T09:25:20.000Z</time>
      </trkpt>
      <trkpt lat="47.32908" lon="-2.30888">
        <ele>11.199999809265</ele>
        <time>2020-06-25T09:25:26.000Z</time>
      </trkpt>
      <trkpt lat="47.32901" lon="-2.30956">
        <ele>11.199999809265</ele>
        <time>2020-06-25T09:25:34.000Z</time>
      </trkpt>
      <trkpt lat="47.32897" lon="-2.31021">
        <ele>11.199999809265</ele>
        <time>2020-06-25T09:25:41.000Z</time>
      </trkpt>
      <trkpt lat="47.32898" lon="-2.31088">
        <ele>11.199999809265</ele>
        <time>2020-06-25T09:25:48.000Z</time>
      </trkpt>
      <trkpt lat="47.32907" lon="-2.31135">
        <ele>11.199999809265</ele>
        <time>2020-06-25T09:25:53.000Z</time>
      </trkpt>
      <trkpt lat="47.32925" lon="-2.31205">
        <ele>10.800000190735</ele>
        <time>2020-06-25T09:26:01.000Z</time>
      </trkpt>
      <trkpt lat="47.32927" lon="-2.31212">
        <ele>10.39999961853</ele>
        <time>2020-06-25T09:26:02.000Z</time>
      </trkpt>
      <trkpt lat="47.32929" lon="-2.3122">
        <ele>10</ele>
        <time>2020-06-25T09:26:03.000Z</time>
      </trkpt>
      <trkpt lat="47.32931" lon="-2.31226">
        <ele>9.6000003814697</ele>
        <time>2020-06-25T09:26:04.000Z</time>
      </trkpt>
      <trkpt lat="47.32933" lon="-2.31233">
        <ele>9.1999998092651</ele>
        <time>2020-06-25T09:26:05.000Z</time>
      </trkpt>
      <trkpt lat="47.32935" lon="-2.31239">
        <ele>9.1999998092651</ele>
        <time>2020-06-25T09:26:06.000Z</time>
      </trkpt>
      <trkpt lat="47.32943" lon="-2.31269">
        <ele>9.1999998092651</ele>
        <time>2020-06-25T09:26:12.000Z</time>
      </trkpt>
      <trkpt lat="47.32945" lon="-2.31295">
        <ele>9.1999998092651</ele>
        <time>2020-06-25T09:26:16.000Z</time>
      </trkpt>
      <trkpt lat="47.32945" lon="-2.31302">
        <ele>9.1999998092651</ele>
        <time>2020-06-25T09:26:17.000Z</time>
      </trkpt>
      <trkpt lat="47.32944" lon="-2.31323">
        <ele>9.1999998092651</ele>
        <time>2020-06-25T09:26:20.000Z</time>
      </trkpt>
      <trkpt lat="47.32939" lon="-2.31343">
        <ele>9.1999998092651</ele>
        <time>2020-06-25T09:26:23.000Z</time>
      </trkpt>
      <trkpt lat="47.32937" lon="-2.31349">
        <ele>9.1999998092651</ele>
        <time>2020-06-25T09:26:24.000Z</time>
      </trkpt>
      <trkpt lat="47.32925" lon="-2.3138">
        <ele>9.1999998092651</ele>
        <time>2020-06-25T09:26:29.000Z</time>
      </trkpt>
      <trkpt lat="47.32923" lon="-2.31386">
        <ele>9.6000003814697</ele>
        <time>2020-06-25T09:26:30.000Z</time>
      </trkpt>
      <trkpt lat="47.32921" lon="-2.31392">
        <ele>10.199999809265</ele>
        <time>2020-06-25T09:26:31.000Z</time>
      </trkpt>
      <trkpt lat="47.3292" lon="-2.31398">
        <ele>10.60000038147</ele>
        <time>2020-06-25T09:26:32.000Z</time>
      </trkpt>
      <trkpt lat="47.32919" lon="-2.31404">
        <ele>11</ele>
        <time>2020-06-25T09:26:33.000Z</time>
      </trkpt>
      <trkpt lat="47.32918" lon="-2.3141">
        <ele>11.60000038147</ele>
        <time>2020-06-25T09:26:34.000Z</time>
      </trkpt>
      <trkpt lat="47.32916" lon="-2.31422">
        <ele>11.60000038147</ele>
        <time>2020-06-25T09:26:36.000Z</time>
      </trkpt>
      <trkpt lat="47.32917" lon="-2.31446">
        <ele>11.60000038147</ele>
        <time>2020-06-25T09:26:40.000Z</time>
      </trkpt>
      <trkpt lat="47.3292" lon="-2.31471">
        <ele>11.60000038147</ele>
        <time>2020-06-25T09:26:45.000Z</time>
      </trkpt>
      <trkpt lat="47.32921" lon="-2.31477">
        <ele>11.60000038147</ele>
        <time>2020-06-25T09:26:49.000Z</time>
      </trkpt>
      <trkpt lat="47.32918" lon="-2.31481">
        <ele>11.60000038147</ele>
        <time>2020-06-25T09:27:04.000Z</time>
      </trkpt>
      <trkpt lat="47.32916" lon="-2.31463">
        <ele>11.60000038147</ele>
        <time>2020-06-25T09:27:09.000Z</time>
      </trkpt>
      <trkpt lat="47.32914" lon="-2.31425">
        <ele>11.60000038147</ele>
        <time>2020-06-25T09:27:15.000Z</time>
      </trkpt>
      <trkpt lat="47.32918" lon="-2.31395">
        <ele>11.60000038147</ele>
        <time>2020-06-25T09:27:19.000Z</time>
      </trkpt>
      <trkpt lat="47.3292" lon="-2.31388">
        <ele>11.60000038147</ele>
        <time>2020-06-25T09:27:20.000Z</time>
      </trkpt>
      <trkpt lat="47.32935" lon="-2.31344">
        <ele>11.60000038147</ele>
        <time>2020-06-25T09:27:26.000Z</time>
      </trkpt>
      <trkpt lat="47.32939" lon="-2.31329">
        <ele>11.60000038147</ele>
        <time>2020-06-25T09:27:28.000Z</time>
      </trkpt>
      <trkpt lat="47.32942" lon="-2.31306">
        <ele>11</ele>
        <time>2020-06-25T09:27:31.000Z</time>
      </trkpt>
      <trkpt lat="47.32942" lon="-2.31299">
        <ele>10.60000038147</ele>
        <time>2020-06-25T09:27:32.000Z</time>
      </trkpt>
      <trkpt lat="47.32943" lon="-2.31293">
        <ele>10.199999809265</ele>
        <time>2020-06-25T09:27:33.000Z</time>
      </trkpt>
      <trkpt lat="47.32945" lon="-2.31289">
        <ele>9.6000003814697</ele>
        <time>2020-06-25T09:27:34.000Z</time>
      </trkpt>
      <trkpt lat="47.32948" lon="-2.31287">
        <ele>9.1999998092651</ele>
        <time>2020-06-25T09:27:35.000Z</time>
      </trkpt>
      <trkpt lat="47.32955" lon="-2.31292">
        <ele>9.1999998092651</ele>
        <time>2020-06-25T09:27:38.000Z</time>
      </trkpt>
      <trkpt lat="47.32964" lon="-2.31304">
        <ele>9.1999998092651</ele>
        <time>2020-06-25T09:27:44.000Z</time>
      </trkpt>
      <trkpt lat="47.32972" lon="-2.31324">
        <ele>9.1999998092651</ele>
        <time>2020-06-25T09:27:49.000Z</time>
      </trkpt>
      <trkpt lat="47.32982" lon="-2.31361">
        <ele>9.1999998092651</ele>
        <time>2020-06-25T09:27:55.000Z</time>
      </trkpt>
      <trkpt lat="47.32984" lon="-2.31367">
        <ele>9.1999998092651</ele>
        <time>2020-06-25T09:27:56.000Z</time>
      </trkpt>
      <trkpt lat="47.32994" lon="-2.31388">
        <ele>9.1999998092651</ele>
        <time>2020-06-25T09:28:00.000Z</time>
      </trkpt>
      <trkpt lat="47.32997" lon="-2.314">
        <ele>9.1999998092651</ele>
        <time>2020-06-25T09:28:04.000Z</time>
      </trkpt>
      <trkpt lat="47.33002" lon="-2.31411">
        <ele>9.1999998092651</ele>
        <time>2020-06-25T09:28:10.000Z</time>
      </trkpt>
      <trkpt lat="47.33018" lon="-2.31421">
        <ele>9.1999998092651</ele>
        <time>2020-06-25T09:28:16.000Z</time>
      </trkpt>
      <trkpt lat="47.33034" lon="-2.31436">
        <ele>9.1999998092651</ele>
        <time>2020-06-25T09:28:21.000Z</time>
      </trkpt>
      <trkpt lat="47.33046" lon="-2.31445">
        <ele>9.1999998092651</ele>
        <time>2020-06-25T09:28:24.000Z</time>
      </trkpt>
      <trkpt lat="47.33054" lon="-2.31449">
        <ele>9.1999998092651</ele>
        <time>2020-06-25T09:28:26.000Z</time>
      </trkpt>
      <trkpt lat="47.33085" lon="-2.31462">
        <ele>9.1999998092651</ele>
        <time>2020-06-25T09:28:33.000Z</time>
      </trkpt>
      <trkpt lat="47.3309" lon="-2.31462">
        <ele>9.1999998092651</ele>
        <time>2020-06-25T09:28:34.000Z</time>
      </trkpt>
      <trkpt lat="47.33111" lon="-2.31462">
        <ele>9.1999998092651</ele>
        <time>2020-06-25T09:28:38.000Z</time>
      </trkpt>
      <trkpt lat="47.33116" lon="-2.31462">
        <ele>9.1999998092651</ele>
        <time>2020-06-25T09:28:39.000Z</time>
      </trkpt>
      <trkpt lat="47.33126" lon="-2.31463">
        <ele>9.1999998092651</ele>
        <time>2020-06-25T09:28:41.000Z</time>
      </trkpt>
      <trkpt lat="47.33146" lon="-2.31468">
        <ele>9.1999998092651</ele>
        <time>2020-06-25T09:28:45.000Z</time>
      </trkpt>
      <trkpt lat="47.33166" lon="-2.31469">
        <ele>9.1999998092651</ele>
        <time>2020-06-25T09:28:50.000Z</time>
      </trkpt>
      <trkpt lat="47.33186" lon="-2.31461">
        <ele>9.1999998092651</ele>
        <time>2020-06-25T09:28:55.000Z</time>
      </trkpt>
      <trkpt lat="47.3319" lon="-2.31459">
        <ele>9.1999998092651</ele>
        <time>2020-06-25T09:28:56.000Z</time>
      </trkpt>
      <trkpt lat="47.33205" lon="-2.31453">
        <ele>9.1999998092651</ele>
        <time>2020-06-25T09:28:59.000Z</time>
      </trkpt>
      <trkpt lat="47.33218" lon="-2.31448">
        <ele>9.1999998092651</ele>
        <time>2020-06-25T09:29:02.000Z</time>
      </trkpt>
      <trkpt lat="47.33228" lon="-2.31442">
        <ele>8.8000001907349</ele>
        <time>2020-06-25T09:29:05.000Z</time>
      </trkpt>
      <trkpt lat="47.33232" lon="-2.3144">
        <ele>8.3999996185303</ele>
        <time>2020-06-25T09:29:06.000Z</time>
      </trkpt>
      <trkpt lat="47.33235" lon="-2.31438">
        <ele>8</ele>
        <time>2020-06-25T09:29:07.000Z</time>
      </trkpt>
      <trkpt lat="47.33238" lon="-2.31436">
        <ele>7.4000000953674</ele>
        <time>2020-06-25T09:29:08.000Z</time>
      </trkpt>
      <trkpt lat="47.3324" lon="-2.31434">
        <ele>7</ele>
        <time>2020-06-25T09:29:09.000Z</time>
      </trkpt>
      <trkpt lat="47.33248" lon="-2.31432">
        <ele>7</ele>
        <time>2020-06-25T09:29:12.000Z</time>
      </trkpt>
      <trkpt lat="47.3325" lon="-2.31447">
        <ele>7</ele>
        <time>2020-06-25T09:29:16.000Z</time>
      </trkpt>
      <trkpt lat="47.33245" lon="-2.31471">
        <ele>7</ele>
        <time>2020-06-25T09:29:20.000Z</time>
      </trkpt>
      <trkpt lat="47.33237" lon="-2.31485">
        <ele>7</ele>
        <time>2020-06-25T09:29:22.000Z</time>
      </trkpt>
      <trkpt lat="47.33227" lon="-2.31507">
        <ele>7</ele>
        <time>2020-06-25T09:29:25.000Z</time>
      </trkpt>
      <trkpt lat="47.33204" lon="-2.31555">
        <ele>7</ele>
        <time>2020-06-25T09:29:32.000Z</time>
      </trkpt>
      <trkpt lat="47.33188" lon="-2.31584">
        <ele>7</ele>
        <time>2020-06-25T09:29:36.000Z</time>
      </trkpt>
      <trkpt lat="47.33183" lon="-2.3159">
        <ele>7</ele>
        <time>2020-06-25T09:29:37.000Z</time>
      </trkpt>
      <trkpt lat="47.33163" lon="-2.31608">
        <ele>7</ele>
        <time>2020-06-25T09:29:41.000Z</time>
      </trkpt>
      <trkpt lat="47.33128" lon="-2.31624">
        <ele>7</ele>
        <time>2020-06-25T09:29:47.000Z</time>
      </trkpt>
      <trkpt lat="47.33077" lon="-2.31643">
        <ele>7</ele>
        <time>2020-06-25T09:29:55.000Z</time>
      </trkpt>
      <trkpt lat="47.33066" lon="-2.31651">
        <ele>7</ele>
        <time>2020-06-25T09:29:57.000Z</time>
      </trkpt>
      <trkpt lat="47.33057" lon="-2.31663">
        <ele>7</ele>
        <time>2020-06-25T09:29:59.000Z</time>
      </trkpt>
      <trkpt lat="47.3305" lon="-2.31692">
        <ele>7</ele>
        <time>2020-06-25T09:30:03.000Z</time>
      </trkpt>
      <trkpt lat="47.33051" lon="-2.3171">
        <ele>7</ele>
        <time>2020-06-25T09:30:05.000Z</time>
      </trkpt>
      <trkpt lat="47.33053" lon="-2.31726">
        <ele>7.4000000953674</ele>
        <time>2020-06-25T09:30:07.000Z</time>
      </trkpt>
      <trkpt lat="47.33055" lon="-2.31733">
        <ele>7.8000001907349</ele>
        <time>2020-06-25T09:30:08.000Z</time>
      </trkpt>
      <trkpt lat="47.33056" lon="-2.31741">
        <ele>8.6000003814697</ele>
        <time>2020-06-25T09:30:09.000Z</time>
      </trkpt>
      <trkpt lat="47.33058" lon="-2.31749">
        <ele>9</ele>
        <time>2020-06-25T09:30:10.000Z</time>
      </trkpt>
      <trkpt lat="47.3306" lon="-2.31774">
        <ele>9</ele>
        <time>2020-06-25T09:30:13.000Z</time>
      </trkpt>
      <trkpt lat="47.33061" lon="-2.31781">
        <ele>9</ele>
        <time>2020-06-25T09:30:14.000Z</time>
      </trkpt>
      <trkpt lat="47.3306" lon="-2.31789">
        <ele>9</ele>
        <time>2020-06-25T09:30:15.000Z</time>
      </trkpt>
      <trkpt lat="47.33054" lon="-2.31808">
        <ele>9</ele>
        <time>2020-06-25T09:30:18.000Z</time>
      </trkpt>
      <trkpt lat="47.33039" lon="-2.31823">
        <ele>9.3999996185303</ele>
        <time>2020-06-25T09:30:21.000Z</time>
      </trkpt>
      <trkpt lat="47.33034" lon="-2.31827">
        <ele>9.8000001907349</ele>
        <time>2020-06-25T09:30:22.000Z</time>
      </trkpt>
      <trkpt lat="47.33029" lon="-2.31832">
        <ele>10.39999961853</ele>
        <time>2020-06-25T09:30:23.000Z</time>
      </trkpt>
      <trkpt lat="47.33025" lon="-2.31837">
        <ele>10.800000190735</ele>
        <time>2020-06-25T09:30:24.000Z</time>
      </trkpt>
      <trkpt lat="47.3302" lon="-2.31843">
        <ele>11.199999809265</ele>
        <time>2020-06-25T09:30:25.000Z</time>
      </trkpt>
      <trkpt lat="47.32995" lon="-2.31868">
        <ele>11.199999809265</ele>
        <time>2020-06-25T09:30:30.000Z</time>
      </trkpt>
      <trkpt lat="47.32955" lon="-2.31902">
        <ele>11.199999809265</ele>
        <time>2020-06-25T09:30:37.000Z</time>
      </trkpt>
      <trkpt lat="47.32923" lon="-2.31931">
        <ele>11.199999809265</ele>
        <time>2020-06-25T09:30:43.000Z</time>
      </trkpt>
      <trkpt lat="47.32884" lon="-2.31968">
        <ele>11.199999809265</ele>
        <time>2020-06-25T09:30:51.000Z</time>
      </trkpt>
      <trkpt lat="47.3285" lon="-2.31997">
        <ele>11.60000038147</ele>
        <time>2020-06-25T09:30:57.000Z</time>
      </trkpt>
      <trkpt lat="47.32844" lon="-2.32002">
        <ele>12.39999961853</ele>
        <time>2020-06-25T09:30:58.000Z</time>
      </trkpt>
      <trkpt lat="47.32838" lon="-2.32006">
        <ele>12.800000190735</ele>
        <time>2020-06-25T09:30:59.000Z</time>
      </trkpt>
      <trkpt lat="47.32832" lon="-2.3201">
        <ele>13.199999809265</ele>
        <time>2020-06-25T09:31:00.000Z</time>
      </trkpt>
      <trkpt lat="47.32796" lon="-2.3203">
        <ele>13.199999809265</ele>
        <time>2020-06-25T09:31:06.000Z</time>
      </trkpt>
      <trkpt lat="47.32752" lon="-2.32051">
        <ele>13.199999809265</ele>
        <time>2020-06-25T09:31:13.000Z</time>
      </trkpt>
      <trkpt lat="47.32716" lon="-2.32069">
        <ele>13.199999809265</ele>
        <time>2020-06-25T09:31:19.000Z</time>
      </trkpt>
      <trkpt lat="47.32668" lon="-2.32088">
        <ele>13.199999809265</ele>
        <time>2020-06-25T09:31:27.000Z</time>
      </trkpt>
      <trkpt lat="47.32662" lon="-2.32089">
        <ele>13.199999809265</ele>
        <time>2020-06-25T09:31:28.000Z</time>
      </trkpt>
      <trkpt lat="47.32639" lon="-2.32094">
        <ele>13.199999809265</ele>
        <time>2020-06-25T09:31:32.000Z</time>
      </trkpt>
      <trkpt lat="47.32601" lon="-2.32102">
        <ele>13.199999809265</ele>
        <time>2020-06-25T09:31:39.000Z</time>
      </trkpt>
      <trkpt lat="47.32591" lon="-2.3212">
        <ele>13.199999809265</ele>
        <time>2020-06-25T09:31:42.000Z</time>
      </trkpt>
      <trkpt lat="47.32588" lon="-2.32128">
        <ele>13.199999809265</ele>
        <time>2020-06-25T09:31:43.000Z</time>
      </trkpt>
      <trkpt lat="47.32574" lon="-2.32173">
        <ele>13.199999809265</ele>
        <time>2020-06-25T09:31:48.000Z</time>
      </trkpt>
      <trkpt lat="47.32557" lon="-2.32228">
        <ele>13.199999809265</ele>
        <time>2020-06-25T09:31:54.000Z</time>
      </trkpt>
      <trkpt lat="47.32542" lon="-2.32271">
        <ele>13.199999809265</ele>
        <time>2020-06-25T09:32:00.000Z</time>
      </trkpt>
      <trkpt lat="47.32541" lon="-2.32278">
        <ele>13.199999809265</ele>
        <time>2020-06-25T09:32:01.000Z</time>
      </trkpt>
      <trkpt lat="47.32535" lon="-2.32302">
        <ele>13.199999809265</ele>
        <time>2020-06-25T09:32:05.000Z</time>
      </trkpt>
      <trkpt lat="47.32536" lon="-2.32307">
        <ele>13.199999809265</ele>
        <time>2020-06-25T09:32:06.000Z</time>
      </trkpt>
      <trkpt lat="47.3254" lon="-2.32313">
        <ele>13.199999809265</ele>
        <time>2020-06-25T09:32:08.000Z</time>
      </trkpt>
      <trkpt lat="47.32559" lon="-2.32315">
        <ele>13.199999809265</ele>
        <time>2020-06-25T09:32:12.000Z</time>
      </trkpt>
      <trkpt lat="47.32583" lon="-2.32311">
        <ele>13.60000038147</ele>
        <time>2020-06-25T09:32:16.000Z</time>
      </trkpt>
      <trkpt lat="47.32589" lon="-2.3231">
        <ele>14</ele>
        <time>2020-06-25T09:32:17.000Z</time>
      </trkpt>
      <trkpt lat="47.32596" lon="-2.32309">
        <ele>14.39999961853</ele>
        <time>2020-06-25T09:32:18.000Z</time>
      </trkpt>
      <trkpt lat="47.32602" lon="-2.32308">
        <ele>14.800000190735</ele>
        <time>2020-06-25T09:32:19.000Z</time>
      </trkpt>
      <trkpt lat="47.32609" lon="-2.32307">
        <ele>15.199999809265</ele>
        <time>2020-06-25T09:32:20.000Z</time>
      </trkpt>
      <trkpt lat="47.32629" lon="-2.32306">
        <ele>15.199999809265</ele>
        <time>2020-06-25T09:32:23.000Z</time>
      </trkpt>
      <trkpt lat="47.32656" lon="-2.32306">
        <ele>15.199999809265</ele>
        <time>2020-06-25T09:32:27.000Z</time>
      </trkpt>
      <trkpt lat="47.32663" lon="-2.32308">
        <ele>15.199999809265</ele>
        <time>2020-06-25T09:32:28.000Z</time>
      </trkpt>
      <trkpt lat="47.32715" lon="-2.32326">
        <ele>15.199999809265</ele>
        <time>2020-06-25T09:32:35.000Z</time>
      </trkpt>
      <trkpt lat="47.32751" lon="-2.32347">
        <ele>14.800000190735</ele>
        <time>2020-06-25T09:32:40.000Z</time>
      </trkpt>
      <trkpt lat="47.32759" lon="-2.32352">
        <ele>14.39999961853</ele>
        <time>2020-06-25T09:32:41.000Z</time>
      </trkpt>
      <trkpt lat="47.32766" lon="-2.32357">
        <ele>13.800000190735</ele>
        <time>2020-06-25T09:32:42.000Z</time>
      </trkpt>
      <trkpt lat="47.32773" lon="-2.32362">
        <ele>13.39999961853</ele>
        <time>2020-06-25T09:32:43.000Z</time>
      </trkpt>
      <trkpt lat="47.32781" lon="-2.32367">
        <ele>13</ele>
        <time>2020-06-25T09:32:44.000Z</time>
      </trkpt>
      <trkpt lat="47.32801" lon="-2.32382">
        <ele>13</ele>
        <time>2020-06-25T09:32:47.000Z</time>
      </trkpt>
      <trkpt lat="47.32808" lon="-2.32388">
        <ele>13</ele>
        <time>2020-06-25T09:32:48.000Z</time>
      </trkpt>
      <trkpt lat="47.32844" lon="-2.32423">
        <ele>13</ele>
        <time>2020-06-25T09:32:54.000Z</time>
      </trkpt>
      <trkpt lat="47.32879" lon="-2.32447">
        <ele>13</ele>
        <time>2020-06-25T09:33:00.000Z</time>
      </trkpt>
      <trkpt lat="47.3289" lon="-2.32454">
        <ele>13</ele>
        <time>2020-06-25T09:33:02.000Z</time>
      </trkpt>
      <trkpt lat="47.32897" lon="-2.32465">
        <ele>13</ele>
        <time>2020-06-25T09:33:04.000Z</time>
      </trkpt>
      <trkpt lat="47.32901" lon="-2.3247">
        <ele>13</ele>
        <time>2020-06-25T09:33:05.000Z</time>
      </trkpt>
      <trkpt lat="47.32916" lon="-2.32503">
        <ele>13</ele>
        <time>2020-06-25T09:33:10.000Z</time>
      </trkpt>
      <trkpt lat="47.3292" lon="-2.3252">
        <ele>13</ele>
        <time>2020-06-25T09:33:12.000Z</time>
      </trkpt>
      <trkpt lat="47.32924" lon="-2.32545">
        <ele>13</ele>
        <time>2020-06-25T09:33:15.000Z</time>
      </trkpt>
      <trkpt lat="47.32923" lon="-2.32567">
        <ele>13</ele>
        <time>2020-06-25T09:33:17.000Z</time>
      </trkpt>
      <trkpt lat="47.32919" lon="-2.3261">
        <ele>13</ele>
        <time>2020-06-25T09:33:21.000Z</time>
      </trkpt>
      <trkpt lat="47.3292" lon="-2.3262">
        <ele>13</ele>
        <time>2020-06-25T09:33:22.000Z</time>
      </trkpt>
      <trkpt lat="47.32927" lon="-2.32635">
        <ele>13</ele>
        <time>2020-06-25T09:33:24.000Z</time>
      </trkpt>
      <trkpt lat="47.32936" lon="-2.32644">
        <ele>12.60000038147</ele>
        <time>2020-06-25T09:33:26.000Z</time>
      </trkpt>
      <trkpt lat="47.32942" lon="-2.32643">
        <ele>12.199999809265</ele>
        <time>2020-06-25T09:33:27.000Z</time>
      </trkpt>
      <trkpt lat="47.32948" lon="-2.32643">
        <ele>11.800000190735</ele>
        <time>2020-06-25T09:33:28.000Z</time>
      </trkpt>
      <trkpt lat="47.32954" lon="-2.32642">
        <ele>11.39999961853</ele>
        <time>2020-06-25T09:33:29.000Z</time>
      </trkpt>
      <trkpt lat="47.3296" lon="-2.3264">
        <ele>11</ele>
        <time>2020-06-25T09:33:30.000Z</time>
      </trkpt>
      <trkpt lat="47.3297" lon="-2.32637">
        <ele>11</ele>
        <time>2020-06-25T09:33:32.000Z</time>
      </trkpt>
      <trkpt lat="47.32976" lon="-2.32633">
        <ele>11</ele>
        <time>2020-06-25T09:33:33.000Z</time>
      </trkpt>
      <trkpt lat="47.32989" lon="-2.32627">
        <ele>11</ele>
        <time>2020-06-25T09:33:35.000Z</time>
      </trkpt>
      <trkpt lat="47.32995" lon="-2.32627">
        <ele>11</ele>
        <time>2020-06-25T09:33:36.000Z</time>
      </trkpt>
      <trkpt lat="47.33014" lon="-2.32634">
        <ele>11</ele>
        <time>2020-06-25T09:33:39.000Z</time>
      </trkpt>
      <trkpt lat="47.3302" lon="-2.32635">
        <ele>11</ele>
        <time>2020-06-25T09:33:40.000Z</time>
      </trkpt>
      <trkpt lat="47.33037" lon="-2.32631">
        <ele>10.60000038147</ele>
        <time>2020-06-25T09:33:43.000Z</time>
      </trkpt>
      <trkpt lat="47.33041" lon="-2.32627">
        <ele>10</ele>
        <time>2020-06-25T09:33:44.000Z</time>
      </trkpt>
      <trkpt lat="47.33046" lon="-2.32624">
        <ele>9.6000003814697</ele>
        <time>2020-06-25T09:33:45.000Z</time>
      </trkpt>
      <trkpt lat="47.33052" lon="-2.3262">
        <ele>9.1999998092651</ele>
        <time>2020-06-25T09:33:46.000Z</time>
      </trkpt>
      <trkpt lat="47.33058" lon="-2.32614">
        <ele>8.8000001907349</ele>
        <time>2020-06-25T09:33:47.000Z</time>
      </trkpt>
      <trkpt lat="47.33082" lon="-2.32595">
        <ele>9.1999998092651</ele>
        <time>2020-06-25T09:33:51.000Z</time>
      </trkpt>
      <trkpt lat="47.33087" lon="-2.3259">
        <ele>9.6000003814697</ele>
        <time>2020-06-25T09:33:52.000Z</time>
      </trkpt>
      <trkpt lat="47.33093" lon="-2.32584">
        <ele>10.199999809265</ele>
        <time>2020-06-25T09:33:53.000Z</time>
      </trkpt>
      <trkpt lat="47.33099" lon="-2.32579">
        <ele>10.60000038147</ele>
        <time>2020-06-25T09:33:54.000Z</time>
      </trkpt>
      <trkpt lat="47.33105" lon="-2.32574">
        <ele>11</ele>
        <time>2020-06-25T09:33:55.000Z</time>
      </trkpt>
      <trkpt lat="47.3313" lon="-2.32554">
        <ele>11</ele>
        <time>2020-06-25T09:33:59.000Z</time>
      </trkpt>
      <trkpt lat="47.33172" lon="-2.32525">
        <ele>11</ele>
        <time>2020-06-25T09:34:06.000Z</time>
      </trkpt>
      <trkpt lat="47.33202" lon="-2.32511">
        <ele>11.39999961853</ele>
        <time>2020-06-25T09:34:11.000Z</time>
      </trkpt>
      <trkpt lat="47.33208" lon="-2.32508">
        <ele>11.800000190735</ele>
        <time>2020-06-25T09:34:12.000Z</time>
      </trkpt>
      <trkpt lat="47.33214" lon="-2.32505">
        <ele>12.199999809265</ele>
        <time>2020-06-25T09:34:13.000Z</time>
      </trkpt>
      <trkpt lat="47.3322" lon="-2.32503">
        <ele>12.60000038147</ele>
        <time>2020-06-25T09:34:14.000Z</time>
      </trkpt>
      <trkpt lat="47.33227" lon="-2.325">
        <ele>13</ele>
        <time>2020-06-25T09:34:15.000Z</time>
      </trkpt>
      <trkpt lat="47.33251" lon="-2.32488">
        <ele>13</ele>
        <time>2020-06-25T09:34:19.000Z</time>
      </trkpt>
      <trkpt lat="47.33301" lon="-2.32465">
        <ele>13</ele>
        <time>2020-06-25T09:34:27.000Z</time>
      </trkpt>
      <trkpt lat="47.33331" lon="-2.32452">
        <ele>13</ele>
        <time>2020-06-25T09:34:32.000Z</time>
      </trkpt>
      <trkpt lat="47.33347" lon="-2.32433">
        <ele>13</ele>
        <time>2020-06-25T09:34:35.000Z</time>
      </trkpt>
      <trkpt lat="47.33365" lon="-2.32412">
        <ele>13</ele>
        <time>2020-06-25T09:34:38.000Z</time>
      </trkpt>
      <trkpt lat="47.33377" lon="-2.324">
        <ele>13</ele>
        <time>2020-06-25T09:34:40.000Z</time>
      </trkpt>
      <trkpt lat="47.33425" lon="-2.3236">
        <ele>13</ele>
        <time>2020-06-25T09:34:47.000Z</time>
      </trkpt>
      <trkpt lat="47.33467" lon="-2.32329">
        <ele>13</ele>
        <time>2020-06-25T09:34:53.000Z</time>
      </trkpt>
      <trkpt lat="47.33475" lon="-2.32325">
        <ele>12.60000038147</ele>
        <time>2020-06-25T09:34:54.000Z</time>
      </trkpt>
      <trkpt lat="47.33482" lon="-2.32322">
        <ele>12.199999809265</ele>
        <time>2020-06-25T09:34:55.000Z</time>
      </trkpt>
      <trkpt lat="47.33489" lon="-2.32319">
        <ele>11.800000190735</ele>
        <time>2020-06-25T09:34:56.000Z</time>
      </trkpt>
      <trkpt lat="47.33497" lon="-2.32316">
        <ele>11.39999961853</ele>
        <time>2020-06-25T09:34:57.000Z</time>
      </trkpt>
      <trkpt lat="47.33503" lon="-2.32313">
        <ele>11</ele>
        <time>2020-06-25T09:34:58.000Z</time>
      </trkpt>
      <trkpt lat="47.3351" lon="-2.3231">
        <ele>11</ele>
        <time>2020-06-25T09:34:59.000Z</time>
      </trkpt>
      <trkpt lat="47.3353" lon="-2.32303">
        <ele>11</ele>
        <time>2020-06-25T09:35:02.000Z</time>
      </trkpt>
      <trkpt lat="47.33542" lon="-2.32303">
        <ele>11</ele>
        <time>2020-06-25T09:35:04.000Z</time>
      </trkpt>
      <trkpt lat="47.33578" lon="-2.32293">
        <ele>11</ele>
        <time>2020-06-25T09:35:10.000Z</time>
      </trkpt>
      <trkpt lat="47.33596" lon="-2.3229">
        <ele>11</ele>
        <time>2020-06-25T09:35:13.000Z</time>
      </trkpt>
      <trkpt lat="47.33608" lon="-2.32287">
        <ele>11.39999961853</ele>
        <time>2020-06-25T09:35:15.000Z</time>
      </trkpt>
      <trkpt lat="47.33614" lon="-2.32286">
        <ele>11.800000190735</ele>
        <time>2020-06-25T09:35:16.000Z</time>
      </trkpt>
      <trkpt lat="47.3362" lon="-2.32286">
        <ele>12.199999809265</ele>
        <time>2020-06-25T09:35:17.000Z</time>
      </trkpt>
      <trkpt lat="47.33625" lon="-2.32284">
        <ele>12.60000038147</ele>
        <time>2020-06-25T09:35:18.000Z</time>
      </trkpt>
      <trkpt lat="47.33631" lon="-2.32283">
        <ele>13</ele>
        <time>2020-06-25T09:35:19.000Z</time>
      </trkpt>
      <trkpt lat="47.33647" lon="-2.32279">
        <ele>13</ele>
        <time>2020-06-25T09:35:22.000Z</time>
      </trkpt>
      <trkpt lat="47.33678" lon="-2.32263">
        <ele>13</ele>
        <time>2020-06-25T09:35:27.000Z</time>
      </trkpt>
      <trkpt lat="47.33725" lon="-2.32233">
        <ele>13</ele>
        <time>2020-06-25T09:35:35.000Z</time>
      </trkpt>
      <trkpt lat="47.33768" lon="-2.32213">
        <ele>13</ele>
        <time>2020-06-25T09:35:42.000Z</time>
      </trkpt>
      <trkpt lat="47.33812" lon="-2.32201">
        <ele>13</ele>
        <time>2020-06-25T09:35:49.000Z</time>
      </trkpt>
      <trkpt lat="47.33861" lon="-2.32193">
        <ele>13</ele>
        <time>2020-06-25T09:35:56.000Z</time>
      </trkpt>
      <trkpt lat="47.33907" lon="-2.32192">
        <ele>13</ele>
        <time>2020-06-25T09:36:02.000Z</time>
      </trkpt>
      <trkpt lat="47.33928" lon="-2.32194">
        <ele>13</ele>
        <time>2020-06-25T09:36:05.000Z</time>
      </trkpt>
      <trkpt lat="47.33942" lon="-2.32203">
        <ele>13</ele>
        <time>2020-06-25T09:36:07.000Z</time>
      </trkpt>
      <trkpt lat="47.33959" lon="-2.32212">
        <ele>13</ele>
        <time>2020-06-25T09:36:09.000Z</time>
      </trkpt>
      <trkpt lat="47.33967" lon="-2.32213">
        <ele>13</ele>
        <time>2020-06-25T09:36:10.000Z</time>
      </trkpt>
      <trkpt lat="47.33974" lon="-2.32213">
        <ele>12.60000038147</ele>
        <time>2020-06-25T09:36:11.000Z</time>
      </trkpt>
      <trkpt lat="47.33981" lon="-2.32213">
        <ele>12.199999809265</ele>
        <time>2020-06-25T09:36:12.000Z</time>
      </trkpt>
      <trkpt lat="47.33989" lon="-2.32212">
        <ele>11.800000190735</ele>
        <time>2020-06-25T09:36:13.000Z</time>
      </trkpt>
      <trkpt lat="47.33996" lon="-2.32211">
        <ele>11.39999961853</ele>
        <time>2020-06-25T09:36:14.000Z</time>
      </trkpt>
      <trkpt lat="47.34004" lon="-2.32211">
        <ele>11</ele>
        <time>2020-06-25T09:36:15.000Z</time>
      </trkpt>
      <trkpt lat="47.34062" lon="-2.32219">
        <ele>11</ele>
        <time>2020-06-25T09:36:23.000Z</time>
      </trkpt>
      <trkpt lat="47.34069" lon="-2.32223">
        <ele>11</ele>
        <time>2020-06-25T09:36:24.000Z</time>
      </trkpt>
      <trkpt lat="47.34083" lon="-2.32239">
        <ele>11</ele>
        <time>2020-06-25T09:36:27.000Z</time>
      </trkpt>
      <trkpt lat="47.34093" lon="-2.3227">
        <ele>11</ele>
        <time>2020-06-25T09:36:31.000Z</time>
      </trkpt>
      <trkpt lat="47.34095" lon="-2.32278">
        <ele>11</ele>
        <time>2020-06-25T09:36:32.000Z</time>
      </trkpt>
      <trkpt lat="47.34099" lon="-2.32293">
        <ele>11.39999961853</ele>
        <time>2020-06-25T09:36:34.000Z</time>
      </trkpt>
      <trkpt lat="47.34101" lon="-2.323">
        <ele>12</ele>
        <time>2020-06-25T09:36:35.000Z</time>
      </trkpt>
      <trkpt lat="47.34103" lon="-2.32307">
        <ele>12.39999961853</ele>
        <time>2020-06-25T09:36:36.000Z</time>
      </trkpt>
      <trkpt lat="47.34105" lon="-2.32314">
        <ele>12.800000190735</ele>
        <time>2020-06-25T09:36:37.000Z</time>
      </trkpt>
      <trkpt lat="47.34106" lon="-2.32322">
        <ele>13.199999809265</ele>
        <time>2020-06-25T09:36:38.000Z</time>
      </trkpt>
      <trkpt lat="47.34119" lon="-2.32364">
        <ele>13.199999809265</ele>
        <time>2020-06-25T09:36:44.000Z</time>
      </trkpt>
      <trkpt lat="47.3413" lon="-2.32403">
        <ele>13.60000038147</ele>
        <time>2020-06-25T09:36:49.000Z</time>
      </trkpt>
      <trkpt lat="47.34132" lon="-2.32412">
        <ele>14</ele>
        <time>2020-06-25T09:36:50.000Z</time>
      </trkpt>
      <trkpt lat="47.34134" lon="-2.32421">
        <ele>14.39999961853</ele>
        <time>2020-06-25T09:36:51.000Z</time>
      </trkpt>
      <trkpt lat="47.34136" lon="-2.3243">
        <ele>14.800000190735</ele>
        <time>2020-06-25T09:36:52.000Z</time>
      </trkpt>
      <trkpt lat="47.34139" lon="-2.32439">
        <ele>15.199999809265</ele>
        <time>2020-06-25T09:36:53.000Z</time>
      </trkpt>
      <trkpt lat="47.34149" lon="-2.32483">
        <ele>15.199999809265</ele>
        <time>2020-06-25T09:36:58.000Z</time>
      </trkpt>
      <trkpt lat="47.34155" lon="-2.32532">
        <ele>15.199999809265</ele>
        <time>2020-06-25T09:37:04.000Z</time>
      </trkpt>
      <trkpt lat="47.34156" lon="-2.32578">
        <ele>15.199999809265</ele>
        <time>2020-06-25T09:37:11.000Z</time>
      </trkpt>
      <trkpt lat="47.34154" lon="-2.32597">
        <ele>15.199999809265</ele>
        <time>2020-06-25T09:37:14.000Z</time>
      </trkpt>
      <trkpt lat="47.34155" lon="-2.3261">
        <ele>15.199999809265</ele>
        <time>2020-06-25T09:37:16.000Z</time>
      </trkpt>
      <trkpt lat="47.34158" lon="-2.32657">
        <ele>15.199999809265</ele>
        <time>2020-06-25T09:37:23.000Z</time>
      </trkpt>
      <trkpt lat="47.34162" lon="-2.3271">
        <ele>15.199999809265</ele>
        <time>2020-06-25T09:37:30.000Z</time>
      </trkpt>
      <trkpt lat="47.34163" lon="-2.32749">
        <ele>15.199999809265</ele>
        <time>2020-06-25T09:37:35.000Z</time>
      </trkpt>
      <trkpt lat="47.34164" lon="-2.32758">
        <ele>15.199999809265</ele>
        <time>2020-06-25T09:37:37.000Z</time>
      </trkpt>
      <trkpt lat="47.34165" lon="-2.32769">
        <ele>15.199999809265</ele>
        <time>2020-06-25T09:37:42.000Z</time>
      </trkpt>
      <trkpt lat="47.3417" lon="-2.32785">
        <ele>15.199999809265</ele>
        <time>2020-06-25T09:37:48.000Z</time>
      </trkpt>
      <trkpt lat="47.34173" lon="-2.32797">
        <ele>15.199999809265</ele>
        <time>2020-06-25T09:37:53.000Z</time>
      </trkpt>
      <trkpt lat="47.34174" lon="-2.32801">
        <ele>14.800000190735</ele>
        <time>2020-06-25T09:37:55.000Z</time>
      </trkpt>
      <trkpt lat="47.34176" lon="-2.32804">
        <ele>14.39999961853</ele>
        <time>2020-06-25T09:37:56.000Z</time>
      </trkpt>
      <trkpt lat="47.34177" lon="-2.32807">
        <ele>14</ele>
        <time>2020-06-25T09:37:57.000Z</time>
      </trkpt>
      <trkpt lat="47.34179" lon="-2.32811">
        <ele>13.199999809265</ele>
        <time>2020-06-25T09:37:58.000Z</time>
      </trkpt>
      <trkpt lat="47.34185" lon="-2.32827">
        <ele>13.199999809265</ele>
        <time>2020-06-25T09:38:02.000Z</time>
      </trkpt>
      <trkpt lat="47.34188" lon="-2.3283">
        <ele>13.199999809265</ele>
        <time>2020-06-25T09:38:03.000Z</time>
      </trkpt>
      <trkpt lat="47.34193" lon="-2.3284">
        <ele>13.199999809265</ele>
        <time>2020-06-25T09:38:06.000Z</time>
      </trkpt>
      <trkpt lat="47.34197" lon="-2.32847">
        <ele>13.199999809265</ele>
        <time>2020-06-25T09:38:08.000Z</time>
      </trkpt>
      <trkpt lat="47.34204" lon="-2.32859">
        <ele>13.199999809265</ele>
        <time>2020-06-25T09:38:11.000Z</time>
      </trkpt>
      <trkpt lat="47.34214" lon="-2.3288">
        <ele>13.199999809265</ele>
        <time>2020-06-25T09:38:16.000Z</time>
      </trkpt>
      <trkpt lat="47.34217" lon="-2.32886">
        <ele>12.800000190735</ele>
        <time>2020-06-25T09:38:19.000Z</time>
      </trkpt>
      <trkpt lat="47.34218" lon="-2.32888">
        <ele>12.39999961853</ele>
        <time>2020-06-25T09:38:20.000Z</time>
      </trkpt>
      <trkpt lat="47.34219" lon="-2.3289">
        <ele>12</ele>
        <time>2020-06-25T09:38:21.000Z</time>
      </trkpt>
      <trkpt lat="47.3422" lon="-2.32892">
        <ele>11.199999809265</ele>
        <time>2020-06-25T09:38:22.000Z</time>
      </trkpt>
      <trkpt lat="47.3423" lon="-2.32908">
        <ele>11.199999809265</ele>
        <time>2020-06-25T09:38:28.000Z</time>
      </trkpt>
      <trkpt lat="47.34239" lon="-2.32924">
        <ele>10.800000190735</ele>
        <time>2020-06-25T09:38:32.000Z</time>
      </trkpt>
      <trkpt lat="47.34241" lon="-2.32927">
        <ele>10.199999809265</ele>
        <time>2020-06-25T09:38:33.000Z</time>
      </trkpt>
      <trkpt lat="47.34243" lon="-2.3293">
        <ele>9.8000001907349</ele>
        <time>2020-06-25T09:38:34.000Z</time>
      </trkpt>
      <trkpt lat="47.34245" lon="-2.32933">
        <ele>9.3999996185303</ele>
        <time>2020-06-25T09:38:35.000Z</time>
      </trkpt>
      <trkpt lat="47.34247" lon="-2.32938">
        <ele>9</ele>
        <time>2020-06-25T09:38:36.000Z</time>
      </trkpt>
      <trkpt lat="47.34251" lon="-2.32949">
        <ele>9</ele>
        <time>2020-06-25T09:38:40.000Z</time>
      </trkpt>
      <trkpt lat="47.34256" lon="-2.32961">
        <ele>9</ele>
        <time>2020-06-25T09:38:44.000Z</time>
      </trkpt>
      <trkpt lat="47.34267" lon="-2.32983">
        <ele>9</ele>
        <time>2020-06-25T09:38:48.000Z</time>
      </trkpt>
      <trkpt lat="47.34281" lon="-2.33013">
        <ele>9</ele>
        <time>2020-06-25T09:38:53.000Z</time>
      </trkpt>
      <trkpt lat="47.34294" lon="-2.33044">
        <ele>9</ele>
        <time>2020-06-25T09:38:59.000Z</time>
      </trkpt>
      <trkpt lat="47.34302" lon="-2.33051">
        <ele>9</ele>
        <time>2020-06-25T09:39:02.000Z</time>
      </trkpt>
      <trkpt lat="47.34305" lon="-2.33052">
        <ele>9</ele>
        <time>2020-06-25T09:39:03.000Z</time>
      </trkpt>
      <trkpt lat="47.34321" lon="-2.3305">
        <ele>9</ele>
        <time>2020-06-25T09:39:06.000Z</time>
      </trkpt>
      <trkpt lat="47.34347" lon="-2.33046">
        <ele>9</ele>
        <time>2020-06-25T09:39:11.000Z</time>
      </trkpt>
      <trkpt lat="47.34357" lon="-2.3304">
        <ele>9</ele>
        <time>2020-06-25T09:39:13.000Z</time>
      </trkpt>
      <trkpt lat="47.34365" lon="-2.33043">
        <ele>9</ele>
        <time>2020-06-25T09:39:16.000Z</time>
      </trkpt>
      <trkpt lat="47.34372" lon="-2.33058">
        <ele>9</ele>
        <time>2020-06-25T09:39:21.000Z</time>
      </trkpt>
      <trkpt lat="47.3438" lon="-2.3308">
        <ele>9</ele>
        <time>2020-06-25T09:39:27.000Z</time>
      </trkpt>
      <trkpt lat="47.34385" lon="-2.33095">
        <ele>9</ele>
        <time>2020-06-25T09:39:34.000Z</time>
      </trkpt>
      <trkpt lat="47.3439" lon="-2.33113">
        <ele>9</ele>
        <time>2020-06-25T09:39:40.000Z</time>
      </trkpt>
      <trkpt lat="47.34397" lon="-2.33138">
        <ele>9</ele>
        <time>2020-06-25T09:39:47.000Z</time>
      </trkpt>
      <trkpt lat="47.34402" lon="-2.33159">
        <ele>9</ele>
        <time>2020-06-25T09:39:52.000Z</time>
      </trkpt>
      <trkpt lat="47.34404" lon="-2.33164">
        <ele>9</ele>
        <time>2020-06-25T09:39:54.000Z</time>
      </trkpt>
      <trkpt lat="47.3441" lon="-2.33191">
        <ele>9</ele>
        <time>2020-06-25T09:40:01.000Z</time>
      </trkpt>
      <trkpt lat="47.34416" lon="-2.33222">
        <ele>9</ele>
        <time>2020-06-25T09:40:07.000Z</time>
      </trkpt>
      <trkpt lat="47.34423" lon="-2.33251">
        <ele>9</ele>
        <time>2020-06-25T09:40:12.000Z</time>
      </trkpt>
      <trkpt lat="47.34435" lon="-2.33293">
        <ele>9</ele>
        <time>2020-06-25T09:40:19.000Z</time>
      </trkpt>
      <trkpt lat="47.3445" lon="-2.33304">
        <ele>9</ele>
        <time>2020-06-25T09:40:24.000Z</time>
      </trkpt>
      <trkpt lat="47.34457" lon="-2.33324">
        <ele>9</ele>
        <time>2020-06-25T09:40:29.000Z</time>
      </trkpt>
      <trkpt lat="47.34461" lon="-2.33352">
        <ele>9</ele>
        <time>2020-06-25T09:40:36.000Z</time>
      </trkpt>
      <trkpt lat="47.34464" lon="-2.33385">
        <ele>9</ele>
        <time>2020-06-25T09:40:43.000Z</time>
      </trkpt>
      <trkpt lat="47.3447" lon="-2.33419">
        <ele>9</ele>
        <time>2020-06-25T09:40:50.000Z</time>
      </trkpt>
      <trkpt lat="47.3447" lon="-2.33424">
        <ele>9.8000001907349</ele>
        <time>2020-06-25T09:40:51.000Z</time>
      </trkpt>
      <trkpt lat="47.3447" lon="-2.33429">
        <ele>10.39999961853</ele>
        <time>2020-06-25T09:40:52.000Z</time>
      </trkpt>
      <trkpt lat="47.34472" lon="-2.33434">
        <ele>10.800000190735</ele>
        <time>2020-06-25T09:40:53.000Z</time>
      </trkpt>
      <trkpt lat="47.34472" lon="-2.33438">
        <ele>11.199999809265</ele>
        <time>2020-06-25T09:40:54.000Z</time>
      </trkpt>
      <trkpt lat="47.34474" lon="-2.33449">
        <ele>11.199999809265</ele>
        <time>2020-06-25T09:40:56.000Z</time>
      </trkpt>
      <trkpt lat="47.34476" lon="-2.3348">
        <ele>11.199999809265</ele>
        <time>2020-06-25T09:41:02.000Z</time>
      </trkpt>
      <trkpt lat="47.3448" lon="-2.33509">
        <ele>11.199999809265</ele>
        <time>2020-06-25T09:41:08.000Z</time>
      </trkpt>
      <trkpt lat="47.34483" lon="-2.33539">
        <ele>11.199999809265</ele>
        <time>2020-06-25T09:41:14.000Z</time>
      </trkpt>
      <trkpt lat="47.34487" lon="-2.33562">
        <ele>11.199999809265</ele>
        <time>2020-06-25T09:41:20.000Z</time>
      </trkpt>
      <trkpt lat="47.34488" lon="-2.33575">
        <ele>11.199999809265</ele>
        <time>2020-06-25T09:41:26.000Z</time>
      </trkpt>
      <trkpt lat="47.34497" lon="-2.33585">
        <ele>11.199999809265</ele>
        <time>2020-06-25T09:41:31.000Z</time>
      </trkpt>
      <trkpt lat="47.34501" lon="-2.33603">
        <ele>11.199999809265</ele>
        <time>2020-06-25T09:41:36.000Z</time>
      </trkpt>
      <trkpt lat="47.34505" lon="-2.33624">
        <ele>11.60000038147</ele>
        <time>2020-06-25T09:41:41.000Z</time>
      </trkpt>
      <trkpt lat="47.34507" lon="-2.33629">
        <ele>12</ele>
        <time>2020-06-25T09:41:42.000Z</time>
      </trkpt>
      <trkpt lat="47.34508" lon="-2.33633">
        <ele>12.39999961853</ele>
        <time>2020-06-25T09:41:43.000Z</time>
      </trkpt>
      <trkpt lat="47.34509" lon="-2.33637">
        <ele>12.800000190735</ele>
        <time>2020-06-25T09:41:44.000Z</time>
      </trkpt>
      <trkpt lat="47.3451" lon="-2.33641">
        <ele>13.199999809265</ele>
        <time>2020-06-25T09:41:45.000Z</time>
      </trkpt>
      <trkpt lat="47.34513" lon="-2.33658">
        <ele>13.199999809265</ele>
        <time>2020-06-25T09:41:49.000Z</time>
      </trkpt>
      <trkpt lat="47.3452" lon="-2.33687">
        <ele>13.199999809265</ele>
        <time>2020-06-25T09:41:56.000Z</time>
      </trkpt>
      <trkpt lat="47.34523" lon="-2.33713">
        <ele>13.199999809265</ele>
        <time>2020-06-25T09:42:02.000Z</time>
      </trkpt>
      <trkpt lat="47.3453" lon="-2.33748">
        <ele>13.199999809265</ele>
        <time>2020-06-25T09:42:09.000Z</time>
      </trkpt>
      <trkpt lat="47.34538" lon="-2.33783">
        <ele>13.199999809265</ele>
        <time>2020-06-25T09:42:16.000Z</time>
      </trkpt>
      <trkpt lat="47.34546" lon="-2.33828">
        <ele>13.199999809265</ele>
        <time>2020-06-25T09:42:24.000Z</time>
      </trkpt>
      <trkpt lat="47.34551" lon="-2.33855">
        <ele>13.199999809265</ele>
        <time>2020-06-25T09:42:28.000Z</time>
      </trkpt>
      <trkpt lat="47.34554" lon="-2.3387">
        <ele>13.199999809265</ele>
        <time>2020-06-25T09:42:30.000Z</time>
      </trkpt>
      <trkpt lat="47.34553" lon="-2.33877">
        <ele>13.199999809265</ele>
        <time>2020-06-25T09:42:32.000Z</time>
      </trkpt>
      <trkpt lat="47.34552" lon="-2.33878">
        <ele>13.199999809265</ele>
        <time>2020-06-25T09:42:33.000Z</time>
      </trkpt>
      <trkpt lat="47.34551" lon="-2.33878">
        <ele>13.199999809265</ele>
        <time>2020-06-25T09:42:35.000Z</time>
      </trkpt>
      <trkpt lat="47.34544" lon="-2.33884">
        <ele>13.199999809265</ele>
        <time>2020-06-25T09:42:45.000Z</time>
      </trkpt>
      <trkpt lat="47.34542" lon="-2.33885">
        <ele>13.199999809265</ele>
        <time>2020-06-25T09:42:46.000Z</time>
      </trkpt>
      <trkpt lat="47.3453" lon="-2.3389">
        <ele>13.199999809265</ele>
        <time>2020-06-25T09:42:51.000Z</time>
      </trkpt>
      <trkpt lat="47.34512" lon="-2.33898">
        <ele>13.199999809265</ele>
        <time>2020-06-25T09:42:58.000Z</time>
      </trkpt>
      <trkpt lat="47.34497" lon="-2.33904">
        <ele>13.199999809265</ele>
        <time>2020-06-25T09:43:04.000Z</time>
      </trkpt>
      <trkpt lat="47.34476" lon="-2.33912">
        <ele>13.199999809265</ele>
        <time>2020-06-25T09:43:11.000Z</time>
      </trkpt>
      <trkpt lat="47.34466" lon="-2.33915">
        <ele>13.60000038147</ele>
        <time>2020-06-25T09:43:14.000Z</time>
      </trkpt>
      <trkpt lat="47.34463" lon="-2.33917">
        <ele>14</ele>
        <time>2020-06-25T09:43:15.000Z</time>
      </trkpt>
      <trkpt lat="47.3446" lon="-2.33919">
        <ele>14.39999961853</ele>
        <time>2020-06-25T09:43:16.000Z</time>
      </trkpt>
      <trkpt lat="47.34456" lon="-2.3392">
        <ele>14.800000190735</ele>
        <time>2020-06-25T09:43:17.000Z</time>
      </trkpt>
      <trkpt lat="47.34453" lon="-2.33922">
        <ele>15.39999961853</ele>
        <time>2020-06-25T09:43:18.000Z</time>
      </trkpt>
      <trkpt lat="47.34436" lon="-2.33932">
        <ele>15.39999961853</ele>
        <time>2020-06-25T09:43:24.000Z</time>
      </trkpt>
      <trkpt lat="47.34421" lon="-2.33939">
        <ele>15.39999961853</ele>
        <time>2020-06-25T09:43:30.000Z</time>
      </trkpt>
      <trkpt lat="47.34404" lon="-2.3395">
        <ele>15.39999961853</ele>
        <time>2020-06-25T09:43:37.000Z</time>
      </trkpt>
      <trkpt lat="47.34393" lon="-2.33951">
        <ele>15.39999961853</ele>
        <time>2020-06-25T09:43:42.000Z</time>
      </trkpt>
      <trkpt lat="47.34386" lon="-2.3396">
        <ele>15.39999961853</ele>
        <time>2020-06-25T09:43:47.000Z</time>
      </trkpt>
      <trkpt lat="47.34386" lon="-2.33963">
        <ele>15.39999961853</ele>
        <time>2020-06-25T09:43:48.000Z</time>
      </trkpt>
      <trkpt lat="47.34388" lon="-2.3398">
        <ele>15.39999961853</ele>
        <time>2020-06-25T09:43:54.000Z</time>
      </trkpt>
      <trkpt lat="47.3439" lon="-2.34001">
        <ele>15.39999961853</ele>
        <time>2020-06-25T09:44:00.000Z</time>
      </trkpt>
      <trkpt lat="47.34391" lon="-2.34023">
        <ele>15.39999961853</ele>
        <time>2020-06-25T09:44:05.000Z</time>
      </trkpt>
      <trkpt lat="47.34399" lon="-2.34052">
        <ele>15.39999961853</ele>
        <time>2020-06-25T09:44:12.000Z</time>
      </trkpt>
      <trkpt lat="47.34399" lon="-2.3406">
        <ele>15.39999961853</ele>
        <time>2020-06-25T09:44:14.000Z</time>
      </trkpt>
      <trkpt lat="47.34396" lon="-2.34068">
        <ele>15.39999961853</ele>
        <time>2020-06-25T09:44:16.000Z</time>
      </trkpt>
      <trkpt lat="47.34384" lon="-2.3408">
        <ele>15.39999961853</ele>
        <time>2020-06-25T09:44:21.000Z</time>
      </trkpt>
      <trkpt lat="47.34375" lon="-2.34086">
        <ele>15.39999961853</ele>
        <time>2020-06-25T09:44:24.000Z</time>
      </trkpt>
      <trkpt lat="47.34367" lon="-2.34093">
        <ele>15.39999961853</ele>
        <time>2020-06-25T09:44:27.000Z</time>
      </trkpt>
      <trkpt lat="47.34352" lon="-2.34104">
        <ele>15.39999961853</ele>
        <time>2020-06-25T09:44:33.000Z</time>
      </trkpt>
      <trkpt lat="47.3435" lon="-2.34106">
        <ele>15.39999961853</ele>
        <time>2020-06-25T09:44:34.000Z</time>
      </trkpt>
      <trkpt lat="47.34328" lon="-2.34124">
        <ele>15.39999961853</ele>
        <time>2020-06-25T09:44:42.000Z</time>
      </trkpt>
      <trkpt lat="47.34308" lon="-2.34145">
        <ele>15.39999961853</ele>
        <time>2020-06-25T09:44:48.000Z</time>
      </trkpt>
      <trkpt lat="47.3429" lon="-2.34161">
        <ele>15.39999961853</ele>
        <time>2020-06-25T09:44:54.000Z</time>
      </trkpt>
      <trkpt lat="47.34286" lon="-2.34165">
        <ele>15.39999961853</ele>
        <time>2020-06-25T09:44:55.000Z</time>
      </trkpt>
      <trkpt lat="47.34279" lon="-2.34173">
        <ele>15.800000190735</ele>
        <time>2020-06-25T09:44:57.000Z</time>
      </trkpt>
      <trkpt lat="47.34276" lon="-2.34176">
        <ele>16.60000038147</ele>
        <time>2020-06-25T09:44:58.000Z</time>
      </trkpt>
      <trkpt lat="47.34273" lon="-2.34179">
        <ele>17</ele>
        <time>2020-06-25T09:44:59.000Z</time>
      </trkpt>
      <trkpt lat="47.34269" lon="-2.34182">
        <ele>17.39999961853</ele>
        <time>2020-06-25T09:45:00.000Z</time>
      </trkpt>
      <trkpt lat="47.34248" lon="-2.34202">
        <ele>17.39999961853</ele>
        <time>2020-06-25T09:45:06.000Z</time>
      </trkpt>
      <trkpt lat="47.34227" lon="-2.34219">
        <ele>17.39999961853</ele>
        <time>2020-06-25T09:45:12.000Z</time>
      </trkpt>
      <trkpt lat="47.34223" lon="-2.34222">
        <ele>17.799999237061</ele>
        <time>2020-06-25T09:45:13.000Z</time>
      </trkpt>
      <trkpt lat="47.3422" lon="-2.34225">
        <ele>18.200000762939</ele>
        <time>2020-06-25T09:45:14.000Z</time>
      </trkpt>
      <trkpt lat="47.34216" lon="-2.34228">
        <ele>18.60000038147</ele>
        <time>2020-06-25T09:45:15.000Z</time>
      </trkpt>
      <trkpt lat="47.34212" lon="-2.34232">
        <ele>19</ele>
        <time>2020-06-25T09:45:16.000Z</time>
      </trkpt>
      <trkpt lat="47.34209" lon="-2.34236">
        <ele>19.39999961853</ele>
        <time>2020-06-25T09:45:17.000Z</time>
      </trkpt>
      <trkpt lat="47.34198" lon="-2.34249">
        <ele>19.39999961853</ele>
        <time>2020-06-25T09:45:20.000Z</time>
      </trkpt>
      <trkpt lat="47.34178" lon="-2.34285">
        <ele>19.39999961853</ele>
        <time>2020-06-25T09:45:27.000Z</time>
      </trkpt>
      <trkpt lat="47.34171" lon="-2.34304">
        <ele>19.39999961853</ele>
        <time>2020-06-25T09:45:30.000Z</time>
      </trkpt>
      <trkpt lat="47.34162" lon="-2.34321">
        <ele>19.39999961853</ele>
        <time>2020-06-25T09:45:33.000Z</time>
      </trkpt>
      <trkpt lat="47.34158" lon="-2.34325">
        <ele>19.39999961853</ele>
        <time>2020-06-25T09:45:34.000Z</time>
      </trkpt>
      <trkpt lat="47.34141" lon="-2.34347">
        <ele>19.39999961853</ele>
        <time>2020-06-25T09:45:39.000Z</time>
      </trkpt>
      <trkpt lat="47.34138" lon="-2.34352">
        <ele>19.39999961853</ele>
        <time>2020-06-25T09:45:40.000Z</time>
      </trkpt>
      <trkpt lat="47.34123" lon="-2.34374">
        <ele>19.799999237061</ele>
        <time>2020-06-25T09:45:45.000Z</time>
      </trkpt>
      <trkpt lat="47.3412" lon="-2.34378">
        <ele>20.39999961853</ele>
        <time>2020-06-25T09:45:46.000Z</time>
      </trkpt>
      <trkpt lat="47.34116" lon="-2.34381">
        <ele>20.799999237061</ele>
        <time>2020-06-25T09:45:47.000Z</time>
      </trkpt>
      <trkpt lat="47.34112" lon="-2.34384">
        <ele>21.60000038147</ele>
        <time>2020-06-25T09:45:48.000Z</time>
      </trkpt>
      <trkpt lat="47.34103" lon="-2.34388">
        <ele>21.60000038147</ele>
        <time>2020-06-25T09:45:50.000Z</time>
      </trkpt>
      <trkpt lat="47.34099" lon="-2.3439">
        <ele>21.60000038147</ele>
        <time>2020-06-25T09:45:51.000Z</time>
      </trkpt>
      <trkpt lat="47.34095" lon="-2.34394">
        <ele>21.60000038147</ele>
        <time>2020-06-25T09:45:52.000Z</time>
      </trkpt>
      <trkpt lat="47.34087" lon="-2.34402">
        <ele>21.60000038147</ele>
        <time>2020-06-25T09:45:54.000Z</time>
      </trkpt>
      <trkpt lat="47.3408" lon="-2.3441">
        <ele>21.60000038147</ele>
        <time>2020-06-25T09:45:56.000Z</time>
      </trkpt>
      <trkpt lat="47.34071" lon="-2.34417">
        <ele>21.60000038147</ele>
        <time>2020-06-25T09:45:58.000Z</time>
      </trkpt>
      <trkpt lat="47.34059" lon="-2.34424">
        <ele>21.60000038147</ele>
        <time>2020-06-25T09:46:01.000Z</time>
      </trkpt>
      <trkpt lat="47.34035" lon="-2.34431">
        <ele>21.60000038147</ele>
        <time>2020-06-25T09:46:07.000Z</time>
      </trkpt>
      <trkpt lat="47.34027" lon="-2.34447">
        <ele>21.60000038147</ele>
        <time>2020-06-25T09:46:11.000Z</time>
      </trkpt>
      <trkpt lat="47.34033" lon="-2.34463">
        <ele>21.60000038147</ele>
        <time>2020-06-25T09:46:14.000Z</time>
      </trkpt>
      <trkpt lat="47.34036" lon="-2.34468">
        <ele>22</ele>
        <time>2020-06-25T09:46:15.000Z</time>
      </trkpt>
      <trkpt lat="47.34039" lon="-2.34474">
        <ele>22.39999961853</ele>
        <time>2020-06-25T09:46:16.000Z</time>
      </trkpt>
      <trkpt lat="47.34042" lon="-2.3448">
        <ele>22.799999237061</ele>
        <time>2020-06-25T09:46:17.000Z</time>
      </trkpt>
      <trkpt lat="47.34045" lon="-2.34486">
        <ele>23.200000762939</ele>
        <time>2020-06-25T09:46:18.000Z</time>
      </trkpt>
      <trkpt lat="47.34046" lon="-2.34492">
        <ele>23.60000038147</ele>
        <time>2020-06-25T09:46:19.000Z</time>
      </trkpt>
      <trkpt lat="47.34051" lon="-2.34504">
        <ele>23.60000038147</ele>
        <time>2020-06-25T09:46:21.000Z</time>
      </trkpt>
      <trkpt lat="47.34064" lon="-2.34557">
        <ele>23.60000038147</ele>
        <time>2020-06-25T09:46:29.000Z</time>
      </trkpt>
      <trkpt lat="47.34062" lon="-2.34579">
        <ele>23.60000038147</ele>
        <time>2020-06-25T09:46:33.000Z</time>
      </trkpt>
      <trkpt lat="47.34059" lon="-2.34582">
        <ele>23.60000038147</ele>
        <time>2020-06-25T09:46:34.000Z</time>
      </trkpt>
      <trkpt lat="47.34045" lon="-2.34591">
        <ele>23.60000038147</ele>
        <time>2020-06-25T09:46:38.000Z</time>
      </trkpt>
      <trkpt lat="47.34041" lon="-2.34594">
        <ele>23.60000038147</ele>
        <time>2020-06-25T09:46:39.000Z</time>
      </trkpt>
      <trkpt lat="47.34022" lon="-2.34602">
        <ele>24</ele>
        <time>2020-06-25T09:46:44.000Z</time>
      </trkpt>
      <trkpt lat="47.34019" lon="-2.34602">
        <ele>24.39999961853</ele>
        <time>2020-06-25T09:46:45.000Z</time>
      </trkpt>
      <trkpt lat="47.34015" lon="-2.34602">
        <ele>24.799999237061</ele>
        <time>2020-06-25T09:46:46.000Z</time>
      </trkpt>
      <trkpt lat="47.34011" lon="-2.34602">
        <ele>25.200000762939</ele>
        <time>2020-06-25T09:46:47.000Z</time>
      </trkpt>
      <trkpt lat="47.34008" lon="-2.34602">
        <ele>25.60000038147</ele>
        <time>2020-06-25T09:46:48.000Z</time>
      </trkpt>
      <trkpt lat="47.33992" lon="-2.34599">
        <ele>25.60000038147</ele>
        <time>2020-06-25T09:46:52.000Z</time>
      </trkpt>
      <trkpt lat="47.33962" lon="-2.34593">
        <ele>25.60000038147</ele>
        <time>2020-06-25T09:46:59.000Z</time>
      </trkpt>
      <trkpt lat="47.33936" lon="-2.34593">
        <ele>25.60000038147</ele>
        <time>2020-06-25T09:47:04.000Z</time>
      </trkpt>
      <trkpt lat="47.33931" lon="-2.34593">
        <ele>25.60000038147</ele>
        <time>2020-06-25T09:47:05.000Z</time>
      </trkpt>
      <trkpt lat="47.33911" lon="-2.34593">
        <ele>25.60000038147</ele>
        <time>2020-06-25T09:47:09.000Z</time>
      </trkpt>
      <trkpt lat="47.33902" lon="-2.34595">
        <ele>25.60000038147</ele>
        <time>2020-06-25T09:47:11.000Z</time>
      </trkpt>
      <trkpt lat="47.33897" lon="-2.34596">
        <ele>25.60000038147</ele>
        <time>2020-06-25T09:47:12.000Z</time>
      </trkpt>
      <trkpt lat="47.33889" lon="-2.34607">
        <ele>25.60000038147</ele>
        <time>2020-06-25T09:47:15.000Z</time>
      </trkpt>
      <trkpt lat="47.33887" lon="-2.34612">
        <ele>25.60000038147</ele>
        <time>2020-06-25T09:47:16.000Z</time>
      </trkpt>
      <trkpt lat="47.33884" lon="-2.3464">
        <ele>25.60000038147</ele>
        <time>2020-06-25T09:47:21.000Z</time>
      </trkpt>
      <trkpt lat="47.33878" lon="-2.3468">
        <ele>25.60000038147</ele>
        <time>2020-06-25T09:47:27.000Z</time>
      </trkpt>
      <trkpt lat="47.33876" lon="-2.34712">
        <ele>25.60000038147</ele>
        <time>2020-06-25T09:47:32.000Z</time>
      </trkpt>
      <trkpt lat="47.33872" lon="-2.34747">
        <ele>25.60000038147</ele>
        <time>2020-06-25T09:47:37.000Z</time>
      </trkpt>
      <trkpt lat="47.3387" lon="-2.34768">
        <ele>24.39999961853</ele>
        <time>2020-06-25T09:47:38.000Z</time>
      </trkpt>
      <trkpt lat="47.3387" lon="-2.34775">
        <ele>24</ele>
        <time>2020-06-25T09:47:41.000Z</time>
      </trkpt>
      <trkpt lat="47.33869" lon="-2.34782">
        <ele>23.60000038147</ele>
        <time>2020-06-25T09:47:42.000Z</time>
      </trkpt>
      <trkpt lat="47.33865" lon="-2.3481">
        <ele>23.60000038147</ele>
        <time>2020-06-25T09:47:46.000Z</time>
      </trkpt>
      <trkpt lat="47.33855" lon="-2.34838">
        <ele>23.200000762939</ele>
        <time>2020-06-25T09:47:52.000Z</time>
      </trkpt>
      <trkpt lat="47.33853" lon="-2.34839">
        <ele>22.799999237061</ele>
        <time>2020-06-25T09:47:53.000Z</time>
      </trkpt>
      <trkpt lat="47.3385" lon="-2.34841">
        <ele>22.39999961853</ele>
        <time>2020-06-25T09:47:54.000Z</time>
      </trkpt>
      <trkpt lat="47.33847" lon="-2.34843">
        <ele>22</ele>
        <time>2020-06-25T09:47:55.000Z</time>
      </trkpt>
      <trkpt lat="47.33842" lon="-2.34848">
        <ele>21.60000038147</ele>
        <time>2020-06-25T09:47:56.000Z</time>
      </trkpt>
      <trkpt lat="47.33838" lon="-2.34852">
        <ele>21.60000038147</ele>
        <time>2020-06-25T09:47:57.000Z</time>
      </trkpt>
      <trkpt lat="47.33824" lon="-2.34865">
        <ele>21.60000038147</ele>
        <time>2020-06-25T09:48:02.000Z</time>
      </trkpt>
      <trkpt lat="47.33823" lon="-2.34867">
        <ele>21.60000038147</ele>
        <time>2020-06-25T09:48:03.000Z</time>
      </trkpt>
      <trkpt lat="47.3382" lon="-2.34872">
        <ele>21.60000038147</ele>
        <time>2020-06-25T09:48:07.000Z</time>
      </trkpt>
      <trkpt lat="47.33818" lon="-2.34876">
        <ele>21.60000038147</ele>
        <time>2020-06-25T09:48:10.000Z</time>
      </trkpt>
      <trkpt lat="47.33812" lon="-2.3489">
        <ele>21.60000038147</ele>
        <time>2020-06-25T09:48:34.000Z</time>
      </trkpt>
      <trkpt lat="47.3381" lon="-2.34898">
        <ele>21.60000038147</ele>
        <time>2020-06-25T09:48:36.000Z</time>
      </trkpt>
      <trkpt lat="47.33801" lon="-2.34916">
        <ele>21.60000038147</ele>
        <time>2020-06-25T09:48:40.000Z</time>
      </trkpt>
      <trkpt lat="47.33784" lon="-2.3494">
        <ele>21.60000038147</ele>
        <time>2020-06-25T09:48:46.000Z</time>
      </trkpt>
      <trkpt lat="47.33762" lon="-2.34962">
        <ele>22</ele>
        <time>2020-06-25T09:48:51.000Z</time>
      </trkpt>
      <trkpt lat="47.33756" lon="-2.34967">
        <ele>22.39999961853</ele>
        <time>2020-06-25T09:48:52.000Z</time>
      </trkpt>
      <trkpt lat="47.33752" lon="-2.3497">
        <ele>22.799999237061</ele>
        <time>2020-06-25T09:48:53.000Z</time>
      </trkpt>
      <trkpt lat="47.33748" lon="-2.34973">
        <ele>23.200000762939</ele>
        <time>2020-06-25T09:48:54.000Z</time>
      </trkpt>
      <trkpt lat="47.33743" lon="-2.34977">
        <ele>23.60000038147</ele>
        <time>2020-06-25T09:48:55.000Z</time>
      </trkpt>
      <trkpt lat="47.33731" lon="-2.34988">
        <ele>23.60000038147</ele>
        <time>2020-06-25T09:48:58.000Z</time>
      </trkpt>
      <trkpt lat="47.33708" lon="-2.35001">
        <ele>23.60000038147</ele>
        <time>2020-06-25T09:49:04.000Z</time>
      </trkpt>
      <trkpt lat="47.33704" lon="-2.34999">
        <ele>23.60000038147</ele>
        <time>2020-06-25T09:49:05.000Z</time>
      </trkpt>
      <trkpt lat="47.33698" lon="-2.34992">
        <ele>23.60000038147</ele>
        <time>2020-06-25T09:49:07.000Z</time>
      </trkpt>
      <trkpt lat="47.33685" lon="-2.34976">
        <ele>23.60000038147</ele>
        <time>2020-06-25T09:49:11.000Z</time>
      </trkpt>
      <trkpt lat="47.33677" lon="-2.34969">
        <ele>23.60000038147</ele>
        <time>2020-06-25T09:49:13.000Z</time>
      </trkpt>
      <trkpt lat="47.33668" lon="-2.34963">
        <ele>23.60000038147</ele>
        <time>2020-06-25T09:49:15.000Z</time>
      </trkpt>
      <trkpt lat="47.33659" lon="-2.34964">
        <ele>23.60000038147</ele>
        <time>2020-06-25T09:49:17.000Z</time>
      </trkpt>
      <trkpt lat="47.33652" lon="-2.34967">
        <ele>23.60000038147</ele>
        <time>2020-06-25T09:49:19.000Z</time>
      </trkpt>
      <trkpt lat="47.33645" lon="-2.34965">
        <ele>23.60000038147</ele>
        <time>2020-06-25T09:49:21.000Z</time>
      </trkpt>
      <trkpt lat="47.33634" lon="-2.34959">
        <ele>24</ele>
        <time>2020-06-25T09:49:25.000Z</time>
      </trkpt>
      <trkpt lat="47.33631" lon="-2.34957">
        <ele>24.39999961853</ele>
        <time>2020-06-25T09:49:26.000Z</time>
      </trkpt>
      <trkpt lat="47.33628" lon="-2.34955">
        <ele>24.799999237061</ele>
        <time>2020-06-25T09:49:27.000Z</time>
      </trkpt>
      <trkpt lat="47.33624" lon="-2.34953">
        <ele>25.200000762939</ele>
        <time>2020-06-25T09:49:28.000Z</time>
      </trkpt>
      <trkpt lat="47.33622" lon="-2.34951">
        <ele>25.60000038147</ele>
        <time>2020-06-25T09:49:29.000Z</time>
      </trkpt>
      <trkpt lat="47.336" lon="-2.34942">
        <ele>25.60000038147</ele>
        <time>2020-06-25T09:49:36.000Z</time>
      </trkpt>
      <trkpt lat="47.33575" lon="-2.34928">
        <ele>25.60000038147</ele>
        <time>2020-06-25T09:49:43.000Z</time>
      </trkpt>
      <trkpt lat="47.33569" lon="-2.34923">
        <ele>26</ele>
        <time>2020-06-25T09:49:45.000Z</time>
      </trkpt>
      <trkpt lat="47.33566" lon="-2.34922">
        <ele>26.39999961853</ele>
        <time>2020-06-25T09:49:46.000Z</time>
      </trkpt>
      <trkpt lat="47.33562" lon="-2.34921">
        <ele>27</ele>
        <time>2020-06-25T09:49:47.000Z</time>
      </trkpt>
      <trkpt lat="47.33557" lon="-2.34919">
        <ele>27.39999961853</ele>
        <time>2020-06-25T09:49:48.000Z</time>
      </trkpt>
      <trkpt lat="47.33553" lon="-2.34917">
        <ele>27.799999237061</ele>
        <time>2020-06-25T09:49:49.000Z</time>
      </trkpt>
      <trkpt lat="47.33524" lon="-2.34901">
        <ele>27.799999237061</ele>
        <time>2020-06-25T09:49:56.000Z</time>
      </trkpt>
      <trkpt lat="47.33493" lon="-2.34895">
        <ele>27.799999237061</ele>
        <time>2020-06-25T09:50:03.000Z</time>
      </trkpt>
      <trkpt lat="47.33465" lon="-2.34901">
        <ele>27.799999237061</ele>
        <time>2020-06-25T09:50:09.000Z</time>
      </trkpt>
      <trkpt lat="47.3343" lon="-2.34914">
        <ele>27.799999237061</ele>
        <time>2020-06-25T09:50:16.000Z</time>
      </trkpt>
      <trkpt lat="47.33394" lon="-2.34926">
        <ele>27.799999237061</ele>
        <time>2020-06-25T09:50:23.000Z</time>
      </trkpt>
      <trkpt lat="47.33381" lon="-2.34929">
        <ele>27.799999237061</ele>
        <time>2020-06-25T09:50:28.000Z</time>
      </trkpt>
      <trkpt lat="47.33362" lon="-2.34932">
        <ele>27.799999237061</ele>
        <time>2020-06-25T09:50:33.000Z</time>
      </trkpt>
      <trkpt lat="47.33341" lon="-2.34934">
        <ele>27.799999237061</ele>
        <time>2020-06-25T09:50:39.000Z</time>
      </trkpt>
      <trkpt lat="47.33335" lon="-2.34935">
        <ele>27.799999237061</ele>
        <time>2020-06-25T09:50:43.000Z</time>
      </trkpt>
      <trkpt lat="47.33323" lon="-2.34935">
        <ele>25.799999237061</ele>
        <time>2020-06-25T09:51:08.000Z</time>
      </trkpt>
      <trkpt lat="47.33309" lon="-2.34936">
        <ele>25.799999237061</ele>
        <time>2020-06-25T09:51:14.000Z</time>
      </trkpt>
      <trkpt lat="47.33291" lon="-2.34934">
        <ele>25.799999237061</ele>
        <time>2020-06-25T09:51:19.000Z</time>
      </trkpt>
      <trkpt lat="47.33265" lon="-2.34937">
        <ele>25.799999237061</ele>
        <time>2020-06-25T09:51:26.000Z</time>
      </trkpt>
      <trkpt lat="47.33249" lon="-2.34948">
        <ele>25.799999237061</ele>
        <time>2020-06-25T09:51:31.000Z</time>
      </trkpt>
      <trkpt lat="47.33226" lon="-2.34957">
        <ele>25.799999237061</ele>
        <time>2020-06-25T09:51:38.000Z</time>
      </trkpt>
      <trkpt lat="47.33205" lon="-2.34978">
        <ele>25.799999237061</ele>
        <time>2020-06-25T09:51:45.000Z</time>
      </trkpt>
      <trkpt lat="47.33189" lon="-2.34998">
        <ele>25.799999237061</ele>
        <time>2020-06-25T09:51:51.000Z</time>
      </trkpt>
      <trkpt lat="47.33174" lon="-2.35012">
        <ele>25.799999237061</ele>
        <time>2020-06-25T09:51:56.000Z</time>
      </trkpt>
      <trkpt lat="47.33157" lon="-2.35002">
        <ele>25.799999237061</ele>
        <time>2020-06-25T09:52:03.000Z</time>
      </trkpt>
      <trkpt lat="47.3315" lon="-2.35005">
        <ele>25.799999237061</ele>
        <time>2020-06-25T09:52:06.000Z</time>
      </trkpt>
      <trkpt lat="47.33148" lon="-2.35007">
        <ele>25.799999237061</ele>
        <time>2020-06-25T09:52:07.000Z</time>
      </trkpt>
      <trkpt lat="47.3314" lon="-2.35025">
        <ele>25.799999237061</ele>
        <time>2020-06-25T09:52:12.000Z</time>
      </trkpt>
      <trkpt lat="47.33124" lon="-2.3505">
        <ele>25.799999237061</ele>
        <time>2020-06-25T09:52:18.000Z</time>
      </trkpt>
      <trkpt lat="47.33108" lon="-2.3507">
        <ele>25.799999237061</ele>
        <time>2020-06-25T09:52:23.000Z</time>
      </trkpt>
      <trkpt lat="47.33095" lon="-2.3509">
        <ele>25.799999237061</ele>
        <time>2020-06-25T09:52:28.000Z</time>
      </trkpt>
      <trkpt lat="47.33076" lon="-2.35116">
        <ele>25.799999237061</ele>
        <time>2020-06-25T09:52:35.000Z</time>
      </trkpt>
      <trkpt lat="47.33063" lon="-2.35139">
        <ele>25.799999237061</ele>
        <time>2020-06-25T09:52:41.000Z</time>
      </trkpt>
      <trkpt lat="47.33049" lon="-2.35166">
        <ele>25.799999237061</ele>
        <time>2020-06-25T09:52:46.000Z</time>
      </trkpt>
      <trkpt lat="47.33034" lon="-2.35183">
        <ele>25.799999237061</ele>
        <time>2020-06-25T09:52:51.000Z</time>
      </trkpt>
      <trkpt lat="47.33026" lon="-2.35171">
        <ele>25.799999237061</ele>
        <time>2020-06-25T09:52:55.000Z</time>
      </trkpt>
      <trkpt lat="47.33024" lon="-2.35167">
        <ele>25.799999237061</ele>
        <time>2020-06-25T09:52:56.000Z</time>
      </trkpt>
      <trkpt lat="47.33018" lon="-2.3514">
        <ele>25.799999237061</ele>
        <time>2020-06-25T09:53:02.000Z</time>
      </trkpt>
      <trkpt lat="47.33015" lon="-2.35109">
        <ele>25.799999237061</ele>
        <time>2020-06-25T09:53:08.000Z</time>
      </trkpt>
      <trkpt lat="47.33011" lon="-2.35078">
        <ele>25.799999237061</ele>
        <time>2020-06-25T09:53:14.000Z</time>
      </trkpt>
      <trkpt lat="47.33008" lon="-2.35057">
        <ele>25.799999237061</ele>
        <time>2020-06-25T09:53:18.000Z</time>
      </trkpt>
      <trkpt lat="47.33003" lon="-2.35037">
        <ele>25.799999237061</ele>
        <time>2020-06-25T09:53:23.000Z</time>
      </trkpt>
      <trkpt lat="47.32993" lon="-2.35018">
        <ele>25.799999237061</ele>
        <time>2020-06-25T09:53:28.000Z</time>
      </trkpt>
      <trkpt lat="47.32989" lon="-2.35007">
        <ele>25.200000762939</ele>
        <time>2020-06-25T09:53:30.000Z</time>
      </trkpt>
      <trkpt lat="47.32986" lon="-2.35002">
        <ele>24.799999237061</ele>
        <time>2020-06-25T09:53:31.000Z</time>
      </trkpt>
      <trkpt lat="47.32985" lon="-2.34997">
        <ele>24.39999961853</ele>
        <time>2020-06-25T09:53:32.000Z</time>
      </trkpt>
      <trkpt lat="47.32983" lon="-2.34992">
        <ele>24</ele>
        <time>2020-06-25T09:53:33.000Z</time>
      </trkpt>
      <trkpt lat="47.32981" lon="-2.34986">
        <ele>23.60000038147</ele>
        <time>2020-06-25T09:53:34.000Z</time>
      </trkpt>
      <trkpt lat="47.32968" lon="-2.34949">
        <ele>23.60000038147</ele>
        <time>2020-06-25T09:53:40.000Z</time>
      </trkpt>
      <trkpt lat="47.32953" lon="-2.34902">
        <ele>23.60000038147</ele>
        <time>2020-06-25T09:53:47.000Z</time>
      </trkpt>
      <trkpt lat="47.32941" lon="-2.34867">
        <ele>23.60000038147</ele>
        <time>2020-06-25T09:53:53.000Z</time>
      </trkpt>
      <trkpt lat="47.32927" lon="-2.34833">
        <ele>23.60000038147</ele>
        <time>2020-06-25T09:53:59.000Z</time>
      </trkpt>
      <trkpt lat="47.32924" lon="-2.34828">
        <ele>23.60000038147</ele>
        <time>2020-06-25T09:54:00.000Z</time>
      </trkpt>
      <trkpt lat="47.32916" lon="-2.34809">
        <ele>23.200000762939</ele>
        <time>2020-06-25T09:54:03.000Z</time>
      </trkpt>
      <trkpt lat="47.32913" lon="-2.34802">
        <ele>22.799999237061</ele>
        <time>2020-06-25T09:54:04.000Z</time>
      </trkpt>
      <trkpt lat="47.32908" lon="-2.34796">
        <ele>22.39999961853</ele>
        <time>2020-06-25T09:54:05.000Z</time>
      </trkpt>
      <trkpt lat="47.32903" lon="-2.34793">
        <ele>22</ele>
        <time>2020-06-25T09:54:06.000Z</time>
      </trkpt>
      <trkpt lat="47.32898" lon="-2.34791">
        <ele>21.60000038147</ele>
        <time>2020-06-25T09:54:07.000Z</time>
      </trkpt>
      <trkpt lat="47.32882" lon="-2.34795">
        <ele>21.60000038147</ele>
        <time>2020-06-25T09:54:11.000Z</time>
      </trkpt>
      <trkpt lat="47.32878" lon="-2.34797">
        <ele>21.60000038147</ele>
        <time>2020-06-25T09:54:12.000Z</time>
      </trkpt>
      <trkpt lat="47.32855" lon="-2.34812">
        <ele>22</ele>
        <time>2020-06-25T09:54:18.000Z</time>
      </trkpt>
      <trkpt lat="47.32851" lon="-2.34815">
        <ele>22.39999961853</ele>
        <time>2020-06-25T09:54:19.000Z</time>
      </trkpt>
      <trkpt lat="47.32847" lon="-2.34818">
        <ele>22.799999237061</ele>
        <time>2020-06-25T09:54:20.000Z</time>
      </trkpt>
      <trkpt lat="47.32842" lon="-2.34821">
        <ele>23.200000762939</ele>
        <time>2020-06-25T09:54:21.000Z</time>
      </trkpt>
      <trkpt lat="47.32838" lon="-2.34824">
        <ele>23.60000038147</ele>
        <time>2020-06-25T09:54:22.000Z</time>
      </trkpt>
      <trkpt lat="47.32826" lon="-2.34833">
        <ele>23.60000038147</ele>
        <time>2020-06-25T09:54:25.000Z</time>
      </trkpt>
      <trkpt lat="47.32795" lon="-2.34855">
        <ele>23.60000038147</ele>
        <time>2020-06-25T09:54:33.000Z</time>
      </trkpt>
      <trkpt lat="47.32764" lon="-2.3488">
        <ele>23.60000038147</ele>
        <time>2020-06-25T09:54:41.000Z</time>
      </trkpt>
      <trkpt lat="47.32738" lon="-2.349">
        <ele>23.60000038147</ele>
        <time>2020-06-25T09:54:47.000Z</time>
      </trkpt>
      <trkpt lat="47.32723" lon="-2.3491">
        <ele>23.60000038147</ele>
        <time>2020-06-25T09:54:50.000Z</time>
      </trkpt>
      <trkpt lat="47.3271" lon="-2.3492">
        <ele>23.60000038147</ele>
        <time>2020-06-25T09:54:53.000Z</time>
      </trkpt>
      <trkpt lat="47.32686" lon="-2.34936">
        <ele>23.60000038147</ele>
        <time>2020-06-25T09:54:59.000Z</time>
      </trkpt>
      <trkpt lat="47.32682" lon="-2.34939">
        <ele>23.60000038147</ele>
        <time>2020-06-25T09:55:00.000Z</time>
      </trkpt>
      <trkpt lat="47.32665" lon="-2.34955">
        <ele>24</ele>
        <time>2020-06-25T09:55:05.000Z</time>
      </trkpt>
      <trkpt lat="47.32662" lon="-2.34957">
        <ele>24.60000038147</ele>
        <time>2020-06-25T09:55:06.000Z</time>
      </trkpt>
      <trkpt lat="47.32661" lon="-2.34958">
        <ele>25</ele>
        <time>2020-06-25T09:55:07.000Z</time>
      </trkpt>
      <trkpt lat="47.3266" lon="-2.34959">
        <ele>25.60000038147</ele>
        <time>2020-06-25T09:55:08.000Z</time>
      </trkpt>
      <trkpt lat="47.32659" lon="-2.3496">
        <ele>26</ele>
        <time>2020-06-25T09:55:09.000Z</time>
      </trkpt>
      <trkpt lat="47.32651" lon="-2.34966">
        <ele>26</ele>
        <time>2020-06-25T09:55:13.000Z</time>
      </trkpt>
      <trkpt lat="47.32649" lon="-2.34966">
        <ele>26</ele>
        <time>2020-06-25T09:55:14.000Z</time>
      </trkpt>
      <trkpt lat="47.32627" lon="-2.34974">
        <ele>26</ele>
        <time>2020-06-25T09:55:19.000Z</time>
      </trkpt>
      <trkpt lat="47.32618" lon="-2.34978">
        <ele>26</ele>
        <time>2020-06-25T09:55:21.000Z</time>
      </trkpt>
      <trkpt lat="47.32604" lon="-2.34985">
        <ele>26</ele>
        <time>2020-06-25T09:55:24.000Z</time>
      </trkpt>
      <trkpt lat="47.32573" lon="-2.35">
        <ele>26</ele>
        <time>2020-06-25T09:55:31.000Z</time>
      </trkpt>
      <trkpt lat="47.32547" lon="-2.3501">
        <ele>26</ele>
        <time>2020-06-25T09:55:37.000Z</time>
      </trkpt>
      <trkpt lat="47.32513" lon="-2.35018">
        <ele>26</ele>
        <time>2020-06-25T09:55:44.000Z</time>
      </trkpt>
      <trkpt lat="47.32488" lon="-2.35023">
        <ele>26</ele>
        <time>2020-06-25T09:55:50.000Z</time>
      </trkpt>
      <trkpt lat="47.32474" lon="-2.35029">
        <ele>26.39999961853</ele>
        <time>2020-06-25T09:55:53.000Z</time>
      </trkpt>
      <trkpt lat="47.32469" lon="-2.3503">
        <ele>26.799999237061</ele>
        <time>2020-06-25T09:55:54.000Z</time>
      </trkpt>
      <trkpt lat="47.32464" lon="-2.35031">
        <ele>27.200000762939</ele>
        <time>2020-06-25T09:55:55.000Z</time>
      </trkpt>
      <trkpt lat="47.32459" lon="-2.35032">
        <ele>27.60000038147</ele>
        <time>2020-06-25T09:55:56.000Z</time>
      </trkpt>
      <trkpt lat="47.32454" lon="-2.35034">
        <ele>28</ele>
        <time>2020-06-25T09:55:57.000Z</time>
      </trkpt>
      <trkpt lat="47.32426" lon="-2.35038">
        <ele>28</ele>
        <time>2020-06-25T09:56:03.000Z</time>
      </trkpt>
      <trkpt lat="47.32388" lon="-2.35041">
        <ele>28</ele>
        <time>2020-06-25T09:56:10.000Z</time>
      </trkpt>
      <trkpt lat="47.32349" lon="-2.35048">
        <ele>28</ele>
        <time>2020-06-25T09:56:18.000Z</time>
      </trkpt>
      <trkpt lat="47.32326" lon="-2.3505">
        <ele>28</ele>
        <time>2020-06-25T09:56:23.000Z</time>
      </trkpt>
      <trkpt lat="47.3232" lon="-2.3505">
        <ele>28</ele>
        <time>2020-06-25T09:56:24.000Z</time>
      </trkpt>
      <trkpt lat="47.32285" lon="-2.3505">
        <ele>27.60000038147</ele>
        <time>2020-06-25T09:56:31.000Z</time>
      </trkpt>
      <trkpt lat="47.32278" lon="-2.35051">
        <ele>27.200000762939</ele>
        <time>2020-06-25T09:56:32.000Z</time>
      </trkpt>
      <trkpt lat="47.32272" lon="-2.35051">
        <ele>26.799999237061</ele>
        <time>2020-06-25T09:56:33.000Z</time>
      </trkpt>
      <trkpt lat="47.32265" lon="-2.35051">
        <ele>26.39999961853</ele>
        <time>2020-06-25T09:56:34.000Z</time>
      </trkpt>
      <trkpt lat="47.32259" lon="-2.35052">
        <ele>25.799999237061</ele>
        <time>2020-06-25T09:56:35.000Z</time>
      </trkpt>
      <trkpt lat="47.32253" lon="-2.35054">
        <ele>25.799999237061</ele>
        <time>2020-06-25T09:56:36.000Z</time>
      </trkpt>
      <trkpt lat="47.32218" lon="-2.35063">
        <ele>25.799999237061</ele>
        <time>2020-06-25T09:56:42.000Z</time>
      </trkpt>
      <trkpt lat="47.322" lon="-2.35063">
        <ele>25.799999237061</ele>
        <time>2020-06-25T09:56:45.000Z</time>
      </trkpt>
      <trkpt lat="47.3218" lon="-2.3506">
        <ele>25.799999237061</ele>
        <time>2020-06-25T09:56:48.000Z</time>
      </trkpt>
      <trkpt lat="47.32147" lon="-2.35054">
        <ele>25.39999961853</ele>
        <time>2020-06-25T09:56:53.000Z</time>
      </trkpt>
      <trkpt lat="47.32141" lon="-2.35054">
        <ele>24.60000038147</ele>
        <time>2020-06-25T09:56:54.000Z</time>
      </trkpt>
      <trkpt lat="47.32134" lon="-2.35053">
        <ele>24.200000762939</ele>
        <time>2020-06-25T09:56:55.000Z</time>
      </trkpt>
      <trkpt lat="47.32127" lon="-2.35053">
        <ele>23.799999237061</ele>
        <time>2020-06-25T09:56:56.000Z</time>
      </trkpt>
      <trkpt lat="47.32095" lon="-2.35055">
        <ele>23.799999237061</ele>
        <time>2020-06-25T09:57:02.000Z</time>
      </trkpt>
      <trkpt lat="47.32059" lon="-2.3506">
        <ele>23.799999237061</ele>
        <time>2020-06-25T09:57:09.000Z</time>
      </trkpt>
      <trkpt lat="47.32023" lon="-2.35055">
        <ele>23.799999237061</ele>
        <time>2020-06-25T09:57:16.000Z</time>
      </trkpt>
      <trkpt lat="47.31985" lon="-2.35048">
        <ele>23.799999237061</ele>
        <time>2020-06-25T09:57:23.000Z</time>
      </trkpt>
      <trkpt lat="47.3195" lon="-2.35039">
        <ele>23.799999237061</ele>
        <time>2020-06-25T09:57:30.000Z</time>
      </trkpt>
      <trkpt lat="47.31924" lon="-2.35025">
        <ele>23.799999237061</ele>
        <time>2020-06-25T09:57:36.000Z</time>
      </trkpt>
      <trkpt lat="47.31915" lon="-2.3502">
        <ele>23.799999237061</ele>
        <time>2020-06-25T09:57:38.000Z</time>
      </trkpt>
      <trkpt lat="47.31905" lon="-2.35016">
        <ele>24.39999961853</ele>
        <time>2020-06-25T09:57:40.000Z</time>
      </trkpt>
      <trkpt lat="47.319" lon="-2.35014">
        <ele>24.799999237061</ele>
        <time>2020-06-25T09:57:41.000Z</time>
      </trkpt>
      <trkpt lat="47.31895" lon="-2.35011">
        <ele>25.200000762939</ele>
        <time>2020-06-25T09:57:42.000Z</time>
      </trkpt>
      <trkpt lat="47.3189" lon="-2.35009">
        <ele>26</ele>
        <time>2020-06-25T09:57:43.000Z</time>
      </trkpt>
      <trkpt lat="47.31865" lon="-2.34992">
        <ele>26</ele>
        <time>2020-06-25T09:57:49.000Z</time>
      </trkpt>
      <trkpt lat="47.31854" lon="-2.34986">
        <ele>26</ele>
        <time>2020-06-25T09:57:52.000Z</time>
      </trkpt>
      <trkpt lat="47.31841" lon="-2.3498">
        <ele>26</ele>
        <time>2020-06-25T09:57:55.000Z</time>
      </trkpt>
      <trkpt lat="47.31809" lon="-2.34968">
        <ele>26</ele>
        <time>2020-06-25T09:58:02.000Z</time>
      </trkpt>
      <trkpt lat="47.3179" lon="-2.34962">
        <ele>26.60000038147</ele>
        <time>2020-06-25T09:58:06.000Z</time>
      </trkpt>
      <trkpt lat="47.31785" lon="-2.34962">
        <ele>27</ele>
        <time>2020-06-25T09:58:07.000Z</time>
      </trkpt>
      <trkpt lat="47.31781" lon="-2.34961">
        <ele>27.799999237061</ele>
        <time>2020-06-25T09:58:08.000Z</time>
      </trkpt>
      <trkpt lat="47.31777" lon="-2.3496">
        <ele>28.200000762939</ele>
        <time>2020-06-25T09:58:09.000Z</time>
      </trkpt>
      <trkpt lat="47.31748" lon="-2.34963">
        <ele>28.200000762939</ele>
        <time>2020-06-25T09:58:15.000Z</time>
      </trkpt>
      <trkpt lat="47.31714" lon="-2.34975">
        <ele>28.200000762939</ele>
        <time>2020-06-25T09:58:21.000Z</time>
      </trkpt>
      <trkpt lat="47.31708" lon="-2.34976">
        <ele>28.200000762939</ele>
        <time>2020-06-25T09:58:22.000Z</time>
      </trkpt>
      <trkpt lat="47.31692" lon="-2.34975">
        <ele>28.200000762939</ele>
        <time>2020-06-25T09:58:25.000Z</time>
      </trkpt>
      <trkpt lat="47.31666" lon="-2.34979">
        <ele>28.200000762939</ele>
        <time>2020-06-25T09:58:30.000Z</time>
      </trkpt>
      <trkpt lat="47.31631" lon="-2.34992">
        <ele>28.200000762939</ele>
        <time>2020-06-25T09:58:37.000Z</time>
      </trkpt>
      <trkpt lat="47.31599" lon="-2.35006">
        <ele>28.60000038147</ele>
        <time>2020-06-25T09:58:44.000Z</time>
      </trkpt>
      <trkpt lat="47.31595" lon="-2.35007">
        <ele>29</ele>
        <time>2020-06-25T09:58:45.000Z</time>
      </trkpt>
      <trkpt lat="47.3159" lon="-2.35008">
        <ele>29.39999961853</ele>
        <time>2020-06-25T09:58:46.000Z</time>
      </trkpt>
      <trkpt lat="47.31585" lon="-2.35009">
        <ele>29.799999237061</ele>
        <time>2020-06-25T09:58:47.000Z</time>
      </trkpt>
      <trkpt lat="47.3158" lon="-2.3501">
        <ele>30.200000762939</ele>
        <time>2020-06-25T09:58:48.000Z</time>
      </trkpt>
      <trkpt lat="47.31563" lon="-2.35012">
        <ele>30.200000762939</ele>
        <time>2020-06-25T09:58:52.000Z</time>
      </trkpt>
      <trkpt lat="47.31534" lon="-2.35013">
        <ele>30.200000762939</ele>
        <time>2020-06-25T09:58:59.000Z</time>
      </trkpt>
      <trkpt lat="47.31503" lon="-2.35016">
        <ele>30.60000038147</ele>
        <time>2020-06-25T09:59:05.000Z</time>
      </trkpt>
      <trkpt lat="47.31498" lon="-2.35016">
        <ele>31.200000762939</ele>
        <time>2020-06-25T09:59:06.000Z</time>
      </trkpt>
      <trkpt lat="47.31493" lon="-2.35016">
        <ele>31.60000038147</ele>
        <time>2020-06-25T09:59:07.000Z</time>
      </trkpt>
      <trkpt lat="47.31488" lon="-2.35016">
        <ele>32</ele>
        <time>2020-06-25T09:59:08.000Z</time>
      </trkpt>
      <trkpt lat="47.31482" lon="-2.35015">
        <ele>32.400001525879</ele>
        <time>2020-06-25T09:59:09.000Z</time>
      </trkpt>
      <trkpt lat="47.31468" lon="-2.35015">
        <ele>32.400001525879</ele>
        <time>2020-06-25T09:59:12.000Z</time>
      </trkpt>
      <trkpt lat="47.3143" lon="-2.35014">
        <ele>32.400001525879</ele>
        <time>2020-06-25T09:59:20.000Z</time>
      </trkpt>
      <trkpt lat="47.31425" lon="-2.35013">
        <ele>32.400001525879</ele>
        <time>2020-06-25T09:59:21.000Z</time>
      </trkpt>
      <trkpt lat="47.31421" lon="-2.35012">
        <ele>32.799999237061</ele>
        <time>2020-06-25T09:59:22.000Z</time>
      </trkpt>
      <trkpt lat="47.31416" lon="-2.3501">
        <ele>33.200000762939</ele>
        <time>2020-06-25T09:59:23.000Z</time>
      </trkpt>
      <trkpt lat="47.31412" lon="-2.35009">
        <ele>33.599998474121</ele>
        <time>2020-06-25T09:59:24.000Z</time>
      </trkpt>
      <trkpt lat="47.31406" lon="-2.35007">
        <ele>34</ele>
        <time>2020-06-25T09:59:25.000Z</time>
      </trkpt>
      <trkpt lat="47.31401" lon="-2.35006">
        <ele>34.400001525879</ele>
        <time>2020-06-25T09:59:26.000Z</time>
      </trkpt>
      <trkpt lat="47.31381" lon="-2.35">
        <ele>34.400001525879</ele>
        <time>2020-06-25T09:59:30.000Z</time>
      </trkpt>
      <trkpt lat="47.31348" lon="-2.34996">
        <ele>34.400001525879</ele>
        <time>2020-06-25T09:59:37.000Z</time>
      </trkpt>
      <trkpt lat="47.31337" lon="-2.34983">
        <ele>34.400001525879</ele>
        <time>2020-06-25T09:59:40.000Z</time>
      </trkpt>
      <trkpt lat="47.31334" lon="-2.34963">
        <ele>34.400001525879</ele>
        <time>2020-06-25T09:59:43.000Z</time>
      </trkpt>
      <trkpt lat="47.31333" lon="-2.34956">
        <ele>34.400001525879</ele>
        <time>2020-06-25T09:59:44.000Z</time>
      </trkpt>
      <trkpt lat="47.31322" lon="-2.34914">
        <ele>34.400001525879</ele>
        <time>2020-06-25T09:59:51.000Z</time>
      </trkpt>
      <trkpt lat="47.31307" lon="-2.34867">
        <ele>34.400001525879</ele>
        <time>2020-06-25T09:59:59.000Z</time>
      </trkpt>
      <trkpt lat="47.31295" lon="-2.34813">
        <ele>34.400001525879</ele>
        <time>2020-06-25T10:00:07.000Z</time>
      </trkpt>
      <trkpt lat="47.31289" lon="-2.34787">
        <ele>34.400001525879</ele>
        <time>2020-06-25T10:00:11.000Z</time>
      </trkpt>
      <trkpt lat="47.31286" lon="-2.34774">
        <ele>34.400001525879</ele>
        <time>2020-06-25T10:00:13.000Z</time>
      </trkpt>
      <trkpt lat="47.31281" lon="-2.34735">
        <ele>34.400001525879</ele>
        <time>2020-06-25T10:00:19.000Z</time>
      </trkpt>
      <trkpt lat="47.3128" lon="-2.34728">
        <ele>34.400001525879</ele>
        <time>2020-06-25T10:00:20.000Z</time>
      </trkpt>
      <trkpt lat="47.31277" lon="-2.34715">
        <ele>34.400001525879</ele>
        <time>2020-06-25T10:00:22.000Z</time>
      </trkpt>
      <trkpt lat="47.31275" lon="-2.34702">
        <ele>34.400001525879</ele>
        <time>2020-06-25T10:00:24.000Z</time>
      </trkpt>
      <trkpt lat="47.3128" lon="-2.34685">
        <ele>34.400001525879</ele>
        <time>2020-06-25T10:00:27.000Z</time>
      </trkpt>
      <trkpt lat="47.31283" lon="-2.3468">
        <ele>34.400001525879</ele>
        <time>2020-06-25T10:00:28.000Z</time>
      </trkpt>
      <trkpt lat="47.31289" lon="-2.34668">
        <ele>34.400001525879</ele>
        <time>2020-06-25T10:00:30.000Z</time>
      </trkpt>
      <trkpt lat="47.31291" lon="-2.34653">
        <ele>34.400001525879</ele>
        <time>2020-06-25T10:00:32.000Z</time>
      </trkpt>
      <trkpt lat="47.3129" lon="-2.34628">
        <ele>34.400001525879</ele>
        <time>2020-06-25T10:00:35.000Z</time>
      </trkpt>
      <trkpt lat="47.31288" lon="-2.34608">
        <ele>34.400001525879</ele>
        <time>2020-06-25T10:00:37.000Z</time>
      </trkpt>
      <trkpt lat="47.31286" lon="-2.34598">
        <ele>34</ele>
        <time>2020-06-25T10:00:38.000Z</time>
      </trkpt>
      <trkpt lat="47.31285" lon="-2.34587">
        <ele>33.599998474121</ele>
        <time>2020-06-25T10:00:39.000Z</time>
      </trkpt>
      <trkpt lat="47.31284" lon="-2.34576">
        <ele>33.200000762939</ele>
        <time>2020-06-25T10:00:40.000Z</time>
      </trkpt>
      <trkpt lat="47.31283" lon="-2.34565">
        <ele>32.799999237061</ele>
        <time>2020-06-25T10:00:41.000Z</time>
      </trkpt>
      <trkpt lat="47.31281" lon="-2.34554">
        <ele>32.400001525879</ele>
        <time>2020-06-25T10:00:42.000Z</time>
      </trkpt>
      <trkpt lat="47.3128" lon="-2.34542">
        <ele>32.400001525879</ele>
        <time>2020-06-25T10:00:43.000Z</time>
      </trkpt>
      <trkpt lat="47.31272" lon="-2.3447">
        <ele>32.400001525879</ele>
        <time>2020-06-25T10:00:49.000Z</time>
      </trkpt>
      <trkpt lat="47.31267" lon="-2.34423">
        <ele>32</ele>
        <time>2020-06-25T10:00:53.000Z</time>
      </trkpt>
      <trkpt lat="47.31266" lon="-2.34411">
        <ele>31.60000038147</ele>
        <time>2020-06-25T10:00:54.000Z</time>
      </trkpt>
      <trkpt lat="47.31264" lon="-2.344">
        <ele>31</ele>
        <time>2020-06-25T10:00:55.000Z</time>
      </trkpt>
      <trkpt lat="47.31262" lon="-2.34388">
        <ele>30.60000038147</ele>
        <time>2020-06-25T10:00:56.000Z</time>
      </trkpt>
      <trkpt lat="47.31259" lon="-2.34377">
        <ele>30.200000762939</ele>
        <time>2020-06-25T10:00:57.000Z</time>
      </trkpt>
      <trkpt lat="47.31254" lon="-2.34367">
        <ele>29.799999237061</ele>
        <time>2020-06-25T10:00:58.000Z</time>
      </trkpt>
      <trkpt lat="47.31248" lon="-2.34358">
        <ele>29.39999961853</ele>
        <time>2020-06-25T10:00:59.000Z</time>
      </trkpt>
      <trkpt lat="47.31242" lon="-2.34349">
        <ele>29</ele>
        <time>2020-06-25T10:01:00.000Z</time>
      </trkpt>
      <trkpt lat="47.31236" lon="-2.34343">
        <ele>28.200000762939</ele>
        <time>2020-06-25T10:01:01.000Z</time>
      </trkpt>
      <trkpt lat="47.31223" lon="-2.34333">
        <ele>28.200000762939</ele>
        <time>2020-06-25T10:01:03.000Z</time>
      </trkpt>
      <trkpt lat="47.31207" lon="-2.34326">
        <ele>28.200000762939</ele>
        <time>2020-06-25T10:01:05.000Z</time>
      </trkpt>
      <trkpt lat="47.31194" lon="-2.34313">
        <ele>28.200000762939</ele>
        <time>2020-06-25T10:01:07.000Z</time>
      </trkpt>
      <trkpt lat="47.31189" lon="-2.34305">
        <ele>27.60000038147</ele>
        <time>2020-06-25T10:01:08.000Z</time>
      </trkpt>
      <trkpt lat="47.31184" lon="-2.34297">
        <ele>27.200000762939</ele>
        <time>2020-06-25T10:01:09.000Z</time>
      </trkpt>
      <trkpt lat="47.31181" lon="-2.34289">
        <ele>26.60000038147</ele>
        <time>2020-06-25T10:01:10.000Z</time>
      </trkpt>
      <trkpt lat="47.31177" lon="-2.34281">
        <ele>26.200000762939</ele>
        <time>2020-06-25T10:01:11.000Z</time>
      </trkpt>
      <trkpt lat="47.31174" lon="-2.34273">
        <ele>25.799999237061</ele>
        <time>2020-06-25T10:01:12.000Z</time>
      </trkpt>
      <trkpt lat="47.31145" lon="-2.34223">
        <ele>25.799999237061</ele>
        <time>2020-06-25T10:01:19.000Z</time>
      </trkpt>
      <trkpt lat="47.31121" lon="-2.34182">
        <ele>25.799999237061</ele>
        <time>2020-06-25T10:01:26.000Z</time>
      </trkpt>
      <trkpt lat="47.31118" lon="-2.34176">
        <ele>26.200000762939</ele>
        <time>2020-06-25T10:01:27.000Z</time>
      </trkpt>
      <trkpt lat="47.31115" lon="-2.3417">
        <ele>26.60000038147</ele>
        <time>2020-06-25T10:01:28.000Z</time>
      </trkpt>
      <trkpt lat="47.31112" lon="-2.34164">
        <ele>27</ele>
        <time>2020-06-25T10:01:29.000Z</time>
      </trkpt>
      <trkpt lat="47.31109" lon="-2.34158">
        <ele>27.60000038147</ele>
        <time>2020-06-25T10:01:30.000Z</time>
      </trkpt>
      <trkpt lat="47.31106" lon="-2.34152">
        <ele>28</ele>
        <time>2020-06-25T10:01:31.000Z</time>
      </trkpt>
      <trkpt lat="47.31104" lon="-2.34147">
        <ele>28</ele>
        <time>2020-06-25T10:01:32.000Z</time>
      </trkpt>
      <trkpt lat="47.31095" lon="-2.34131">
        <ele>28.39999961853</ele>
        <time>2020-06-25T10:01:35.000Z</time>
      </trkpt>
      <trkpt lat="47.31092" lon="-2.34126">
        <ele>28.799999237061</ele>
        <time>2020-06-25T10:01:36.000Z</time>
      </trkpt>
      <trkpt lat="47.31089" lon="-2.3412">
        <ele>29.200000762939</ele>
        <time>2020-06-25T10:01:37.000Z</time>
      </trkpt>
      <trkpt lat="47.31087" lon="-2.34115">
        <ele>29.60000038147</ele>
        <time>2020-06-25T10:01:38.000Z</time>
      </trkpt>
      <trkpt lat="47.31084" lon="-2.34109">
        <ele>30</ele>
        <time>2020-06-25T10:01:39.000Z</time>
      </trkpt>
      <trkpt lat="47.31078" lon="-2.34098">
        <ele>30</ele>
        <time>2020-06-25T10:01:41.000Z</time>
      </trkpt>
      <trkpt lat="47.31074" lon="-2.34086">
        <ele>30.39999961853</ele>
        <time>2020-06-25T10:01:43.000Z</time>
      </trkpt>
      <trkpt lat="47.31072" lon="-2.3408">
        <ele>30.799999237061</ele>
        <time>2020-06-25T10:01:44.000Z</time>
      </trkpt>
      <trkpt lat="47.3107" lon="-2.34074">
        <ele>31.200000762939</ele>
        <time>2020-06-25T10:01:45.000Z</time>
      </trkpt>
      <trkpt lat="47.31068" lon="-2.34067">
        <ele>31.60000038147</ele>
        <time>2020-06-25T10:01:46.000Z</time>
      </trkpt>
      <trkpt lat="47.31067" lon="-2.34061">
        <ele>32</ele>
        <time>2020-06-25T10:01:47.000Z</time>
      </trkpt>
      <trkpt lat="47.31064" lon="-2.34048">
        <ele>32</ele>
        <time>2020-06-25T10:01:49.000Z</time>
      </trkpt>
      <trkpt lat="47.31062" lon="-2.34029">
        <ele>32</ele>
        <time>2020-06-25T10:01:52.000Z</time>
      </trkpt>
      <trkpt lat="47.31058" lon="-2.33962">
        <ele>32</ele>
        <time>2020-06-25T10:02:02.000Z</time>
      </trkpt>
      <trkpt lat="47.31057" lon="-2.33956">
        <ele>32</ele>
        <time>2020-06-25T10:02:03.000Z</time>
      </trkpt>
      <trkpt lat="47.3105" lon="-2.33948">
        <ele>32</ele>
        <time>2020-06-25T10:02:05.000Z</time>
      </trkpt>
      <trkpt lat="47.3104" lon="-2.33948">
        <ele>32.400001525879</ele>
        <time>2020-06-25T10:02:07.000Z</time>
      </trkpt>
      <trkpt lat="47.31035" lon="-2.33949">
        <ele>33</ele>
        <time>2020-06-25T10:02:08.000Z</time>
      </trkpt>
      <trkpt lat="47.31031" lon="-2.33949">
        <ele>33.400001525879</ele>
        <time>2020-06-25T10:02:09.000Z</time>
      </trkpt>
      <trkpt lat="47.31026" lon="-2.3395">
        <ele>33.799999237061</ele>
        <time>2020-06-25T10:02:10.000Z</time>
      </trkpt>
      <trkpt lat="47.31022" lon="-2.3395">
        <ele>34.200000762939</ele>
        <time>2020-06-25T10:02:11.000Z</time>
      </trkpt>
      <trkpt lat="47.31009" lon="-2.33952">
        <ele>34.200000762939</ele>
        <time>2020-06-25T10:02:14.000Z</time>
      </trkpt>
      <trkpt lat="47.30975" lon="-2.33953">
        <ele>34.200000762939</ele>
        <time>2020-06-25T10:02:22.000Z</time>
      </trkpt>
      <trkpt lat="47.30967" lon="-2.33952">
        <ele>34.200000762939</ele>
        <time>2020-06-25T10:02:24.000Z</time>
      </trkpt>
      <trkpt lat="47.3095" lon="-2.33951">
        <ele>34.200000762939</ele>
        <time>2020-06-25T10:02:28.000Z</time>
      </trkpt>
      <trkpt lat="47.30946" lon="-2.3395">
        <ele>34.200000762939</ele>
        <time>2020-06-25T10:02:29.000Z</time>
      </trkpt>
      <trkpt lat="47.30924" lon="-2.33946">
        <ele>34.200000762939</ele>
        <time>2020-06-25T10:02:34.000Z</time>
      </trkpt>
      <trkpt lat="47.30897" lon="-2.33946">
        <ele>34.200000762939</ele>
        <time>2020-06-25T10:02:40.000Z</time>
      </trkpt>
      <trkpt lat="47.30888" lon="-2.33948">
        <ele>34.200000762939</ele>
        <time>2020-06-25T10:02:42.000Z</time>
      </trkpt>
      <trkpt lat="47.30854" lon="-2.33952">
        <ele>34.200000762939</ele>
        <time>2020-06-25T10:02:50.000Z</time>
      </trkpt>
      <trkpt lat="47.30841" lon="-2.33954">
        <ele>34.200000762939</ele>
        <time>2020-06-25T10:02:53.000Z</time>
      </trkpt>
      <trkpt lat="47.30826" lon="-2.33959">
        <ele>34.200000762939</ele>
        <time>2020-06-25T10:02:57.000Z</time>
      </trkpt>
      <trkpt lat="47.30791" lon="-2.33969">
        <ele>34.200000762939</ele>
        <time>2020-06-25T10:03:05.000Z</time>
      </trkpt>
      <trkpt lat="47.30787" lon="-2.33971">
        <ele>34.200000762939</ele>
        <time>2020-06-25T10:03:06.000Z</time>
      </trkpt>
      <trkpt lat="47.3078" lon="-2.33983">
        <ele>34.200000762939</ele>
        <time>2020-06-25T10:03:09.000Z</time>
      </trkpt>
      <trkpt lat="47.30777" lon="-2.33992">
        <ele>34.200000762939</ele>
        <time>2020-06-25T10:03:11.000Z</time>
      </trkpt>
      <trkpt lat="47.30778" lon="-2.34007">
        <ele>34.200000762939</ele>
        <time>2020-06-25T10:03:14.000Z</time>
      </trkpt>
      <trkpt lat="47.30779" lon="-2.3402">
        <ele>34.599998474121</ele>
        <time>2020-06-25T10:03:16.000Z</time>
      </trkpt>
      <trkpt lat="47.30779" lon="-2.34027">
        <ele>35</ele>
        <time>2020-06-25T10:03:17.000Z</time>
      </trkpt>
      <trkpt lat="47.30779" lon="-2.34034">
        <ele>35.400001525879</ele>
        <time>2020-06-25T10:03:18.000Z</time>
      </trkpt>
      <trkpt lat="47.30779" lon="-2.3404">
        <ele>35.799999237061</ele>
        <time>2020-06-25T10:03:19.000Z</time>
      </trkpt>
      <trkpt lat="47.3078" lon="-2.34048">
        <ele>36.200000762939</ele>
        <time>2020-06-25T10:03:20.000Z</time>
      </trkpt>
      <trkpt lat="47.30779" lon="-2.34075">
        <ele>36.200000762939</ele>
        <time>2020-06-25T10:03:24.000Z</time>
      </trkpt>
      <trkpt lat="47.30778" lon="-2.34081">
        <ele>36.200000762939</ele>
        <time>2020-06-25T10:03:25.000Z</time>
      </trkpt>
      <trkpt lat="47.30776" lon="-2.34129">
        <ele>36.200000762939</ele>
        <time>2020-06-25T10:03:32.000Z</time>
      </trkpt>
      <trkpt lat="47.30775" lon="-2.34136">
        <ele>36.200000762939</ele>
        <time>2020-06-25T10:03:33.000Z</time>
      </trkpt>
      <trkpt lat="47.30772" lon="-2.34162">
        <ele>36.200000762939</ele>
        <time>2020-06-25T10:03:38.000Z</time>
      </trkpt>
      <trkpt lat="47.30772" lon="-2.34171">
        <ele>36.200000762939</ele>
        <time>2020-06-25T10:03:43.000Z</time>
      </trkpt>
      <trkpt lat="47.30771" lon="-2.34195">
        <ele>36.200000762939</ele>
        <time>2020-06-25T10:03:49.000Z</time>
      </trkpt>
      <trkpt lat="47.30767" lon="-2.34202">
        <ele>36.200000762939</ele>
        <time>2020-06-25T10:03:50.000Z</time>
      </trkpt>
      <trkpt lat="47.30758" lon="-2.34211">
        <ele>36.200000762939</ele>
        <time>2020-06-25T10:03:52.000Z</time>
      </trkpt>
      <trkpt lat="47.3074" lon="-2.3422">
        <ele>36.200000762939</ele>
        <time>2020-06-25T10:03:56.000Z</time>
      </trkpt>
      <trkpt lat="47.30728" lon="-2.34228">
        <ele>36.200000762939</ele>
        <time>2020-06-25T10:04:00.000Z</time>
      </trkpt>
      <trkpt lat="47.30725" lon="-2.34236">
        <ele>36.200000762939</ele>
        <time>2020-06-25T10:04:02.000Z</time>
      </trkpt>
      <trkpt lat="47.30726" lon="-2.34251">
        <ele>36.200000762939</ele>
        <time>2020-06-25T10:04:04.000Z</time>
      </trkpt>
      <trkpt lat="47.30725" lon="-2.34266">
        <ele>36.200000762939</ele>
        <time>2020-06-25T10:04:06.000Z</time>
      </trkpt>
      <trkpt lat="47.30718" lon="-2.34283">
        <ele>36.200000762939</ele>
        <time>2020-06-25T10:04:09.000Z</time>
      </trkpt>
      <trkpt lat="47.30706" lon="-2.3431">
        <ele>36.200000762939</ele>
        <time>2020-06-25T10:04:14.000Z</time>
      </trkpt>
      <trkpt lat="47.3069" lon="-2.34343">
        <ele>36.200000762939</ele>
        <time>2020-06-25T10:04:20.000Z</time>
      </trkpt>
      <trkpt lat="47.30679" lon="-2.34364">
        <ele>36.599998474121</ele>
        <time>2020-06-25T10:04:24.000Z</time>
      </trkpt>
      <trkpt lat="47.30676" lon="-2.34368">
        <ele>37</ele>
        <time>2020-06-25T10:04:25.000Z</time>
      </trkpt>
      <trkpt lat="47.30673" lon="-2.34373">
        <ele>37.400001525879</ele>
        <time>2020-06-25T10:04:26.000Z</time>
      </trkpt>
      <trkpt lat="47.30671" lon="-2.34377">
        <ele>37.799999237061</ele>
        <time>2020-06-25T10:04:27.000Z</time>
      </trkpt>
      <trkpt lat="47.30668" lon="-2.34381">
        <ele>38.200000762939</ele>
        <time>2020-06-25T10:04:28.000Z</time>
      </trkpt>
      <trkpt lat="47.30654" lon="-2.34404">
        <ele>38.200000762939</ele>
        <time>2020-06-25T10:04:33.000Z</time>
      </trkpt>
      <trkpt lat="47.30632" lon="-2.34434">
        <ele>38.200000762939</ele>
        <time>2020-06-25T10:04:39.000Z</time>
      </trkpt>
      <trkpt lat="47.30611" lon="-2.34465">
        <ele>38.200000762939</ele>
        <time>2020-06-25T10:04:45.000Z</time>
      </trkpt>
      <trkpt lat="47.306" lon="-2.34481">
        <ele>38.200000762939</ele>
        <time>2020-06-25T10:04:48.000Z</time>
      </trkpt>
      <trkpt lat="47.3059" lon="-2.345">
        <ele>38.200000762939</ele>
        <time>2020-06-25T10:04:51.000Z</time>
      </trkpt>
      <trkpt lat="47.3057" lon="-2.3454">
        <ele>38.200000762939</ele>
        <time>2020-06-25T10:04:57.000Z</time>
      </trkpt>
      <trkpt lat="47.30549" lon="-2.34573">
        <ele>38.200000762939</ele>
        <time>2020-06-25T10:05:03.000Z</time>
      </trkpt>
      <trkpt lat="47.30534" lon="-2.34593">
        <ele>38.200000762939</ele>
        <time>2020-06-25T10:05:07.000Z</time>
      </trkpt>
      <trkpt lat="47.30527" lon="-2.34603">
        <ele>38.200000762939</ele>
        <time>2020-06-25T10:05:09.000Z</time>
      </trkpt>
      <trkpt lat="47.30521" lon="-2.34614">
        <ele>38.200000762939</ele>
        <time>2020-06-25T10:05:11.000Z</time>
      </trkpt>
      <trkpt lat="47.30518" lon="-2.34619">
        <ele>37.799999237061</ele>
        <time>2020-06-25T10:05:12.000Z</time>
      </trkpt>
      <trkpt lat="47.30516" lon="-2.34625">
        <ele>37.400001525879</ele>
        <time>2020-06-25T10:05:13.000Z</time>
      </trkpt>
      <trkpt lat="47.30512" lon="-2.34631">
        <ele>37</ele>
        <time>2020-06-25T10:05:14.000Z</time>
      </trkpt>
      <trkpt lat="47.30509" lon="-2.34636">
        <ele>36.599998474121</ele>
        <time>2020-06-25T10:05:15.000Z</time>
      </trkpt>
      <trkpt lat="47.30502" lon="-2.34643">
        <ele>36.200000762939</ele>
        <time>2020-06-25T10:05:16.000Z</time>
      </trkpt>
      <trkpt lat="47.30486" lon="-2.34662">
        <ele>36.200000762939</ele>
        <time>2020-06-25T10:05:19.000Z</time>
      </trkpt>
      <trkpt lat="47.30462" lon="-2.34686">
        <ele>36.200000762939</ele>
        <time>2020-06-25T10:05:24.000Z</time>
      </trkpt>
      <trkpt lat="47.30436" lon="-2.34709">
        <ele>36.200000762939</ele>
        <time>2020-06-25T10:05:30.000Z</time>
      </trkpt>
      <trkpt lat="47.30413" lon="-2.34724">
        <ele>36.200000762939</ele>
        <time>2020-06-25T10:05:35.000Z</time>
      </trkpt>
      <trkpt lat="47.30409" lon="-2.34727">
        <ele>36.200000762939</ele>
        <time>2020-06-25T10:05:36.000Z</time>
      </trkpt>
      <trkpt lat="47.30385" lon="-2.34744">
        <ele>36.200000762939</ele>
        <time>2020-06-25T10:05:41.000Z</time>
      </trkpt>
      <trkpt lat="47.30358" lon="-2.34762">
        <ele>36.200000762939</ele>
        <time>2020-06-25T10:05:47.000Z</time>
      </trkpt>
      <trkpt lat="47.30339" lon="-2.34785">
        <ele>36.200000762939</ele>
        <time>2020-06-25T10:05:53.000Z</time>
      </trkpt>
      <trkpt lat="47.30329" lon="-2.34803">
        <ele>36.200000762939</ele>
        <time>2020-06-25T10:05:59.000Z</time>
      </trkpt>
      <trkpt lat="47.30319" lon="-2.34821">
        <ele>36.200000762939</ele>
        <time>2020-06-25T10:06:04.000Z</time>
      </trkpt>
      <trkpt lat="47.30305" lon="-2.34838">
        <ele>36.200000762939</ele>
        <time>2020-06-25T10:06:09.000Z</time>
      </trkpt>
      <trkpt lat="47.30277" lon="-2.34857">
        <ele>36.200000762939</ele>
        <time>2020-06-25T10:06:14.000Z</time>
      </trkpt>
      <trkpt lat="47.3026" lon="-2.34867">
        <ele>36.200000762939</ele>
        <time>2020-06-25T10:06:17.000Z</time>
      </trkpt>
      <trkpt lat="47.30242" lon="-2.34879">
        <ele>36.200000762939</ele>
        <time>2020-06-25T10:06:20.000Z</time>
      </trkpt>
      <trkpt lat="47.30237" lon="-2.34885">
        <ele>36.200000762939</ele>
        <time>2020-06-25T10:06:21.000Z</time>
      </trkpt>
      <trkpt lat="47.30218" lon="-2.34903">
        <ele>36.200000762939</ele>
        <time>2020-06-25T10:06:25.000Z</time>
      </trkpt>
      <trkpt lat="47.30214" lon="-2.34924">
        <ele>36.200000762939</ele>
        <time>2020-06-25T10:06:28.000Z</time>
      </trkpt>
      <trkpt lat="47.30213" lon="-2.34957">
        <ele>36.200000762939</ele>
        <time>2020-06-25T10:06:32.000Z</time>
      </trkpt>
      <trkpt lat="47.30212" lon="-2.35018">
        <ele>36.200000762939</ele>
        <time>2020-06-25T10:06:39.000Z</time>
      </trkpt>
      <trkpt lat="47.30212" lon="-2.35027">
        <ele>36.200000762939</ele>
        <time>2020-06-25T10:06:40.000Z</time>
      </trkpt>
      <trkpt lat="47.30211" lon="-2.35035">
        <ele>35.799999237061</ele>
        <time>2020-06-25T10:06:41.000Z</time>
      </trkpt>
      <trkpt lat="47.30211" lon="-2.35044">
        <ele>35.400001525879</ele>
        <time>2020-06-25T10:06:42.000Z</time>
      </trkpt>
      <trkpt lat="47.30212" lon="-2.35053">
        <ele>35</ele>
        <time>2020-06-25T10:06:43.000Z</time>
      </trkpt>
      <trkpt lat="47.30211" lon="-2.35062">
        <ele>34.599998474121</ele>
        <time>2020-06-25T10:06:44.000Z</time>
      </trkpt>
      <trkpt lat="47.30211" lon="-2.3507">
        <ele>34.200000762939</ele>
        <time>2020-06-25T10:06:45.000Z</time>
      </trkpt>
      <trkpt lat="47.3021" lon="-2.35116">
        <ele>34.200000762939</ele>
        <time>2020-06-25T10:06:51.000Z</time>
      </trkpt>
      <trkpt lat="47.3021" lon="-2.35123">
        <ele>34.200000762939</ele>
        <time>2020-06-25T10:06:52.000Z</time>
      </trkpt>
      <trkpt lat="47.30209" lon="-2.35154">
        <ele>34.200000762939</ele>
        <time>2020-06-25T10:06:56.000Z</time>
      </trkpt>
      <trkpt lat="47.30206" lon="-2.35161">
        <ele>33.799999237061</ele>
        <time>2020-06-25T10:06:57.000Z</time>
      </trkpt>
      <trkpt lat="47.30203" lon="-2.35166">
        <ele>33.200000762939</ele>
        <time>2020-06-25T10:06:58.000Z</time>
      </trkpt>
      <trkpt lat="47.30199" lon="-2.3517">
        <ele>32.799999237061</ele>
        <time>2020-06-25T10:06:59.000Z</time>
      </trkpt>
      <trkpt lat="47.30195" lon="-2.35173">
        <ele>32.400001525879</ele>
        <time>2020-06-25T10:07:00.000Z</time>
      </trkpt>
      <trkpt lat="47.30191" lon="-2.35176">
        <ele>32</ele>
        <time>2020-06-25T10:07:01.000Z</time>
      </trkpt>
      <trkpt lat="47.30178" lon="-2.3518">
        <ele>32</ele>
        <time>2020-06-25T10:07:04.000Z</time>
      </trkpt>
      <trkpt lat="47.30173" lon="-2.35181">
        <ele>32</ele>
        <time>2020-06-25T10:07:05.000Z</time>
      </trkpt>
      <trkpt lat="47.30169" lon="-2.35184">
        <ele>32</ele>
        <time>2020-06-25T10:07:06.000Z</time>
      </trkpt>
      <trkpt lat="47.30162" lon="-2.3519">
        <ele>32</ele>
        <time>2020-06-25T10:07:08.000Z</time>
      </trkpt>
      <trkpt lat="47.30154" lon="-2.35197">
        <ele>31.60000038147</ele>
        <time>2020-06-25T10:07:11.000Z</time>
      </trkpt>
      <trkpt lat="47.30151" lon="-2.35197">
        <ele>30.60000038147</ele>
        <time>2020-06-25T10:07:12.000Z</time>
      </trkpt>
      <trkpt lat="47.30148" lon="-2.35198">
        <ele>30.200000762939</ele>
        <time>2020-06-25T10:07:13.000Z</time>
      </trkpt>
      <trkpt lat="47.30144" lon="-2.35198">
        <ele>29.799999237061</ele>
        <time>2020-06-25T10:07:14.000Z</time>
      </trkpt>
      <trkpt lat="47.30124" lon="-2.35202">
        <ele>29.799999237061</ele>
        <time>2020-06-25T10:07:19.000Z</time>
      </trkpt>
      <trkpt lat="47.30098" lon="-2.35214">
        <ele>29.799999237061</ele>
        <time>2020-06-25T10:07:24.000Z</time>
      </trkpt>
      <trkpt lat="47.30072" lon="-2.35226">
        <ele>29.799999237061</ele>
        <time>2020-06-25T10:07:30.000Z</time>
      </trkpt>
      <trkpt lat="47.30049" lon="-2.35238">
        <ele>29.799999237061</ele>
        <time>2020-06-25T10:07:36.000Z</time>
      </trkpt>
      <trkpt lat="47.30035" lon="-2.35246">
        <ele>29.799999237061</ele>
        <time>2020-06-25T10:07:41.000Z</time>
      </trkpt>
      <trkpt lat="47.30025" lon="-2.35249">
        <ele>29.799999237061</ele>
        <time>2020-06-25T10:07:45.000Z</time>
      </trkpt>
      <trkpt lat="47.30008" lon="-2.35259">
        <ele>29.799999237061</ele>
        <time>2020-06-25T10:07:51.000Z</time>
      </trkpt>
      <trkpt lat="47.29993" lon="-2.35271">
        <ele>29.799999237061</ele>
        <time>2020-06-25T10:07:55.000Z</time>
      </trkpt>
      <trkpt lat="47.29973" lon="-2.35293">
        <ele>29.799999237061</ele>
        <time>2020-06-25T10:08:01.000Z</time>
      </trkpt>
      <trkpt lat="47.29956" lon="-2.35312">
        <ele>29.799999237061</ele>
        <time>2020-06-25T10:08:07.000Z</time>
      </trkpt>
      <trkpt lat="47.29933" lon="-2.35341">
        <ele>29.799999237061</ele>
        <time>2020-06-25T10:08:14.000Z</time>
      </trkpt>
      <trkpt lat="47.29905" lon="-2.35375">
        <ele>29.799999237061</ele>
        <time>2020-06-25T10:08:22.000Z</time>
      </trkpt>
      <trkpt lat="47.29875" lon="-2.35408">
        <ele>29.799999237061</ele>
        <time>2020-06-25T10:08:30.000Z</time>
      </trkpt>
      <trkpt lat="47.2985" lon="-2.35433">
        <ele>29.799999237061</ele>
        <time>2020-06-25T10:08:37.000Z</time>
      </trkpt>
      <trkpt lat="47.2983" lon="-2.35459">
        <ele>29.799999237061</ele>
        <time>2020-06-25T10:08:43.000Z</time>
      </trkpt>
      <trkpt lat="47.29829" lon="-2.35465">
        <ele>29.799999237061</ele>
        <time>2020-06-25T10:08:44.000Z</time>
      </trkpt>
      <trkpt lat="47.29829" lon="-2.35485">
        <ele>29.799999237061</ele>
        <time>2020-06-25T10:08:47.000Z</time>
      </trkpt>
      <trkpt lat="47.29835" lon="-2.35508">
        <ele>29.799999237061</ele>
        <time>2020-06-25T10:08:51.000Z</time>
      </trkpt>
      <trkpt lat="47.29837" lon="-2.35514">
        <ele>29.799999237061</ele>
        <time>2020-06-25T10:08:52.000Z</time>
      </trkpt>
      <trkpt lat="47.29849" lon="-2.35547">
        <ele>30.200000762939</ele>
        <time>2020-06-25T10:08:58.000Z</time>
      </trkpt>
      <trkpt lat="47.29851" lon="-2.35553">
        <ele>30.60000038147</ele>
        <time>2020-06-25T10:08:59.000Z</time>
      </trkpt>
      <trkpt lat="47.29853" lon="-2.35559">
        <ele>31</ele>
        <time>2020-06-25T10:09:00.000Z</time>
      </trkpt>
      <trkpt lat="47.29854" lon="-2.35565">
        <ele>31.39999961853</ele>
        <time>2020-06-25T10:09:01.000Z</time>
      </trkpt>
      <trkpt lat="47.29856" lon="-2.35571">
        <ele>31.799999237061</ele>
        <time>2020-06-25T10:09:02.000Z</time>
      </trkpt>
      <trkpt lat="47.29867" lon="-2.3561">
        <ele>31.799999237061</ele>
        <time>2020-06-25T10:09:09.000Z</time>
      </trkpt>
      <trkpt lat="47.29872" lon="-2.35634">
        <ele>32.200000762939</ele>
        <time>2020-06-25T10:09:13.000Z</time>
      </trkpt>
      <trkpt lat="47.29873" lon="-2.3564">
        <ele>32.599998474121</ele>
        <time>2020-06-25T10:09:14.000Z</time>
      </trkpt>
      <trkpt lat="47.29874" lon="-2.35646">
        <ele>33</ele>
        <time>2020-06-25T10:09:15.000Z</time>
      </trkpt>
      <trkpt lat="47.29875" lon="-2.35652">
        <ele>33.799999237061</ele>
        <time>2020-06-25T10:09:16.000Z</time>
      </trkpt>
      <trkpt lat="47.29881" lon="-2.357">
        <ele>33.799999237061</ele>
        <time>2020-06-25T10:09:24.000Z</time>
      </trkpt>
      <trkpt lat="47.29889" lon="-2.35728">
        <ele>33.799999237061</ele>
        <time>2020-06-25T10:09:30.000Z</time>
      </trkpt>
      <trkpt lat="47.29895" lon="-2.35744">
        <ele>33.799999237061</ele>
        <time>2020-06-25T10:09:35.000Z</time>
      </trkpt>
      <trkpt lat="47.29896" lon="-2.35747">
        <ele>33.799999237061</ele>
        <time>2020-06-25T10:09:39.000Z</time>
      </trkpt>
      <trkpt lat="47.29895" lon="-2.3575">
        <ele>33.799999237061</ele>
        <time>2020-06-25T10:09:49.000Z</time>
      </trkpt>
      <trkpt lat="47.29893" lon="-2.35757">
        <ele>33.799999237061</ele>
        <time>2020-06-25T10:09:52.000Z</time>
      </trkpt>
      <trkpt lat="47.29889" lon="-2.35763">
        <ele>33.799999237061</ele>
        <time>2020-06-25T10:09:54.000Z</time>
      </trkpt>
      <trkpt lat="47.29885" lon="-2.35765">
        <ele>33.799999237061</ele>
        <time>2020-06-25T10:09:55.000Z</time>
      </trkpt>
      <trkpt lat="47.29877" lon="-2.35768">
        <ele>33.799999237061</ele>
        <time>2020-06-25T10:09:57.000Z</time>
      </trkpt>
      <trkpt lat="47.29873" lon="-2.35769">
        <ele>33.799999237061</ele>
        <time>2020-06-25T10:09:58.000Z</time>
      </trkpt>
      <trkpt lat="47.29841" lon="-2.35781">
        <ele>33.799999237061</ele>
        <time>2020-06-25T10:10:06.000Z</time>
      </trkpt>
      <trkpt lat="47.29818" lon="-2.3579">
        <ele>33.799999237061</ele>
        <time>2020-06-25T10:10:12.000Z</time>
      </trkpt>
      <trkpt lat="47.29807" lon="-2.35793">
        <ele>34.400001525879</ele>
        <time>2020-06-25T10:10:15.000Z</time>
      </trkpt>
      <trkpt lat="47.29803" lon="-2.35795">
        <ele>34.799999237061</ele>
        <time>2020-06-25T10:10:16.000Z</time>
      </trkpt>
      <trkpt lat="47.29799" lon="-2.35796">
        <ele>35.200000762939</ele>
        <time>2020-06-25T10:10:17.000Z</time>
      </trkpt>
      <trkpt lat="47.29796" lon="-2.35797">
        <ele>35.599998474121</ele>
        <time>2020-06-25T10:10:18.000Z</time>
      </trkpt>
      <trkpt lat="47.29792" lon="-2.35799">
        <ele>36</ele>
        <time>2020-06-25T10:10:19.000Z</time>
      </trkpt>
      <trkpt lat="47.29752" lon="-2.35812">
        <ele>36</ele>
        <time>2020-06-25T10:10:28.000Z</time>
      </trkpt>
      <trkpt lat="47.29721" lon="-2.35829">
        <ele>36</ele>
        <time>2020-06-25T10:10:34.000Z</time>
      </trkpt>
      <trkpt lat="47.29687" lon="-2.35845">
        <ele>35.599998474121</ele>
        <time>2020-06-25T10:10:40.000Z</time>
      </trkpt>
      <trkpt lat="47.29682" lon="-2.35847">
        <ele>35.200000762939</ele>
        <time>2020-06-25T10:10:41.000Z</time>
      </trkpt>
      <trkpt lat="47.29677" lon="-2.35849">
        <ele>34.799999237061</ele>
        <time>2020-06-25T10:10:42.000Z</time>
      </trkpt>
      <trkpt lat="47.29672" lon="-2.35852">
        <ele>34.400001525879</ele>
        <time>2020-06-25T10:10:43.000Z</time>
      </trkpt>
      <trkpt lat="47.29668" lon="-2.35857">
        <ele>33.799999237061</ele>
        <time>2020-06-25T10:10:44.000Z</time>
      </trkpt>
      <trkpt lat="47.29663" lon="-2.35861">
        <ele>33.799999237061</ele>
        <time>2020-06-25T10:10:45.000Z</time>
      </trkpt>
      <trkpt lat="47.29633" lon="-2.35879">
        <ele>33.799999237061</ele>
        <time>2020-06-25T10:10:51.000Z</time>
      </trkpt>
      <trkpt lat="47.29591" lon="-2.35904">
        <ele>33.799999237061</ele>
        <time>2020-06-25T10:11:00.000Z</time>
      </trkpt>
      <trkpt lat="47.29587" lon="-2.35906">
        <ele>33.799999237061</ele>
        <time>2020-06-25T10:11:01.000Z</time>
      </trkpt>
      <trkpt lat="47.29564" lon="-2.35919">
        <ele>33.799999237061</ele>
        <time>2020-06-25T10:11:06.000Z</time>
      </trkpt>
      <trkpt lat="47.29537" lon="-2.35935">
        <ele>33.799999237061</ele>
        <time>2020-06-25T10:11:13.000Z</time>
      </trkpt>
      <trkpt lat="47.29516" lon="-2.3594">
        <ele>33.799999237061</ele>
        <time>2020-06-25T10:11:19.000Z</time>
      </trkpt>
      <trkpt lat="47.29508" lon="-2.35943">
        <ele>33.799999237061</ele>
        <time>2020-06-25T10:11:23.000Z</time>
      </trkpt>
      <trkpt lat="47.29508" lon="-2.35943">
        <ele>33.799999237061</ele>
        <time>2020-06-25T10:11:24.000Z</time>
      </trkpt>
      <trkpt lat="47.29507" lon="-2.35946">
        <ele>31.799999237061</ele>
        <time>2020-06-25T10:11:46.000Z</time>
      </trkpt>
      <trkpt lat="47.29505" lon="-2.3595">
        <ele>31.799999237061</ele>
        <time>2020-06-25T10:11:48.000Z</time>
      </trkpt>
      <trkpt lat="47.29482" lon="-2.35968">
        <ele>31.799999237061</ele>
        <time>2020-06-25T10:11:54.000Z</time>
      </trkpt>
      <trkpt lat="47.29474" lon="-2.35986">
        <ele>31.799999237061</ele>
        <time>2020-06-25T10:11:58.000Z</time>
      </trkpt>
      <trkpt lat="47.29471" lon="-2.35995">
        <ele>31.799999237061</ele>
        <time>2020-06-25T10:12:00.000Z</time>
      </trkpt>
      <trkpt lat="47.29464" lon="-2.35995">
        <ele>31.799999237061</ele>
        <time>2020-06-25T10:12:02.000Z</time>
      </trkpt>
      <trkpt lat="47.29459" lon="-2.35978">
        <ele>31.799999237061</ele>
        <time>2020-06-25T10:12:05.000Z</time>
      </trkpt>
      <trkpt lat="47.29457" lon="-2.35965">
        <ele>31.799999237061</ele>
        <time>2020-06-25T10:12:07.000Z</time>
      </trkpt>
      <trkpt lat="47.29455" lon="-2.35958">
        <ele>31.799999237061</ele>
        <time>2020-06-25T10:12:08.000Z</time>
      </trkpt>
      <trkpt lat="47.29451" lon="-2.35946">
        <ele>31.799999237061</ele>
        <time>2020-06-25T10:12:10.000Z</time>
      </trkpt>
      <trkpt lat="47.29439" lon="-2.35916">
        <ele>31.799999237061</ele>
        <time>2020-06-25T10:12:15.000Z</time>
      </trkpt>
      <trkpt lat="47.29437" lon="-2.35911">
        <ele>31.799999237061</ele>
        <time>2020-06-25T10:12:16.000Z</time>
      </trkpt>
      <trkpt lat="47.2944" lon="-2.35902">
        <ele>31.799999237061</ele>
        <time>2020-06-25T10:12:19.000Z</time>
      </trkpt>
      <trkpt lat="47.29443" lon="-2.359">
        <ele>31.799999237061</ele>
        <time>2020-06-25T10:12:20.000Z</time>
      </trkpt>
      <trkpt lat="47.29448" lon="-2.35899">
        <ele>31.799999237061</ele>
        <time>2020-06-25T10:12:23.000Z</time>
      </trkpt>
      <trkpt lat="47.29448" lon="-2.35899">
        <ele>31.799999237061</ele>
        <time>2020-06-25T10:12:24.000Z</time>
      </trkpt>
      <trkpt lat="47.29445" lon="-2.359">
        <ele>31.799999237061</ele>
        <time>2020-06-25T10:19:11.000Z</time>
      </trkpt>
      <trkpt lat="47.29441" lon="-2.35898">
        <ele>31.799999237061</ele>
        <time>2020-06-25T10:19:14.000Z</time>
      </trkpt>
      <trkpt lat="47.29435" lon="-2.35896">
        <ele>31.799999237061</ele>
        <time>2020-06-25T10:19:17.000Z</time>
      </trkpt>
      <trkpt lat="47.2943" lon="-2.35897">
        <ele>31.799999237061</ele>
        <time>2020-06-25T10:19:19.000Z</time>
      </trkpt>
      <trkpt lat="47.29423" lon="-2.35894">
        <ele>31.799999237061</ele>
        <time>2020-06-25T10:19:21.000Z</time>
      </trkpt>
      <trkpt lat="47.29418" lon="-2.35887">
        <ele>31.799999237061</ele>
        <time>2020-06-25T10:19:23.000Z</time>
      </trkpt>
      <trkpt lat="47.29411" lon="-2.35876">
        <ele>31.799999237061</ele>
        <time>2020-06-25T10:19:26.000Z</time>
      </trkpt>
      <trkpt lat="47.29405" lon="-2.35869">
        <ele>31.799999237061</ele>
        <time>2020-06-25T10:19:28.000Z</time>
      </trkpt>
      <trkpt lat="47.29377" lon="-2.3584">
        <ele>31.799999237061</ele>
        <time>2020-06-25T10:19:36.000Z</time>
      </trkpt>
      <trkpt lat="47.2935" lon="-2.35819">
        <ele>31.799999237061</ele>
        <time>2020-06-25T10:19:42.000Z</time>
      </trkpt>
      <trkpt lat="47.29342" lon="-2.35811">
        <ele>31.799999237061</ele>
        <time>2020-06-25T10:19:44.000Z</time>
      </trkpt>
      <trkpt lat="47.29333" lon="-2.35803">
        <ele>31.799999237061</ele>
        <time>2020-06-25T10:19:46.000Z</time>
      </trkpt>
      <trkpt lat="47.29329" lon="-2.35799">
        <ele>31.799999237061</ele>
        <time>2020-06-25T10:19:47.000Z</time>
      </trkpt>
      <trkpt lat="47.29291" lon="-2.35765">
        <ele>31.799999237061</ele>
        <time>2020-06-25T10:19:56.000Z</time>
      </trkpt>
      <trkpt lat="47.29249" lon="-2.35727">
        <ele>31.799999237061</ele>
        <time>2020-06-25T10:20:06.000Z</time>
      </trkpt>
      <trkpt lat="47.29218" lon="-2.35698">
        <ele>31.799999237061</ele>
        <time>2020-06-25T10:20:13.000Z</time>
      </trkpt>
      <trkpt lat="47.29177" lon="-2.35656">
        <ele>31.799999237061</ele>
        <time>2020-06-25T10:20:22.000Z</time>
      </trkpt>
      <trkpt lat="47.29172" lon="-2.35653">
        <ele>31.799999237061</ele>
        <time>2020-06-25T10:20:23.000Z</time>
      </trkpt>
      <trkpt lat="47.29157" lon="-2.35649">
        <ele>31.799999237061</ele>
        <time>2020-06-25T10:20:26.000Z</time>
      </trkpt>
      <trkpt lat="47.29152" lon="-2.35649">
        <ele>31.799999237061</ele>
        <time>2020-06-25T10:20:27.000Z</time>
      </trkpt>
      <trkpt lat="47.29147" lon="-2.35649">
        <ele>31.799999237061</ele>
        <time>2020-06-25T10:20:28.000Z</time>
      </trkpt>
      <trkpt lat="47.29133" lon="-2.35659">
        <ele>31.799999237061</ele>
        <time>2020-06-25T10:20:31.000Z</time>
      </trkpt>
      <trkpt lat="47.29113" lon="-2.35658">
        <ele>31.799999237061</ele>
        <time>2020-06-25T10:20:35.000Z</time>
      </trkpt>
      <trkpt lat="47.29108" lon="-2.35659">
        <ele>31.799999237061</ele>
        <time>2020-06-25T10:20:36.000Z</time>
      </trkpt>
      <trkpt lat="47.29093" lon="-2.35666">
        <ele>31.799999237061</ele>
        <time>2020-06-25T10:20:39.000Z</time>
      </trkpt>
      <trkpt lat="47.29088" lon="-2.35668">
        <ele>31.799999237061</ele>
        <time>2020-06-25T10:20:40.000Z</time>
      </trkpt>
      <trkpt lat="47.29084" lon="-2.35671">
        <ele>31.799999237061</ele>
        <time>2020-06-25T10:20:41.000Z</time>
      </trkpt>
      <trkpt lat="47.29065" lon="-2.35685">
        <ele>31.799999237061</ele>
        <time>2020-06-25T10:20:45.000Z</time>
      </trkpt>
      <trkpt lat="47.29061" lon="-2.35689">
        <ele>31.799999237061</ele>
        <time>2020-06-25T10:20:46.000Z</time>
      </trkpt>
      <trkpt lat="47.29049" lon="-2.35703">
        <ele>32.799999237061</ele>
        <time>2020-06-25T10:20:49.000Z</time>
      </trkpt>
      <trkpt lat="47.29044" lon="-2.35706">
        <ele>33.200000762939</ele>
        <time>2020-06-25T10:20:50.000Z</time>
      </trkpt>
      <trkpt lat="47.2904" lon="-2.35711">
        <ele>33.599998474121</ele>
        <time>2020-06-25T10:20:51.000Z</time>
      </trkpt>
      <trkpt lat="47.29036" lon="-2.35714">
        <ele>34.200000762939</ele>
        <time>2020-06-25T10:20:52.000Z</time>
      </trkpt>
      <trkpt lat="47.29006" lon="-2.35739">
        <ele>34.200000762939</ele>
        <time>2020-06-25T10:20:59.000Z</time>
      </trkpt>
      <trkpt lat="47.28997" lon="-2.35746">
        <ele>34.200000762939</ele>
        <time>2020-06-25T10:21:01.000Z</time>
      </trkpt>
      <trkpt lat="47.28974" lon="-2.35758">
        <ele>34.200000762939</ele>
        <time>2020-06-25T10:21:06.000Z</time>
      </trkpt>
      <trkpt lat="47.28931" lon="-2.35782">
        <ele>34.200000762939</ele>
        <time>2020-06-25T10:21:15.000Z</time>
      </trkpt>
      <trkpt lat="47.28902" lon="-2.35803">
        <ele>34.200000762939</ele>
        <time>2020-06-25T10:21:21.000Z</time>
      </trkpt>
      <trkpt lat="47.28877" lon="-2.35835">
        <ele>34.200000762939</ele>
        <time>2020-06-25T10:21:27.000Z</time>
      </trkpt>
      <trkpt lat="47.28847" lon="-2.35877">
        <ele>34.200000762939</ele>
        <time>2020-06-25T10:21:35.000Z</time>
      </trkpt>
      <trkpt lat="47.28812" lon="-2.35917">
        <ele>34.200000762939</ele>
        <time>2020-06-25T10:21:43.000Z</time>
      </trkpt>
      <trkpt lat="47.28769" lon="-2.35955">
        <ele>34.200000762939</ele>
        <time>2020-06-25T10:21:52.000Z</time>
      </trkpt>
      <trkpt lat="47.28741" lon="-2.35964">
        <ele>34.200000762939</ele>
        <time>2020-06-25T10:21:57.000Z</time>
      </trkpt>
      <trkpt lat="47.28699" lon="-2.35963">
        <ele>34.200000762939</ele>
        <time>2020-06-25T10:22:04.000Z</time>
      </trkpt>
      <trkpt lat="47.28667" lon="-2.35964">
        <ele>34.200000762939</ele>
        <time>2020-06-25T10:22:10.000Z</time>
      </trkpt>
      <trkpt lat="47.28629" lon="-2.35962">
        <ele>33.799999237061</ele>
        <time>2020-06-25T10:22:17.000Z</time>
      </trkpt>
      <trkpt lat="47.28624" lon="-2.3596">
        <ele>33.200000762939</ele>
        <time>2020-06-25T10:22:18.000Z</time>
      </trkpt>
      <trkpt lat="47.28618" lon="-2.35957">
        <ele>32.799999237061</ele>
        <time>2020-06-25T10:22:19.000Z</time>
      </trkpt>
      <trkpt lat="47.28614" lon="-2.35954">
        <ele>32.400001525879</ele>
        <time>2020-06-25T10:22:20.000Z</time>
      </trkpt>
      <trkpt lat="47.28609" lon="-2.35951">
        <ele>32</ele>
        <time>2020-06-25T10:22:21.000Z</time>
      </trkpt>
      <trkpt lat="47.28604" lon="-2.35947">
        <ele>32</ele>
        <time>2020-06-25T10:22:22.000Z</time>
      </trkpt>
      <trkpt lat="47.28585" lon="-2.35919">
        <ele>32</ele>
        <time>2020-06-25T10:22:27.000Z</time>
      </trkpt>
      <trkpt lat="47.28562" lon="-2.35863">
        <ele>32</ele>
        <time>2020-06-25T10:22:34.000Z</time>
      </trkpt>
      <trkpt lat="47.28554" lon="-2.35849">
        <ele>32</ele>
        <time>2020-06-25T10:22:36.000Z</time>
      </trkpt>
      <trkpt lat="47.28537" lon="-2.35836">
        <ele>32</ele>
        <time>2020-06-25T10:22:39.000Z</time>
      </trkpt>
      <trkpt lat="47.28531" lon="-2.35832">
        <ele>32</ele>
        <time>2020-06-25T10:22:40.000Z</time>
      </trkpt>
      <trkpt lat="47.28517" lon="-2.35824">
        <ele>32</ele>
        <time>2020-06-25T10:22:42.000Z</time>
      </trkpt>
      <trkpt lat="47.28504" lon="-2.35819">
        <ele>32</ele>
        <time>2020-06-25T10:22:44.000Z</time>
      </trkpt>
      <trkpt lat="47.28465" lon="-2.35807">
        <ele>32</ele>
        <time>2020-06-25T10:22:50.000Z</time>
      </trkpt>
      <trkpt lat="47.28459" lon="-2.35804">
        <ele>31.60000038147</ele>
        <time>2020-06-25T10:22:51.000Z</time>
      </trkpt>
      <trkpt lat="47.28453" lon="-2.35801">
        <ele>31</ele>
        <time>2020-06-25T10:22:52.000Z</time>
      </trkpt>
      <trkpt lat="47.28447" lon="-2.35799">
        <ele>30.200000762939</ele>
        <time>2020-06-25T10:22:53.000Z</time>
      </trkpt>
      <trkpt lat="47.28441" lon="-2.35797">
        <ele>29.799999237061</ele>
        <time>2020-06-25T10:22:54.000Z</time>
      </trkpt>
      <trkpt lat="47.28429" lon="-2.35792">
        <ele>29.799999237061</ele>
        <time>2020-06-25T10:22:56.000Z</time>
      </trkpt>
      <trkpt lat="47.28419" lon="-2.35789">
        <ele>29.799999237061</ele>
        <time>2020-06-25T10:22:58.000Z</time>
      </trkpt>
      <trkpt lat="47.28408" lon="-2.35786">
        <ele>29.799999237061</ele>
        <time>2020-06-25T10:23:00.000Z</time>
      </trkpt>
      <trkpt lat="47.28397" lon="-2.35781">
        <ele>29.799999237061</ele>
        <time>2020-06-25T10:23:02.000Z</time>
      </trkpt>
      <trkpt lat="47.28367" lon="-2.35767">
        <ele>29.799999237061</ele>
        <time>2020-06-25T10:23:07.000Z</time>
      </trkpt>
      <trkpt lat="47.28324" lon="-2.35742">
        <ele>29.799999237061</ele>
        <time>2020-06-25T10:23:14.000Z</time>
      </trkpt>
      <trkpt lat="47.28301" lon="-2.35723">
        <ele>28.799999237061</ele>
        <time>2020-06-25T10:23:18.000Z</time>
      </trkpt>
      <trkpt lat="47.28296" lon="-2.35718">
        <ele>28.39999961853</ele>
        <time>2020-06-25T10:23:19.000Z</time>
      </trkpt>
      <trkpt lat="47.28291" lon="-2.35714">
        <ele>28</ele>
        <time>2020-06-25T10:23:20.000Z</time>
      </trkpt>
      <trkpt lat="47.28285" lon="-2.35709">
        <ele>27.60000038147</ele>
        <time>2020-06-25T10:23:21.000Z</time>
      </trkpt>
      <trkpt lat="47.28256" lon="-2.35677">
        <ele>27.60000038147</ele>
        <time>2020-06-25T10:23:26.000Z</time>
      </trkpt>
      <trkpt lat="47.2822" lon="-2.35631">
        <ele>27.60000038147</ele>
        <time>2020-06-25T10:23:33.000Z</time>
      </trkpt>
      <trkpt lat="47.28214" lon="-2.35624">
        <ele>27.200000762939</ele>
        <time>2020-06-25T10:23:34.000Z</time>
      </trkpt>
      <trkpt lat="47.28209" lon="-2.35617">
        <ele>26.799999237061</ele>
        <time>2020-06-25T10:23:35.000Z</time>
      </trkpt>
      <trkpt lat="47.28203" lon="-2.3561">
        <ele>26.200000762939</ele>
        <time>2020-06-25T10:23:36.000Z</time>
      </trkpt>
      <trkpt lat="47.28198" lon="-2.35603">
        <ele>25.799999237061</ele>
        <time>2020-06-25T10:23:37.000Z</time>
      </trkpt>
      <trkpt lat="47.28193" lon="-2.35597">
        <ele>25.39999961853</ele>
        <time>2020-06-25T10:23:38.000Z</time>
      </trkpt>
      <trkpt lat="47.28174" lon="-2.35579">
        <ele>25.39999961853</ele>
        <time>2020-06-25T10:23:41.000Z</time>
      </trkpt>
      <trkpt lat="47.28154" lon="-2.35568">
        <ele>25.39999961853</ele>
        <time>2020-06-25T10:23:44.000Z</time>
      </trkpt>
      <trkpt lat="47.2814" lon="-2.35564">
        <ele>25.39999961853</ele>
        <time>2020-06-25T10:23:46.000Z</time>
      </trkpt>
      <trkpt lat="47.28111" lon="-2.35559">
        <ele>25</ele>
        <time>2020-06-25T10:23:50.000Z</time>
      </trkpt>
      <trkpt lat="47.28102" lon="-2.35558">
        <ele>24.60000038147</ele>
        <time>2020-06-25T10:23:51.000Z</time>
      </trkpt>
      <trkpt lat="47.28094" lon="-2.35558">
        <ele>24.200000762939</ele>
        <time>2020-06-25T10:23:52.000Z</time>
      </trkpt>
      <trkpt lat="47.28086" lon="-2.35558">
        <ele>23.60000038147</ele>
        <time>2020-06-25T10:23:53.000Z</time>
      </trkpt>
      <trkpt lat="47.28078" lon="-2.35558">
        <ele>23.200000762939</ele>
        <time>2020-06-25T10:23:54.000Z</time>
      </trkpt>
      <trkpt lat="47.28069" lon="-2.35559">
        <ele>22.799999237061</ele>
        <time>2020-06-25T10:23:55.000Z</time>
      </trkpt>
      <trkpt lat="47.28061" lon="-2.35559">
        <ele>22.39999961853</ele>
        <time>2020-06-25T10:23:56.000Z</time>
      </trkpt>
      <trkpt lat="47.28052" lon="-2.35557">
        <ele>22</ele>
        <time>2020-06-25T10:23:57.000Z</time>
      </trkpt>
      <trkpt lat="47.28044" lon="-2.35556">
        <ele>21.60000038147</ele>
        <time>2020-06-25T10:23:58.000Z</time>
      </trkpt>
      <trkpt lat="47.28035" lon="-2.35556">
        <ele>21</ele>
        <time>2020-06-25T10:23:59.000Z</time>
      </trkpt>
      <trkpt lat="47.2801" lon="-2.35559">
        <ele>21</ele>
        <time>2020-06-25T10:24:02.000Z</time>
      </trkpt>
      <trkpt lat="47.27987" lon="-2.35566">
        <ele>21</ele>
        <time>2020-06-25T10:24:05.000Z</time>
      </trkpt>
      <trkpt lat="47.27939" lon="-2.35584">
        <ele>20.60000038147</ele>
        <time>2020-06-25T10:24:12.000Z</time>
      </trkpt>
      <trkpt lat="47.27932" lon="-2.35586">
        <ele>20.200000762939</ele>
        <time>2020-06-25T10:24:13.000Z</time>
      </trkpt>
      <trkpt lat="47.27926" lon="-2.35588">
        <ele>19.799999237061</ele>
        <time>2020-06-25T10:24:14.000Z</time>
      </trkpt>
      <trkpt lat="47.27919" lon="-2.35589">
        <ele>19.39999961853</ele>
        <time>2020-06-25T10:24:15.000Z</time>
      </trkpt>
      <trkpt lat="47.27913" lon="-2.3559">
        <ele>19</ele>
        <time>2020-06-25T10:24:16.000Z</time>
      </trkpt>
      <trkpt lat="47.27891" lon="-2.35596">
        <ele>19</ele>
        <time>2020-06-25T10:24:19.000Z</time>
      </trkpt>
      <trkpt lat="47.27862" lon="-2.35602">
        <ele>18.60000038147</ele>
        <time>2020-06-25T10:24:23.000Z</time>
      </trkpt>
      <trkpt lat="47.27855" lon="-2.35604">
        <ele>18.200000762939</ele>
        <time>2020-06-25T10:24:24.000Z</time>
      </trkpt>
      <trkpt lat="47.27847" lon="-2.35606">
        <ele>17.799999237061</ele>
        <time>2020-06-25T10:24:25.000Z</time>
      </trkpt>
      <trkpt lat="47.2784" lon="-2.35608">
        <ele>17.39999961853</ele>
        <time>2020-06-25T10:24:26.000Z</time>
      </trkpt>
      <trkpt lat="47.27832" lon="-2.3561">
        <ele>16.799999237061</ele>
        <time>2020-06-25T10:24:27.000Z</time>
      </trkpt>
      <trkpt lat="47.27795" lon="-2.35622">
        <ele>16.39999961853</ele>
        <time>2020-06-25T10:24:32.000Z</time>
      </trkpt>
      <trkpt lat="47.27788" lon="-2.35626">
        <ele>16</ele>
        <time>2020-06-25T10:24:33.000Z</time>
      </trkpt>
      <trkpt lat="47.27781" lon="-2.3563">
        <ele>15.60000038147</ele>
        <time>2020-06-25T10:24:34.000Z</time>
      </trkpt>
      <trkpt lat="47.27774" lon="-2.35635">
        <ele>15.199999809265</ele>
        <time>2020-06-25T10:24:35.000Z</time>
      </trkpt>
      <trkpt lat="47.27768" lon="-2.35642">
        <ele>14.60000038147</ele>
        <time>2020-06-25T10:24:36.000Z</time>
      </trkpt>
      <trkpt lat="47.27761" lon="-2.3565">
        <ele>14.60000038147</ele>
        <time>2020-06-25T10:24:37.000Z</time>
      </trkpt>
      <trkpt lat="47.27736" lon="-2.35688">
        <ele>14.60000038147</ele>
        <time>2020-06-25T10:24:42.000Z</time>
      </trkpt>
      <trkpt lat="47.27701" lon="-2.35727">
        <ele>14.60000038147</ele>
        <time>2020-06-25T10:24:48.000Z</time>
      </trkpt>
      <trkpt lat="47.27695" lon="-2.35732">
        <ele>14.199999809265</ele>
        <time>2020-06-25T10:24:49.000Z</time>
      </trkpt>
      <trkpt lat="47.27689" lon="-2.35738">
        <ele>13.800000190735</ele>
        <time>2020-06-25T10:24:50.000Z</time>
      </trkpt>
      <trkpt lat="47.27683" lon="-2.35745">
        <ele>13.39999961853</ele>
        <time>2020-06-25T10:24:51.000Z</time>
      </trkpt>
      <trkpt lat="47.27678" lon="-2.35749">
        <ele>13</ele>
        <time>2020-06-25T10:24:52.000Z</time>
      </trkpt>
      <trkpt lat="47.27672" lon="-2.35749">
        <ele>12.60000038147</ele>
        <time>2020-06-25T10:24:53.000Z</time>
      </trkpt>
      <trkpt lat="47.27665" lon="-2.35746">
        <ele>12</ele>
        <time>2020-06-25T10:24:54.000Z</time>
      </trkpt>
      <trkpt lat="47.27661" lon="-2.35739">
        <ele>11.60000038147</ele>
        <time>2020-06-25T10:24:55.000Z</time>
      </trkpt>
      <trkpt lat="47.27657" lon="-2.35732">
        <ele>11</ele>
        <time>2020-06-25T10:24:56.000Z</time>
      </trkpt>
      <trkpt lat="47.27653" lon="-2.35727">
        <ele>10.199999809265</ele>
        <time>2020-06-25T10:24:57.000Z</time>
      </trkpt>
      <trkpt lat="47.27649" lon="-2.35725">
        <ele>10.199999809265</ele>
        <time>2020-06-25T10:24:58.000Z</time>
      </trkpt>
      <trkpt lat="47.27623" lon="-2.35716">
        <ele>10.199999809265</ele>
        <time>2020-06-25T10:25:02.000Z</time>
      </trkpt>
      <trkpt lat="47.27593" lon="-2.35709">
        <ele>9.6000003814697</ele>
        <time>2020-06-25T10:25:06.000Z</time>
      </trkpt>
      <trkpt lat="47.27586" lon="-2.35707">
        <ele>9.1999998092651</ele>
        <time>2020-06-25T10:25:07.000Z</time>
      </trkpt>
      <trkpt lat="47.27579" lon="-2.35705">
        <ele>8.8000001907349</ele>
        <time>2020-06-25T10:25:08.000Z</time>
      </trkpt>
      <trkpt lat="47.27572" lon="-2.35704">
        <ele>8.3999996185303</ele>
        <time>2020-06-25T10:25:09.000Z</time>
      </trkpt>
      <trkpt lat="47.27565" lon="-2.35702">
        <ele>8</ele>
        <time>2020-06-25T10:25:10.000Z</time>
      </trkpt>
      <trkpt lat="47.2751" lon="-2.35686">
        <ele>8</ele>
        <time>2020-06-25T10:25:18.000Z</time>
      </trkpt>
      <trkpt lat="47.27488" lon="-2.35682">
        <ele>7.1999998092651</ele>
        <time>2020-06-25T10:25:21.000Z</time>
      </trkpt>
      <trkpt lat="47.27481" lon="-2.35681">
        <ele>6.8000001907349</ele>
        <time>2020-06-25T10:25:22.000Z</time>
      </trkpt>
      <trkpt lat="47.27473" lon="-2.35679">
        <ele>6.1999998092651</ele>
        <time>2020-06-25T10:25:23.000Z</time>
      </trkpt>
      <trkpt lat="47.27466" lon="-2.35678">
        <ele>5.8000001907349</ele>
        <time>2020-06-25T10:25:24.000Z</time>
      </trkpt>
      <trkpt lat="47.27452" lon="-2.35675">
        <ele>5.8000001907349</ele>
        <time>2020-06-25T10:25:26.000Z</time>
      </trkpt>
      <trkpt lat="47.27412" lon="-2.35666">
        <ele>5.4000000953674</ele>
        <time>2020-06-25T10:25:32.000Z</time>
      </trkpt>
      <trkpt lat="47.27405" lon="-2.35667">
        <ele>5</ele>
        <time>2020-06-25T10:25:33.000Z</time>
      </trkpt>
      <trkpt lat="47.27398" lon="-2.3567">
        <ele>4.5999999046326</ele>
        <time>2020-06-25T10:25:34.000Z</time>
      </trkpt>
      <trkpt lat="47.27392" lon="-2.35674">
        <ele>4.1999998092651</ele>
        <time>2020-06-25T10:25:35.000Z</time>
      </trkpt>
      <trkpt lat="47.27386" lon="-2.35678">
        <ele>3.7999999523163</ele>
        <time>2020-06-25T10:25:36.000Z</time>
      </trkpt>
      <trkpt lat="47.27355" lon="-2.35701">
        <ele>3.7999999523163</ele>
        <time>2020-06-25T10:25:41.000Z</time>
      </trkpt>
      <trkpt lat="47.27349" lon="-2.35705">
        <ele>4.1999998092651</ele>
        <time>2020-06-25T10:25:42.000Z</time>
      </trkpt>
      <trkpt lat="47.27343" lon="-2.3571">
        <ele>4.5999999046326</ele>
        <time>2020-06-25T10:25:43.000Z</time>
      </trkpt>
      <trkpt lat="47.27338" lon="-2.35714">
        <ele>5.1999998092651</ele>
        <time>2020-06-25T10:25:44.000Z</time>
      </trkpt>
      <trkpt lat="47.27333" lon="-2.35718">
        <ele>5.5999999046326</ele>
        <time>2020-06-25T10:25:45.000Z</time>
      </trkpt>
      <trkpt lat="47.27328" lon="-2.35723">
        <ele>6</ele>
        <time>2020-06-25T10:25:46.000Z</time>
      </trkpt>
      <trkpt lat="47.27325" lon="-2.35728">
        <ele>6</ele>
        <time>2020-06-25T10:25:47.000Z</time>
      </trkpt>
      <trkpt lat="47.27322" lon="-2.35733">
        <ele>5.5999999046326</ele>
        <time>2020-06-25T10:25:48.000Z</time>
      </trkpt>
      <trkpt lat="47.27319" lon="-2.35738">
        <ele>5.1999998092651</ele>
        <time>2020-06-25T10:25:49.000Z</time>
      </trkpt>
      <trkpt lat="47.27315" lon="-2.35742">
        <ele>4.5999999046326</ele>
        <time>2020-06-25T10:25:50.000Z</time>
      </trkpt>
      <trkpt lat="47.2731" lon="-2.35741">
        <ele>4.1999998092651</ele>
        <time>2020-06-25T10:25:51.000Z</time>
      </trkpt>
      <trkpt lat="47.27307" lon="-2.35737">
        <ele>3.7999999523163</ele>
        <time>2020-06-25T10:25:52.000Z</time>
      </trkpt>
      <trkpt lat="47.27304" lon="-2.35731">
        <ele>3.7999999523163</ele>
        <time>2020-06-25T10:25:53.000Z</time>
      </trkpt>
      <trkpt lat="47.27299" lon="-2.35718">
        <ele>3.7999999523163</ele>
        <time>2020-06-25T10:25:55.000Z</time>
      </trkpt>
      <trkpt lat="47.2729" lon="-2.35699">
        <ele>3.7999999523163</ele>
        <time>2020-06-25T10:25:58.000Z</time>
      </trkpt>
      <trkpt lat="47.27265" lon="-2.35645">
        <ele>3.7999999523163</ele>
        <time>2020-06-25T10:26:06.000Z</time>
      </trkpt>
      <trkpt lat="47.27241" lon="-2.35591">
        <ele>3.7999999523163</ele>
        <time>2020-06-25T10:26:14.000Z</time>
      </trkpt>
      <trkpt lat="47.2721" lon="-2.35522">
        <ele>3.7999999523163</ele>
        <time>2020-06-25T10:26:24.000Z</time>
      </trkpt>
      <trkpt lat="47.27207" lon="-2.35515">
        <ele>3.7999999523163</ele>
        <time>2020-06-25T10:26:25.000Z</time>
      </trkpt>
      <trkpt lat="47.27194" lon="-2.35488">
        <ele>4.1999998092651</ele>
        <time>2020-06-25T10:26:29.000Z</time>
      </trkpt>
      <trkpt lat="47.27191" lon="-2.3548">
        <ele>4.5999999046326</ele>
        <time>2020-06-25T10:26:30.000Z</time>
      </trkpt>
      <trkpt lat="47.27187" lon="-2.35473">
        <ele>5</ele>
        <time>2020-06-25T10:26:31.000Z</time>
      </trkpt>
      <trkpt lat="47.27183" lon="-2.35466">
        <ele>5.4000000953674</ele>
        <time>2020-06-25T10:26:32.000Z</time>
      </trkpt>
      <trkpt lat="47.27179" lon="-2.35459">
        <ele>5.8000001907349</ele>
        <time>2020-06-25T10:26:33.000Z</time>
      </trkpt>
      <trkpt lat="47.27176" lon="-2.35452">
        <ele>5.8000001907349</ele>
        <time>2020-06-25T10:26:34.000Z</time>
      </trkpt>
      <trkpt lat="47.27143" lon="-2.35391">
        <ele>5.8000001907349</ele>
        <time>2020-06-25T10:26:43.000Z</time>
      </trkpt>
      <trkpt lat="47.27135" lon="-2.35377">
        <ele>5.8000001907349</ele>
        <time>2020-06-25T10:26:45.000Z</time>
      </trkpt>
      <trkpt lat="47.27099" lon="-2.35318">
        <ele>5.8000001907349</ele>
        <time>2020-06-25T10:26:54.000Z</time>
      </trkpt>
      <trkpt lat="47.27058" lon="-2.35254">
        <ele>5.8000001907349</ele>
        <time>2020-06-25T10:27:04.000Z</time>
      </trkpt>
      <trkpt lat="47.2705" lon="-2.35241">
        <ele>5.8000001907349</ele>
        <time>2020-06-25T10:27:06.000Z</time>
      </trkpt>
      <trkpt lat="47.27013" lon="-2.35182">
        <ele>5.8000001907349</ele>
        <time>2020-06-25T10:27:15.000Z</time>
      </trkpt>
      <trkpt lat="47.27008" lon="-2.35176">
        <ele>5.8000001907349</ele>
        <time>2020-06-25T10:27:16.000Z</time>
      </trkpt>
      <trkpt lat="47.26978" lon="-2.35131">
        <ele>5.8000001907349</ele>
        <time>2020-06-25T10:27:23.000Z</time>
      </trkpt>
      <trkpt lat="47.26939" lon="-2.35071">
        <ele>5.8000001907349</ele>
        <time>2020-06-25T10:27:32.000Z</time>
      </trkpt>
      <trkpt lat="47.26935" lon="-2.35065">
        <ele>5.8000001907349</ele>
        <time>2020-06-25T10:27:33.000Z</time>
      </trkpt>
      <trkpt lat="47.26894" lon="-2.35002">
        <ele>5.8000001907349</ele>
        <time>2020-06-25T10:27:43.000Z</time>
      </trkpt>
      <trkpt lat="47.26853" lon="-2.34939">
        <ele>5.8000001907349</ele>
        <time>2020-06-25T10:27:53.000Z</time>
      </trkpt>
      <trkpt lat="47.26849" lon="-2.34933">
        <ele>5.8000001907349</ele>
        <time>2020-06-25T10:27:54.000Z</time>
      </trkpt>
      <trkpt lat="47.26811" lon="-2.34878">
        <ele>5.8000001907349</ele>
        <time>2020-06-25T10:28:03.000Z</time>
      </trkpt>
      <trkpt lat="47.26774" lon="-2.34825">
        <ele>5.8000001907349</ele>
        <time>2020-06-25T10:28:12.000Z</time>
      </trkpt>
      <trkpt lat="47.26743" lon="-2.34785">
        <ele>5.8000001907349</ele>
        <time>2020-06-25T10:28:19.000Z</time>
      </trkpt>
      <trkpt lat="47.26702" lon="-2.34734">
        <ele>5.8000001907349</ele>
        <time>2020-06-25T10:28:28.000Z</time>
      </trkpt>
      <trkpt lat="47.26657" lon="-2.34678">
        <ele>5.8000001907349</ele>
        <time>2020-06-25T10:28:38.000Z</time>
      </trkpt>
      <trkpt lat="47.26652" lon="-2.34673">
        <ele>5.8000001907349</ele>
        <time>2020-06-25T10:28:39.000Z</time>
      </trkpt>
      <trkpt lat="47.26608" lon="-2.34618">
        <ele>5.8000001907349</ele>
        <time>2020-06-25T10:28:49.000Z</time>
      </trkpt>
      <trkpt lat="47.26603" lon="-2.34612">
        <ele>5.8000001907349</ele>
        <time>2020-06-25T10:28:50.000Z</time>
      </trkpt>
      <trkpt lat="47.26571" lon="-2.34576">
        <ele>5.8000001907349</ele>
        <time>2020-06-25T10:28:57.000Z</time>
      </trkpt>
      <trkpt lat="47.26538" lon="-2.34542">
        <ele>5.8000001907349</ele>
        <time>2020-06-25T10:29:04.000Z</time>
      </trkpt>
      <trkpt lat="47.26534" lon="-2.34538">
        <ele>5.8000001907349</ele>
        <time>2020-06-25T10:29:05.000Z</time>
      </trkpt>
      <trkpt lat="47.26515" lon="-2.34522">
        <ele>5.8000001907349</ele>
        <time>2020-06-25T10:29:09.000Z</time>
      </trkpt>
      <trkpt lat="47.26484" lon="-2.345">
        <ele>5.8000001907349</ele>
        <time>2020-06-25T10:29:15.000Z</time>
      </trkpt>
      <trkpt lat="47.26437" lon="-2.34467">
        <ele>5.8000001907349</ele>
        <time>2020-06-25T10:29:24.000Z</time>
      </trkpt>
      <trkpt lat="47.26393" lon="-2.34433">
        <ele>5.8000001907349</ele>
        <time>2020-06-25T10:29:33.000Z</time>
      </trkpt>
      <trkpt lat="47.26354" lon="-2.34399">
        <ele>5.8000001907349</ele>
        <time>2020-06-25T10:29:41.000Z</time>
      </trkpt>
      <trkpt lat="47.2634" lon="-2.34386">
        <ele>5.8000001907349</ele>
        <time>2020-06-25T10:29:44.000Z</time>
      </trkpt>
      <trkpt lat="47.2633" lon="-2.34383">
        <ele>5.8000001907349</ele>
        <time>2020-06-25T10:29:46.000Z</time>
      </trkpt>
      <trkpt lat="47.26315" lon="-2.34373">
        <ele>5.8000001907349</ele>
        <time>2020-06-25T10:29:49.000Z</time>
      </trkpt>
      <trkpt lat="47.26299" lon="-2.34349">
        <ele>5.8000001907349</ele>
        <time>2020-06-25T10:29:53.000Z</time>
      </trkpt>
      <trkpt lat="47.26261" lon="-2.34311">
        <ele>5.8000001907349</ele>
        <time>2020-06-25T10:30:01.000Z</time>
      </trkpt>
      <trkpt lat="47.26226" lon="-2.34271">
        <ele>5.8000001907349</ele>
        <time>2020-06-25T10:30:09.000Z</time>
      </trkpt>
      <trkpt lat="47.26194" lon="-2.34238">
        <ele>5.8000001907349</ele>
        <time>2020-06-25T10:30:16.000Z</time>
      </trkpt>
      <trkpt lat="47.26152" lon="-2.34196">
        <ele>5.8000001907349</ele>
        <time>2020-06-25T10:30:25.000Z</time>
      </trkpt>
      <trkpt lat="47.26143" lon="-2.34188">
        <ele>5.8000001907349</ele>
        <time>2020-06-25T10:30:27.000Z</time>
      </trkpt>
      <trkpt lat="47.26134" lon="-2.34185">
        <ele>5.8000001907349</ele>
        <time>2020-06-25T10:30:29.000Z</time>
      </trkpt>
      <trkpt lat="47.26121" lon="-2.34174">
        <ele>5.8000001907349</ele>
        <time>2020-06-25T10:30:32.000Z</time>
      </trkpt>
      <trkpt lat="47.26117" lon="-2.34169">
        <ele>5.8000001907349</ele>
        <time>2020-06-25T10:30:33.000Z</time>
      </trkpt>
      <trkpt lat="47.26091" lon="-2.34154">
        <ele>5.8000001907349</ele>
        <time>2020-06-25T10:30:38.000Z</time>
      </trkpt>
      <trkpt lat="47.26041" lon="-2.34129">
        <ele>5.8000001907349</ele>
        <time>2020-06-25T10:30:47.000Z</time>
      </trkpt>
      <trkpt lat="47.25986" lon="-2.34102">
        <ele>5.8000001907349</ele>
        <time>2020-06-25T10:30:57.000Z</time>
      </trkpt>
      <trkpt lat="47.25943" lon="-2.34082">
        <ele>5.8000001907349</ele>
        <time>2020-06-25T10:31:05.000Z</time>
      </trkpt>
      <trkpt lat="47.2591" lon="-2.3407">
        <ele>5.8000001907349</ele>
        <time>2020-06-25T10:31:11.000Z</time>
      </trkpt>
      <trkpt lat="47.25898" lon="-2.34054">
        <ele>5.8000001907349</ele>
        <time>2020-06-25T10:31:14.000Z</time>
      </trkpt>
      <trkpt lat="47.25898" lon="-2.34029">
        <ele>5.8000001907349</ele>
        <time>2020-06-25T10:31:17.000Z</time>
      </trkpt>
      <trkpt lat="47.25903" lon="-2.34013">
        <ele>5.8000001907349</ele>
        <time>2020-06-25T10:31:19.000Z</time>
      </trkpt>
      <trkpt lat="47.25913" lon="-2.33979">
        <ele>5.8000001907349</ele>
        <time>2020-06-25T10:31:23.000Z</time>
      </trkpt>
      <trkpt lat="47.25936" lon="-2.33933">
        <ele>5.8000001907349</ele>
        <time>2020-06-25T10:31:29.000Z</time>
      </trkpt>
      <trkpt lat="47.25943" lon="-2.3392">
        <ele>5.8000001907349</ele>
        <time>2020-06-25T10:31:31.000Z</time>
      </trkpt>
      <trkpt lat="47.25946" lon="-2.33907">
        <ele>5.8000001907349</ele>
        <time>2020-06-25T10:31:33.000Z</time>
      </trkpt>
      <trkpt lat="47.25953" lon="-2.33887">
        <ele>5.8000001907349</ele>
        <time>2020-06-25T10:31:36.000Z</time>
      </trkpt>
      <trkpt lat="47.25956" lon="-2.3388">
        <ele>5.8000001907349</ele>
        <time>2020-06-25T10:31:37.000Z</time>
      </trkpt>
      <trkpt lat="47.25972" lon="-2.33837">
        <ele>5.8000001907349</ele>
        <time>2020-06-25T10:31:43.000Z</time>
      </trkpt>
      <trkpt lat="47.25988" lon="-2.33784">
        <ele>5.8000001907349</ele>
        <time>2020-06-25T10:31:50.000Z</time>
      </trkpt>
      <trkpt lat="47.26008" lon="-2.33721">
        <ele>5.8000001907349</ele>
        <time>2020-06-25T10:31:58.000Z</time>
      </trkpt>
      <trkpt lat="47.26023" lon="-2.33664">
        <ele>5.8000001907349</ele>
        <time>2020-06-25T10:32:05.000Z</time>
      </trkpt>
      <trkpt lat="47.26024" lon="-2.33655">
        <ele>5.8000001907349</ele>
        <time>2020-06-25T10:32:06.000Z</time>
      </trkpt>
      <trkpt lat="47.26023" lon="-2.33629">
        <ele>5.8000001907349</ele>
        <time>2020-06-25T10:32:09.000Z</time>
      </trkpt>
      <trkpt lat="47.26022" lon="-2.3362">
        <ele>5.8000001907349</ele>
        <time>2020-06-25T10:32:10.000Z</time>
      </trkpt>
      <trkpt lat="47.26018" lon="-2.33604">
        <ele>5.4000000953674</ele>
        <time>2020-06-25T10:32:12.000Z</time>
      </trkpt>
      <trkpt lat="47.26015" lon="-2.33595">
        <ele>5</ele>
        <time>2020-06-25T10:32:13.000Z</time>
      </trkpt>
      <trkpt lat="47.26012" lon="-2.33588">
        <ele>4.5999999046326</ele>
        <time>2020-06-25T10:32:14.000Z</time>
      </trkpt>
      <trkpt lat="47.26009" lon="-2.3358">
        <ele>4.1999998092651</ele>
        <time>2020-06-25T10:32:15.000Z</time>
      </trkpt>
      <trkpt lat="47.26006" lon="-2.33572">
        <ele>3.7999999523163</ele>
        <time>2020-06-25T10:32:16.000Z</time>
      </trkpt>
      <trkpt lat="47.25992" lon="-2.33543">
        <ele>3.7999999523163</ele>
        <time>2020-06-25T10:32:20.000Z</time>
      </trkpt>
      <trkpt lat="47.25976" lon="-2.3351">
        <ele>3.7999999523163</ele>
        <time>2020-06-25T10:32:25.000Z</time>
      </trkpt>
      <trkpt lat="47.25971" lon="-2.33505">
        <ele>3.7999999523163</ele>
        <time>2020-06-25T10:32:26.000Z</time>
      </trkpt>
      <trkpt lat="47.25966" lon="-2.33492">
        <ele>3.7999999523163</ele>
        <time>2020-06-25T10:32:29.000Z</time>
      </trkpt>
      <trkpt lat="47.25973" lon="-2.33489">
        <ele>3.7999999523163</ele>
        <time>2020-06-25T10:32:31.000Z</time>
      </trkpt>
      <trkpt lat="47.25987" lon="-2.33488">
        <ele>3.7999999523163</ele>
        <time>2020-06-25T10:32:34.000Z</time>
      </trkpt>
      <trkpt lat="47.25998" lon="-2.33487">
        <ele>3.7999999523163</ele>
        <time>2020-06-25T10:32:36.000Z</time>
      </trkpt>
      <trkpt lat="47.26025" lon="-2.33481">
        <ele>3.7999999523163</ele>
        <time>2020-06-25T10:32:41.000Z</time>
      </trkpt>
      <trkpt lat="47.2603" lon="-2.33478">
        <ele>3.7999999523163</ele>
        <time>2020-06-25T10:32:42.000Z</time>
      </trkpt>
      <trkpt lat="47.26045" lon="-2.33456">
        <ele>3.7999999523163</ele>
        <time>2020-06-25T10:32:46.000Z</time>
      </trkpt>
      <trkpt lat="47.26048" lon="-2.33451">
        <ele>3.7999999523163</ele>
        <time>2020-06-25T10:32:47.000Z</time>
      </trkpt>
      <trkpt lat="47.26059" lon="-2.33438">
        <ele>3.7999999523163</ele>
        <time>2020-06-25T10:32:50.000Z</time>
      </trkpt>
      <trkpt lat="47.26067" lon="-2.33418">
        <ele>3.7999999523163</ele>
        <time>2020-06-25T10:32:53.000Z</time>
      </trkpt>
      <trkpt lat="47.26081" lon="-2.33398">
        <ele>3.7999999523163</ele>
        <time>2020-06-25T10:32:57.000Z</time>
      </trkpt>
      <trkpt lat="47.26088" lon="-2.33386">
        <ele>3.7999999523163</ele>
        <time>2020-06-25T10:33:00.000Z</time>
      </trkpt>
      <trkpt lat="47.26081" lon="-2.33365">
        <ele>3.7999999523163</ele>
        <time>2020-06-25T10:33:04.000Z</time>
      </trkpt>
      <trkpt lat="47.26065" lon="-2.33317">
        <ele>3.7999999523163</ele>
        <time>2020-06-25T10:33:11.000Z</time>
      </trkpt>
      <trkpt lat="47.26046" lon="-2.33266">
        <ele>3.7999999523163</ele>
        <time>2020-06-25T10:33:18.000Z</time>
      </trkpt>
      <trkpt lat="47.26038" lon="-2.33244">
        <ele>3.7999999523163</ele>
        <time>2020-06-25T10:33:21.000Z</time>
      </trkpt>
      <trkpt lat="47.26022" lon="-2.332">
        <ele>3.7999999523163</ele>
        <time>2020-06-25T10:33:27.000Z</time>
      </trkpt>
      <trkpt lat="47.25999" lon="-2.33135">
        <ele>3.7999999523163</ele>
        <time>2020-06-25T10:33:36.000Z</time>
      </trkpt>
      <trkpt lat="47.2598" lon="-2.33082">
        <ele>3.7999999523163</ele>
        <time>2020-06-25T10:33:43.000Z</time>
      </trkpt>
      <trkpt lat="47.25957" lon="-2.33014">
        <ele>3.7999999523163</ele>
        <time>2020-06-25T10:33:52.000Z</time>
      </trkpt>
      <trkpt lat="47.25938" lon="-2.32961">
        <ele>3.7999999523163</ele>
        <time>2020-06-25T10:33:59.000Z</time>
      </trkpt>
      <trkpt lat="47.25917" lon="-2.329">
        <ele>3.7999999523163</ele>
        <time>2020-06-25T10:34:07.000Z</time>
      </trkpt>
      <trkpt lat="47.259" lon="-2.32856">
        <ele>3.7999999523163</ele>
        <time>2020-06-25T10:34:13.000Z</time>
      </trkpt>
      <trkpt lat="47.25896" lon="-2.3285">
        <ele>3.7999999523163</ele>
        <time>2020-06-25T10:34:14.000Z</time>
      </trkpt>
      <trkpt lat="47.25893" lon="-2.32842">
        <ele>3.7999999523163</ele>
        <time>2020-06-25T10:34:15.000Z</time>
      </trkpt>
      <trkpt lat="47.25883" lon="-2.32812">
        <ele>3.7999999523163</ele>
        <time>2020-06-25T10:34:19.000Z</time>
      </trkpt>
      <trkpt lat="47.2586" lon="-2.32734">
        <ele>3.7999999523163</ele>
        <time>2020-06-25T10:34:29.000Z</time>
      </trkpt>
      <trkpt lat="47.25856" lon="-2.32719">
        <ele>3.7999999523163</ele>
        <time>2020-06-25T10:34:31.000Z</time>
      </trkpt>
      <trkpt lat="47.25835" lon="-2.32643">
        <ele>3.7999999523163</ele>
        <time>2020-06-25T10:34:41.000Z</time>
      </trkpt>
      <trkpt lat="47.25828" lon="-2.32614">
        <ele>4.1999998092651</ele>
        <time>2020-06-25T10:34:45.000Z</time>
      </trkpt>
      <trkpt lat="47.25826" lon="-2.32606">
        <ele>4.5999999046326</ele>
        <time>2020-06-25T10:34:46.000Z</time>
      </trkpt>
      <trkpt lat="47.25825" lon="-2.32598">
        <ele>5</ele>
        <time>2020-06-25T10:34:47.000Z</time>
      </trkpt>
      <trkpt lat="47.25823" lon="-2.32591">
        <ele>6</ele>
        <time>2020-06-25T10:34:48.000Z</time>
      </trkpt>
      <trkpt lat="47.25821" lon="-2.32583">
        <ele>6</ele>
        <time>2020-06-25T10:34:49.000Z</time>
      </trkpt>
      <trkpt lat="47.25805" lon="-2.32514">
        <ele>6</ele>
        <time>2020-06-25T10:34:58.000Z</time>
      </trkpt>
      <trkpt lat="47.25799" lon="-2.3248">
        <ele>6</ele>
        <time>2020-06-25T10:35:03.000Z</time>
      </trkpt>
      <trkpt lat="47.25809" lon="-2.32472">
        <ele>6</ele>
        <time>2020-06-25T10:35:06.000Z</time>
      </trkpt>
      <trkpt lat="47.25827" lon="-2.3248">
        <ele>6</ele>
        <time>2020-06-25T10:35:10.000Z</time>
      </trkpt>
      <trkpt lat="47.25846" lon="-2.32484">
        <ele>6</ele>
        <time>2020-06-25T10:35:14.000Z</time>
      </trkpt>
      <trkpt lat="47.25851" lon="-2.32484">
        <ele>6</ele>
        <time>2020-06-25T10:35:15.000Z</time>
      </trkpt>
      <trkpt lat="47.25865" lon="-2.32487">
        <ele>6</ele>
        <time>2020-06-25T10:35:18.000Z</time>
      </trkpt>
      <trkpt lat="47.25869" lon="-2.32487">
        <ele>6</ele>
        <time>2020-06-25T10:35:19.000Z</time>
      </trkpt>
      <trkpt lat="47.25878" lon="-2.32487">
        <ele>6</ele>
        <time>2020-06-25T10:35:21.000Z</time>
      </trkpt>
      <trkpt lat="47.25886" lon="-2.32481">
        <ele>6</ele>
        <time>2020-06-25T10:35:23.000Z</time>
      </trkpt>
      <trkpt lat="47.25896" lon="-2.32463">
        <ele>6</ele>
        <time>2020-06-25T10:35:27.000Z</time>
      </trkpt>
      <trkpt lat="47.25903" lon="-2.32452">
        <ele>6</ele>
        <time>2020-06-25T10:35:29.000Z</time>
      </trkpt>
      <trkpt lat="47.25914" lon="-2.32438">
        <ele>6</ele>
        <time>2020-06-25T10:35:32.000Z</time>
      </trkpt>
      <trkpt lat="47.25945" lon="-2.32395">
        <ele>6</ele>
        <time>2020-06-25T10:35:40.000Z</time>
      </trkpt>
      <trkpt lat="47.25974" lon="-2.3236">
        <ele>6</ele>
        <time>2020-06-25T10:35:47.000Z</time>
      </trkpt>
      <trkpt lat="47.26005" lon="-2.3232">
        <ele>6</ele>
        <time>2020-06-25T10:35:55.000Z</time>
      </trkpt>
      <trkpt lat="47.26033" lon="-2.32287">
        <ele>6</ele>
        <time>2020-06-25T10:36:02.000Z</time>
      </trkpt>
      <trkpt lat="47.26071" lon="-2.32245">
        <ele>6</ele>
        <time>2020-06-25T10:36:11.000Z</time>
      </trkpt>
      <trkpt lat="47.261" lon="-2.32199">
        <ele>6</ele>
        <time>2020-06-25T10:36:19.000Z</time>
      </trkpt>
      <trkpt lat="47.26119" lon="-2.32152">
        <ele>6</ele>
        <time>2020-06-25T10:36:26.000Z</time>
      </trkpt>
      <trkpt lat="47.26128" lon="-2.32123">
        <ele>6</ele>
        <time>2020-06-25T10:36:30.000Z</time>
      </trkpt>
      <trkpt lat="47.26133" lon="-2.321">
        <ele>6</ele>
        <time>2020-06-25T10:36:33.000Z</time>
      </trkpt>
      <trkpt lat="47.26144" lon="-2.32064">
        <ele>6</ele>
        <time>2020-06-25T10:36:38.000Z</time>
      </trkpt>
      <trkpt lat="47.26146" lon="-2.32057">
        <ele>6</ele>
        <time>2020-06-25T10:36:39.000Z</time>
      </trkpt>
      <trkpt lat="47.26153" lon="-2.32038">
        <ele>6</ele>
        <time>2020-06-25T10:36:42.000Z</time>
      </trkpt>
      <trkpt lat="47.26158" lon="-2.32027">
        <ele>6</ele>
        <time>2020-06-25T10:36:44.000Z</time>
      </trkpt>
      <trkpt lat="47.26162" lon="-2.32023">
        <ele>6</ele>
        <time>2020-06-25T10:36:45.000Z</time>
      </trkpt>
      <trkpt lat="47.26175" lon="-2.32022">
        <ele>6</ele>
        <time>2020-06-25T10:36:48.000Z</time>
      </trkpt>
      <trkpt lat="47.26179" lon="-2.32023">
        <ele>6</ele>
        <time>2020-06-25T10:36:49.000Z</time>
      </trkpt>
      <trkpt lat="47.26189" lon="-2.32024">
        <ele>6</ele>
        <time>2020-06-25T10:36:53.000Z</time>
      </trkpt>
      <trkpt lat="47.26192" lon="-2.32025">
        <ele>5.4000000953674</ele>
        <time>2020-06-25T10:36:56.000Z</time>
      </trkpt>
      <trkpt lat="47.26193" lon="-2.32024">
        <ele>5</ele>
        <time>2020-06-25T10:36:57.000Z</time>
      </trkpt>
      <trkpt lat="47.26193" lon="-2.32022">
        <ele>4.5999999046326</ele>
        <time>2020-06-25T10:36:58.000Z</time>
      </trkpt>
      <trkpt lat="47.26194" lon="-2.3202">
        <ele>4.1999998092651</ele>
        <time>2020-06-25T10:36:59.000Z</time>
      </trkpt>
      <trkpt lat="47.26194" lon="-2.32017">
        <ele>3.7999999523163</ele>
        <time>2020-06-25T10:37:00.000Z</time>
      </trkpt>
      <trkpt lat="47.26197" lon="-2.32013">
        <ele>3.7999999523163</ele>
        <time>2020-06-25T10:37:02.000Z</time>
      </trkpt>
      <trkpt lat="47.26202" lon="-2.32005">
        <ele>3.7999999523163</ele>
        <time>2020-06-25T10:37:04.000Z</time>
      </trkpt>
      <trkpt lat="47.26212" lon="-2.31993">
        <ele>3.7999999523163</ele>
        <time>2020-06-25T10:37:08.000Z</time>
      </trkpt>
      <trkpt lat="47.26217" lon="-2.31988">
        <ele>3.7999999523163</ele>
        <time>2020-06-25T10:37:10.000Z</time>
      </trkpt>
      <trkpt lat="47.26223" lon="-2.31985">
        <ele>3.7999999523163</ele>
        <time>2020-06-25T10:37:12.000Z</time>
      </trkpt>
      <trkpt lat="47.26234" lon="-2.31968">
        <ele>3.7999999523163</ele>
        <time>2020-06-25T10:37:16.000Z</time>
      </trkpt>
      <trkpt lat="47.2624" lon="-2.31959">
        <ele>3.7999999523163</ele>
        <time>2020-06-25T10:37:18.000Z</time>
      </trkpt>
      <trkpt lat="47.26251" lon="-2.3194">
        <ele>3.7999999523163</ele>
        <time>2020-06-25T10:37:22.000Z</time>
      </trkpt>
      <trkpt lat="47.26264" lon="-2.31919">
        <ele>3.7999999523163</ele>
        <time>2020-06-25T10:37:26.000Z</time>
      </trkpt>
      <trkpt lat="47.26269" lon="-2.31913">
        <ele>3.7999999523163</ele>
        <time>2020-06-25T10:37:27.000Z</time>
      </trkpt>
      <trkpt lat="47.26287" lon="-2.31894">
        <ele>3.7999999523163</ele>
        <time>2020-06-25T10:37:32.000Z</time>
      </trkpt>
      <trkpt lat="47.2629" lon="-2.31873">
        <ele>3.7999999523163</ele>
        <time>2020-06-25T10:37:35.000Z</time>
      </trkpt>
      <trkpt lat="47.26291" lon="-2.31866">
        <ele>3.7999999523163</ele>
        <time>2020-06-25T10:37:36.000Z</time>
      </trkpt>
      <trkpt lat="47.263" lon="-2.31814">
        <ele>3.7999999523163</ele>
        <time>2020-06-25T10:37:44.000Z</time>
      </trkpt>
      <trkpt lat="47.26302" lon="-2.31773">
        <ele>3.7999999523163</ele>
        <time>2020-06-25T10:37:50.000Z</time>
      </trkpt>
      <trkpt lat="47.26304" lon="-2.31724">
        <ele>3.7999999523163</ele>
        <time>2020-06-25T10:37:57.000Z</time>
      </trkpt>
      <trkpt lat="47.26307" lon="-2.3172">
        <ele>3.7999999523163</ele>
        <time>2020-06-25T10:37:58.000Z</time>
      </trkpt>
      <trkpt lat="47.26311" lon="-2.31717">
        <ele>3.7999999523163</ele>
        <time>2020-06-25T10:37:59.000Z</time>
      </trkpt>
      <trkpt lat="47.26319" lon="-2.31712">
        <ele>3.7999999523163</ele>
        <time>2020-06-25T10:38:01.000Z</time>
      </trkpt>
      <trkpt lat="47.2633" lon="-2.31703">
        <ele>4.1999998092651</ele>
        <time>2020-06-25T10:38:04.000Z</time>
      </trkpt>
      <trkpt lat="47.26332" lon="-2.31699">
        <ele>4.5999999046326</ele>
        <time>2020-06-25T10:38:05.000Z</time>
      </trkpt>
      <trkpt lat="47.26335" lon="-2.31694">
        <ele>5.4000000953674</ele>
        <time>2020-06-25T10:38:06.000Z</time>
      </trkpt>
      <trkpt lat="47.26338" lon="-2.31691">
        <ele>5.8000001907349</ele>
        <time>2020-06-25T10:38:07.000Z</time>
      </trkpt>
      <trkpt lat="47.26344" lon="-2.31687">
        <ele>5.8000001907349</ele>
        <time>2020-06-25T10:38:09.000Z</time>
      </trkpt>
      <trkpt lat="47.26359" lon="-2.31677">
        <ele>6.1999998092651</ele>
        <time>2020-06-25T10:38:14.000Z</time>
      </trkpt>
      <trkpt lat="47.26363" lon="-2.31675">
        <ele>6.5999999046326</ele>
        <time>2020-06-25T10:38:15.000Z</time>
      </trkpt>
      <trkpt lat="47.26366" lon="-2.31674">
        <ele>7</ele>
        <time>2020-06-25T10:38:16.000Z</time>
      </trkpt>
      <trkpt lat="47.2637" lon="-2.31673">
        <ele>7.4000000953674</ele>
        <time>2020-06-25T10:38:17.000Z</time>
      </trkpt>
      <trkpt lat="47.26373" lon="-2.31671">
        <ele>7.8000001907349</ele>
        <time>2020-06-25T10:38:18.000Z</time>
      </trkpt>
      <trkpt lat="47.26386" lon="-2.31663">
        <ele>7.8000001907349</ele>
        <time>2020-06-25T10:38:22.000Z</time>
      </trkpt>
      <trkpt lat="47.26402" lon="-2.31654">
        <ele>7.8000001907349</ele>
        <time>2020-06-25T10:38:27.000Z</time>
      </trkpt>
      <trkpt lat="47.26409" lon="-2.3164">
        <ele>7.8000001907349</ele>
        <time>2020-06-25T10:38:31.000Z</time>
      </trkpt>
      <trkpt lat="47.26408" lon="-2.31618">
        <ele>7.8000001907349</ele>
        <time>2020-06-25T10:38:37.000Z</time>
      </trkpt>
      <trkpt lat="47.26406" lon="-2.31615">
        <ele>7.8000001907349</ele>
        <time>2020-06-25T10:38:38.000Z</time>
      </trkpt>
      <trkpt lat="47.26406" lon="-2.31603">
        <ele>7.8000001907349</ele>
        <time>2020-06-25T10:38:41.000Z</time>
      </trkpt>
      <trkpt lat="47.26406" lon="-2.31599">
        <ele>7.8000001907349</ele>
        <time>2020-06-25T10:38:42.000Z</time>
      </trkpt>
      <trkpt lat="47.26406" lon="-2.31569">
        <ele>7.8000001907349</ele>
        <time>2020-06-25T10:38:48.000Z</time>
      </trkpt>
      <trkpt lat="47.26409" lon="-2.31554">
        <ele>7.8000001907349</ele>
        <time>2020-06-25T10:38:52.000Z</time>
      </trkpt>
      <trkpt lat="47.26412" lon="-2.31553">
        <ele>7.8000001907349</ele>
        <time>2020-06-25T10:38:53.000Z</time>
      </trkpt>
      <trkpt lat="47.26418" lon="-2.31553">
        <ele>7.8000001907349</ele>
        <time>2020-06-25T10:38:56.000Z</time>
      </trkpt>
      <trkpt lat="47.26419" lon="-2.31554">
        <ele>8.1999998092651</ele>
        <time>2020-06-25T10:38:57.000Z</time>
      </trkpt>
      <trkpt lat="47.2642" lon="-2.31554">
        <ele>8.6000003814697</ele>
        <time>2020-06-25T10:38:58.000Z</time>
      </trkpt>
      <trkpt lat="47.26419" lon="-2.31554">
        <ele>9</ele>
        <time>2020-06-25T10:38:59.000Z</time>
      </trkpt>
    </trkseg>
  </trk>
</gpx>